<?xml version="1.0" encoding="UTF-8" standalone="no" ?>
<gpx xmlns="http://www.topografix.com/GPX/1/1" xmlns:xsi="http://www.w3.org/2001/XMLSchema-instance" xsi:schemaLocation="http://www.topografix.com/GPX/1/1 http://www.topografix.com/GPX/1/1/gpx.xsd" version="1.1" creator="VisuGPX - https://www.visugpx.com">
  <metadata>
    <name>Boucle 30 km Fontainebleau</name>
    <desc><![CDATA[Menée par Gérard D]]></desc>
  </metadata>
  <trk>
    <name><![CDATA[SityTrail - Boucle 30 km Fontainebleau]]></name>
    <desc><![CDATA[Menée par Gérard D]]></desc>
    <trkseg>
      <trkpt lat="48.4008" lon="2.68591">
        <ele>82</ele>
        <time>2023-09-20T07:35:02.545+00:00</time>
      </trkpt>
      <trkpt lat="48.4008" lon="2.68591">
        <ele>82</ele>
        <time>2023-09-20T07:35:02.545+00:00</time>
      </trkpt>
      <trkpt lat="48.40088" lon="2.68593">
        <ele>82</ele>
        <time>2023-09-20T07:39:24.585+00:00</time>
      </trkpt>
      <trkpt lat="48.40088" lon="2.68599">
        <ele>82</ele>
        <time>2023-09-20T07:39:28.677+00:00</time>
      </trkpt>
      <trkpt lat="48.40087" lon="2.68604">
        <ele>82</ele>
        <time>2023-09-20T07:39:33.173+00:00</time>
      </trkpt>
      <trkpt lat="48.40087" lon="2.6861">
        <ele>82</ele>
        <time>2023-09-20T07:39:37.368+00:00</time>
      </trkpt>
      <trkpt lat="48.40086" lon="2.68616">
        <ele>82</ele>
        <time>2023-09-20T07:39:41.563+00:00</time>
      </trkpt>
      <trkpt lat="48.40085" lon="2.68625">
        <ele>82</ele>
        <time>2023-09-20T07:39:45.718+00:00</time>
      </trkpt>
      <trkpt lat="48.40086" lon="2.68632">
        <ele>83</ele>
        <time>2023-09-20T07:39:50.392+00:00</time>
      </trkpt>
      <trkpt lat="48.40086" lon="2.68638">
        <ele>83</ele>
        <time>2023-09-20T07:39:54.948+00:00</time>
      </trkpt>
      <trkpt lat="48.40085" lon="2.68642">
        <ele>83</ele>
        <time>2023-09-20T07:39:59.088+00:00</time>
      </trkpt>
      <trkpt lat="48.40085" lon="2.68648">
        <ele>83</ele>
        <time>2023-09-20T07:40:03.472+00:00</time>
      </trkpt>
      <trkpt lat="48.40085" lon="2.68656">
        <ele>84</ele>
        <time>2023-09-20T07:40:07.375+00:00</time>
      </trkpt>
      <trkpt lat="48.40084" lon="2.68663">
        <ele>84</ele>
        <time>2023-09-20T07:40:11.547+00:00</time>
      </trkpt>
      <trkpt lat="48.40083" lon="2.68668">
        <ele>84</ele>
        <time>2023-09-20T07:40:15.642+00:00</time>
      </trkpt>
      <trkpt lat="48.40082" lon="2.68675">
        <ele>84</ele>
        <time>2023-09-20T07:40:20.590+00:00</time>
      </trkpt>
      <trkpt lat="48.40078" lon="2.6868">
        <ele>84</ele>
        <time>2023-09-20T07:40:25.107+00:00</time>
      </trkpt>
      <trkpt lat="48.40074" lon="2.68683">
        <ele>84</ele>
        <time>2023-09-20T07:40:29.161+00:00</time>
      </trkpt>
      <trkpt lat="48.40067" lon="2.68686">
        <ele>84</ele>
        <time>2023-09-20T07:40:33.114+00:00</time>
      </trkpt>
      <trkpt lat="48.40061" lon="2.68688">
        <ele>84</ele>
        <time>2023-09-20T07:40:37.067+00:00</time>
      </trkpt>
      <trkpt lat="48.40056" lon="2.6869">
        <ele>84</ele>
        <time>2023-09-20T07:40:41.692+00:00</time>
      </trkpt>
      <trkpt lat="48.40049" lon="2.68691">
        <ele>84</ele>
        <time>2023-09-20T07:40:46.135+00:00</time>
      </trkpt>
      <trkpt lat="48.40042" lon="2.68691">
        <ele>84</ele>
        <time>2023-09-20T07:40:50.090+00:00</time>
      </trkpt>
      <trkpt lat="48.40035" lon="2.68692">
        <ele>84</ele>
        <time>2023-09-20T07:40:54.764+00:00</time>
      </trkpt>
      <trkpt lat="48.40031" lon="2.68693">
        <ele>84</ele>
        <time>2023-09-20T07:40:58.720+00:00</time>
      </trkpt>
      <trkpt lat="48.40027" lon="2.68692">
        <ele>84</ele>
        <time>2023-09-20T07:41:02.795+00:00</time>
      </trkpt>
      <trkpt lat="48.40021" lon="2.68693">
        <ele>84</ele>
        <time>2023-09-20T07:41:07.430+00:00</time>
      </trkpt>
      <trkpt lat="48.40016" lon="2.68692">
        <ele>84</ele>
        <time>2023-09-20T07:41:11.505+00:00</time>
      </trkpt>
      <trkpt lat="48.40011" lon="2.68693">
        <ele>83</ele>
        <time>2023-09-20T07:41:16.142+00:00</time>
      </trkpt>
      <trkpt lat="48.40007" lon="2.68691">
        <ele>83</ele>
        <time>2023-09-20T07:41:20.585+00:00</time>
      </trkpt>
      <trkpt lat="48.40001" lon="2.6869">
        <ele>83</ele>
        <time>2023-09-20T07:41:24.539+00:00</time>
      </trkpt>
      <trkpt lat="48.39994" lon="2.68691">
        <ele>83</ele>
        <time>2023-09-20T07:41:29.097+00:00</time>
      </trkpt>
      <trkpt lat="48.3999" lon="2.68697">
        <ele>83</ele>
        <time>2023-09-20T07:41:33.174+00:00</time>
      </trkpt>
      <trkpt lat="48.39987" lon="2.68703">
        <ele>83</ele>
        <time>2023-09-20T07:41:37.671+00:00</time>
      </trkpt>
      <trkpt lat="48.39977" lon="2.68704">
        <ele>83</ele>
        <time>2023-09-20T07:41:42.203+00:00</time>
      </trkpt>
      <trkpt lat="48.39971" lon="2.68705">
        <ele>83</ele>
        <time>2023-09-20T07:41:46.491+00:00</time>
      </trkpt>
      <trkpt lat="48.39965" lon="2.68705">
        <ele>83</ele>
        <time>2023-09-20T07:41:51.270+00:00</time>
      </trkpt>
      <trkpt lat="48.3996" lon="2.68706">
        <ele>83</ele>
        <time>2023-09-20T07:41:55.203+00:00</time>
      </trkpt>
      <trkpt lat="48.39954" lon="2.68706">
        <ele>84</ele>
        <time>2023-09-20T07:41:59.662+00:00</time>
      </trkpt>
      <trkpt lat="48.3995" lon="2.68704">
        <ele>84</ele>
        <time>2023-09-20T07:42:04.217+00:00</time>
      </trkpt>
      <trkpt lat="48.39944" lon="2.6871">
        <ele>85</ele>
        <time>2023-09-20T07:42:09.203+00:00</time>
      </trkpt>
      <trkpt lat="48.3994" lon="2.68717">
        <ele>85</ele>
        <time>2023-09-20T07:42:13.045+00:00</time>
      </trkpt>
      <trkpt lat="48.39934" lon="2.68721">
        <ele>85</ele>
        <time>2023-09-20T07:42:17.717+00:00</time>
      </trkpt>
      <trkpt lat="48.39927" lon="2.68724">
        <ele>85</ele>
        <time>2023-09-20T07:42:22.150+00:00</time>
      </trkpt>
      <trkpt lat="48.39921" lon="2.68725">
        <ele>85</ele>
        <time>2023-09-20T07:42:26.582+00:00</time>
      </trkpt>
      <trkpt lat="48.39916" lon="2.68726">
        <ele>85</ele>
        <time>2023-09-20T07:42:30.583+00:00</time>
      </trkpt>
      <trkpt lat="48.3991" lon="2.68728">
        <ele>85</ele>
        <time>2023-09-20T07:42:34.953+00:00</time>
      </trkpt>
      <trkpt lat="48.39904" lon="2.6873">
        <ele>85</ele>
        <time>2023-09-20T07:42:38.764+00:00</time>
      </trkpt>
      <trkpt lat="48.39898" lon="2.68731">
        <ele>84</ele>
        <time>2023-09-20T07:42:43.195+00:00</time>
      </trkpt>
      <trkpt lat="48.39892" lon="2.68733">
        <ele>84</ele>
        <time>2023-09-20T07:42:48.169+00:00</time>
      </trkpt>
      <trkpt lat="48.39886" lon="2.68735">
        <ele>84</ele>
        <time>2023-09-20T07:42:52.017+00:00</time>
      </trkpt>
      <trkpt lat="48.3988" lon="2.68736">
        <ele>84</ele>
        <time>2023-09-20T07:42:55.968+00:00</time>
      </trkpt>
      <trkpt lat="48.39875" lon="2.68737">
        <ele>84</ele>
        <time>2023-09-20T07:43:00.590+00:00</time>
      </trkpt>
      <trkpt lat="48.39869" lon="2.68737">
        <ele>84</ele>
        <time>2023-09-20T07:43:04.971+00:00</time>
      </trkpt>
      <trkpt lat="48.39863" lon="2.68737">
        <ele>84</ele>
        <time>2023-09-20T07:43:08.979+00:00</time>
      </trkpt>
      <trkpt lat="48.39858" lon="2.68738">
        <ele>84</ele>
        <time>2023-09-20T07:43:13.133+00:00</time>
      </trkpt>
      <trkpt lat="48.39853" lon="2.68738">
        <ele>84</ele>
        <time>2023-09-20T07:43:17.112+00:00</time>
      </trkpt>
      <trkpt lat="48.39847" lon="2.68739">
        <ele>84</ele>
        <time>2023-09-20T07:43:21.045+00:00</time>
      </trkpt>
      <trkpt lat="48.39841" lon="2.6874">
        <ele>84</ele>
        <time>2023-09-20T07:43:25.117+00:00</time>
      </trkpt>
      <trkpt lat="48.39835" lon="2.68741">
        <ele>84</ele>
        <time>2023-09-20T07:43:29.189+00:00</time>
      </trkpt>
      <trkpt lat="48.39829" lon="2.68743">
        <ele>84</ele>
        <time>2023-09-20T07:43:33.379+00:00</time>
      </trkpt>
      <trkpt lat="48.39823" lon="2.68744">
        <ele>84</ele>
        <time>2023-09-20T07:43:37.203+00:00</time>
      </trkpt>
      <trkpt lat="48.39817" lon="2.68744">
        <ele>84</ele>
        <time>2023-09-20T07:43:41.833+00:00</time>
      </trkpt>
      <trkpt lat="48.39812" lon="2.68745">
        <ele>84</ele>
        <time>2023-09-20T07:43:45.712+00:00</time>
      </trkpt>
      <trkpt lat="48.39806" lon="2.68747">
        <ele>84</ele>
        <time>2023-09-20T07:43:50.262+00:00</time>
      </trkpt>
      <trkpt lat="48.398" lon="2.68749">
        <ele>84</ele>
        <time>2023-09-20T07:43:54.796+00:00</time>
      </trkpt>
      <trkpt lat="48.39794" lon="2.6875">
        <ele>84</ele>
        <time>2023-09-20T07:43:59.002+00:00</time>
      </trkpt>
      <trkpt lat="48.39787" lon="2.68752">
        <ele>85</ele>
        <time>2023-09-20T07:44:03.394+00:00</time>
      </trkpt>
      <trkpt lat="48.39781" lon="2.68753">
        <ele>85</ele>
        <time>2023-09-20T07:44:07.502+00:00</time>
      </trkpt>
      <trkpt lat="48.39776" lon="2.68754">
        <ele>85</ele>
        <time>2023-09-20T07:44:11.334+00:00</time>
      </trkpt>
      <trkpt lat="48.3977" lon="2.68755">
        <ele>85</ele>
        <time>2023-09-20T07:44:15.880+00:00</time>
      </trkpt>
      <trkpt lat="48.39764" lon="2.68757">
        <ele>86</ele>
        <time>2023-09-20T07:44:20.030+00:00</time>
      </trkpt>
      <trkpt lat="48.39759" lon="2.68758">
        <ele>86</ele>
        <time>2023-09-20T07:44:24.219+00:00</time>
      </trkpt>
      <trkpt lat="48.39754" lon="2.68759">
        <ele>86</ele>
        <time>2023-09-20T07:44:28.328+00:00</time>
      </trkpt>
      <trkpt lat="48.39748" lon="2.6876">
        <ele>86</ele>
        <time>2023-09-20T07:44:32.597+00:00</time>
      </trkpt>
      <trkpt lat="48.39741" lon="2.68761">
        <ele>86</ele>
        <time>2023-09-20T07:44:37.202+00:00</time>
      </trkpt>
      <trkpt lat="48.39735" lon="2.68762">
        <ele>87</ele>
        <time>2023-09-20T07:44:41.593+00:00</time>
      </trkpt>
      <trkpt lat="48.39729" lon="2.68763">
        <ele>87</ele>
        <time>2023-09-20T07:44:45.896+00:00</time>
      </trkpt>
      <trkpt lat="48.39724" lon="2.68764">
        <ele>86</ele>
        <time>2023-09-20T07:44:50.594+00:00</time>
      </trkpt>
      <trkpt lat="48.39717" lon="2.68764">
        <ele>86</ele>
        <time>2023-09-20T07:44:55.227+00:00</time>
      </trkpt>
      <trkpt lat="48.39711" lon="2.68766">
        <ele>86</ele>
        <time>2023-09-20T07:44:59.292+00:00</time>
      </trkpt>
      <trkpt lat="48.39705" lon="2.68767">
        <ele>86</ele>
        <time>2023-09-20T07:45:03.419+00:00</time>
      </trkpt>
      <trkpt lat="48.39699" lon="2.68768">
        <ele>86</ele>
        <time>2023-09-20T07:45:07.448+00:00</time>
      </trkpt>
      <trkpt lat="48.39694" lon="2.68769">
        <ele>86</ele>
        <time>2023-09-20T07:45:11.556+00:00</time>
      </trkpt>
      <trkpt lat="48.39687" lon="2.6877">
        <ele>86</ele>
        <time>2023-09-20T07:45:16.060+00:00</time>
      </trkpt>
      <trkpt lat="48.3968" lon="2.68771">
        <ele>86</ele>
        <time>2023-09-20T07:45:20.125+00:00</time>
      </trkpt>
      <trkpt lat="48.39675" lon="2.68773">
        <ele>86</ele>
        <time>2023-09-20T07:45:24.169+00:00</time>
      </trkpt>
      <trkpt lat="48.39668" lon="2.68775">
        <ele>86</ele>
        <time>2023-09-20T07:45:29.173+00:00</time>
      </trkpt>
      <trkpt lat="48.39662" lon="2.68776">
        <ele>86</ele>
        <time>2023-09-20T07:45:33.697+00:00</time>
      </trkpt>
      <trkpt lat="48.39656" lon="2.68777">
        <ele>86</ele>
        <time>2023-09-20T07:45:38.421+00:00</time>
      </trkpt>
      <trkpt lat="48.3965" lon="2.68778">
        <ele>87</ele>
        <time>2023-09-20T07:45:42.573+00:00</time>
      </trkpt>
      <trkpt lat="48.39644" lon="2.68779">
        <ele>87</ele>
        <time>2023-09-20T07:45:46.671+00:00</time>
      </trkpt>
      <trkpt lat="48.39639" lon="2.6878">
        <ele>87</ele>
        <time>2023-09-20T07:45:50.707+00:00</time>
      </trkpt>
      <trkpt lat="48.39632" lon="2.6878">
        <ele>87</ele>
        <time>2023-09-20T07:45:55.285+00:00</time>
      </trkpt>
      <trkpt lat="48.39627" lon="2.68781">
        <ele>87</ele>
        <time>2023-09-20T07:45:59.334+00:00</time>
      </trkpt>
      <trkpt lat="48.39622" lon="2.68782">
        <ele>87</ele>
        <time>2023-09-20T07:46:03.599+00:00</time>
      </trkpt>
      <trkpt lat="48.39616" lon="2.68782">
        <ele>87</ele>
        <time>2023-09-20T07:46:07.868+00:00</time>
      </trkpt>
      <trkpt lat="48.39611" lon="2.68783">
        <ele>87</ele>
        <time>2023-09-20T07:46:12.053+00:00</time>
      </trkpt>
      <trkpt lat="48.39605" lon="2.68784">
        <ele>87</ele>
        <time>2023-09-20T07:46:16.120+00:00</time>
      </trkpt>
      <trkpt lat="48.39599" lon="2.68786">
        <ele>87</ele>
        <time>2023-09-20T07:46:20.286+00:00</time>
      </trkpt>
      <trkpt lat="48.39592" lon="2.68788">
        <ele>86</ele>
        <time>2023-09-20T07:46:25.271+00:00</time>
      </trkpt>
      <trkpt lat="48.39585" lon="2.68789">
        <ele>86</ele>
        <time>2023-09-20T07:46:29.794+00:00</time>
      </trkpt>
      <trkpt lat="48.39579" lon="2.68793">
        <ele>85</ele>
        <time>2023-09-20T07:46:34.418+00:00</time>
      </trkpt>
      <trkpt lat="48.39572" lon="2.68797">
        <ele>85</ele>
        <time>2023-09-20T07:46:39.442+00:00</time>
      </trkpt>
      <trkpt lat="48.39568" lon="2.68805">
        <ele>85</ele>
        <time>2023-09-20T07:46:43.946+00:00</time>
      </trkpt>
      <trkpt lat="48.39569" lon="2.68814">
        <ele>85</ele>
        <time>2023-09-20T07:46:48.583+00:00</time>
      </trkpt>
      <trkpt lat="48.39569" lon="2.6882">
        <ele>85</ele>
        <time>2023-09-20T07:46:52.598+00:00</time>
      </trkpt>
      <trkpt lat="48.39565" lon="2.68825">
        <ele>85</ele>
        <time>2023-09-20T07:46:56.885+00:00</time>
      </trkpt>
      <trkpt lat="48.39559" lon="2.68823">
        <ele>85</ele>
        <time>2023-09-20T07:47:01.192+00:00</time>
      </trkpt>
      <trkpt lat="48.39555" lon="2.6882">
        <ele>85</ele>
        <time>2023-09-20T07:47:05.519+00:00</time>
      </trkpt>
      <trkpt lat="48.39553" lon="2.68812">
        <ele>85</ele>
        <time>2023-09-20T07:47:09.586+00:00</time>
      </trkpt>
      <trkpt lat="48.3955" lon="2.68803">
        <ele>85</ele>
        <time>2023-09-20T07:47:14.228+00:00</time>
      </trkpt>
      <trkpt lat="48.39547" lon="2.68794">
        <ele>85</ele>
        <time>2023-09-20T07:47:18.335+00:00</time>
      </trkpt>
      <trkpt lat="48.39543" lon="2.6879">
        <ele>85</ele>
        <time>2023-09-20T07:47:22.342+00:00</time>
      </trkpt>
      <trkpt lat="48.39538" lon="2.68789">
        <ele>87</ele>
        <time>2023-09-20T07:47:26.728+00:00</time>
      </trkpt>
      <trkpt lat="48.39533" lon="2.68787">
        <ele>87</ele>
        <time>2023-09-20T07:47:30.957+00:00</time>
      </trkpt>
      <trkpt lat="48.39529" lon="2.68784">
        <ele>87</ele>
        <time>2023-09-20T07:47:35.303+00:00</time>
      </trkpt>
      <trkpt lat="48.39524" lon="2.6878">
        <ele>87</ele>
        <time>2023-09-20T07:47:39.429+00:00</time>
      </trkpt>
      <trkpt lat="48.39519" lon="2.68779">
        <ele>87</ele>
        <time>2023-09-20T07:47:43.736+00:00</time>
      </trkpt>
      <trkpt lat="48.39514" lon="2.68779">
        <ele>87</ele>
        <time>2023-09-20T07:47:47.943+00:00</time>
      </trkpt>
      <trkpt lat="48.39509" lon="2.68776">
        <ele>88</ele>
        <time>2023-09-20T07:47:52.130+00:00</time>
      </trkpt>
      <trkpt lat="48.39504" lon="2.68773">
        <ele>88</ele>
        <time>2023-09-20T07:47:56.378+00:00</time>
      </trkpt>
      <trkpt lat="48.39498" lon="2.6877">
        <ele>88</ele>
        <time>2023-09-20T07:48:01.299+00:00</time>
      </trkpt>
      <trkpt lat="48.39492" lon="2.68768">
        <ele>88</ele>
        <time>2023-09-20T07:48:05.592+00:00</time>
      </trkpt>
      <trkpt lat="48.39487" lon="2.68765">
        <ele>88</ele>
        <time>2023-09-20T07:48:09.892+00:00</time>
      </trkpt>
      <trkpt lat="48.39482" lon="2.68763">
        <ele>88</ele>
        <time>2023-09-20T07:48:14.597+00:00</time>
      </trkpt>
      <trkpt lat="48.39476" lon="2.68762">
        <ele>88</ele>
        <time>2023-09-20T07:48:19.117+00:00</time>
      </trkpt>
      <trkpt lat="48.39471" lon="2.68762">
        <ele>88</ele>
        <time>2023-09-20T07:48:23.122+00:00</time>
      </trkpt>
      <trkpt lat="48.39466" lon="2.68761">
        <ele>88</ele>
        <time>2023-09-20T07:48:27.505+00:00</time>
      </trkpt>
      <trkpt lat="48.39461" lon="2.68759">
        <ele>88</ele>
        <time>2023-09-20T07:48:31.714+00:00</time>
      </trkpt>
      <trkpt lat="48.39455" lon="2.68756">
        <ele>89</ele>
        <time>2023-09-20T07:48:36.256+00:00</time>
      </trkpt>
      <trkpt lat="48.3945" lon="2.68753">
        <ele>89</ele>
        <time>2023-09-20T07:48:40.568+00:00</time>
      </trkpt>
      <trkpt lat="48.39446" lon="2.68752">
        <ele>89</ele>
        <time>2023-09-20T07:48:45.094+00:00</time>
      </trkpt>
      <trkpt lat="48.39442" lon="2.68751">
        <ele>89</ele>
        <time>2023-09-20T07:48:49.602+00:00</time>
      </trkpt>
      <trkpt lat="48.39438" lon="2.68749">
        <ele>89</ele>
        <time>2023-09-20T07:48:53.830+00:00</time>
      </trkpt>
      <trkpt lat="48.39428" lon="2.68746">
        <ele>86</ele>
        <time>2023-09-20T07:49:16.449+00:00</time>
      </trkpt>
      <trkpt lat="48.39428" lon="2.68755">
        <ele>86</ele>
        <time>2023-09-20T07:49:20.952+00:00</time>
      </trkpt>
      <trkpt lat="48.39429" lon="2.68761">
        <ele>86</ele>
        <time>2023-09-20T07:49:25.218+00:00</time>
      </trkpt>
      <trkpt lat="48.3943" lon="2.68764">
        <ele>86</ele>
        <time>2023-09-20T07:49:29.548+00:00</time>
      </trkpt>
      <trkpt lat="48.39432" lon="2.68765">
        <ele>89</ele>
        <time>2023-09-20T07:49:33.579+00:00</time>
      </trkpt>
      <trkpt lat="48.39431" lon="2.68768">
        <ele>89</ele>
        <time>2023-09-20T07:50:13.951+00:00</time>
      </trkpt>
      <trkpt lat="48.39439" lon="2.68757">
        <ele>89</ele>
        <time>2023-09-20T07:50:18.040+00:00</time>
      </trkpt>
      <trkpt lat="48.39439" lon="2.68751">
        <ele>89</ele>
        <time>2023-09-20T07:50:22.192+00:00</time>
      </trkpt>
      <trkpt lat="48.39436" lon="2.68746">
        <ele>89</ele>
        <time>2023-09-20T07:50:26.516+00:00</time>
      </trkpt>
      <trkpt lat="48.39431" lon="2.68744">
        <ele>89</ele>
        <time>2023-09-20T07:50:30.582+00:00</time>
      </trkpt>
      <trkpt lat="48.39418" lon="2.68745">
        <ele>86</ele>
        <time>2023-09-20T07:51:46.597+00:00</time>
      </trkpt>
      <trkpt lat="48.39418" lon="2.68745">
        <ele>86</ele>
        <time>2023-09-20T07:51:51.552+00:00</time>
      </trkpt>
      <trkpt lat="48.39417" lon="2.68745">
        <ele>86</ele>
        <time>2023-09-20T07:51:55.563+00:00</time>
      </trkpt>
      <trkpt lat="48.39416" lon="2.68743">
        <ele>86</ele>
        <time>2023-09-20T07:51:59.603+00:00</time>
      </trkpt>
      <trkpt lat="48.39411" lon="2.68745">
        <ele>86</ele>
        <time>2023-09-20T07:52:03.598+00:00</time>
      </trkpt>
      <trkpt lat="48.39407" lon="2.68744">
        <ele>86</ele>
        <time>2023-09-20T07:52:08.581+00:00</time>
      </trkpt>
      <trkpt lat="48.39401" lon="2.68739">
        <ele>84</ele>
        <time>2023-09-20T07:52:13.456+00:00</time>
      </trkpt>
      <trkpt lat="48.39396" lon="2.68735">
        <ele>84</ele>
        <time>2023-09-20T07:52:17.885+00:00</time>
      </trkpt>
      <trkpt lat="48.39391" lon="2.68732">
        <ele>84</ele>
        <time>2023-09-20T07:52:22.350+00:00</time>
      </trkpt>
      <trkpt lat="48.39386" lon="2.6873">
        <ele>84</ele>
        <time>2023-09-20T07:52:26.823+00:00</time>
      </trkpt>
      <trkpt lat="48.3938" lon="2.68729">
        <ele>84</ele>
        <time>2023-09-20T07:52:31.126+00:00</time>
      </trkpt>
      <trkpt lat="48.39374" lon="2.68727">
        <ele>83</ele>
        <time>2023-09-20T07:52:35.587+00:00</time>
      </trkpt>
      <trkpt lat="48.39369" lon="2.68726">
        <ele>83</ele>
        <time>2023-09-20T07:52:39.783+00:00</time>
      </trkpt>
      <trkpt lat="48.39363" lon="2.68724">
        <ele>83</ele>
        <time>2023-09-20T07:52:44.154+00:00</time>
      </trkpt>
      <trkpt lat="48.39357" lon="2.68721">
        <ele>83</ele>
        <time>2023-09-20T07:52:48.462+00:00</time>
      </trkpt>
      <trkpt lat="48.39351" lon="2.68719">
        <ele>83</ele>
        <time>2023-09-20T07:52:52.809+00:00</time>
      </trkpt>
      <trkpt lat="48.39346" lon="2.68719">
        <ele>84</ele>
        <time>2023-09-20T07:52:57.136+00:00</time>
      </trkpt>
      <trkpt lat="48.39341" lon="2.68718">
        <ele>84</ele>
        <time>2023-09-20T07:53:01.571+00:00</time>
      </trkpt>
      <trkpt lat="48.39336" lon="2.68715">
        <ele>84</ele>
        <time>2023-09-20T07:53:05.976+00:00</time>
      </trkpt>
      <trkpt lat="48.39331" lon="2.68713">
        <ele>84</ele>
        <time>2023-09-20T07:53:10.380+00:00</time>
      </trkpt>
      <trkpt lat="48.39325" lon="2.68712">
        <ele>84</ele>
        <time>2023-09-20T07:53:14.605+00:00</time>
      </trkpt>
      <trkpt lat="48.39319" lon="2.6871">
        <ele>84</ele>
        <time>2023-09-20T07:53:18.983+00:00</time>
      </trkpt>
      <trkpt lat="48.39314" lon="2.68706">
        <ele>83</ele>
        <time>2023-09-20T07:53:23.292+00:00</time>
      </trkpt>
      <trkpt lat="48.39307" lon="2.68704">
        <ele>83</ele>
        <time>2023-09-20T07:53:27.594+00:00</time>
      </trkpt>
      <trkpt lat="48.39301" lon="2.68703">
        <ele>83</ele>
        <time>2023-09-20T07:53:31.957+00:00</time>
      </trkpt>
      <trkpt lat="48.39292" lon="2.68696">
        <ele>83</ele>
        <time>2023-09-20T07:53:40.263+00:00</time>
      </trkpt>
      <trkpt lat="48.39291" lon="2.68694">
        <ele>83</ele>
        <time>2023-09-20T07:53:44.456+00:00</time>
      </trkpt>
      <trkpt lat="48.39291" lon="2.68692">
        <ele>83</ele>
        <time>2023-09-20T07:53:48.586+00:00</time>
      </trkpt>
      <trkpt lat="48.3929" lon="2.68691">
        <ele>83</ele>
        <time>2023-09-20T07:53:52.596+00:00</time>
      </trkpt>
      <trkpt lat="48.39288" lon="2.68685">
        <ele>83</ele>
        <time>2023-09-20T07:53:57.408+00:00</time>
      </trkpt>
      <trkpt lat="48.39285" lon="2.68678">
        <ele>82</ele>
        <time>2023-09-20T07:54:01.435+00:00</time>
      </trkpt>
      <trkpt lat="48.39284" lon="2.68671">
        <ele>82</ele>
        <time>2023-09-20T07:54:05.907+00:00</time>
      </trkpt>
      <trkpt lat="48.39283" lon="2.68664">
        <ele>82</ele>
        <time>2023-09-20T07:54:10.391+00:00</time>
      </trkpt>
      <trkpt lat="48.39281" lon="2.68657">
        <ele>82</ele>
        <time>2023-09-20T07:54:15.219+00:00</time>
      </trkpt>
      <trkpt lat="48.39278" lon="2.6865">
        <ele>81</ele>
        <time>2023-09-20T07:54:19.747+00:00</time>
      </trkpt>
      <trkpt lat="48.39276" lon="2.68644">
        <ele>81</ele>
        <time>2023-09-20T07:54:24.296+00:00</time>
      </trkpt>
      <trkpt lat="48.39274" lon="2.68638">
        <ele>81</ele>
        <time>2023-09-20T07:54:28.903+00:00</time>
      </trkpt>
      <trkpt lat="48.39272" lon="2.68633">
        <ele>81</ele>
        <time>2023-09-20T07:54:32.914+00:00</time>
      </trkpt>
      <trkpt lat="48.39268" lon="2.68624">
        <ele>81</ele>
        <time>2023-09-20T07:54:37.341+00:00</time>
      </trkpt>
      <trkpt lat="48.39265" lon="2.68616">
        <ele>81</ele>
        <time>2023-09-20T07:54:41.746+00:00</time>
      </trkpt>
      <trkpt lat="48.39262" lon="2.68609">
        <ele>81</ele>
        <time>2023-09-20T07:54:46.115+00:00</time>
      </trkpt>
      <trkpt lat="48.39259" lon="2.68602">
        <ele>81</ele>
        <time>2023-09-20T07:54:50.503+00:00</time>
      </trkpt>
      <trkpt lat="48.39256" lon="2.68595">
        <ele>79</ele>
        <time>2023-09-20T07:54:54.608+00:00</time>
      </trkpt>
      <trkpt lat="48.39253" lon="2.68588">
        <ele>79</ele>
        <time>2023-09-20T07:54:58.839+00:00</time>
      </trkpt>
      <trkpt lat="48.3925" lon="2.6858">
        <ele>79</ele>
        <time>2023-09-20T07:55:03.127+00:00</time>
      </trkpt>
      <trkpt lat="48.39247" lon="2.68574">
        <ele>79</ele>
        <time>2023-09-20T07:55:07.453+00:00</time>
      </trkpt>
      <trkpt lat="48.39244" lon="2.68567">
        <ele>78</ele>
        <time>2023-09-20T07:55:11.760+00:00</time>
      </trkpt>
      <trkpt lat="48.39241" lon="2.68558">
        <ele>78</ele>
        <time>2023-09-20T07:55:16.365+00:00</time>
      </trkpt>
      <trkpt lat="48.39238" lon="2.68551">
        <ele>78</ele>
        <time>2023-09-20T07:55:20.474+00:00</time>
      </trkpt>
      <trkpt lat="48.39234" lon="2.68544">
        <ele>79</ele>
        <time>2023-09-20T07:55:24.598+00:00</time>
      </trkpt>
      <trkpt lat="48.39231" lon="2.68536">
        <ele>79</ele>
        <time>2023-09-20T07:55:29.347+00:00</time>
      </trkpt>
      <trkpt lat="48.39228" lon="2.68527">
        <ele>79</ele>
        <time>2023-09-20T07:55:33.538+00:00</time>
      </trkpt>
      <trkpt lat="48.39225" lon="2.68517">
        <ele>79</ele>
        <time>2023-09-20T07:55:38.138+00:00</time>
      </trkpt>
      <trkpt lat="48.39222" lon="2.6851">
        <ele>79</ele>
        <time>2023-09-20T07:55:42.573+00:00</time>
      </trkpt>
      <trkpt lat="48.39218" lon="2.68502">
        <ele>79</ele>
        <time>2023-09-20T07:55:47.387+00:00</time>
      </trkpt>
      <trkpt lat="48.39213" lon="2.68492">
        <ele>79</ele>
        <time>2023-09-20T07:55:51.579+00:00</time>
      </trkpt>
      <trkpt lat="48.39209" lon="2.68483">
        <ele>78</ele>
        <time>2023-09-20T07:55:55.842+00:00</time>
      </trkpt>
      <trkpt lat="48.39206" lon="2.68474">
        <ele>79</ele>
        <time>2023-09-20T07:56:00.586+00:00</time>
      </trkpt>
      <trkpt lat="48.39204" lon="2.68465">
        <ele>79</ele>
        <time>2023-09-20T07:56:05.356+00:00</time>
      </trkpt>
      <trkpt lat="48.39201" lon="2.68456">
        <ele>79</ele>
        <time>2023-09-20T07:56:10.578+00:00</time>
      </trkpt>
      <trkpt lat="48.39198" lon="2.68449">
        <ele>79</ele>
        <time>2023-09-20T07:56:15.426+00:00</time>
      </trkpt>
      <trkpt lat="48.39195" lon="2.68442">
        <ele>79</ele>
        <time>2023-09-20T07:56:19.592+00:00</time>
      </trkpt>
      <trkpt lat="48.39193" lon="2.68436">
        <ele>79</ele>
        <time>2023-09-20T07:56:23.683+00:00</time>
      </trkpt>
      <trkpt lat="48.39191" lon="2.68428">
        <ele>80</ele>
        <time>2023-09-20T07:56:28.467+00:00</time>
      </trkpt>
      <trkpt lat="48.39188" lon="2.68421">
        <ele>80</ele>
        <time>2023-09-20T07:56:32.603+00:00</time>
      </trkpt>
      <trkpt lat="48.39186" lon="2.68414">
        <ele>80</ele>
        <time>2023-09-20T07:56:36.919+00:00</time>
      </trkpt>
      <trkpt lat="48.39182" lon="2.68407">
        <ele>80</ele>
        <time>2023-09-20T07:56:41.464+00:00</time>
      </trkpt>
      <trkpt lat="48.39176" lon="2.68405">
        <ele>81</ele>
        <time>2023-09-20T07:56:45.748+00:00</time>
      </trkpt>
      <trkpt lat="48.39169" lon="2.68408">
        <ele>81</ele>
        <time>2023-09-20T07:56:50.152+00:00</time>
      </trkpt>
      <trkpt lat="48.39163" lon="2.68416">
        <ele>81</ele>
        <time>2023-09-20T07:56:54.587+00:00</time>
      </trkpt>
      <trkpt lat="48.39159" lon="2.68424">
        <ele>81</ele>
        <time>2023-09-20T07:56:59.106+00:00</time>
      </trkpt>
      <trkpt lat="48.39155" lon="2.68431">
        <ele>81</ele>
        <time>2023-09-20T07:57:03.496+00:00</time>
      </trkpt>
      <trkpt lat="48.39152" lon="2.68436">
        <ele>82</ele>
        <time>2023-09-20T07:57:07.744+00:00</time>
      </trkpt>
      <trkpt lat="48.39147" lon="2.68442">
        <ele>82</ele>
        <time>2023-09-20T07:57:12.611+00:00</time>
      </trkpt>
      <trkpt lat="48.39143" lon="2.68448">
        <ele>82</ele>
        <time>2023-09-20T07:57:17.097+00:00</time>
      </trkpt>
      <trkpt lat="48.39139" lon="2.68453">
        <ele>82</ele>
        <time>2023-09-20T07:57:21.501+00:00</time>
      </trkpt>
      <trkpt lat="48.39134" lon="2.68457">
        <ele>82</ele>
        <time>2023-09-20T07:57:25.830+00:00</time>
      </trkpt>
      <trkpt lat="48.39129" lon="2.68463">
        <ele>82</ele>
        <time>2023-09-20T07:57:30.474+00:00</time>
      </trkpt>
      <trkpt lat="48.39125" lon="2.68467">
        <ele>82</ele>
        <time>2023-09-20T07:57:34.541+00:00</time>
      </trkpt>
      <trkpt lat="48.39122" lon="2.68472">
        <ele>84</ele>
        <time>2023-09-20T07:57:38.587+00:00</time>
      </trkpt>
      <trkpt lat="48.39118" lon="2.68477">
        <ele>84</ele>
        <time>2023-09-20T07:57:42.591+00:00</time>
      </trkpt>
      <trkpt lat="48.39114" lon="2.68482">
        <ele>84</ele>
        <time>2023-09-20T07:57:46.945+00:00</time>
      </trkpt>
      <trkpt lat="48.39109" lon="2.68487">
        <ele>83</ele>
        <time>2023-09-20T07:57:51.602+00:00</time>
      </trkpt>
      <trkpt lat="48.39104" lon="2.68492">
        <ele>83</ele>
        <time>2023-09-20T07:57:56.408+00:00</time>
      </trkpt>
      <trkpt lat="48.39099" lon="2.68497">
        <ele>83</ele>
        <time>2023-09-20T07:58:00.692+00:00</time>
      </trkpt>
      <trkpt lat="48.39095" lon="2.68503">
        <ele>83</ele>
        <time>2023-09-20T07:58:04.797+00:00</time>
      </trkpt>
      <trkpt lat="48.3909" lon="2.68509">
        <ele>83</ele>
        <time>2023-09-20T07:58:09.569+00:00</time>
      </trkpt>
      <trkpt lat="48.39085" lon="2.68516">
        <ele>82</ele>
        <time>2023-09-20T07:58:14.403+00:00</time>
      </trkpt>
      <trkpt lat="48.3908" lon="2.68521">
        <ele>82</ele>
        <time>2023-09-20T07:58:18.829+00:00</time>
      </trkpt>
      <trkpt lat="48.39076" lon="2.68526">
        <ele>82</ele>
        <time>2023-09-20T07:58:23.431+00:00</time>
      </trkpt>
      <trkpt lat="48.39072" lon="2.68531">
        <ele>82</ele>
        <time>2023-09-20T07:58:28.076+00:00</time>
      </trkpt>
      <trkpt lat="48.39068" lon="2.68536">
        <ele>84</ele>
        <time>2023-09-20T07:58:32.518+00:00</time>
      </trkpt>
      <trkpt lat="48.39064" lon="2.68542">
        <ele>83</ele>
        <time>2023-09-20T07:58:36.961+00:00</time>
      </trkpt>
      <trkpt lat="48.39059" lon="2.68547">
        <ele>83</ele>
        <time>2023-09-20T07:58:41.248+00:00</time>
      </trkpt>
      <trkpt lat="48.39055" lon="2.68552">
        <ele>83</ele>
        <time>2023-09-20T07:58:45.592+00:00</time>
      </trkpt>
      <trkpt lat="48.39052" lon="2.68557">
        <ele>83</ele>
        <time>2023-09-20T07:58:49.862+00:00</time>
      </trkpt>
      <trkpt lat="48.39049" lon="2.68562">
        <ele>83</ele>
        <time>2023-09-20T07:58:54.582+00:00</time>
      </trkpt>
      <trkpt lat="48.39045" lon="2.68567">
        <ele>83</ele>
        <time>2023-09-20T07:58:59.130+00:00</time>
      </trkpt>
      <trkpt lat="48.3904" lon="2.68573">
        <ele>83</ele>
        <time>2023-09-20T07:59:03.495+00:00</time>
      </trkpt>
      <trkpt lat="48.39035" lon="2.68578">
        <ele>83</ele>
        <time>2023-09-20T07:59:07.598+00:00</time>
      </trkpt>
      <trkpt lat="48.39028" lon="2.68583">
        <ele>83</ele>
        <time>2023-09-20T07:59:12.005+00:00</time>
      </trkpt>
      <trkpt lat="48.39022" lon="2.68586">
        <ele>83</ele>
        <time>2023-09-20T07:59:16.228+00:00</time>
      </trkpt>
      <trkpt lat="48.39015" lon="2.68586">
        <ele>83</ele>
        <time>2023-09-20T07:59:20.447+00:00</time>
      </trkpt>
      <trkpt lat="48.39011" lon="2.68589">
        <ele>81</ele>
        <time>2023-09-20T07:59:24.577+00:00</time>
      </trkpt>
      <trkpt lat="48.3901" lon="2.68595">
        <ele>81</ele>
        <time>2023-09-20T07:59:29.544+00:00</time>
      </trkpt>
      <trkpt lat="48.39011" lon="2.68596">
        <ele>81</ele>
        <time>2023-09-20T07:59:34.193+00:00</time>
      </trkpt>
      <trkpt lat="48.39008" lon="2.68595">
        <ele>81</ele>
        <time>2023-09-20T07:59:38.572+00:00</time>
      </trkpt>
      <trkpt lat="48.39003" lon="2.68597">
        <ele>81</ele>
        <time>2023-09-20T07:59:42.688+00:00</time>
      </trkpt>
      <trkpt lat="48.38993" lon="2.68591">
        <ele>81</ele>
        <time>2023-09-20T07:59:47.474+00:00</time>
      </trkpt>
      <trkpt lat="48.38985" lon="2.68586">
        <ele>79</ele>
        <time>2023-09-20T07:59:51.798+00:00</time>
      </trkpt>
      <trkpt lat="48.3898" lon="2.68581">
        <ele>79</ele>
        <time>2023-09-20T07:59:56.186+00:00</time>
      </trkpt>
      <trkpt lat="48.38974" lon="2.6858">
        <ele>79</ele>
        <time>2023-09-20T08:00:00.408+00:00</time>
      </trkpt>
      <trkpt lat="48.38969" lon="2.68579">
        <ele>79</ele>
        <time>2023-09-20T08:00:04.626+00:00</time>
      </trkpt>
      <trkpt lat="48.38962" lon="2.68578">
        <ele>79</ele>
        <time>2023-09-20T08:00:09.207+00:00</time>
      </trkpt>
      <trkpt lat="48.38956" lon="2.68576">
        <ele>77</ele>
        <time>2023-09-20T08:00:13.685+00:00</time>
      </trkpt>
      <trkpt lat="48.38951" lon="2.68573">
        <ele>77</ele>
        <time>2023-09-20T08:00:18.006+00:00</time>
      </trkpt>
      <trkpt lat="48.38945" lon="2.68571">
        <ele>77</ele>
        <time>2023-09-20T08:00:22.226+00:00</time>
      </trkpt>
      <trkpt lat="48.3894" lon="2.68568">
        <ele>77</ele>
        <time>2023-09-20T08:00:26.706+00:00</time>
      </trkpt>
      <trkpt lat="48.38935" lon="2.68563">
        <ele>77</ele>
        <time>2023-09-20T08:00:31.366+00:00</time>
      </trkpt>
      <trkpt lat="48.38928" lon="2.68558">
        <ele>77</ele>
        <time>2023-09-20T08:00:36.327+00:00</time>
      </trkpt>
      <trkpt lat="48.38923" lon="2.68555">
        <ele>77</ele>
        <time>2023-09-20T08:00:40.510+00:00</time>
      </trkpt>
      <trkpt lat="48.38918" lon="2.68555">
        <ele>77</ele>
        <time>2023-09-20T08:00:44.875+00:00</time>
      </trkpt>
      <trkpt lat="48.38913" lon="2.68555">
        <ele>77</ele>
        <time>2023-09-20T08:00:48.895+00:00</time>
      </trkpt>
      <trkpt lat="48.38906" lon="2.68552">
        <ele>77</ele>
        <time>2023-09-20T08:00:53.558+00:00</time>
      </trkpt>
      <trkpt lat="48.389" lon="2.68551">
        <ele>78</ele>
        <time>2023-09-20T08:00:58.183+00:00</time>
      </trkpt>
      <trkpt lat="48.38895" lon="2.68549">
        <ele>78</ele>
        <time>2023-09-20T08:01:02.508+00:00</time>
      </trkpt>
      <trkpt lat="48.38888" lon="2.68548">
        <ele>78</ele>
        <time>2023-09-20T08:01:07.011+00:00</time>
      </trkpt>
      <trkpt lat="48.38884" lon="2.68548">
        <ele>78</ele>
        <time>2023-09-20T08:01:11.035+00:00</time>
      </trkpt>
      <trkpt lat="48.38878" lon="2.68548">
        <ele>78</ele>
        <time>2023-09-20T08:01:15.566+00:00</time>
      </trkpt>
      <trkpt lat="48.38872" lon="2.68547">
        <ele>79</ele>
        <time>2023-09-20T08:01:20.533+00:00</time>
      </trkpt>
      <trkpt lat="48.38865" lon="2.68544">
        <ele>79</ele>
        <time>2023-09-20T08:01:24.927+00:00</time>
      </trkpt>
      <trkpt lat="48.38859" lon="2.6854">
        <ele>79</ele>
        <time>2023-09-20T08:01:29.398+00:00</time>
      </trkpt>
      <trkpt lat="48.38853" lon="2.68537">
        <ele>79</ele>
        <time>2023-09-20T08:01:33.850+00:00</time>
      </trkpt>
      <trkpt lat="48.38847" lon="2.68535">
        <ele>79</ele>
        <time>2023-09-20T08:01:38.062+00:00</time>
      </trkpt>
      <trkpt lat="48.38843" lon="2.68531">
        <ele>81</ele>
        <time>2023-09-20T08:01:42.338+00:00</time>
      </trkpt>
      <trkpt lat="48.38838" lon="2.68529">
        <ele>81</ele>
        <time>2023-09-20T08:01:46.737+00:00</time>
      </trkpt>
      <trkpt lat="48.38832" lon="2.68527">
        <ele>81</ele>
        <time>2023-09-20T08:01:51.131+00:00</time>
      </trkpt>
      <trkpt lat="48.38827" lon="2.68526">
        <ele>81</ele>
        <time>2023-09-20T08:01:55.593+00:00</time>
      </trkpt>
      <trkpt lat="48.38821" lon="2.68525">
        <ele>81</ele>
        <time>2023-09-20T08:02:00.268+00:00</time>
      </trkpt>
      <trkpt lat="48.38815" lon="2.68523">
        <ele>82</ele>
        <time>2023-09-20T08:02:04.603+00:00</time>
      </trkpt>
      <trkpt lat="48.3881" lon="2.6852">
        <ele>82</ele>
        <time>2023-09-20T08:02:09.127+00:00</time>
      </trkpt>
      <trkpt lat="48.38804" lon="2.68518">
        <ele>82</ele>
        <time>2023-09-20T08:02:13.242+00:00</time>
      </trkpt>
      <trkpt lat="48.38799" lon="2.68516">
        <ele>82</ele>
        <time>2023-09-20T08:02:17.599+00:00</time>
      </trkpt>
      <trkpt lat="48.38793" lon="2.68514">
        <ele>82</ele>
        <time>2023-09-20T08:02:22.099+00:00</time>
      </trkpt>
      <trkpt lat="48.38788" lon="2.68512">
        <ele>82</ele>
        <time>2023-09-20T08:02:26.567+00:00</time>
      </trkpt>
      <trkpt lat="48.38782" lon="2.6851">
        <ele>82</ele>
        <time>2023-09-20T08:02:30.624+00:00</time>
      </trkpt>
      <trkpt lat="48.38775" lon="2.68508">
        <ele>82</ele>
        <time>2023-09-20T08:02:35.602+00:00</time>
      </trkpt>
      <trkpt lat="48.38768" lon="2.68506">
        <ele>82</ele>
        <time>2023-09-20T08:02:40.608+00:00</time>
      </trkpt>
      <trkpt lat="48.38762" lon="2.68503">
        <ele>83</ele>
        <time>2023-09-20T08:02:45.295+00:00</time>
      </trkpt>
      <trkpt lat="48.38756" lon="2.685">
        <ele>83</ele>
        <time>2023-09-20T08:02:49.584+00:00</time>
      </trkpt>
      <trkpt lat="48.3875" lon="2.68497">
        <ele>83</ele>
        <time>2023-09-20T08:02:53.954+00:00</time>
      </trkpt>
      <trkpt lat="48.38744" lon="2.68495">
        <ele>83</ele>
        <time>2023-09-20T08:02:58.303+00:00</time>
      </trkpt>
      <trkpt lat="48.38739" lon="2.68493">
        <ele>83</ele>
        <time>2023-09-20T08:03:02.834+00:00</time>
      </trkpt>
      <trkpt lat="48.38732" lon="2.68493">
        <ele>82</ele>
        <time>2023-09-20T08:03:07.267+00:00</time>
      </trkpt>
      <trkpt lat="48.38727" lon="2.68494">
        <ele>82</ele>
        <time>2023-09-20T08:03:11.679+00:00</time>
      </trkpt>
      <trkpt lat="48.38722" lon="2.68493">
        <ele>82</ele>
        <time>2023-09-20T08:03:16.170+00:00</time>
      </trkpt>
      <trkpt lat="48.38718" lon="2.68494">
        <ele>82</ele>
        <time>2023-09-20T08:03:20.699+00:00</time>
      </trkpt>
      <trkpt lat="48.38713" lon="2.68493">
        <ele>82</ele>
        <time>2023-09-20T08:03:25.289+00:00</time>
      </trkpt>
      <trkpt lat="48.38707" lon="2.68493">
        <ele>85</ele>
        <time>2023-09-20T08:03:29.720+00:00</time>
      </trkpt>
      <trkpt lat="48.38701" lon="2.68493">
        <ele>85</ele>
        <time>2023-09-20T08:03:34.168+00:00</time>
      </trkpt>
      <trkpt lat="48.38695" lon="2.68494">
        <ele>85</ele>
        <time>2023-09-20T08:03:38.619+00:00</time>
      </trkpt>
      <trkpt lat="48.38689" lon="2.68495">
        <ele>85</ele>
        <time>2023-09-20T08:03:43.088+00:00</time>
      </trkpt>
      <trkpt lat="48.38684" lon="2.68496">
        <ele>85</ele>
        <time>2023-09-20T08:03:47.537+00:00</time>
      </trkpt>
      <trkpt lat="48.38677" lon="2.68496">
        <ele>89</ele>
        <time>2023-09-20T08:03:52.023+00:00</time>
      </trkpt>
      <trkpt lat="48.38672" lon="2.68496">
        <ele>89</ele>
        <time>2023-09-20T08:03:56.549+00:00</time>
      </trkpt>
      <trkpt lat="48.38665" lon="2.68496">
        <ele>89</ele>
        <time>2023-09-20T08:04:01.216+00:00</time>
      </trkpt>
      <trkpt lat="48.38659" lon="2.68496">
        <ele>89</ele>
        <time>2023-09-20T08:04:05.804+00:00</time>
      </trkpt>
      <trkpt lat="48.38654" lon="2.68497">
        <ele>89</ele>
        <time>2023-09-20T08:04:09.891+00:00</time>
      </trkpt>
      <trkpt lat="48.38651" lon="2.68498">
        <ele>90</ele>
        <time>2023-09-20T08:04:14.421+00:00</time>
      </trkpt>
      <trkpt lat="48.38646" lon="2.68499">
        <ele>90</ele>
        <time>2023-09-20T08:04:18.867+00:00</time>
      </trkpt>
      <trkpt lat="48.3864" lon="2.685">
        <ele>90</ele>
        <time>2023-09-20T08:04:23.535+00:00</time>
      </trkpt>
      <trkpt lat="48.3863" lon="2.68499">
        <ele>90</ele>
        <time>2023-09-20T08:04:27.999+00:00</time>
      </trkpt>
      <trkpt lat="48.38621" lon="2.68502">
        <ele>90</ele>
        <time>2023-09-20T08:04:32.565+00:00</time>
      </trkpt>
      <trkpt lat="48.38617" lon="2.68503">
        <ele>90</ele>
        <time>2023-09-20T08:04:37.216+00:00</time>
      </trkpt>
      <trkpt lat="48.38612" lon="2.68502">
        <ele>90</ele>
        <time>2023-09-20T08:04:42.542+00:00</time>
      </trkpt>
      <trkpt lat="48.38607" lon="2.68504">
        <ele>90</ele>
        <time>2023-09-20T08:04:46.560+00:00</time>
      </trkpt>
      <trkpt lat="48.38602" lon="2.68508">
        <ele>90</ele>
        <time>2023-09-20T08:04:51.559+00:00</time>
      </trkpt>
      <trkpt lat="48.38598" lon="2.6851">
        <ele>90</ele>
        <time>2023-09-20T08:04:55.641+00:00</time>
      </trkpt>
      <trkpt lat="48.38588" lon="2.68508">
        <ele>89</ele>
        <time>2023-09-20T08:05:00.448+00:00</time>
      </trkpt>
      <trkpt lat="48.38582" lon="2.68509">
        <ele>89</ele>
        <time>2023-09-20T08:05:04.877+00:00</time>
      </trkpt>
      <trkpt lat="48.38577" lon="2.68512">
        <ele>89</ele>
        <time>2023-09-20T08:05:09.183+00:00</time>
      </trkpt>
      <trkpt lat="48.38569" lon="2.68511">
        <ele>89</ele>
        <time>2023-09-20T08:05:13.554+00:00</time>
      </trkpt>
      <trkpt lat="48.38562" lon="2.68508">
        <ele>89</ele>
        <time>2023-09-20T08:05:18.176+00:00</time>
      </trkpt>
      <trkpt lat="48.38556" lon="2.68507">
        <ele>89</ele>
        <time>2023-09-20T08:05:22.564+00:00</time>
      </trkpt>
      <trkpt lat="48.38551" lon="2.68508">
        <ele>89</ele>
        <time>2023-09-20T08:05:26.575+00:00</time>
      </trkpt>
      <trkpt lat="48.38545" lon="2.68508">
        <ele>89</ele>
        <time>2023-09-20T08:05:31.385+00:00</time>
      </trkpt>
      <trkpt lat="48.38539" lon="2.68508">
        <ele>88</ele>
        <time>2023-09-20T08:05:35.870+00:00</time>
      </trkpt>
      <trkpt lat="48.38534" lon="2.6851">
        <ele>88</ele>
        <time>2023-09-20T08:05:40.352+00:00</time>
      </trkpt>
      <trkpt lat="48.38528" lon="2.68511">
        <ele>88</ele>
        <time>2023-09-20T08:05:44.656+00:00</time>
      </trkpt>
      <trkpt lat="48.38522" lon="2.68513">
        <ele>88</ele>
        <time>2023-09-20T08:05:48.757+00:00</time>
      </trkpt>
      <trkpt lat="48.38516" lon="2.68513">
        <ele>88</ele>
        <time>2023-09-20T08:05:53.555+00:00</time>
      </trkpt>
      <trkpt lat="48.38509" lon="2.68513">
        <ele>89</ele>
        <time>2023-09-20T08:05:58.007+00:00</time>
      </trkpt>
      <trkpt lat="48.38504" lon="2.68515">
        <ele>88</ele>
        <time>2023-09-20T08:06:02.581+00:00</time>
      </trkpt>
      <trkpt lat="48.38499" lon="2.68516">
        <ele>88</ele>
        <time>2023-09-20T08:06:06.890+00:00</time>
      </trkpt>
      <trkpt lat="48.38492" lon="2.68517">
        <ele>88</ele>
        <time>2023-09-20T08:06:11.294+00:00</time>
      </trkpt>
      <trkpt lat="48.38486" lon="2.68517">
        <ele>87</ele>
        <time>2023-09-20T08:06:15.719+00:00</time>
      </trkpt>
      <trkpt lat="48.38479" lon="2.68518">
        <ele>87</ele>
        <time>2023-09-20T08:06:20.143+00:00</time>
      </trkpt>
      <trkpt lat="48.38472" lon="2.68519">
        <ele>87</ele>
        <time>2023-09-20T08:06:24.469+00:00</time>
      </trkpt>
      <trkpt lat="48.38466" lon="2.68519">
        <ele>87</ele>
        <time>2023-09-20T08:06:29.212+00:00</time>
      </trkpt>
      <trkpt lat="48.3846" lon="2.68519">
        <ele>87</ele>
        <time>2023-09-20T08:06:33.435+00:00</time>
      </trkpt>
      <trkpt lat="48.38454" lon="2.68519">
        <ele>87</ele>
        <time>2023-09-20T08:06:37.840+00:00</time>
      </trkpt>
      <trkpt lat="48.38448" lon="2.68519">
        <ele>87</ele>
        <time>2023-09-20T08:06:42.161+00:00</time>
      </trkpt>
      <trkpt lat="48.38444" lon="2.6852">
        <ele>87</ele>
        <time>2023-09-20T08:06:46.596+00:00</time>
      </trkpt>
      <trkpt lat="48.38436" lon="2.68521">
        <ele>87</ele>
        <time>2023-09-20T08:06:50.774+00:00</time>
      </trkpt>
      <trkpt lat="48.38428" lon="2.68521">
        <ele>86</ele>
        <time>2023-09-20T08:06:54.986+00:00</time>
      </trkpt>
      <trkpt lat="48.38422" lon="2.68522">
        <ele>86</ele>
        <time>2023-09-20T08:06:59.262+00:00</time>
      </trkpt>
      <trkpt lat="48.38416" lon="2.68523">
        <ele>86</ele>
        <time>2023-09-20T08:07:03.459+00:00</time>
      </trkpt>
      <trkpt lat="48.38413" lon="2.68524">
        <ele>86</ele>
        <time>2023-09-20T08:07:07.573+00:00</time>
      </trkpt>
      <trkpt lat="48.38407" lon="2.68526">
        <ele>86</ele>
        <time>2023-09-20T08:07:11.987+00:00</time>
      </trkpt>
      <trkpt lat="48.38401" lon="2.68527">
        <ele>84</ele>
        <time>2023-09-20T08:07:16.259+00:00</time>
      </trkpt>
      <trkpt lat="48.38395" lon="2.68527">
        <ele>84</ele>
        <time>2023-09-20T08:07:20.575+00:00</time>
      </trkpt>
      <trkpt lat="48.38389" lon="2.68526">
        <ele>84</ele>
        <time>2023-09-20T08:07:24.584+00:00</time>
      </trkpt>
      <trkpt lat="48.38382" lon="2.68526">
        <ele>84</ele>
        <time>2023-09-20T08:07:28.659+00:00</time>
      </trkpt>
      <trkpt lat="48.38375" lon="2.68527">
        <ele>83</ele>
        <time>2023-09-20T08:07:33.428+00:00</time>
      </trkpt>
      <trkpt lat="48.38368" lon="2.68528">
        <ele>83</ele>
        <time>2023-09-20T08:07:37.638+00:00</time>
      </trkpt>
      <trkpt lat="48.38361" lon="2.68529">
        <ele>83</ele>
        <time>2023-09-20T08:07:42.367+00:00</time>
      </trkpt>
      <trkpt lat="48.38354" lon="2.68529">
        <ele>83</ele>
        <time>2023-09-20T08:07:46.756+00:00</time>
      </trkpt>
      <trkpt lat="48.38348" lon="2.68529">
        <ele>83</ele>
        <time>2023-09-20T08:07:51.164+00:00</time>
      </trkpt>
      <trkpt lat="48.38341" lon="2.68529">
        <ele>83</ele>
        <time>2023-09-20T08:07:55.337+00:00</time>
      </trkpt>
      <trkpt lat="48.38335" lon="2.68531">
        <ele>83</ele>
        <time>2023-09-20T08:07:59.507+00:00</time>
      </trkpt>
      <trkpt lat="48.38327" lon="2.68532">
        <ele>83</ele>
        <time>2023-09-20T08:08:04.373+00:00</time>
      </trkpt>
      <trkpt lat="48.38321" lon="2.68532">
        <ele>83</ele>
        <time>2023-09-20T08:08:08.501+00:00</time>
      </trkpt>
      <trkpt lat="48.38315" lon="2.68534">
        <ele>83</ele>
        <time>2023-09-20T08:08:12.789+00:00</time>
      </trkpt>
      <trkpt lat="48.38309" lon="2.68535">
        <ele>83</ele>
        <time>2023-09-20T08:08:16.921+00:00</time>
      </trkpt>
      <trkpt lat="48.38303" lon="2.68536">
        <ele>83</ele>
        <time>2023-09-20T08:08:21.108+00:00</time>
      </trkpt>
      <trkpt lat="48.38297" lon="2.68535">
        <ele>83</ele>
        <time>2023-09-20T08:08:25.358+00:00</time>
      </trkpt>
      <trkpt lat="48.38292" lon="2.68535">
        <ele>82</ele>
        <time>2023-09-20T08:08:29.573+00:00</time>
      </trkpt>
      <trkpt lat="48.38284" lon="2.68533">
        <ele>82</ele>
        <time>2023-09-20T08:08:44.573+00:00</time>
      </trkpt>
      <trkpt lat="48.38281" lon="2.68533">
        <ele>82</ele>
        <time>2023-09-20T08:08:48.772+00:00</time>
      </trkpt>
      <trkpt lat="48.38276" lon="2.68532">
        <ele>82</ele>
        <time>2023-09-20T08:08:52.965+00:00</time>
      </trkpt>
      <trkpt lat="48.3827" lon="2.68528">
        <ele>82</ele>
        <time>2023-09-20T08:08:57.440+00:00</time>
      </trkpt>
      <trkpt lat="48.38265" lon="2.68523">
        <ele>82</ele>
        <time>2023-09-20T08:09:01.773+00:00</time>
      </trkpt>
      <trkpt lat="48.3826" lon="2.68517">
        <ele>82</ele>
        <time>2023-09-20T08:09:06.285+00:00</time>
      </trkpt>
      <trkpt lat="48.38256" lon="2.68512">
        <ele>82</ele>
        <time>2023-09-20T08:09:10.286+00:00</time>
      </trkpt>
      <trkpt lat="48.38251" lon="2.68507">
        <ele>82</ele>
        <time>2023-09-20T08:09:14.582+00:00</time>
      </trkpt>
      <trkpt lat="48.38247" lon="2.68503">
        <ele>82</ele>
        <time>2023-09-20T08:09:18.786+00:00</time>
      </trkpt>
      <trkpt lat="48.38243" lon="2.68501">
        <ele>82</ele>
        <time>2023-09-20T08:09:23.296+00:00</time>
      </trkpt>
      <trkpt lat="48.38239" lon="2.68497">
        <ele>82</ele>
        <time>2023-09-20T08:09:27.788+00:00</time>
      </trkpt>
      <trkpt lat="48.38233" lon="2.68492">
        <ele>83</ele>
        <time>2023-09-20T08:09:32.179+00:00</time>
      </trkpt>
      <trkpt lat="48.38229" lon="2.68488">
        <ele>83</ele>
        <time>2023-09-20T08:09:36.431+00:00</time>
      </trkpt>
      <trkpt lat="48.38224" lon="2.68485">
        <ele>85</ele>
        <time>2023-09-20T08:09:40.740+00:00</time>
      </trkpt>
      <trkpt lat="48.38217" lon="2.68481">
        <ele>85</ele>
        <time>2023-09-20T08:09:45.531+00:00</time>
      </trkpt>
      <trkpt lat="48.38212" lon="2.68476">
        <ele>85</ele>
        <time>2023-09-20T08:09:49.839+00:00</time>
      </trkpt>
      <trkpt lat="48.38207" lon="2.68471">
        <ele>85</ele>
        <time>2023-09-20T08:09:54.267+00:00</time>
      </trkpt>
      <trkpt lat="48.38202" lon="2.68468">
        <ele>85</ele>
        <time>2023-09-20T08:09:58.602+00:00</time>
      </trkpt>
      <trkpt lat="48.38197" lon="2.68463">
        <ele>85</ele>
        <time>2023-09-20T08:10:03.091+00:00</time>
      </trkpt>
      <trkpt lat="48.38192" lon="2.68459">
        <ele>85</ele>
        <time>2023-09-20T08:10:07.488+00:00</time>
      </trkpt>
      <trkpt lat="48.38187" lon="2.68456">
        <ele>86</ele>
        <time>2023-09-20T08:10:11.777+00:00</time>
      </trkpt>
      <trkpt lat="48.38181" lon="2.68451">
        <ele>86</ele>
        <time>2023-09-20T08:10:16.207+00:00</time>
      </trkpt>
      <trkpt lat="48.38175" lon="2.68446">
        <ele>86</ele>
        <time>2023-09-20T08:10:20.375+00:00</time>
      </trkpt>
      <trkpt lat="48.3817" lon="2.6844">
        <ele>86</ele>
        <time>2023-09-20T08:10:24.741+00:00</time>
      </trkpt>
      <trkpt lat="48.38164" lon="2.68435">
        <ele>86</ele>
        <time>2023-09-20T08:10:29.491+00:00</time>
      </trkpt>
      <trkpt lat="48.38159" lon="2.68431">
        <ele>86</ele>
        <time>2023-09-20T08:10:33.718+00:00</time>
      </trkpt>
      <trkpt lat="48.38153" lon="2.68426">
        <ele>88</ele>
        <time>2023-09-20T08:10:38.545+00:00</time>
      </trkpt>
      <trkpt lat="48.38148" lon="2.68421">
        <ele>87</ele>
        <time>2023-09-20T08:10:42.834+00:00</time>
      </trkpt>
      <trkpt lat="48.38143" lon="2.68417">
        <ele>87</ele>
        <time>2023-09-20T08:10:47.266+00:00</time>
      </trkpt>
      <trkpt lat="48.38137" lon="2.68414">
        <ele>87</ele>
        <time>2023-09-20T08:10:51.593+00:00</time>
      </trkpt>
      <trkpt lat="48.38132" lon="2.68411">
        <ele>87</ele>
        <time>2023-09-20T08:10:56.359+00:00</time>
      </trkpt>
      <trkpt lat="48.38127" lon="2.68407">
        <ele>87</ele>
        <time>2023-09-20T08:11:00.626+00:00</time>
      </trkpt>
      <trkpt lat="48.38122" lon="2.68403">
        <ele>86</ele>
        <time>2023-09-20T08:11:04.977+00:00</time>
      </trkpt>
      <trkpt lat="48.38117" lon="2.68399">
        <ele>87</ele>
        <time>2023-09-20T08:11:09.205+00:00</time>
      </trkpt>
      <trkpt lat="48.38111" lon="2.68393">
        <ele>87</ele>
        <time>2023-09-20T08:11:13.477+00:00</time>
      </trkpt>
      <trkpt lat="48.38106" lon="2.6839">
        <ele>87</ele>
        <time>2023-09-20T08:11:17.766+00:00</time>
      </trkpt>
      <trkpt lat="48.381" lon="2.68386">
        <ele>87</ele>
        <time>2023-09-20T08:11:22.458+00:00</time>
      </trkpt>
      <trkpt lat="48.38095" lon="2.68382">
        <ele>85</ele>
        <time>2023-09-20T08:11:26.767+00:00</time>
      </trkpt>
      <trkpt lat="48.38089" lon="2.68377">
        <ele>85</ele>
        <time>2023-09-20T08:11:31.519+00:00</time>
      </trkpt>
      <trkpt lat="48.38083" lon="2.68372">
        <ele>87</ele>
        <time>2023-09-20T08:11:36.385+00:00</time>
      </trkpt>
      <trkpt lat="48.38078" lon="2.68368">
        <ele>87</ele>
        <time>2023-09-20T08:11:40.593+00:00</time>
      </trkpt>
      <trkpt lat="48.38072" lon="2.68364">
        <ele>87</ele>
        <time>2023-09-20T08:11:44.903+00:00</time>
      </trkpt>
      <trkpt lat="48.38067" lon="2.6836">
        <ele>85</ele>
        <time>2023-09-20T08:11:49.292+00:00</time>
      </trkpt>
      <trkpt lat="48.38061" lon="2.68356">
        <ele>85</ele>
        <time>2023-09-20T08:11:54.277+00:00</time>
      </trkpt>
      <trkpt lat="48.38055" lon="2.68352">
        <ele>85</ele>
        <time>2023-09-20T08:11:58.706+00:00</time>
      </trkpt>
      <trkpt lat="48.3805" lon="2.68347">
        <ele>86</ele>
        <time>2023-09-20T08:12:03.119+00:00</time>
      </trkpt>
      <trkpt lat="48.38044" lon="2.68343">
        <ele>86</ele>
        <time>2023-09-20T08:12:07.447+00:00</time>
      </trkpt>
      <trkpt lat="48.38039" lon="2.68338">
        <ele>85</ele>
        <time>2023-09-20T08:12:11.699+00:00</time>
      </trkpt>
      <trkpt lat="48.38034" lon="2.68335">
        <ele>85</ele>
        <time>2023-09-20T08:12:16.031+00:00</time>
      </trkpt>
      <trkpt lat="48.38029" lon="2.6833">
        <ele>85</ele>
        <time>2023-09-20T08:12:20.481+00:00</time>
      </trkpt>
      <trkpt lat="48.38023" lon="2.68326">
        <ele>85</ele>
        <time>2023-09-20T08:12:24.931+00:00</time>
      </trkpt>
      <trkpt lat="48.38018" lon="2.68321">
        <ele>85</ele>
        <time>2023-09-20T08:12:29.321+00:00</time>
      </trkpt>
      <trkpt lat="48.38012" lon="2.68316">
        <ele>85</ele>
        <time>2023-09-20T08:12:33.709+00:00</time>
      </trkpt>
      <trkpt lat="48.38007" lon="2.68311">
        <ele>85</ele>
        <time>2023-09-20T08:12:37.981+00:00</time>
      </trkpt>
      <trkpt lat="48.38003" lon="2.68308">
        <ele>85</ele>
        <time>2023-09-20T08:12:42.346+00:00</time>
      </trkpt>
      <trkpt lat="48.37998" lon="2.68304">
        <ele>85</ele>
        <time>2023-09-20T08:12:46.595+00:00</time>
      </trkpt>
      <trkpt lat="48.37992" lon="2.68298">
        <ele>85</ele>
        <time>2023-09-20T08:12:51.593+00:00</time>
      </trkpt>
      <trkpt lat="48.37986" lon="2.68293">
        <ele>85</ele>
        <time>2023-09-20T08:12:55.713+00:00</time>
      </trkpt>
      <trkpt lat="48.37981" lon="2.68289">
        <ele>87</ele>
        <time>2023-09-20T08:13:00.116+00:00</time>
      </trkpt>
      <trkpt lat="48.37975" lon="2.68285">
        <ele>87</ele>
        <time>2023-09-20T08:13:04.524+00:00</time>
      </trkpt>
      <trkpt lat="48.3797" lon="2.68281">
        <ele>87</ele>
        <time>2023-09-20T08:13:09.010+00:00</time>
      </trkpt>
      <trkpt lat="48.37965" lon="2.68277">
        <ele>87</ele>
        <time>2023-09-20T08:13:13.278+00:00</time>
      </trkpt>
      <trkpt lat="48.37961" lon="2.68273">
        <ele>87</ele>
        <time>2023-09-20T08:13:17.586+00:00</time>
      </trkpt>
      <trkpt lat="48.37956" lon="2.6827">
        <ele>87</ele>
        <time>2023-09-20T08:13:21.939+00:00</time>
      </trkpt>
      <trkpt lat="48.37951" lon="2.68266">
        <ele>87</ele>
        <time>2023-09-20T08:13:26.124+00:00</time>
      </trkpt>
      <trkpt lat="48.37947" lon="2.68265">
        <ele>87</ele>
        <time>2023-09-20T08:13:30.433+00:00</time>
      </trkpt>
      <trkpt lat="48.37942" lon="2.68261">
        <ele>88</ele>
        <time>2023-09-20T08:13:34.720+00:00</time>
      </trkpt>
      <trkpt lat="48.37936" lon="2.68257">
        <ele>88</ele>
        <time>2023-09-20T08:13:39.008+00:00</time>
      </trkpt>
      <trkpt lat="48.37931" lon="2.68254">
        <ele>88</ele>
        <time>2023-09-20T08:13:43.199+00:00</time>
      </trkpt>
      <trkpt lat="48.37926" lon="2.68249">
        <ele>89</ele>
        <time>2023-09-20T08:13:47.507+00:00</time>
      </trkpt>
      <trkpt lat="48.3792" lon="2.68243">
        <ele>89</ele>
        <time>2023-09-20T08:13:52.273+00:00</time>
      </trkpt>
      <trkpt lat="48.37915" lon="2.68238">
        <ele>89</ele>
        <time>2023-09-20T08:13:56.681+00:00</time>
      </trkpt>
      <trkpt lat="48.37911" lon="2.68235">
        <ele>91</ele>
        <time>2023-09-20T08:14:00.991+00:00</time>
      </trkpt>
      <trkpt lat="48.37906" lon="2.6823">
        <ele>91</ele>
        <time>2023-09-20T08:14:05.593+00:00</time>
      </trkpt>
      <trkpt lat="48.37901" lon="2.68226">
        <ele>91</ele>
        <time>2023-09-20T08:14:09.788+00:00</time>
      </trkpt>
      <trkpt lat="48.37898" lon="2.68223">
        <ele>91</ele>
        <time>2023-09-20T08:14:13.837+00:00</time>
      </trkpt>
      <trkpt lat="48.37895" lon="2.68219">
        <ele>91</ele>
        <time>2023-09-20T08:14:18.086+00:00</time>
      </trkpt>
      <trkpt lat="48.37892" lon="2.68214">
        <ele>91</ele>
        <time>2023-09-20T08:14:22.596+00:00</time>
      </trkpt>
      <trkpt lat="48.37888" lon="2.68209">
        <ele>91</ele>
        <time>2023-09-20T08:14:27.583+00:00</time>
      </trkpt>
      <trkpt lat="48.37885" lon="2.68206">
        <ele>94</ele>
        <time>2023-09-20T08:14:31.734+00:00</time>
      </trkpt>
      <trkpt lat="48.37884" lon="2.68204">
        <ele>94</ele>
        <time>2023-09-20T08:14:35.882+00:00</time>
      </trkpt>
      <trkpt lat="48.37882" lon="2.682">
        <ele>94</ele>
        <time>2023-09-20T08:14:40.170+00:00</time>
      </trkpt>
      <trkpt lat="48.37881" lon="2.68196">
        <ele>94</ele>
        <time>2023-09-20T08:14:44.537+00:00</time>
      </trkpt>
      <trkpt lat="48.37881" lon="2.6819">
        <ele>94</ele>
        <time>2023-09-20T08:14:48.965+00:00</time>
      </trkpt>
      <trkpt lat="48.3788" lon="2.68184">
        <ele>94</ele>
        <time>2023-09-20T08:14:53.199+00:00</time>
      </trkpt>
      <trkpt lat="48.37878" lon="2.68177">
        <ele>96</ele>
        <time>2023-09-20T08:14:57.459+00:00</time>
      </trkpt>
      <trkpt lat="48.37875" lon="2.68169">
        <ele>94</ele>
        <time>2023-09-20T08:15:01.771+00:00</time>
      </trkpt>
      <trkpt lat="48.37873" lon="2.68162">
        <ele>94</ele>
        <time>2023-09-20T08:15:06.245+00:00</time>
      </trkpt>
      <trkpt lat="48.37872" lon="2.68154">
        <ele>94</ele>
        <time>2023-09-20T08:15:10.901+00:00</time>
      </trkpt>
      <trkpt lat="48.3787" lon="2.68149">
        <ele>95</ele>
        <time>2023-09-20T08:15:15.252+00:00</time>
      </trkpt>
      <trkpt lat="48.37867" lon="2.68143">
        <ele>95</ele>
        <time>2023-09-20T08:15:19.591+00:00</time>
      </trkpt>
      <trkpt lat="48.37866" lon="2.68136">
        <ele>95</ele>
        <time>2023-09-20T08:15:24.164+00:00</time>
      </trkpt>
      <trkpt lat="48.37866" lon="2.6813">
        <ele>95</ele>
        <time>2023-09-20T08:15:28.598+00:00</time>
      </trkpt>
      <trkpt lat="48.37865" lon="2.68123">
        <ele>97</ele>
        <time>2023-09-20T08:15:32.736+00:00</time>
      </trkpt>
      <trkpt lat="48.37865" lon="2.68117">
        <ele>97</ele>
        <time>2023-09-20T08:15:36.819+00:00</time>
      </trkpt>
      <trkpt lat="48.37863" lon="2.68108">
        <ele>97</ele>
        <time>2023-09-20T08:15:41.503+00:00</time>
      </trkpt>
      <trkpt lat="48.37864" lon="2.681">
        <ele>97</ele>
        <time>2023-09-20T08:15:45.595+00:00</time>
      </trkpt>
      <trkpt lat="48.37865" lon="2.68094">
        <ele>99</ele>
        <time>2023-09-20T08:15:50.017+00:00</time>
      </trkpt>
      <trkpt lat="48.37865" lon="2.68088">
        <ele>99</ele>
        <time>2023-09-20T08:15:54.577+00:00</time>
      </trkpt>
      <trkpt lat="48.37865" lon="2.6808">
        <ele>99</ele>
        <time>2023-09-20T08:15:59.293+00:00</time>
      </trkpt>
      <trkpt lat="48.37863" lon="2.68072">
        <ele>99</ele>
        <time>2023-09-20T08:16:03.522+00:00</time>
      </trkpt>
      <trkpt lat="48.37859" lon="2.68062">
        <ele>101</ele>
        <time>2023-09-20T08:16:07.790+00:00</time>
      </trkpt>
      <trkpt lat="48.37856" lon="2.68053">
        <ele>101</ele>
        <time>2023-09-20T08:16:12.337+00:00</time>
      </trkpt>
      <trkpt lat="48.37855" lon="2.68046">
        <ele>101</ele>
        <time>2023-09-20T08:16:16.604+00:00</time>
      </trkpt>
      <trkpt lat="48.37853" lon="2.68042">
        <ele>104</ele>
        <time>2023-09-20T08:16:21.289+00:00</time>
      </trkpt>
      <trkpt lat="48.37851" lon="2.68037">
        <ele>104</ele>
        <time>2023-09-20T08:16:25.594+00:00</time>
      </trkpt>
      <trkpt lat="48.37849" lon="2.68032">
        <ele>104</ele>
        <time>2023-09-20T08:16:29.957+00:00</time>
      </trkpt>
      <trkpt lat="48.37846" lon="2.68027">
        <ele>104</ele>
        <time>2023-09-20T08:16:34.537+00:00</time>
      </trkpt>
      <trkpt lat="48.37844" lon="2.68023">
        <ele>104</ele>
        <time>2023-09-20T08:16:39.088+00:00</time>
      </trkpt>
      <trkpt lat="48.37843" lon="2.6802">
        <ele>104</ele>
        <time>2023-09-20T08:16:43.273+00:00</time>
      </trkpt>
      <trkpt lat="48.3784" lon="2.68015">
        <ele>104</ele>
        <time>2023-09-20T08:16:47.578+00:00</time>
      </trkpt>
      <trkpt lat="48.37838" lon="2.68013">
        <ele>107</ele>
        <time>2023-09-20T08:16:51.584+00:00</time>
      </trkpt>
      <trkpt lat="48.37836" lon="2.68009">
        <ele>107</ele>
        <time>2023-09-20T08:16:55.579+00:00</time>
      </trkpt>
      <trkpt lat="48.37835" lon="2.68006">
        <ele>107</ele>
        <time>2023-09-20T08:17:00.184+00:00</time>
      </trkpt>
      <trkpt lat="48.37833" lon="2.68002">
        <ele>107</ele>
        <time>2023-09-20T08:17:04.467+00:00</time>
      </trkpt>
      <trkpt lat="48.37831" lon="2.67998">
        <ele>107</ele>
        <time>2023-09-20T08:17:09.351+00:00</time>
      </trkpt>
      <trkpt lat="48.37829" lon="2.67996">
        <ele>107</ele>
        <time>2023-09-20T08:17:13.561+00:00</time>
      </trkpt>
      <trkpt lat="48.37825" lon="2.67994">
        <ele>107</ele>
        <time>2023-09-20T08:17:18.122+00:00</time>
      </trkpt>
      <trkpt lat="48.37822" lon="2.67993">
        <ele>107</ele>
        <time>2023-09-20T08:17:22.587+00:00</time>
      </trkpt>
      <trkpt lat="48.37818" lon="2.67993">
        <ele>108</ele>
        <time>2023-09-20T08:17:27.007+00:00</time>
      </trkpt>
      <trkpt lat="48.37814" lon="2.67992">
        <ele>108</ele>
        <time>2023-09-20T08:17:31.297+00:00</time>
      </trkpt>
      <trkpt lat="48.37806" lon="2.67993">
        <ele>108</ele>
        <time>2023-09-20T08:17:45.191+00:00</time>
      </trkpt>
      <trkpt lat="48.37804" lon="2.67993">
        <ele>108</ele>
        <time>2023-09-20T08:17:49.537+00:00</time>
      </trkpt>
      <trkpt lat="48.37803" lon="2.67991">
        <ele>108</ele>
        <time>2023-09-20T08:17:54.198+00:00</time>
      </trkpt>
      <trkpt lat="48.37803" lon="2.67989">
        <ele>108</ele>
        <time>2023-09-20T08:17:58.229+00:00</time>
      </trkpt>
      <trkpt lat="48.37802" lon="2.67986">
        <ele>111</ele>
        <time>2023-09-20T08:18:02.593+00:00</time>
      </trkpt>
      <trkpt lat="48.37801" lon="2.6798">
        <ele>111</ele>
        <time>2023-09-20T08:18:07.100+00:00</time>
      </trkpt>
      <trkpt lat="48.378" lon="2.67972">
        <ele>111</ele>
        <time>2023-09-20T08:18:11.407+00:00</time>
      </trkpt>
      <trkpt lat="48.37801" lon="2.67965">
        <ele>111</ele>
        <time>2023-09-20T08:18:15.796+00:00</time>
      </trkpt>
      <trkpt lat="48.37804" lon="2.6796">
        <ele>111</ele>
        <time>2023-09-20T08:18:20.141+00:00</time>
      </trkpt>
      <trkpt lat="48.37808" lon="2.67955">
        <ele>113</ele>
        <time>2023-09-20T08:18:24.600+00:00</time>
      </trkpt>
      <trkpt lat="48.3781" lon="2.67952">
        <ele>113</ele>
        <time>2023-09-20T08:18:28.584+00:00</time>
      </trkpt>
      <trkpt lat="48.37811" lon="2.67949">
        <ele>113</ele>
        <time>2023-09-20T08:18:33.292+00:00</time>
      </trkpt>
      <trkpt lat="48.37812" lon="2.67946">
        <ele>113</ele>
        <time>2023-09-20T08:18:37.816+00:00</time>
      </trkpt>
      <trkpt lat="48.3781" lon="2.67938">
        <ele>113</ele>
        <time>2023-09-20T08:18:42.385+00:00</time>
      </trkpt>
      <trkpt lat="48.37802" lon="2.67939">
        <ele>113</ele>
        <time>2023-09-20T08:18:46.558+00:00</time>
      </trkpt>
      <trkpt lat="48.37801" lon="2.67943">
        <ele>113</ele>
        <time>2023-09-20T08:18:51.154+00:00</time>
      </trkpt>
      <trkpt lat="48.37805" lon="2.67942">
        <ele>113</ele>
        <time>2023-09-20T08:18:55.260+00:00</time>
      </trkpt>
      <trkpt lat="48.37809" lon="2.6794">
        <ele>113</ele>
        <time>2023-09-20T08:18:59.306+00:00</time>
      </trkpt>
      <trkpt lat="48.37812" lon="2.67939">
        <ele>113</ele>
        <time>2023-09-20T08:19:03.545+00:00</time>
      </trkpt>
      <trkpt lat="48.37813" lon="2.6794">
        <ele>113</ele>
        <time>2023-09-20T08:19:16.564+00:00</time>
      </trkpt>
      <trkpt lat="48.37811" lon="2.67935">
        <ele>113</ele>
        <time>2023-09-20T08:19:21.554+00:00</time>
      </trkpt>
      <trkpt lat="48.3781" lon="2.67932">
        <ele>113</ele>
        <time>2023-09-20T08:19:25.853+00:00</time>
      </trkpt>
      <trkpt lat="48.37814" lon="2.6793">
        <ele>115</ele>
        <time>2023-09-20T08:19:30.223+00:00</time>
      </trkpt>
      <trkpt lat="48.37822" lon="2.67926">
        <ele>121</ele>
        <time>2023-09-20T08:19:34.883+00:00</time>
      </trkpt>
      <trkpt lat="48.37825" lon="2.6792">
        <ele>121</ele>
        <time>2023-09-20T08:19:39.554+00:00</time>
      </trkpt>
      <trkpt lat="48.37827" lon="2.67914">
        <ele>121</ele>
        <time>2023-09-20T08:19:43.776+00:00</time>
      </trkpt>
      <trkpt lat="48.37828" lon="2.6791">
        <ele>121</ele>
        <time>2023-09-20T08:19:48.166+00:00</time>
      </trkpt>
      <trkpt lat="48.37825" lon="2.67904">
        <ele>121</ele>
        <time>2023-09-20T08:19:52.558+00:00</time>
      </trkpt>
      <trkpt lat="48.3782" lon="2.67893">
        <ele>123</ele>
        <time>2023-09-20T08:21:24.589+00:00</time>
      </trkpt>
      <trkpt lat="48.37821" lon="2.67891">
        <ele>123</ele>
        <time>2023-09-20T08:21:29.571+00:00</time>
      </trkpt>
      <trkpt lat="48.37821" lon="2.67891">
        <ele>123</ele>
        <time>2023-09-20T08:21:34.566+00:00</time>
      </trkpt>
      <trkpt lat="48.37818" lon="2.67889">
        <ele>117</ele>
        <time>2023-09-20T08:21:38.550+00:00</time>
      </trkpt>
      <trkpt lat="48.37816" lon="2.67892">
        <ele>117</ele>
        <time>2023-09-20T08:21:43.555+00:00</time>
      </trkpt>
      <trkpt lat="48.37807" lon="2.67901">
        <ele>117</ele>
        <time>2023-09-20T08:22:14.125+00:00</time>
      </trkpt>
      <trkpt lat="48.37807" lon="2.67905">
        <ele>115</ele>
        <time>2023-09-20T08:22:18.867+00:00</time>
      </trkpt>
      <trkpt lat="48.37806" lon="2.67909">
        <ele>115</ele>
        <time>2023-09-20T08:22:23.254+00:00</time>
      </trkpt>
      <trkpt lat="48.37808" lon="2.67913">
        <ele>115</ele>
        <time>2023-09-20T08:22:28.577+00:00</time>
      </trkpt>
      <trkpt lat="48.37808" lon="2.67915">
        <ele>115</ele>
        <time>2023-09-20T08:22:33.280+00:00</time>
      </trkpt>
      <trkpt lat="48.37809" lon="2.67919">
        <ele>115</ele>
        <time>2023-09-20T08:22:37.559+00:00</time>
      </trkpt>
      <trkpt lat="48.37808" lon="2.67922">
        <ele>115</ele>
        <time>2023-09-20T08:22:42.208+00:00</time>
      </trkpt>
      <trkpt lat="48.37806" lon="2.67927">
        <ele>115</ele>
        <time>2023-09-20T08:22:46.791+00:00</time>
      </trkpt>
      <trkpt lat="48.37802" lon="2.67933">
        <ele>113</ele>
        <time>2023-09-20T08:22:51.001+00:00</time>
      </trkpt>
      <trkpt lat="48.37796" lon="2.67938">
        <ele>113</ele>
        <time>2023-09-20T08:22:59.461+00:00</time>
      </trkpt>
      <trkpt lat="48.37795" lon="2.67937">
        <ele>113</ele>
        <time>2023-09-20T08:23:03.562+00:00</time>
      </trkpt>
      <trkpt lat="48.37792" lon="2.67938">
        <ele>113</ele>
        <time>2023-09-20T08:23:07.954+00:00</time>
      </trkpt>
      <trkpt lat="48.37791" lon="2.67937">
        <ele>107</ele>
        <time>2023-09-20T08:23:12.552+00:00</time>
      </trkpt>
      <trkpt lat="48.3779" lon="2.67935">
        <ele>107</ele>
        <time>2023-09-20T08:23:16.560+00:00</time>
      </trkpt>
      <trkpt lat="48.37788" lon="2.67933">
        <ele>107</ele>
        <time>2023-09-20T08:23:20.849+00:00</time>
      </trkpt>
      <trkpt lat="48.37786" lon="2.67932">
        <ele>107</ele>
        <time>2023-09-20T08:23:25.153+00:00</time>
      </trkpt>
      <trkpt lat="48.37782" lon="2.67934">
        <ele>107</ele>
        <time>2023-09-20T08:23:29.436+00:00</time>
      </trkpt>
      <trkpt lat="48.3778" lon="2.67939">
        <ele>107</ele>
        <time>2023-09-20T08:23:34.283+00:00</time>
      </trkpt>
      <trkpt lat="48.3778" lon="2.67947">
        <ele>107</ele>
        <time>2023-09-20T08:23:42.980+00:00</time>
      </trkpt>
      <trkpt lat="48.37779" lon="2.67948">
        <ele>107</ele>
        <time>2023-09-20T08:23:47.581+00:00</time>
      </trkpt>
      <trkpt lat="48.37777" lon="2.67949">
        <ele>107</ele>
        <time>2023-09-20T08:23:52.096+00:00</time>
      </trkpt>
      <trkpt lat="48.37772" lon="2.67949">
        <ele>107</ele>
        <time>2023-09-20T08:23:56.269+00:00</time>
      </trkpt>
      <trkpt lat="48.37766" lon="2.67948">
        <ele>107</ele>
        <time>2023-09-20T08:24:00.553+00:00</time>
      </trkpt>
      <trkpt lat="48.3776" lon="2.67947">
        <ele>102</ele>
        <time>2023-09-20T08:24:05.435+00:00</time>
      </trkpt>
      <trkpt lat="48.37757" lon="2.67948">
        <ele>102</ele>
        <time>2023-09-20T08:24:09.560+00:00</time>
      </trkpt>
      <trkpt lat="48.37752" lon="2.67951">
        <ele>102</ele>
        <time>2023-09-20T08:24:14.158+00:00</time>
      </trkpt>
      <trkpt lat="48.37747" lon="2.67954">
        <ele>102</ele>
        <time>2023-09-20T08:24:18.501+00:00</time>
      </trkpt>
      <trkpt lat="48.37743" lon="2.67955">
        <ele>102</ele>
        <time>2023-09-20T08:24:22.575+00:00</time>
      </trkpt>
      <trkpt lat="48.37736" lon="2.67954">
        <ele>102</ele>
        <time>2023-09-20T08:24:27.559+00:00</time>
      </trkpt>
      <trkpt lat="48.37731" lon="2.67951">
        <ele>101</ele>
        <time>2023-09-20T08:24:32.572+00:00</time>
      </trkpt>
      <trkpt lat="48.37731" lon="2.6795">
        <ele>101</ele>
        <time>2023-09-20T08:24:37.564+00:00</time>
      </trkpt>
      <trkpt lat="48.37731" lon="2.67951">
        <ele>101</ele>
        <time>2023-09-20T08:24:42.320+00:00</time>
      </trkpt>
      <trkpt lat="48.3773" lon="2.6795">
        <ele>101</ele>
        <time>2023-09-20T08:24:46.562+00:00</time>
      </trkpt>
      <trkpt lat="48.37728" lon="2.67947">
        <ele>101</ele>
        <time>2023-09-20T08:24:51.108+00:00</time>
      </trkpt>
      <trkpt lat="48.37727" lon="2.67944">
        <ele>101</ele>
        <time>2023-09-20T08:24:55.335+00:00</time>
      </trkpt>
      <trkpt lat="48.37725" lon="2.67938">
        <ele>101</ele>
        <time>2023-09-20T08:24:59.440+00:00</time>
      </trkpt>
      <trkpt lat="48.37723" lon="2.67929">
        <ele>102</ele>
        <time>2023-09-20T08:25:03.577+00:00</time>
      </trkpt>
      <trkpt lat="48.37724" lon="2.67918">
        <ele>102</ele>
        <time>2023-09-20T08:25:08.385+00:00</time>
      </trkpt>
      <trkpt lat="48.37725" lon="2.67911">
        <ele>102</ele>
        <time>2023-09-20T08:25:12.561+00:00</time>
      </trkpt>
      <trkpt lat="48.37724" lon="2.67905">
        <ele>102</ele>
        <time>2023-09-20T08:25:17.380+00:00</time>
      </trkpt>
      <trkpt lat="48.37722" lon="2.67897">
        <ele>105</ele>
        <time>2023-09-20T08:25:21.886+00:00</time>
      </trkpt>
      <trkpt lat="48.37721" lon="2.67891">
        <ele>105</ele>
        <time>2023-09-20T08:25:26.370+00:00</time>
      </trkpt>
      <trkpt lat="48.37721" lon="2.67886">
        <ele>105</ele>
        <time>2023-09-20T08:25:30.918+00:00</time>
      </trkpt>
      <trkpt lat="48.3772" lon="2.67879">
        <ele>105</ele>
        <time>2023-09-20T08:25:35.395+00:00</time>
      </trkpt>
      <trkpt lat="48.37719" lon="2.67869">
        <ele>107</ele>
        <time>2023-09-20T08:25:39.580+00:00</time>
      </trkpt>
      <trkpt lat="48.37719" lon="2.67856">
        <ele>107</ele>
        <time>2023-09-20T08:25:44.312+00:00</time>
      </trkpt>
      <trkpt lat="48.37719" lon="2.67845">
        <ele>108</ele>
        <time>2023-09-20T08:25:48.587+00:00</time>
      </trkpt>
      <trkpt lat="48.37719" lon="2.67834">
        <ele>108</ele>
        <time>2023-09-20T08:25:53.289+00:00</time>
      </trkpt>
      <trkpt lat="48.37719" lon="2.67827">
        <ele>108</ele>
        <time>2023-09-20T08:25:57.577+00:00</time>
      </trkpt>
      <trkpt lat="48.37719" lon="2.6782">
        <ele>108</ele>
        <time>2023-09-20T08:26:02.229+00:00</time>
      </trkpt>
      <trkpt lat="48.37718" lon="2.67813">
        <ele>108</ele>
        <time>2023-09-20T08:26:06.588+00:00</time>
      </trkpt>
      <trkpt lat="48.37717" lon="2.67805">
        <ele>108</ele>
        <time>2023-09-20T08:26:11.241+00:00</time>
      </trkpt>
      <trkpt lat="48.37714" lon="2.67796">
        <ele>108</ele>
        <time>2023-09-20T08:26:15.895+00:00</time>
      </trkpt>
      <trkpt lat="48.37711" lon="2.67789">
        <ele>108</ele>
        <time>2023-09-20T08:26:20.247+00:00</time>
      </trkpt>
      <trkpt lat="48.37709" lon="2.67782">
        <ele>108</ele>
        <time>2023-09-20T08:26:24.578+00:00</time>
      </trkpt>
      <trkpt lat="48.37709" lon="2.67775">
        <ele>108</ele>
        <time>2023-09-20T08:26:28.578+00:00</time>
      </trkpt>
      <trkpt lat="48.3771" lon="2.67766">
        <ele>108</ele>
        <time>2023-09-20T08:26:33.584+00:00</time>
      </trkpt>
      <trkpt lat="48.3771" lon="2.67758">
        <ele>109</ele>
        <time>2023-09-20T08:26:38.298+00:00</time>
      </trkpt>
      <trkpt lat="48.3771" lon="2.67748">
        <ele>109</ele>
        <time>2023-09-20T08:26:42.809+00:00</time>
      </trkpt>
      <trkpt lat="48.3771" lon="2.67738">
        <ele>109</ele>
        <time>2023-09-20T08:26:47.361+00:00</time>
      </trkpt>
      <trkpt lat="48.3771" lon="2.67731">
        <ele>110</ele>
        <time>2023-09-20T08:26:51.586+00:00</time>
      </trkpt>
      <trkpt lat="48.37711" lon="2.67724">
        <ele>110</ele>
        <time>2023-09-20T08:26:56.214+00:00</time>
      </trkpt>
      <trkpt lat="48.3771" lon="2.67715">
        <ele>110</ele>
        <time>2023-09-20T08:27:01.267+00:00</time>
      </trkpt>
      <trkpt lat="48.37708" lon="2.67709">
        <ele>109</ele>
        <time>2023-09-20T08:27:05.592+00:00</time>
      </trkpt>
      <trkpt lat="48.37706" lon="2.67699">
        <ele>111</ele>
        <time>2023-09-20T08:27:10.314+00:00</time>
      </trkpt>
      <trkpt lat="48.37705" lon="2.67689">
        <ele>111</ele>
        <time>2023-09-20T08:27:14.988+00:00</time>
      </trkpt>
      <trkpt lat="48.37705" lon="2.67682">
        <ele>111</ele>
        <time>2023-09-20T08:27:19.599+00:00</time>
      </trkpt>
      <trkpt lat="48.37704" lon="2.67673">
        <ele>113</ele>
        <time>2023-09-20T08:27:24.155+00:00</time>
      </trkpt>
      <trkpt lat="48.37702" lon="2.67666">
        <ele>113</ele>
        <time>2023-09-20T08:27:28.588+00:00</time>
      </trkpt>
      <trkpt lat="48.37702" lon="2.6766">
        <ele>113</ele>
        <time>2023-09-20T08:27:32.590+00:00</time>
      </trkpt>
      <trkpt lat="48.37701" lon="2.67653">
        <ele>113</ele>
        <time>2023-09-20T08:27:36.615+00:00</time>
      </trkpt>
      <trkpt lat="48.37702" lon="2.67645">
        <ele>116</ele>
        <time>2023-09-20T08:27:40.710+00:00</time>
      </trkpt>
      <trkpt lat="48.37701" lon="2.67637">
        <ele>116</ele>
        <time>2023-09-20T08:27:44.927+00:00</time>
      </trkpt>
      <trkpt lat="48.377" lon="2.6763">
        <ele>116</ele>
        <time>2023-09-20T08:27:49.541+00:00</time>
      </trkpt>
      <trkpt lat="48.37697" lon="2.6762">
        <ele>119</ele>
        <time>2023-09-20T08:27:54.335+00:00</time>
      </trkpt>
      <trkpt lat="48.37696" lon="2.67612">
        <ele>119</ele>
        <time>2023-09-20T08:27:58.600+00:00</time>
      </trkpt>
      <trkpt lat="48.37695" lon="2.67603">
        <ele>119</ele>
        <time>2023-09-20T08:28:03.590+00:00</time>
      </trkpt>
      <trkpt lat="48.37694" lon="2.67597">
        <ele>122</ele>
        <time>2023-09-20T08:28:07.672+00:00</time>
      </trkpt>
      <trkpt lat="48.37693" lon="2.67589">
        <ele>122</ele>
        <time>2023-09-20T08:28:11.808+00:00</time>
      </trkpt>
      <trkpt lat="48.37692" lon="2.67582">
        <ele>122</ele>
        <time>2023-09-20T08:28:16.601+00:00</time>
      </trkpt>
      <trkpt lat="48.37692" lon="2.67573">
        <ele>122</ele>
        <time>2023-09-20T08:28:20.754+00:00</time>
      </trkpt>
      <trkpt lat="48.37692" lon="2.67565">
        <ele>123</ele>
        <time>2023-09-20T08:28:24.892+00:00</time>
      </trkpt>
      <trkpt lat="48.37689" lon="2.67554">
        <ele>123</ele>
        <time>2023-09-20T08:28:29.613+00:00</time>
      </trkpt>
      <trkpt lat="48.3769" lon="2.67547">
        <ele>123</ele>
        <time>2023-09-20T08:28:34.598+00:00</time>
      </trkpt>
      <trkpt lat="48.37691" lon="2.67542">
        <ele>123</ele>
        <time>2023-09-20T08:28:39.571+00:00</time>
      </trkpt>
      <trkpt lat="48.37692" lon="2.67536">
        <ele>125</ele>
        <time>2023-09-20T08:28:43.593+00:00</time>
      </trkpt>
      <trkpt lat="48.37693" lon="2.67527">
        <ele>125</ele>
        <time>2023-09-20T08:28:48.617+00:00</time>
      </trkpt>
      <trkpt lat="48.37696" lon="2.67515">
        <ele>125</ele>
        <time>2023-09-20T08:28:53.584+00:00</time>
      </trkpt>
      <trkpt lat="48.37697" lon="2.67508">
        <ele>126</ele>
        <time>2023-09-20T08:28:57.580+00:00</time>
      </trkpt>
      <trkpt lat="48.37697" lon="2.67501">
        <ele>126</ele>
        <time>2023-09-20T08:29:01.600+00:00</time>
      </trkpt>
      <trkpt lat="48.377" lon="2.67494">
        <ele>126</ele>
        <time>2023-09-20T08:29:06.586+00:00</time>
      </trkpt>
      <trkpt lat="48.37702" lon="2.67484">
        <ele>126</ele>
        <time>2023-09-20T08:29:11.583+00:00</time>
      </trkpt>
      <trkpt lat="48.37702" lon="2.67478">
        <ele>126</ele>
        <time>2023-09-20T08:29:16.590+00:00</time>
      </trkpt>
      <trkpt lat="48.37703" lon="2.67471">
        <ele>126</ele>
        <time>2023-09-20T08:29:21.603+00:00</time>
      </trkpt>
      <trkpt lat="48.37706" lon="2.67462">
        <ele>126</ele>
        <time>2023-09-20T08:29:26.593+00:00</time>
      </trkpt>
      <trkpt lat="48.37707" lon="2.67453">
        <ele>126</ele>
        <time>2023-09-20T08:29:31.571+00:00</time>
      </trkpt>
      <trkpt lat="48.37708" lon="2.67446">
        <ele>126</ele>
        <time>2023-09-20T08:29:35.618+00:00</time>
      </trkpt>
      <trkpt lat="48.37709" lon="2.67437">
        <ele>127</ele>
        <time>2023-09-20T08:29:40.591+00:00</time>
      </trkpt>
      <trkpt lat="48.37709" lon="2.67429">
        <ele>129</ele>
        <time>2023-09-20T08:29:44.589+00:00</time>
      </trkpt>
      <trkpt lat="48.37711" lon="2.67421">
        <ele>129</ele>
        <time>2023-09-20T08:29:48.614+00:00</time>
      </trkpt>
      <trkpt lat="48.37714" lon="2.67411">
        <ele>129</ele>
        <time>2023-09-20T08:29:53.619+00:00</time>
      </trkpt>
      <trkpt lat="48.37716" lon="2.67402">
        <ele>132</ele>
        <time>2023-09-20T08:29:58.578+00:00</time>
      </trkpt>
      <trkpt lat="48.37719" lon="2.67396">
        <ele>132</ele>
        <time>2023-09-20T08:30:02.595+00:00</time>
      </trkpt>
      <trkpt lat="48.3772" lon="2.67388">
        <ele>132</ele>
        <time>2023-09-20T08:30:07.567+00:00</time>
      </trkpt>
      <trkpt lat="48.37723" lon="2.67382">
        <ele>132</ele>
        <time>2023-09-20T08:30:11.591+00:00</time>
      </trkpt>
      <trkpt lat="48.37725" lon="2.67378">
        <ele>132</ele>
        <time>2023-09-20T08:30:15.592+00:00</time>
      </trkpt>
      <trkpt lat="48.37728" lon="2.67372">
        <ele>133</ele>
        <time>2023-09-20T08:30:20.596+00:00</time>
      </trkpt>
      <trkpt lat="48.37731" lon="2.67365">
        <ele>133</ele>
        <time>2023-09-20T08:30:25.581+00:00</time>
      </trkpt>
      <trkpt lat="48.37734" lon="2.6736">
        <ele>133</ele>
        <time>2023-09-20T08:30:29.594+00:00</time>
      </trkpt>
      <trkpt lat="48.37738" lon="2.67354">
        <ele>133</ele>
        <time>2023-09-20T08:30:34.598+00:00</time>
      </trkpt>
      <trkpt lat="48.37741" lon="2.67347">
        <ele>133</ele>
        <time>2023-09-20T08:30:39.588+00:00</time>
      </trkpt>
      <trkpt lat="48.37743" lon="2.67337">
        <ele>133</ele>
        <time>2023-09-20T08:30:44.594+00:00</time>
      </trkpt>
      <trkpt lat="48.37746" lon="2.67328">
        <ele>133</ele>
        <time>2023-09-20T08:30:49.598+00:00</time>
      </trkpt>
      <trkpt lat="48.37749" lon="2.67321">
        <ele>133</ele>
        <time>2023-09-20T08:30:54.604+00:00</time>
      </trkpt>
      <trkpt lat="48.37754" lon="2.67314">
        <ele>132</ele>
        <time>2023-09-20T08:30:59.586+00:00</time>
      </trkpt>
      <trkpt lat="48.37759" lon="2.6731">
        <ele>132</ele>
        <time>2023-09-20T08:31:03.604+00:00</time>
      </trkpt>
      <trkpt lat="48.37762" lon="2.67304">
        <ele>132</ele>
        <time>2023-09-20T08:31:08.583+00:00</time>
      </trkpt>
      <trkpt lat="48.37765" lon="2.67298">
        <ele>133</ele>
        <time>2023-09-20T08:31:12.619+00:00</time>
      </trkpt>
      <trkpt lat="48.3777" lon="2.67292">
        <ele>132</ele>
        <time>2023-09-20T08:31:17.617+00:00</time>
      </trkpt>
      <trkpt lat="48.37774" lon="2.67284">
        <ele>132</ele>
        <time>2023-09-20T08:31:22.601+00:00</time>
      </trkpt>
      <trkpt lat="48.37777" lon="2.67276">
        <ele>132</ele>
        <time>2023-09-20T08:31:27.614+00:00</time>
      </trkpt>
      <trkpt lat="48.37782" lon="2.6727">
        <ele>132</ele>
        <time>2023-09-20T08:31:32.608+00:00</time>
      </trkpt>
      <trkpt lat="48.37786" lon="2.67264">
        <ele>132</ele>
        <time>2023-09-20T08:31:37.584+00:00</time>
      </trkpt>
      <trkpt lat="48.37791" lon="2.67259">
        <ele>132</ele>
        <time>2023-09-20T08:31:42.576+00:00</time>
      </trkpt>
      <trkpt lat="48.37792" lon="2.6725">
        <ele>132</ele>
        <time>2023-09-20T08:31:47.586+00:00</time>
      </trkpt>
      <trkpt lat="48.37791" lon="2.67239">
        <ele>132</ele>
        <time>2023-09-20T08:31:51.604+00:00</time>
      </trkpt>
      <trkpt lat="48.37794" lon="2.67229">
        <ele>129</ele>
        <time>2023-09-20T08:31:56.611+00:00</time>
      </trkpt>
      <trkpt lat="48.37797" lon="2.67224">
        <ele>129</ele>
        <time>2023-09-20T08:32:01.600+00:00</time>
      </trkpt>
      <trkpt lat="48.37798" lon="2.67219">
        <ele>129</ele>
        <time>2023-09-20T08:32:06.584+00:00</time>
      </trkpt>
      <trkpt lat="48.378" lon="2.67215">
        <ele>129</ele>
        <time>2023-09-20T08:32:10.595+00:00</time>
      </trkpt>
      <trkpt lat="48.378" lon="2.67209">
        <ele>129</ele>
        <time>2023-09-20T08:32:15.596+00:00</time>
      </trkpt>
      <trkpt lat="48.37802" lon="2.67202">
        <ele>127</ele>
        <time>2023-09-20T08:32:20.576+00:00</time>
      </trkpt>
      <trkpt lat="48.37804" lon="2.67197">
        <ele>127</ele>
        <time>2023-09-20T08:32:24.598+00:00</time>
      </trkpt>
      <trkpt lat="48.37806" lon="2.67192">
        <ele>127</ele>
        <time>2023-09-20T08:32:29.572+00:00</time>
      </trkpt>
      <trkpt lat="48.37806" lon="2.67186">
        <ele>127</ele>
        <time>2023-09-20T08:32:33.593+00:00</time>
      </trkpt>
      <trkpt lat="48.37807" lon="2.67176">
        <ele>125</ele>
        <time>2023-09-20T08:32:38.566+00:00</time>
      </trkpt>
      <trkpt lat="48.37809" lon="2.67167">
        <ele>125</ele>
        <time>2023-09-20T08:32:43.561+00:00</time>
      </trkpt>
      <trkpt lat="48.3781" lon="2.67163">
        <ele>125</ele>
        <time>2023-09-20T08:32:47.586+00:00</time>
      </trkpt>
      <trkpt lat="48.37812" lon="2.67152">
        <ele>123</ele>
        <time>2023-09-20T08:32:52.581+00:00</time>
      </trkpt>
      <trkpt lat="48.37815" lon="2.67144">
        <ele>123</ele>
        <time>2023-09-20T08:32:57.596+00:00</time>
      </trkpt>
      <trkpt lat="48.37813" lon="2.67134">
        <ele>123</ele>
        <time>2023-09-20T08:33:02.565+00:00</time>
      </trkpt>
      <trkpt lat="48.37813" lon="2.67123">
        <ele>120</ele>
        <time>2023-09-20T08:33:06.594+00:00</time>
      </trkpt>
      <trkpt lat="48.37818" lon="2.67112">
        <ele>120</ele>
        <time>2023-09-20T08:33:11.586+00:00</time>
      </trkpt>
      <trkpt lat="48.37822" lon="2.67104">
        <ele>119</ele>
        <time>2023-09-20T08:33:16.592+00:00</time>
      </trkpt>
      <trkpt lat="48.37823" lon="2.67096">
        <ele>117</ele>
        <time>2023-09-20T08:33:21.592+00:00</time>
      </trkpt>
      <trkpt lat="48.37825" lon="2.67086">
        <ele>117</ele>
        <time>2023-09-20T08:33:26.595+00:00</time>
      </trkpt>
      <trkpt lat="48.37821" lon="2.67077">
        <ele>117</ele>
        <time>2023-09-20T08:33:31.569+00:00</time>
      </trkpt>
      <trkpt lat="48.37816" lon="2.67063">
        <ele>115</ele>
        <time>2023-09-20T08:33:36.580+00:00</time>
      </trkpt>
      <trkpt lat="48.37814" lon="2.67052">
        <ele>115</ele>
        <time>2023-09-20T08:33:41.554+00:00</time>
      </trkpt>
      <trkpt lat="48.37814" lon="2.67044">
        <ele>115</ele>
        <time>2023-09-20T08:33:45.597+00:00</time>
      </trkpt>
      <trkpt lat="48.3781" lon="2.67032">
        <ele>114</ele>
        <time>2023-09-20T08:33:50.574+00:00</time>
      </trkpt>
      <trkpt lat="48.37809" lon="2.67026">
        <ele>114</ele>
        <time>2023-09-20T08:33:54.598+00:00</time>
      </trkpt>
      <trkpt lat="48.37811" lon="2.67024">
        <ele>114</ele>
        <time>2023-09-20T08:33:59.573+00:00</time>
      </trkpt>
      <trkpt lat="48.37815" lon="2.67024">
        <ele>114</ele>
        <time>2023-09-20T08:34:04.580+00:00</time>
      </trkpt>
      <trkpt lat="48.37818" lon="2.67018">
        <ele>114</ele>
        <time>2023-09-20T08:34:08.599+00:00</time>
      </trkpt>
      <trkpt lat="48.37817" lon="2.6701">
        <ele>114</ele>
        <time>2023-09-20T08:34:13.589+00:00</time>
      </trkpt>
      <trkpt lat="48.37817" lon="2.67002">
        <ele>114</ele>
        <time>2023-09-20T08:34:17.604+00:00</time>
      </trkpt>
      <trkpt lat="48.37819" lon="2.66992">
        <ele>114</ele>
        <time>2023-09-20T08:34:22.593+00:00</time>
      </trkpt>
      <trkpt lat="48.37822" lon="2.66984">
        <ele>113</ele>
        <time>2023-09-20T08:34:27.581+00:00</time>
      </trkpt>
      <trkpt lat="48.37823" lon="2.66976">
        <ele>113</ele>
        <time>2023-09-20T08:34:32.577+00:00</time>
      </trkpt>
      <trkpt lat="48.37823" lon="2.66969">
        <ele>113</ele>
        <time>2023-09-20T08:34:36.597+00:00</time>
      </trkpt>
      <trkpt lat="48.37823" lon="2.66959">
        <ele>113</ele>
        <time>2023-09-20T08:34:41.580+00:00</time>
      </trkpt>
      <trkpt lat="48.37825" lon="2.6695">
        <ele>111</ele>
        <time>2023-09-20T08:34:46.589+00:00</time>
      </trkpt>
      <trkpt lat="48.37827" lon="2.66941">
        <ele>111</ele>
        <time>2023-09-20T08:34:51.557+00:00</time>
      </trkpt>
      <trkpt lat="48.37827" lon="2.66934">
        <ele>111</ele>
        <time>2023-09-20T08:34:55.574+00:00</time>
      </trkpt>
      <trkpt lat="48.37828" lon="2.66924">
        <ele>109</ele>
        <time>2023-09-20T08:35:00.593+00:00</time>
      </trkpt>
      <trkpt lat="48.37828" lon="2.6691">
        <ele>109</ele>
        <time>2023-09-20T08:35:05.568+00:00</time>
      </trkpt>
      <trkpt lat="48.37828" lon="2.66902">
        <ele>108</ele>
        <time>2023-09-20T08:35:09.584+00:00</time>
      </trkpt>
      <trkpt lat="48.37828" lon="2.66895">
        <ele>108</ele>
        <time>2023-09-20T08:35:13.583+00:00</time>
      </trkpt>
      <trkpt lat="48.37828" lon="2.66887">
        <ele>108</ele>
        <time>2023-09-20T08:35:18.592+00:00</time>
      </trkpt>
      <trkpt lat="48.37827" lon="2.6688">
        <ele>108</ele>
        <time>2023-09-20T08:35:23.608+00:00</time>
      </trkpt>
      <trkpt lat="48.37829" lon="2.66871">
        <ele>107</ele>
        <time>2023-09-20T08:35:28.590+00:00</time>
      </trkpt>
      <trkpt lat="48.37831" lon="2.6686">
        <ele>107</ele>
        <time>2023-09-20T08:35:33.584+00:00</time>
      </trkpt>
      <trkpt lat="48.37831" lon="2.66852">
        <ele>107</ele>
        <time>2023-09-20T08:35:37.600+00:00</time>
      </trkpt>
      <trkpt lat="48.3783" lon="2.6684">
        <ele>107</ele>
        <time>2023-09-20T08:35:42.606+00:00</time>
      </trkpt>
      <trkpt lat="48.3783" lon="2.66832">
        <ele>107</ele>
        <time>2023-09-20T08:35:47.588+00:00</time>
      </trkpt>
      <trkpt lat="48.37832" lon="2.66827">
        <ele>107</ele>
        <time>2023-09-20T08:35:51.603+00:00</time>
      </trkpt>
      <trkpt lat="48.37832" lon="2.66815">
        <ele>107</ele>
        <time>2023-09-20T08:35:56.581+00:00</time>
      </trkpt>
      <trkpt lat="48.37833" lon="2.66806">
        <ele>107</ele>
        <time>2023-09-20T08:36:00.597+00:00</time>
      </trkpt>
      <trkpt lat="48.37833" lon="2.66796">
        <ele>107</ele>
        <time>2023-09-20T08:36:05.580+00:00</time>
      </trkpt>
      <trkpt lat="48.37832" lon="2.66789">
        <ele>106</ele>
        <time>2023-09-20T08:36:09.601+00:00</time>
      </trkpt>
      <trkpt lat="48.37832" lon="2.66779">
        <ele>106</ele>
        <time>2023-09-20T08:36:14.583+00:00</time>
      </trkpt>
      <trkpt lat="48.37833" lon="2.66768">
        <ele>106</ele>
        <time>2023-09-20T08:36:19.579+00:00</time>
      </trkpt>
      <trkpt lat="48.37833" lon="2.66758">
        <ele>105</ele>
        <time>2023-09-20T08:36:23.604+00:00</time>
      </trkpt>
      <trkpt lat="48.37834" lon="2.66749">
        <ele>105</ele>
        <time>2023-09-20T08:36:28.581+00:00</time>
      </trkpt>
      <trkpt lat="48.37834" lon="2.66741">
        <ele>105</ele>
        <time>2023-09-20T08:36:33.559+00:00</time>
      </trkpt>
      <trkpt lat="48.37836" lon="2.66741">
        <ele>105</ele>
        <time>2023-09-20T08:36:37.557+00:00</time>
      </trkpt>
      <trkpt lat="48.37839" lon="2.66736">
        <ele>105</ele>
        <time>2023-09-20T08:36:41.546+00:00</time>
      </trkpt>
      <trkpt lat="48.37842" lon="2.6673">
        <ele>104</ele>
        <time>2023-09-20T08:36:46.550+00:00</time>
      </trkpt>
      <trkpt lat="48.37843" lon="2.66723">
        <ele>104</ele>
        <time>2023-09-20T08:36:50.556+00:00</time>
      </trkpt>
      <trkpt lat="48.3784" lon="2.6671">
        <ele>104</ele>
        <time>2023-09-20T08:36:55.552+00:00</time>
      </trkpt>
      <trkpt lat="48.37842" lon="2.66697">
        <ele>103</ele>
        <time>2023-09-20T08:37:00.570+00:00</time>
      </trkpt>
      <trkpt lat="48.37842" lon="2.66686">
        <ele>103</ele>
        <time>2023-09-20T08:37:04.550+00:00</time>
      </trkpt>
      <trkpt lat="48.37841" lon="2.66677">
        <ele>102</ele>
        <time>2023-09-20T08:37:09.559+00:00</time>
      </trkpt>
      <trkpt lat="48.37839" lon="2.66666">
        <ele>102</ele>
        <time>2023-09-20T08:37:14.580+00:00</time>
      </trkpt>
      <trkpt lat="48.37838" lon="2.66659">
        <ele>102</ele>
        <time>2023-09-20T08:37:18.564+00:00</time>
      </trkpt>
      <trkpt lat="48.37839" lon="2.66644">
        <ele>102</ele>
        <time>2023-09-20T08:37:27.557+00:00</time>
      </trkpt>
      <trkpt lat="48.37841" lon="2.66644">
        <ele>102</ele>
        <time>2023-09-20T08:37:32.550+00:00</time>
      </trkpt>
      <trkpt lat="48.37841" lon="2.66643">
        <ele>102</ele>
        <time>2023-09-20T08:37:37.552+00:00</time>
      </trkpt>
      <trkpt lat="48.37838" lon="2.66637">
        <ele>102</ele>
        <time>2023-09-20T08:37:41.554+00:00</time>
      </trkpt>
      <trkpt lat="48.3784" lon="2.66634">
        <ele>102</ele>
        <time>2023-09-20T08:37:46.571+00:00</time>
      </trkpt>
      <trkpt lat="48.3784" lon="2.66637">
        <ele>102</ele>
        <time>2023-09-20T08:37:51.548+00:00</time>
      </trkpt>
      <trkpt lat="48.37839" lon="2.66638">
        <ele>102</ele>
        <time>2023-09-20T08:37:55.571+00:00</time>
      </trkpt>
      <trkpt lat="48.37837" lon="2.66633">
        <ele>102</ele>
        <time>2023-09-20T08:38:00.572+00:00</time>
      </trkpt>
      <trkpt lat="48.3783" lon="2.66624">
        <ele>102</ele>
        <time>2023-09-20T08:38:05.570+00:00</time>
      </trkpt>
      <trkpt lat="48.37825" lon="2.6662">
        <ele>102</ele>
        <time>2023-09-20T08:38:10.570+00:00</time>
      </trkpt>
      <trkpt lat="48.37819" lon="2.66619">
        <ele>102</ele>
        <time>2023-09-20T08:38:15.575+00:00</time>
      </trkpt>
      <trkpt lat="48.37816" lon="2.66617">
        <ele>102</ele>
        <time>2023-09-20T08:38:19.580+00:00</time>
      </trkpt>
      <trkpt lat="48.37812" lon="2.66614">
        <ele>102</ele>
        <time>2023-09-20T08:38:24.587+00:00</time>
      </trkpt>
      <trkpt lat="48.37807" lon="2.6661">
        <ele>102</ele>
        <time>2023-09-20T08:38:29.582+00:00</time>
      </trkpt>
      <trkpt lat="48.37802" lon="2.66608">
        <ele>102</ele>
        <time>2023-09-20T08:38:34.581+00:00</time>
      </trkpt>
      <trkpt lat="48.37797" lon="2.66604">
        <ele>102</ele>
        <time>2023-09-20T08:38:39.581+00:00</time>
      </trkpt>
      <trkpt lat="48.37789" lon="2.66598">
        <ele>104</ele>
        <time>2023-09-20T08:38:44.579+00:00</time>
      </trkpt>
      <trkpt lat="48.37782" lon="2.66594">
        <ele>104</ele>
        <time>2023-09-20T08:38:49.571+00:00</time>
      </trkpt>
      <trkpt lat="48.37775" lon="2.66588">
        <ele>104</ele>
        <time>2023-09-20T08:38:54.584+00:00</time>
      </trkpt>
      <trkpt lat="48.37771" lon="2.66585">
        <ele>104</ele>
        <time>2023-09-20T08:38:58.587+00:00</time>
      </trkpt>
      <trkpt lat="48.37765" lon="2.6658">
        <ele>104</ele>
        <time>2023-09-20T08:39:03.574+00:00</time>
      </trkpt>
      <trkpt lat="48.3776" lon="2.66575">
        <ele>106</ele>
        <time>2023-09-20T08:39:07.583+00:00</time>
      </trkpt>
      <trkpt lat="48.37757" lon="2.6657">
        <ele>106</ele>
        <time>2023-09-20T08:39:12.582+00:00</time>
      </trkpt>
      <trkpt lat="48.37753" lon="2.66564">
        <ele>107</ele>
        <time>2023-09-20T08:39:16.593+00:00</time>
      </trkpt>
      <trkpt lat="48.37749" lon="2.66558">
        <ele>107</ele>
        <time>2023-09-20T08:39:21.599+00:00</time>
      </trkpt>
      <trkpt lat="48.37745" lon="2.66552">
        <ele>107</ele>
        <time>2023-09-20T08:39:26.578+00:00</time>
      </trkpt>
      <trkpt lat="48.37741" lon="2.66546">
        <ele>107</ele>
        <time>2023-09-20T08:39:30.601+00:00</time>
      </trkpt>
      <trkpt lat="48.37736" lon="2.66538">
        <ele>108</ele>
        <time>2023-09-20T08:39:35.577+00:00</time>
      </trkpt>
      <trkpt lat="48.37733" lon="2.66531">
        <ele>107</ele>
        <time>2023-09-20T08:39:39.592+00:00</time>
      </trkpt>
      <trkpt lat="48.37729" lon="2.66523">
        <ele>107</ele>
        <time>2023-09-20T08:39:44.573+00:00</time>
      </trkpt>
      <trkpt lat="48.37725" lon="2.66516">
        <ele>107</ele>
        <time>2023-09-20T08:39:48.595+00:00</time>
      </trkpt>
      <trkpt lat="48.37721" lon="2.6651">
        <ele>107</ele>
        <time>2023-09-20T08:39:52.598+00:00</time>
      </trkpt>
      <trkpt lat="48.37718" lon="2.66502">
        <ele>107</ele>
        <time>2023-09-20T08:39:57.586+00:00</time>
      </trkpt>
      <trkpt lat="48.37713" lon="2.66496">
        <ele>107</ele>
        <time>2023-09-20T08:40:02.590+00:00</time>
      </trkpt>
      <trkpt lat="48.37709" lon="2.6649">
        <ele>107</ele>
        <time>2023-09-20T08:40:07.592+00:00</time>
      </trkpt>
      <trkpt lat="48.37704" lon="2.66481">
        <ele>107</ele>
        <time>2023-09-20T08:40:12.592+00:00</time>
      </trkpt>
      <trkpt lat="48.37699" lon="2.66474">
        <ele>107</ele>
        <time>2023-09-20T08:40:17.583+00:00</time>
      </trkpt>
      <trkpt lat="48.37697" lon="2.6647">
        <ele>107</ele>
        <time>2023-09-20T08:40:21.577+00:00</time>
      </trkpt>
      <trkpt lat="48.37691" lon="2.66464">
        <ele>107</ele>
        <time>2023-09-20T08:40:26.582+00:00</time>
      </trkpt>
      <trkpt lat="48.37686" lon="2.66459">
        <ele>107</ele>
        <time>2023-09-20T08:40:31.580+00:00</time>
      </trkpt>
      <trkpt lat="48.37682" lon="2.66455">
        <ele>107</ele>
        <time>2023-09-20T08:40:35.584+00:00</time>
      </trkpt>
      <trkpt lat="48.37676" lon="2.66448">
        <ele>105</ele>
        <time>2023-09-20T08:40:40.580+00:00</time>
      </trkpt>
      <trkpt lat="48.3767" lon="2.6644">
        <ele>105</ele>
        <time>2023-09-20T08:40:45.596+00:00</time>
      </trkpt>
      <trkpt lat="48.37666" lon="2.66433">
        <ele>105</ele>
        <time>2023-09-20T08:40:49.597+00:00</time>
      </trkpt>
      <trkpt lat="48.37663" lon="2.66425">
        <ele>105</ele>
        <time>2023-09-20T08:40:54.594+00:00</time>
      </trkpt>
      <trkpt lat="48.3766" lon="2.6642">
        <ele>105</ele>
        <time>2023-09-20T08:40:59.584+00:00</time>
      </trkpt>
      <trkpt lat="48.37656" lon="2.66415">
        <ele>105</ele>
        <time>2023-09-20T08:41:04.579+00:00</time>
      </trkpt>
      <trkpt lat="48.37651" lon="2.66409">
        <ele>105</ele>
        <time>2023-09-20T08:41:08.594+00:00</time>
      </trkpt>
      <trkpt lat="48.37647" lon="2.66401">
        <ele>105</ele>
        <time>2023-09-20T08:41:13.595+00:00</time>
      </trkpt>
      <trkpt lat="48.37641" lon="2.66395">
        <ele>105</ele>
        <time>2023-09-20T08:41:18.565+00:00</time>
      </trkpt>
      <trkpt lat="48.37638" lon="2.6639">
        <ele>105</ele>
        <time>2023-09-20T08:41:22.595+00:00</time>
      </trkpt>
      <trkpt lat="48.37635" lon="2.66385">
        <ele>105</ele>
        <time>2023-09-20T08:41:26.611+00:00</time>
      </trkpt>
      <trkpt lat="48.37632" lon="2.66378">
        <ele>105</ele>
        <time>2023-09-20T08:41:31.579+00:00</time>
      </trkpt>
      <trkpt lat="48.37628" lon="2.6637">
        <ele>106</ele>
        <time>2023-09-20T08:41:35.590+00:00</time>
      </trkpt>
      <trkpt lat="48.37622" lon="2.6636">
        <ele>108</ele>
        <time>2023-09-20T08:41:40.590+00:00</time>
      </trkpt>
      <trkpt lat="48.37618" lon="2.66354">
        <ele>108</ele>
        <time>2023-09-20T08:41:44.593+00:00</time>
      </trkpt>
      <trkpt lat="48.37616" lon="2.66349">
        <ele>108</ele>
        <time>2023-09-20T08:41:48.599+00:00</time>
      </trkpt>
      <trkpt lat="48.37614" lon="2.66342">
        <ele>108</ele>
        <time>2023-09-20T08:41:53.584+00:00</time>
      </trkpt>
      <trkpt lat="48.37611" lon="2.66334">
        <ele>108</ele>
        <time>2023-09-20T08:41:58.588+00:00</time>
      </trkpt>
      <trkpt lat="48.37608" lon="2.66324">
        <ele>108</ele>
        <time>2023-09-20T08:42:03.571+00:00</time>
      </trkpt>
      <trkpt lat="48.37606" lon="2.66318">
        <ele>109</ele>
        <time>2023-09-20T08:42:07.593+00:00</time>
      </trkpt>
      <trkpt lat="48.37604" lon="2.66312">
        <ele>109</ele>
        <time>2023-09-20T08:42:12.584+00:00</time>
      </trkpt>
      <trkpt lat="48.37602" lon="2.66306">
        <ele>109</ele>
        <time>2023-09-20T08:42:17.583+00:00</time>
      </trkpt>
      <trkpt lat="48.37601" lon="2.66302">
        <ele>109</ele>
        <time>2023-09-20T08:42:21.594+00:00</time>
      </trkpt>
      <trkpt lat="48.376" lon="2.66297">
        <ele>109</ele>
        <time>2023-09-20T08:42:25.593+00:00</time>
      </trkpt>
      <trkpt lat="48.37599" lon="2.66289">
        <ele>110</ele>
        <time>2023-09-20T08:42:30.583+00:00</time>
      </trkpt>
      <trkpt lat="48.37596" lon="2.66283">
        <ele>112</ele>
        <time>2023-09-20T08:42:35.580+00:00</time>
      </trkpt>
      <trkpt lat="48.37594" lon="2.66281">
        <ele>112</ele>
        <time>2023-09-20T08:42:40.587+00:00</time>
      </trkpt>
      <trkpt lat="48.37592" lon="2.66274">
        <ele>112</ele>
        <time>2023-09-20T08:42:45.589+00:00</time>
      </trkpt>
      <trkpt lat="48.3759" lon="2.66265">
        <ele>112</ele>
        <time>2023-09-20T08:42:50.590+00:00</time>
      </trkpt>
      <trkpt lat="48.3759" lon="2.66258">
        <ele>114</ele>
        <time>2023-09-20T08:42:54.588+00:00</time>
      </trkpt>
      <trkpt lat="48.37587" lon="2.66251">
        <ele>114</ele>
        <time>2023-09-20T08:42:59.579+00:00</time>
      </trkpt>
      <trkpt lat="48.37584" lon="2.66245">
        <ele>114</ele>
        <time>2023-09-20T08:43:04.594+00:00</time>
      </trkpt>
      <trkpt lat="48.37582" lon="2.66239">
        <ele>114</ele>
        <time>2023-09-20T08:43:08.610+00:00</time>
      </trkpt>
      <trkpt lat="48.3758" lon="2.66233">
        <ele>117</ele>
        <time>2023-09-20T08:43:12.615+00:00</time>
      </trkpt>
      <trkpt lat="48.3758" lon="2.66226">
        <ele>117</ele>
        <time>2023-09-20T08:43:17.600+00:00</time>
      </trkpt>
      <trkpt lat="48.37578" lon="2.66219">
        <ele>117</ele>
        <time>2023-09-20T08:43:22.590+00:00</time>
      </trkpt>
      <trkpt lat="48.37575" lon="2.66214">
        <ele>117</ele>
        <time>2023-09-20T08:43:27.596+00:00</time>
      </trkpt>
      <trkpt lat="48.37572" lon="2.66209">
        <ele>117</ele>
        <time>2023-09-20T08:43:32.606+00:00</time>
      </trkpt>
      <trkpt lat="48.37571" lon="2.66203">
        <ele>121</ele>
        <time>2023-09-20T08:43:37.601+00:00</time>
      </trkpt>
      <trkpt lat="48.3757" lon="2.66197">
        <ele>121</ele>
        <time>2023-09-20T08:43:42.591+00:00</time>
      </trkpt>
      <trkpt lat="48.37568" lon="2.66191">
        <ele>124</ele>
        <time>2023-09-20T08:43:47.602+00:00</time>
      </trkpt>
      <trkpt lat="48.37566" lon="2.66184">
        <ele>124</ele>
        <time>2023-09-20T08:43:52.587+00:00</time>
      </trkpt>
      <trkpt lat="48.37563" lon="2.66177">
        <ele>128</ele>
        <time>2023-09-20T08:43:57.581+00:00</time>
      </trkpt>
      <trkpt lat="48.37562" lon="2.66172">
        <ele>128</ele>
        <time>2023-09-20T08:44:02.589+00:00</time>
      </trkpt>
      <trkpt lat="48.3756" lon="2.66166">
        <ele>128</ele>
        <time>2023-09-20T08:44:07.581+00:00</time>
      </trkpt>
      <trkpt lat="48.37559" lon="2.66162">
        <ele>128</ele>
        <time>2023-09-20T08:44:12.594+00:00</time>
      </trkpt>
      <trkpt lat="48.37557" lon="2.66158">
        <ele>128</ele>
        <time>2023-09-20T08:44:17.587+00:00</time>
      </trkpt>
      <trkpt lat="48.37556" lon="2.66153">
        <ele>128</ele>
        <time>2023-09-20T08:44:22.603+00:00</time>
      </trkpt>
      <trkpt lat="48.37555" lon="2.66148">
        <ele>130</ele>
        <time>2023-09-20T08:44:27.598+00:00</time>
      </trkpt>
      <trkpt lat="48.37555" lon="2.66141">
        <ele>130</ele>
        <time>2023-09-20T08:44:31.588+00:00</time>
      </trkpt>
      <trkpt lat="48.37554" lon="2.66133">
        <ele>130</ele>
        <time>2023-09-20T08:44:36.589+00:00</time>
      </trkpt>
      <trkpt lat="48.37552" lon="2.66122">
        <ele>130</ele>
        <time>2023-09-20T08:44:41.605+00:00</time>
      </trkpt>
      <trkpt lat="48.37553" lon="2.66112">
        <ele>130</ele>
        <time>2023-09-20T08:44:46.597+00:00</time>
      </trkpt>
      <trkpt lat="48.37554" lon="2.66104">
        <ele>130</ele>
        <time>2023-09-20T08:44:50.595+00:00</time>
      </trkpt>
      <trkpt lat="48.37554" lon="2.66095">
        <ele>131</ele>
        <time>2023-09-20T08:44:55.589+00:00</time>
      </trkpt>
      <trkpt lat="48.37553" lon="2.66087">
        <ele>131</ele>
        <time>2023-09-20T08:45:00.606+00:00</time>
      </trkpt>
      <trkpt lat="48.37551" lon="2.66078">
        <ele>131</ele>
        <time>2023-09-20T08:45:05.596+00:00</time>
      </trkpt>
      <trkpt lat="48.3755" lon="2.66072">
        <ele>131</ele>
        <time>2023-09-20T08:45:10.609+00:00</time>
      </trkpt>
      <trkpt lat="48.37548" lon="2.66063">
        <ele>133</ele>
        <time>2023-09-20T08:45:15.608+00:00</time>
      </trkpt>
      <trkpt lat="48.37546" lon="2.66053">
        <ele>133</ele>
        <time>2023-09-20T08:45:20.574+00:00</time>
      </trkpt>
      <trkpt lat="48.37544" lon="2.66046">
        <ele>133</ele>
        <time>2023-09-20T08:45:24.606+00:00</time>
      </trkpt>
      <trkpt lat="48.37542" lon="2.66038">
        <ele>133</ele>
        <time>2023-09-20T08:45:29.588+00:00</time>
      </trkpt>
      <trkpt lat="48.3754" lon="2.66028">
        <ele>134</ele>
        <time>2023-09-20T08:45:34.581+00:00</time>
      </trkpt>
      <trkpt lat="48.37538" lon="2.66018">
        <ele>134</ele>
        <time>2023-09-20T08:45:39.605+00:00</time>
      </trkpt>
      <trkpt lat="48.37536" lon="2.6601">
        <ele>134</ele>
        <time>2023-09-20T08:45:44.598+00:00</time>
      </trkpt>
      <trkpt lat="48.37534" lon="2.66004">
        <ele>134</ele>
        <time>2023-09-20T08:45:48.611+00:00</time>
      </trkpt>
      <trkpt lat="48.37533" lon="2.65997">
        <ele>134</ele>
        <time>2023-09-20T08:45:52.601+00:00</time>
      </trkpt>
      <trkpt lat="48.3753" lon="2.6599">
        <ele>134</ele>
        <time>2023-09-20T08:45:57.576+00:00</time>
      </trkpt>
      <trkpt lat="48.37528" lon="2.65981">
        <ele>134</ele>
        <time>2023-09-20T08:46:02.611+00:00</time>
      </trkpt>
      <trkpt lat="48.37526" lon="2.65972">
        <ele>134</ele>
        <time>2023-09-20T08:46:07.605+00:00</time>
      </trkpt>
      <trkpt lat="48.37524" lon="2.65962">
        <ele>134</ele>
        <time>2023-09-20T08:46:12.593+00:00</time>
      </trkpt>
      <trkpt lat="48.37522" lon="2.65956">
        <ele>133</ele>
        <time>2023-09-20T08:46:16.614+00:00</time>
      </trkpt>
      <trkpt lat="48.3752" lon="2.65949">
        <ele>133</ele>
        <time>2023-09-20T08:46:20.605+00:00</time>
      </trkpt>
      <trkpt lat="48.37516" lon="2.6594">
        <ele>133</ele>
        <time>2023-09-20T08:46:25.586+00:00</time>
      </trkpt>
      <trkpt lat="48.37514" lon="2.65933">
        <ele>133</ele>
        <time>2023-09-20T08:46:30.597+00:00</time>
      </trkpt>
      <trkpt lat="48.37511" lon="2.65924">
        <ele>129</ele>
        <time>2023-09-20T08:46:35.596+00:00</time>
      </trkpt>
      <trkpt lat="48.37507" lon="2.65914">
        <ele>129</ele>
        <time>2023-09-20T08:46:40.595+00:00</time>
      </trkpt>
      <trkpt lat="48.37504" lon="2.65907">
        <ele>129</ele>
        <time>2023-09-20T08:46:45.594+00:00</time>
      </trkpt>
      <trkpt lat="48.375" lon="2.65901">
        <ele>130</ele>
        <time>2023-09-20T08:46:50.584+00:00</time>
      </trkpt>
      <trkpt lat="48.37498" lon="2.65897">
        <ele>130</ele>
        <time>2023-09-20T08:46:54.597+00:00</time>
      </trkpt>
      <trkpt lat="48.37493" lon="2.65893">
        <ele>130</ele>
        <time>2023-09-20T08:46:58.613+00:00</time>
      </trkpt>
      <trkpt lat="48.37489" lon="2.65888">
        <ele>130</ele>
        <time>2023-09-20T08:47:03.600+00:00</time>
      </trkpt>
      <trkpt lat="48.37484" lon="2.65881">
        <ele>129</ele>
        <time>2023-09-20T08:47:08.609+00:00</time>
      </trkpt>
      <trkpt lat="48.37478" lon="2.65878">
        <ele>129</ele>
        <time>2023-09-20T08:47:13.599+00:00</time>
      </trkpt>
      <trkpt lat="48.37472" lon="2.65874">
        <ele>130</ele>
        <time>2023-09-20T08:47:18.599+00:00</time>
      </trkpt>
      <trkpt lat="48.37468" lon="2.65869">
        <ele>130</ele>
        <time>2023-09-20T08:47:22.601+00:00</time>
      </trkpt>
      <trkpt lat="48.37463" lon="2.65863">
        <ele>130</ele>
        <time>2023-09-20T08:47:27.597+00:00</time>
      </trkpt>
      <trkpt lat="48.37458" lon="2.65859">
        <ele>129</ele>
        <time>2023-09-20T08:47:32.608+00:00</time>
      </trkpt>
      <trkpt lat="48.37452" lon="2.65855">
        <ele>129</ele>
        <time>2023-09-20T08:47:37.594+00:00</time>
      </trkpt>
      <trkpt lat="48.37447" lon="2.65849">
        <ele>129</ele>
        <time>2023-09-20T08:47:42.601+00:00</time>
      </trkpt>
      <trkpt lat="48.37442" lon="2.65844">
        <ele>130</ele>
        <time>2023-09-20T08:47:47.597+00:00</time>
      </trkpt>
      <trkpt lat="48.37435" lon="2.65837">
        <ele>130</ele>
        <time>2023-09-20T08:47:52.608+00:00</time>
      </trkpt>
      <trkpt lat="48.37431" lon="2.65833">
        <ele>130</ele>
        <time>2023-09-20T08:47:56.617+00:00</time>
      </trkpt>
      <trkpt lat="48.37426" lon="2.65831">
        <ele>128</ele>
        <time>2023-09-20T08:48:01.601+00:00</time>
      </trkpt>
      <trkpt lat="48.37422" lon="2.65828">
        <ele>128</ele>
        <time>2023-09-20T08:48:06.575+00:00</time>
      </trkpt>
      <trkpt lat="48.37417" lon="2.65823">
        <ele>128</ele>
        <time>2023-09-20T08:48:10.589+00:00</time>
      </trkpt>
      <trkpt lat="48.37411" lon="2.65816">
        <ele>130</ele>
        <time>2023-09-20T08:48:14.620+00:00</time>
      </trkpt>
      <trkpt lat="48.37405" lon="2.65807">
        <ele>130</ele>
        <time>2023-09-20T08:48:19.627+00:00</time>
      </trkpt>
      <trkpt lat="48.37399" lon="2.658">
        <ele>130</ele>
        <time>2023-09-20T08:48:24.607+00:00</time>
      </trkpt>
      <trkpt lat="48.37394" lon="2.65796">
        <ele>130</ele>
        <time>2023-09-20T08:48:29.601+00:00</time>
      </trkpt>
      <trkpt lat="48.37389" lon="2.65791">
        <ele>131</ele>
        <time>2023-09-20T08:48:34.617+00:00</time>
      </trkpt>
      <trkpt lat="48.37383" lon="2.65785">
        <ele>131</ele>
        <time>2023-09-20T08:48:39.605+00:00</time>
      </trkpt>
      <trkpt lat="48.37378" lon="2.65781">
        <ele>131</ele>
        <time>2023-09-20T08:48:43.607+00:00</time>
      </trkpt>
      <trkpt lat="48.37373" lon="2.65777">
        <ele>130</ele>
        <time>2023-09-20T08:48:48.614+00:00</time>
      </trkpt>
      <trkpt lat="48.37369" lon="2.65775">
        <ele>130</ele>
        <time>2023-09-20T08:48:52.636+00:00</time>
      </trkpt>
      <trkpt lat="48.37365" lon="2.65769">
        <ele>130</ele>
        <time>2023-09-20T08:48:57.595+00:00</time>
      </trkpt>
      <trkpt lat="48.37361" lon="2.65764">
        <ele>130</ele>
        <time>2023-09-20T08:49:01.605+00:00</time>
      </trkpt>
      <trkpt lat="48.37355" lon="2.6576">
        <ele>129</ele>
        <time>2023-09-20T08:49:06.611+00:00</time>
      </trkpt>
      <trkpt lat="48.37349" lon="2.65754">
        <ele>129</ele>
        <time>2023-09-20T08:49:11.605+00:00</time>
      </trkpt>
      <trkpt lat="48.37345" lon="2.6575">
        <ele>129</ele>
        <time>2023-09-20T08:49:15.619+00:00</time>
      </trkpt>
      <trkpt lat="48.37341" lon="2.65746">
        <ele>129</ele>
        <time>2023-09-20T08:49:19.617+00:00</time>
      </trkpt>
      <trkpt lat="48.37339" lon="2.65738">
        <ele>129</ele>
        <time>2023-09-20T08:49:24.599+00:00</time>
      </trkpt>
      <trkpt lat="48.37339" lon="2.65733">
        <ele>128</ele>
        <time>2023-09-20T08:49:28.600+00:00</time>
      </trkpt>
      <trkpt lat="48.3734" lon="2.65725">
        <ele>128</ele>
        <time>2023-09-20T08:49:32.613+00:00</time>
      </trkpt>
      <trkpt lat="48.37342" lon="2.65718">
        <ele>128</ele>
        <time>2023-09-20T08:49:36.623+00:00</time>
      </trkpt>
      <trkpt lat="48.37342" lon="2.65707">
        <ele>126</ele>
        <time>2023-09-20T08:49:41.622+00:00</time>
      </trkpt>
      <trkpt lat="48.3734" lon="2.65702">
        <ele>126</ele>
        <time>2023-09-20T08:49:45.619+00:00</time>
      </trkpt>
      <trkpt lat="48.37342" lon="2.65694">
        <ele>126</ele>
        <time>2023-09-20T08:49:50.632+00:00</time>
      </trkpt>
      <trkpt lat="48.37345" lon="2.65685">
        <ele>126</ele>
        <time>2023-09-20T08:49:55.616+00:00</time>
      </trkpt>
      <trkpt lat="48.37345" lon="2.65676">
        <ele>125</ele>
        <time>2023-09-20T08:50:00.623+00:00</time>
      </trkpt>
      <trkpt lat="48.37343" lon="2.65667">
        <ele>125</ele>
        <time>2023-09-20T08:50:05.625+00:00</time>
      </trkpt>
      <trkpt lat="48.37343" lon="2.6566">
        <ele>125</ele>
        <time>2023-09-20T08:50:09.613+00:00</time>
      </trkpt>
      <trkpt lat="48.37341" lon="2.65652">
        <ele>123</ele>
        <time>2023-09-20T08:50:14.571+00:00</time>
      </trkpt>
      <trkpt lat="48.37338" lon="2.65645">
        <ele>123</ele>
        <time>2023-09-20T08:50:19.588+00:00</time>
      </trkpt>
      <trkpt lat="48.37335" lon="2.65638">
        <ele>123</ele>
        <time>2023-09-20T08:50:24.616+00:00</time>
      </trkpt>
      <trkpt lat="48.37331" lon="2.65631">
        <ele>123</ele>
        <time>2023-09-20T08:50:29.619+00:00</time>
      </trkpt>
      <trkpt lat="48.37327" lon="2.65621">
        <ele>122</ele>
        <time>2023-09-20T08:50:34.607+00:00</time>
      </trkpt>
      <trkpt lat="48.37324" lon="2.65612">
        <ele>122</ele>
        <time>2023-09-20T08:50:39.616+00:00</time>
      </trkpt>
      <trkpt lat="48.37319" lon="2.65603">
        <ele>123</ele>
        <time>2023-09-20T08:50:44.598+00:00</time>
      </trkpt>
      <trkpt lat="48.37316" lon="2.65595">
        <ele>123</ele>
        <time>2023-09-20T08:50:48.600+00:00</time>
      </trkpt>
      <trkpt lat="48.37313" lon="2.65587">
        <ele>123</ele>
        <time>2023-09-20T08:50:53.608+00:00</time>
      </trkpt>
      <trkpt lat="48.37311" lon="2.6558">
        <ele>123</ele>
        <time>2023-09-20T08:50:58.580+00:00</time>
      </trkpt>
      <trkpt lat="48.3731" lon="2.65573">
        <ele>123</ele>
        <time>2023-09-20T08:51:02.610+00:00</time>
      </trkpt>
      <trkpt lat="48.37305" lon="2.65564">
        <ele>125</ele>
        <time>2023-09-20T08:51:07.602+00:00</time>
      </trkpt>
      <trkpt lat="48.37302" lon="2.65555">
        <ele>125</ele>
        <time>2023-09-20T08:51:12.580+00:00</time>
      </trkpt>
      <trkpt lat="48.37299" lon="2.65549">
        <ele>125</ele>
        <time>2023-09-20T08:51:16.617+00:00</time>
      </trkpt>
      <trkpt lat="48.37297" lon="2.65545">
        <ele>125</ele>
        <time>2023-09-20T08:51:20.622+00:00</time>
      </trkpt>
      <trkpt lat="48.37295" lon="2.6554">
        <ele>127</ele>
        <time>2023-09-20T08:51:25.572+00:00</time>
      </trkpt>
      <trkpt lat="48.37293" lon="2.65534">
        <ele>127</ele>
        <time>2023-09-20T08:51:29.620+00:00</time>
      </trkpt>
      <trkpt lat="48.37289" lon="2.65523">
        <ele>127</ele>
        <time>2023-09-20T08:51:34.597+00:00</time>
      </trkpt>
      <trkpt lat="48.37286" lon="2.65515">
        <ele>127</ele>
        <time>2023-09-20T08:51:38.603+00:00</time>
      </trkpt>
      <trkpt lat="48.37281" lon="2.65508">
        <ele>129</ele>
        <time>2023-09-20T08:51:42.634+00:00</time>
      </trkpt>
      <trkpt lat="48.37275" lon="2.65501">
        <ele>129</ele>
        <time>2023-09-20T08:51:47.578+00:00</time>
      </trkpt>
      <trkpt lat="48.37271" lon="2.65498">
        <ele>129</ele>
        <time>2023-09-20T08:51:51.577+00:00</time>
      </trkpt>
      <trkpt lat="48.37267" lon="2.65496">
        <ele>129</ele>
        <time>2023-09-20T08:51:55.621+00:00</time>
      </trkpt>
      <trkpt lat="48.37263" lon="2.65492">
        <ele>129</ele>
        <time>2023-09-20T08:52:00.622+00:00</time>
      </trkpt>
      <trkpt lat="48.37258" lon="2.65486">
        <ele>129</ele>
        <time>2023-09-20T08:52:05.630+00:00</time>
      </trkpt>
      <trkpt lat="48.37253" lon="2.65483">
        <ele>128</ele>
        <time>2023-09-20T08:52:10.619+00:00</time>
      </trkpt>
      <trkpt lat="48.37249" lon="2.65481">
        <ele>128</ele>
        <time>2023-09-20T08:52:15.617+00:00</time>
      </trkpt>
      <trkpt lat="48.37245" lon="2.65476">
        <ele>128</ele>
        <time>2023-09-20T08:52:19.627+00:00</time>
      </trkpt>
      <trkpt lat="48.3724" lon="2.65471">
        <ele>128</ele>
        <time>2023-09-20T08:52:24.604+00:00</time>
      </trkpt>
      <trkpt lat="48.37237" lon="2.65467">
        <ele>128</ele>
        <time>2023-09-20T08:52:28.632+00:00</time>
      </trkpt>
      <trkpt lat="48.37232" lon="2.65463">
        <ele>128</ele>
        <time>2023-09-20T08:52:33.642+00:00</time>
      </trkpt>
      <trkpt lat="48.37228" lon="2.65462">
        <ele>128</ele>
        <time>2023-09-20T08:52:37.626+00:00</time>
      </trkpt>
      <trkpt lat="48.37222" lon="2.65456">
        <ele>128</ele>
        <time>2023-09-20T08:52:42.617+00:00</time>
      </trkpt>
      <trkpt lat="48.37218" lon="2.65451">
        <ele>128</ele>
        <time>2023-09-20T08:52:47.571+00:00</time>
      </trkpt>
      <trkpt lat="48.37214" lon="2.65448">
        <ele>128</ele>
        <time>2023-09-20T08:52:51.618+00:00</time>
      </trkpt>
      <trkpt lat="48.37208" lon="2.65446">
        <ele>128</ele>
        <time>2023-09-20T08:52:56.600+00:00</time>
      </trkpt>
      <trkpt lat="48.37204" lon="2.65443">
        <ele>129</ele>
        <time>2023-09-20T08:53:00.634+00:00</time>
      </trkpt>
      <trkpt lat="48.372" lon="2.65439">
        <ele>129</ele>
        <time>2023-09-20T08:53:05.609+00:00</time>
      </trkpt>
      <trkpt lat="48.37194" lon="2.65433">
        <ele>129</ele>
        <time>2023-09-20T08:53:10.644+00:00</time>
      </trkpt>
      <trkpt lat="48.37189" lon="2.65428">
        <ele>129</ele>
        <time>2023-09-20T08:53:15.608+00:00</time>
      </trkpt>
      <trkpt lat="48.37185" lon="2.65424">
        <ele>129</ele>
        <time>2023-09-20T08:53:19.624+00:00</time>
      </trkpt>
      <trkpt lat="48.3718" lon="2.65417">
        <ele>131</ele>
        <time>2023-09-20T08:53:24.642+00:00</time>
      </trkpt>
      <trkpt lat="48.37175" lon="2.65408">
        <ele>131</ele>
        <time>2023-09-20T08:53:29.604+00:00</time>
      </trkpt>
      <trkpt lat="48.37171" lon="2.65403">
        <ele>132</ele>
        <time>2023-09-20T08:53:33.617+00:00</time>
      </trkpt>
      <trkpt lat="48.37165" lon="2.65398">
        <ele>132</ele>
        <time>2023-09-20T08:53:38.622+00:00</time>
      </trkpt>
      <trkpt lat="48.3716" lon="2.65392">
        <ele>132</ele>
        <time>2023-09-20T08:53:43.624+00:00</time>
      </trkpt>
      <trkpt lat="48.37156" lon="2.65387">
        <ele>132</ele>
        <time>2023-09-20T08:53:47.633+00:00</time>
      </trkpt>
      <trkpt lat="48.37149" lon="2.65381">
        <ele>132</ele>
        <time>2023-09-20T08:53:52.614+00:00</time>
      </trkpt>
      <trkpt lat="48.37144" lon="2.65377">
        <ele>132</ele>
        <time>2023-09-20T08:53:57.618+00:00</time>
      </trkpt>
      <trkpt lat="48.37139" lon="2.65371">
        <ele>133</ele>
        <time>2023-09-20T08:54:02.602+00:00</time>
      </trkpt>
      <trkpt lat="48.37135" lon="2.65367">
        <ele>133</ele>
        <time>2023-09-20T08:54:06.648+00:00</time>
      </trkpt>
      <trkpt lat="48.37129" lon="2.6536">
        <ele>133</ele>
        <time>2023-09-20T08:54:11.588+00:00</time>
      </trkpt>
      <trkpt lat="48.37125" lon="2.65356">
        <ele>133</ele>
        <time>2023-09-20T08:54:15.635+00:00</time>
      </trkpt>
      <trkpt lat="48.37122" lon="2.65351">
        <ele>132</ele>
        <time>2023-09-20T08:54:20.608+00:00</time>
      </trkpt>
      <trkpt lat="48.37116" lon="2.65346">
        <ele>132</ele>
        <time>2023-09-20T08:54:25.610+00:00</time>
      </trkpt>
      <trkpt lat="48.37112" lon="2.65342">
        <ele>132</ele>
        <time>2023-09-20T08:54:29.633+00:00</time>
      </trkpt>
      <trkpt lat="48.37106" lon="2.65336">
        <ele>132</ele>
        <time>2023-09-20T08:54:34.621+00:00</time>
      </trkpt>
      <trkpt lat="48.371" lon="2.65332">
        <ele>132</ele>
        <time>2023-09-20T08:54:39.602+00:00</time>
      </trkpt>
      <trkpt lat="48.37096" lon="2.65328">
        <ele>132</ele>
        <time>2023-09-20T08:54:43.602+00:00</time>
      </trkpt>
      <trkpt lat="48.37089" lon="2.65323">
        <ele>132</ele>
        <time>2023-09-20T08:54:48.622+00:00</time>
      </trkpt>
      <trkpt lat="48.37083" lon="2.65319">
        <ele>133</ele>
        <time>2023-09-20T08:54:53.604+00:00</time>
      </trkpt>
      <trkpt lat="48.37079" lon="2.65314">
        <ele>133</ele>
        <time>2023-09-20T08:54:57.606+00:00</time>
      </trkpt>
      <trkpt lat="48.37075" lon="2.65309">
        <ele>133</ele>
        <time>2023-09-20T08:55:01.616+00:00</time>
      </trkpt>
      <trkpt lat="48.37069" lon="2.65305">
        <ele>132</ele>
        <time>2023-09-20T08:55:06.573+00:00</time>
      </trkpt>
      <trkpt lat="48.37064" lon="2.65301">
        <ele>132</ele>
        <time>2023-09-20T08:55:10.573+00:00</time>
      </trkpt>
      <trkpt lat="48.37057" lon="2.65301">
        <ele>132</ele>
        <time>2023-09-20T08:55:15.563+00:00</time>
      </trkpt>
      <trkpt lat="48.37053" lon="2.65292">
        <ele>132</ele>
        <time>2023-09-20T08:55:19.561+00:00</time>
      </trkpt>
      <trkpt lat="48.37047" lon="2.65287">
        <ele>134</ele>
        <time>2023-09-20T08:55:24.565+00:00</time>
      </trkpt>
      <trkpt lat="48.37044" lon="2.65281">
        <ele>134</ele>
        <time>2023-09-20T08:55:28.590+00:00</time>
      </trkpt>
      <trkpt lat="48.3704" lon="2.65273">
        <ele>133</ele>
        <time>2023-09-20T08:55:32.582+00:00</time>
      </trkpt>
      <trkpt lat="48.37034" lon="2.65265">
        <ele>133</ele>
        <time>2023-09-20T08:55:37.590+00:00</time>
      </trkpt>
      <trkpt lat="48.37031" lon="2.65261">
        <ele>133</ele>
        <time>2023-09-20T08:55:41.579+00:00</time>
      </trkpt>
      <trkpt lat="48.37026" lon="2.65256">
        <ele>133</ele>
        <time>2023-09-20T08:55:46.584+00:00</time>
      </trkpt>
      <trkpt lat="48.37021" lon="2.65252">
        <ele>133</ele>
        <time>2023-09-20T08:55:50.592+00:00</time>
      </trkpt>
      <trkpt lat="48.37017" lon="2.65247">
        <ele>133</ele>
        <time>2023-09-20T08:55:54.592+00:00</time>
      </trkpt>
      <trkpt lat="48.37013" lon="2.65241">
        <ele>132</ele>
        <time>2023-09-20T08:55:58.587+00:00</time>
      </trkpt>
      <trkpt lat="48.37008" lon="2.65236">
        <ele>132</ele>
        <time>2023-09-20T08:56:02.599+00:00</time>
      </trkpt>
      <trkpt lat="48.37002" lon="2.6523">
        <ele>131</ele>
        <time>2023-09-20T08:56:07.590+00:00</time>
      </trkpt>
      <trkpt lat="48.36994" lon="2.65224">
        <ele>131</ele>
        <time>2023-09-20T08:56:12.599+00:00</time>
      </trkpt>
      <trkpt lat="48.36989" lon="2.6522">
        <ele>131</ele>
        <time>2023-09-20T08:56:17.605+00:00</time>
      </trkpt>
      <trkpt lat="48.36984" lon="2.65216">
        <ele>132</ele>
        <time>2023-09-20T08:56:21.611+00:00</time>
      </trkpt>
      <trkpt lat="48.36979" lon="2.65209">
        <ele>132</ele>
        <time>2023-09-20T08:56:26.598+00:00</time>
      </trkpt>
      <trkpt lat="48.36972" lon="2.65202">
        <ele>132</ele>
        <time>2023-09-20T08:56:31.597+00:00</time>
      </trkpt>
      <trkpt lat="48.36968" lon="2.65198">
        <ele>132</ele>
        <time>2023-09-20T08:56:36.600+00:00</time>
      </trkpt>
      <trkpt lat="48.36966" lon="2.65195">
        <ele>132</ele>
        <time>2023-09-20T08:56:40.593+00:00</time>
      </trkpt>
      <trkpt lat="48.36964" lon="2.65192">
        <ele>132</ele>
        <time>2023-09-20T08:56:44.603+00:00</time>
      </trkpt>
      <trkpt lat="48.36958" lon="2.65187">
        <ele>133</ele>
        <time>2023-09-20T08:56:49.602+00:00</time>
      </trkpt>
      <trkpt lat="48.36952" lon="2.65181">
        <ele>133</ele>
        <time>2023-09-20T08:56:54.600+00:00</time>
      </trkpt>
      <trkpt lat="48.36948" lon="2.65175">
        <ele>133</ele>
        <time>2023-09-20T08:56:58.593+00:00</time>
      </trkpt>
      <trkpt lat="48.36943" lon="2.65171">
        <ele>133</ele>
        <time>2023-09-20T08:57:03.583+00:00</time>
      </trkpt>
      <trkpt lat="48.36938" lon="2.65168">
        <ele>133</ele>
        <time>2023-09-20T08:57:08.589+00:00</time>
      </trkpt>
      <trkpt lat="48.36933" lon="2.65163">
        <ele>133</ele>
        <time>2023-09-20T08:57:13.595+00:00</time>
      </trkpt>
      <trkpt lat="48.36929" lon="2.65156">
        <ele>134</ele>
        <time>2023-09-20T08:57:18.600+00:00</time>
      </trkpt>
      <trkpt lat="48.36924" lon="2.65151">
        <ele>134</ele>
        <time>2023-09-20T08:57:23.598+00:00</time>
      </trkpt>
      <trkpt lat="48.36918" lon="2.65151">
        <ele>134</ele>
        <time>2023-09-20T08:57:28.558+00:00</time>
      </trkpt>
      <trkpt lat="48.36916" lon="2.65146">
        <ele>134</ele>
        <time>2023-09-20T08:57:33.558+00:00</time>
      </trkpt>
      <trkpt lat="48.36915" lon="2.65138">
        <ele>134</ele>
        <time>2023-09-20T08:57:38.549+00:00</time>
      </trkpt>
      <trkpt lat="48.36912" lon="2.65129">
        <ele>134</ele>
        <time>2023-09-20T08:57:42.562+00:00</time>
      </trkpt>
      <trkpt lat="48.3691" lon="2.65123">
        <ele>133</ele>
        <time>2023-09-20T08:57:46.572+00:00</time>
      </trkpt>
      <trkpt lat="48.36906" lon="2.65115">
        <ele>133</ele>
        <time>2023-09-20T08:57:50.563+00:00</time>
      </trkpt>
      <trkpt lat="48.36906" lon="2.65106">
        <ele>133</ele>
        <time>2023-09-20T08:57:55.556+00:00</time>
      </trkpt>
      <trkpt lat="48.36905" lon="2.65103">
        <ele>133</ele>
        <time>2023-09-20T08:58:00.567+00:00</time>
      </trkpt>
      <trkpt lat="48.36904" lon="2.651">
        <ele>133</ele>
        <time>2023-09-20T08:58:04.566+00:00</time>
      </trkpt>
      <trkpt lat="48.369" lon="2.65092">
        <ele>134</ele>
        <time>2023-09-20T08:58:09.558+00:00</time>
      </trkpt>
      <trkpt lat="48.36899" lon="2.65081">
        <ele>134</ele>
        <time>2023-09-20T08:58:14.557+00:00</time>
      </trkpt>
      <trkpt lat="48.36897" lon="2.65076">
        <ele>134</ele>
        <time>2023-09-20T08:58:18.560+00:00</time>
      </trkpt>
      <trkpt lat="48.36894" lon="2.65068">
        <ele>134</ele>
        <time>2023-09-20T08:58:23.557+00:00</time>
      </trkpt>
      <trkpt lat="48.36893" lon="2.65058">
        <ele>134</ele>
        <time>2023-09-20T08:58:28.578+00:00</time>
      </trkpt>
      <trkpt lat="48.3689" lon="2.65049">
        <ele>134</ele>
        <time>2023-09-20T08:58:33.560+00:00</time>
      </trkpt>
      <trkpt lat="48.36888" lon="2.65042">
        <ele>134</ele>
        <time>2023-09-20T08:58:37.562+00:00</time>
      </trkpt>
      <trkpt lat="48.36885" lon="2.65035">
        <ele>134</ele>
        <time>2023-09-20T08:58:41.560+00:00</time>
      </trkpt>
      <trkpt lat="48.36881" lon="2.65026">
        <ele>134</ele>
        <time>2023-09-20T08:58:46.578+00:00</time>
      </trkpt>
      <trkpt lat="48.36879" lon="2.65017">
        <ele>134</ele>
        <time>2023-09-20T08:58:51.573+00:00</time>
      </trkpt>
      <trkpt lat="48.36877" lon="2.65008">
        <ele>134</ele>
        <time>2023-09-20T08:58:56.578+00:00</time>
      </trkpt>
      <trkpt lat="48.36876" lon="2.65">
        <ele>134</ele>
        <time>2023-09-20T08:59:00.576+00:00</time>
      </trkpt>
      <trkpt lat="48.36872" lon="2.64988">
        <ele>134</ele>
        <time>2023-09-20T08:59:05.561+00:00</time>
      </trkpt>
      <trkpt lat="48.36871" lon="2.64979">
        <ele>134</ele>
        <time>2023-09-20T08:59:10.572+00:00</time>
      </trkpt>
      <trkpt lat="48.36869" lon="2.64972">
        <ele>134</ele>
        <time>2023-09-20T08:59:15.579+00:00</time>
      </trkpt>
      <trkpt lat="48.36867" lon="2.64965">
        <ele>134</ele>
        <time>2023-09-20T08:59:20.570+00:00</time>
      </trkpt>
      <trkpt lat="48.36864" lon="2.64956">
        <ele>134</ele>
        <time>2023-09-20T08:59:24.570+00:00</time>
      </trkpt>
      <trkpt lat="48.3686" lon="2.64947">
        <ele>134</ele>
        <time>2023-09-20T08:59:29.573+00:00</time>
      </trkpt>
      <trkpt lat="48.36858" lon="2.64938">
        <ele>134</ele>
        <time>2023-09-20T08:59:34.568+00:00</time>
      </trkpt>
      <trkpt lat="48.36855" lon="2.6493">
        <ele>133</ele>
        <time>2023-09-20T08:59:38.584+00:00</time>
      </trkpt>
      <trkpt lat="48.36853" lon="2.64921">
        <ele>133</ele>
        <time>2023-09-20T08:59:43.589+00:00</time>
      </trkpt>
      <trkpt lat="48.36852" lon="2.6491">
        <ele>133</ele>
        <time>2023-09-20T08:59:48.596+00:00</time>
      </trkpt>
      <trkpt lat="48.36851" lon="2.64903">
        <ele>133</ele>
        <time>2023-09-20T08:59:53.582+00:00</time>
      </trkpt>
      <trkpt lat="48.36849" lon="2.64894">
        <ele>133</ele>
        <time>2023-09-20T08:59:58.589+00:00</time>
      </trkpt>
      <trkpt lat="48.36847" lon="2.64886">
        <ele>133</ele>
        <time>2023-09-20T09:00:03.566+00:00</time>
      </trkpt>
      <trkpt lat="48.36845" lon="2.64876">
        <ele>133</ele>
        <time>2023-09-20T09:00:07.585+00:00</time>
      </trkpt>
      <trkpt lat="48.36843" lon="2.64869">
        <ele>133</ele>
        <time>2023-09-20T09:00:11.589+00:00</time>
      </trkpt>
      <trkpt lat="48.3684" lon="2.64861">
        <ele>133</ele>
        <time>2023-09-20T09:00:16.583+00:00</time>
      </trkpt>
      <trkpt lat="48.36837" lon="2.64853">
        <ele>133</ele>
        <time>2023-09-20T09:00:21.580+00:00</time>
      </trkpt>
      <trkpt lat="48.36833" lon="2.64846">
        <ele>133</ele>
        <time>2023-09-20T09:00:25.578+00:00</time>
      </trkpt>
      <trkpt lat="48.36831" lon="2.64836">
        <ele>133</ele>
        <time>2023-09-20T09:00:30.579+00:00</time>
      </trkpt>
      <trkpt lat="48.36826" lon="2.64825">
        <ele>133</ele>
        <time>2023-09-20T09:00:35.591+00:00</time>
      </trkpt>
      <trkpt lat="48.36824" lon="2.64818">
        <ele>133</ele>
        <time>2023-09-20T09:00:40.592+00:00</time>
      </trkpt>
      <trkpt lat="48.36822" lon="2.6481">
        <ele>133</ele>
        <time>2023-09-20T09:00:45.590+00:00</time>
      </trkpt>
      <trkpt lat="48.36821" lon="2.64801">
        <ele>133</ele>
        <time>2023-09-20T09:00:50.587+00:00</time>
      </trkpt>
      <trkpt lat="48.36819" lon="2.64792">
        <ele>132</ele>
        <time>2023-09-20T09:00:55.581+00:00</time>
      </trkpt>
      <trkpt lat="48.36819" lon="2.64785">
        <ele>133</ele>
        <time>2023-09-20T09:01:00.587+00:00</time>
      </trkpt>
      <trkpt lat="48.36817" lon="2.64777">
        <ele>133</ele>
        <time>2023-09-20T09:01:05.583+00:00</time>
      </trkpt>
      <trkpt lat="48.36814" lon="2.64767">
        <ele>133</ele>
        <time>2023-09-20T09:01:10.576+00:00</time>
      </trkpt>
      <trkpt lat="48.36813" lon="2.64758">
        <ele>132</ele>
        <time>2023-09-20T09:01:15.576+00:00</time>
      </trkpt>
      <trkpt lat="48.36809" lon="2.6475">
        <ele>132</ele>
        <time>2023-09-20T09:01:20.585+00:00</time>
      </trkpt>
      <trkpt lat="48.36807" lon="2.64744">
        <ele>132</ele>
        <time>2023-09-20T09:01:24.592+00:00</time>
      </trkpt>
      <trkpt lat="48.36804" lon="2.64737">
        <ele>132</ele>
        <time>2023-09-20T09:01:28.605+00:00</time>
      </trkpt>
      <trkpt lat="48.36802" lon="2.64729">
        <ele>133</ele>
        <time>2023-09-20T09:01:33.566+00:00</time>
      </trkpt>
      <trkpt lat="48.368" lon="2.64723">
        <ele>133</ele>
        <time>2023-09-20T09:01:37.586+00:00</time>
      </trkpt>
      <trkpt lat="48.36798" lon="2.64715">
        <ele>133</ele>
        <time>2023-09-20T09:01:42.579+00:00</time>
      </trkpt>
      <trkpt lat="48.36797" lon="2.64706">
        <ele>133</ele>
        <time>2023-09-20T09:01:47.582+00:00</time>
      </trkpt>
      <trkpt lat="48.36795" lon="2.64699">
        <ele>133</ele>
        <time>2023-09-20T09:01:52.576+00:00</time>
      </trkpt>
      <trkpt lat="48.36793" lon="2.64695">
        <ele>133</ele>
        <time>2023-09-20T09:01:56.584+00:00</time>
      </trkpt>
      <trkpt lat="48.36791" lon="2.64687">
        <ele>132</ele>
        <time>2023-09-20T09:02:00.581+00:00</time>
      </trkpt>
      <trkpt lat="48.36787" lon="2.64676">
        <ele>131</ele>
        <time>2023-09-20T09:02:05.591+00:00</time>
      </trkpt>
      <trkpt lat="48.36784" lon="2.64665">
        <ele>131</ele>
        <time>2023-09-20T09:02:10.588+00:00</time>
      </trkpt>
      <trkpt lat="48.36782" lon="2.64656">
        <ele>131</ele>
        <time>2023-09-20T09:02:15.606+00:00</time>
      </trkpt>
      <trkpt lat="48.36778" lon="2.64645">
        <ele>131</ele>
        <time>2023-09-20T09:02:20.598+00:00</time>
      </trkpt>
      <trkpt lat="48.36776" lon="2.64634">
        <ele>131</ele>
        <time>2023-09-20T09:02:25.582+00:00</time>
      </trkpt>
      <trkpt lat="48.36773" lon="2.64627">
        <ele>131</ele>
        <time>2023-09-20T09:02:30.582+00:00</time>
      </trkpt>
      <trkpt lat="48.3677" lon="2.64619">
        <ele>130</ele>
        <time>2023-09-20T09:02:35.587+00:00</time>
      </trkpt>
      <trkpt lat="48.36768" lon="2.6461">
        <ele>130</ele>
        <time>2023-09-20T09:02:40.588+00:00</time>
      </trkpt>
      <trkpt lat="48.36766" lon="2.64602">
        <ele>130</ele>
        <time>2023-09-20T09:02:45.582+00:00</time>
      </trkpt>
      <trkpt lat="48.36765" lon="2.64594">
        <ele>130</ele>
        <time>2023-09-20T09:02:49.589+00:00</time>
      </trkpt>
      <trkpt lat="48.36762" lon="2.64583">
        <ele>132</ele>
        <time>2023-09-20T09:02:54.578+00:00</time>
      </trkpt>
      <trkpt lat="48.3676" lon="2.64573">
        <ele>132</ele>
        <time>2023-09-20T09:02:58.578+00:00</time>
      </trkpt>
      <trkpt lat="48.36758" lon="2.64565">
        <ele>131</ele>
        <time>2023-09-20T09:03:02.608+00:00</time>
      </trkpt>
      <trkpt lat="48.36758" lon="2.64554">
        <ele>131</ele>
        <time>2023-09-20T09:03:07.580+00:00</time>
      </trkpt>
      <trkpt lat="48.36756" lon="2.64546">
        <ele>131</ele>
        <time>2023-09-20T09:03:11.593+00:00</time>
      </trkpt>
      <trkpt lat="48.36752" lon="2.64538">
        <ele>130</ele>
        <time>2023-09-20T09:03:16.588+00:00</time>
      </trkpt>
      <trkpt lat="48.36749" lon="2.64531">
        <ele>130</ele>
        <time>2023-09-20T09:03:20.598+00:00</time>
      </trkpt>
      <trkpt lat="48.36747" lon="2.64523">
        <ele>130</ele>
        <time>2023-09-20T09:03:25.592+00:00</time>
      </trkpt>
      <trkpt lat="48.36744" lon="2.64516">
        <ele>130</ele>
        <time>2023-09-20T09:03:29.587+00:00</time>
      </trkpt>
      <trkpt lat="48.36741" lon="2.64513">
        <ele>129</ele>
        <time>2023-09-20T09:03:34.600+00:00</time>
      </trkpt>
      <trkpt lat="48.36737" lon="2.6451">
        <ele>129</ele>
        <time>2023-09-20T09:03:39.572+00:00</time>
      </trkpt>
      <trkpt lat="48.36737" lon="2.64509">
        <ele>129</ele>
        <time>2023-09-20T09:04:55.573+00:00</time>
      </trkpt>
      <trkpt lat="48.36737" lon="2.64509">
        <ele>129</ele>
        <time>2023-09-20T09:04:59.574+00:00</time>
      </trkpt>
      <trkpt lat="48.36737" lon="2.64505">
        <ele>129</ele>
        <time>2023-09-20T09:05:04.582+00:00</time>
      </trkpt>
      <trkpt lat="48.36734" lon="2.64499">
        <ele>131</ele>
        <time>2023-09-20T09:05:08.582+00:00</time>
      </trkpt>
      <trkpt lat="48.36731" lon="2.6449">
        <ele>131</ele>
        <time>2023-09-20T09:05:12.594+00:00</time>
      </trkpt>
      <trkpt lat="48.36728" lon="2.6448">
        <ele>131</ele>
        <time>2023-09-20T09:05:16.590+00:00</time>
      </trkpt>
      <trkpt lat="48.36725" lon="2.64466">
        <ele>131</ele>
        <time>2023-09-20T09:05:21.578+00:00</time>
      </trkpt>
      <trkpt lat="48.36723" lon="2.64456">
        <ele>132</ele>
        <time>2023-09-20T09:05:25.590+00:00</time>
      </trkpt>
      <trkpt lat="48.36722" lon="2.64444">
        <ele>132</ele>
        <time>2023-09-20T09:05:30.609+00:00</time>
      </trkpt>
      <trkpt lat="48.3672" lon="2.64433">
        <ele>132</ele>
        <time>2023-09-20T09:05:35.579+00:00</time>
      </trkpt>
      <trkpt lat="48.36718" lon="2.64425">
        <ele>133</ele>
        <time>2023-09-20T09:05:39.575+00:00</time>
      </trkpt>
      <trkpt lat="48.36716" lon="2.64414">
        <ele>133</ele>
        <time>2023-09-20T09:05:44.606+00:00</time>
      </trkpt>
      <trkpt lat="48.36711" lon="2.64407">
        <ele>133</ele>
        <time>2023-09-20T09:05:49.579+00:00</time>
      </trkpt>
      <trkpt lat="48.36709" lon="2.644">
        <ele>134</ele>
        <time>2023-09-20T09:05:53.583+00:00</time>
      </trkpt>
      <trkpt lat="48.36708" lon="2.6439">
        <ele>134</ele>
        <time>2023-09-20T09:05:58.582+00:00</time>
      </trkpt>
      <trkpt lat="48.36705" lon="2.64383">
        <ele>134</ele>
        <time>2023-09-20T09:06:03.587+00:00</time>
      </trkpt>
      <trkpt lat="48.36703" lon="2.64379">
        <ele>134</ele>
        <time>2023-09-20T09:06:08.590+00:00</time>
      </trkpt>
      <trkpt lat="48.367" lon="2.64379">
        <ele>134</ele>
        <time>2023-09-20T09:07:03.596+00:00</time>
      </trkpt>
      <trkpt lat="48.367" lon="2.64378">
        <ele>134</ele>
        <time>2023-09-20T09:07:08.570+00:00</time>
      </trkpt>
      <trkpt lat="48.36699" lon="2.64373">
        <ele>134</ele>
        <time>2023-09-20T09:07:12.580+00:00</time>
      </trkpt>
      <trkpt lat="48.36699" lon="2.64366">
        <ele>134</ele>
        <time>2023-09-20T09:07:16.581+00:00</time>
      </trkpt>
      <trkpt lat="48.36698" lon="2.64359">
        <ele>134</ele>
        <time>2023-09-20T09:07:21.584+00:00</time>
      </trkpt>
      <trkpt lat="48.36696" lon="2.64353">
        <ele>134</ele>
        <time>2023-09-20T09:07:25.592+00:00</time>
      </trkpt>
      <trkpt lat="48.36694" lon="2.64346">
        <ele>134</ele>
        <time>2023-09-20T09:07:30.600+00:00</time>
      </trkpt>
      <trkpt lat="48.36692" lon="2.64338">
        <ele>134</ele>
        <time>2023-09-20T09:07:35.598+00:00</time>
      </trkpt>
      <trkpt lat="48.3669" lon="2.64328">
        <ele>134</ele>
        <time>2023-09-20T09:07:40.588+00:00</time>
      </trkpt>
      <trkpt lat="48.36688" lon="2.64321">
        <ele>134</ele>
        <time>2023-09-20T09:07:45.586+00:00</time>
      </trkpt>
      <trkpt lat="48.36688" lon="2.64314">
        <ele>134</ele>
        <time>2023-09-20T09:07:49.586+00:00</time>
      </trkpt>
      <trkpt lat="48.36685" lon="2.64308">
        <ele>134</ele>
        <time>2023-09-20T09:07:54.605+00:00</time>
      </trkpt>
      <trkpt lat="48.36683" lon="2.64301">
        <ele>134</ele>
        <time>2023-09-20T09:07:59.595+00:00</time>
      </trkpt>
      <trkpt lat="48.36681" lon="2.6429">
        <ele>134</ele>
        <time>2023-09-20T09:08:04.588+00:00</time>
      </trkpt>
      <trkpt lat="48.36679" lon="2.64281">
        <ele>135</ele>
        <time>2023-09-20T09:08:09.594+00:00</time>
      </trkpt>
      <trkpt lat="48.36678" lon="2.64272">
        <ele>135</ele>
        <time>2023-09-20T09:08:14.585+00:00</time>
      </trkpt>
      <trkpt lat="48.36676" lon="2.64264">
        <ele>135</ele>
        <time>2023-09-20T09:08:19.575+00:00</time>
      </trkpt>
      <trkpt lat="48.36675" lon="2.64255">
        <ele>135</ele>
        <time>2023-09-20T09:08:23.589+00:00</time>
      </trkpt>
      <trkpt lat="48.36673" lon="2.64246">
        <ele>135</ele>
        <time>2023-09-20T09:08:27.591+00:00</time>
      </trkpt>
      <trkpt lat="48.3667" lon="2.64238">
        <ele>135</ele>
        <time>2023-09-20T09:08:32.607+00:00</time>
      </trkpt>
      <trkpt lat="48.36667" lon="2.64231">
        <ele>135</ele>
        <time>2023-09-20T09:08:36.600+00:00</time>
      </trkpt>
      <trkpt lat="48.36665" lon="2.64223">
        <ele>135</ele>
        <time>2023-09-20T09:08:41.618+00:00</time>
      </trkpt>
      <trkpt lat="48.36662" lon="2.64219">
        <ele>135</ele>
        <time>2023-09-20T09:08:45.603+00:00</time>
      </trkpt>
      <trkpt lat="48.36659" lon="2.64213">
        <ele>135</ele>
        <time>2023-09-20T09:08:50.590+00:00</time>
      </trkpt>
      <trkpt lat="48.36657" lon="2.64206">
        <ele>134</ele>
        <time>2023-09-20T09:08:54.592+00:00</time>
      </trkpt>
      <trkpt lat="48.36655" lon="2.64197">
        <ele>134</ele>
        <time>2023-09-20T09:08:58.607+00:00</time>
      </trkpt>
      <trkpt lat="48.36652" lon="2.64186">
        <ele>135</ele>
        <time>2023-09-20T09:09:03.557+00:00</time>
      </trkpt>
      <trkpt lat="48.36646" lon="2.64175">
        <ele>134</ele>
        <time>2023-09-20T09:09:08.565+00:00</time>
      </trkpt>
      <trkpt lat="48.36643" lon="2.64167">
        <ele>134</ele>
        <time>2023-09-20T09:09:12.559+00:00</time>
      </trkpt>
      <trkpt lat="48.36642" lon="2.64157">
        <ele>134</ele>
        <time>2023-09-20T09:09:17.561+00:00</time>
      </trkpt>
      <trkpt lat="48.36639" lon="2.6415">
        <ele>134</ele>
        <time>2023-09-20T09:09:22.558+00:00</time>
      </trkpt>
      <trkpt lat="48.36635" lon="2.6414">
        <ele>134</ele>
        <time>2023-09-20T09:09:27.557+00:00</time>
      </trkpt>
      <trkpt lat="48.36635" lon="2.64132">
        <ele>134</ele>
        <time>2023-09-20T09:09:31.587+00:00</time>
      </trkpt>
      <trkpt lat="48.36633" lon="2.6412">
        <ele>134</ele>
        <time>2023-09-20T09:09:36.581+00:00</time>
      </trkpt>
      <trkpt lat="48.3663" lon="2.6411">
        <ele>134</ele>
        <time>2023-09-20T09:09:40.596+00:00</time>
      </trkpt>
      <trkpt lat="48.36629" lon="2.641">
        <ele>134</ele>
        <time>2023-09-20T09:09:45.600+00:00</time>
      </trkpt>
      <trkpt lat="48.36627" lon="2.64092">
        <ele>135</ele>
        <time>2023-09-20T09:09:50.594+00:00</time>
      </trkpt>
      <trkpt lat="48.36625" lon="2.64083">
        <ele>135</ele>
        <time>2023-09-20T09:09:55.578+00:00</time>
      </trkpt>
      <trkpt lat="48.36622" lon="2.64075">
        <ele>138</ele>
        <time>2023-09-20T09:09:59.578+00:00</time>
      </trkpt>
      <trkpt lat="48.36619" lon="2.64065">
        <ele>139</ele>
        <time>2023-09-20T09:10:04.575+00:00</time>
      </trkpt>
      <trkpt lat="48.36618" lon="2.64058">
        <ele>139</ele>
        <time>2023-09-20T09:10:08.592+00:00</time>
      </trkpt>
      <trkpt lat="48.36615" lon="2.64052">
        <ele>139</ele>
        <time>2023-09-20T09:10:13.587+00:00</time>
      </trkpt>
      <trkpt lat="48.36614" lon="2.64045">
        <ele>139</ele>
        <time>2023-09-20T09:10:18.578+00:00</time>
      </trkpt>
      <trkpt lat="48.36613" lon="2.64038">
        <ele>140</ele>
        <time>2023-09-20T09:10:23.592+00:00</time>
      </trkpt>
      <trkpt lat="48.36612" lon="2.64031">
        <ele>140</ele>
        <time>2023-09-20T09:10:27.594+00:00</time>
      </trkpt>
      <trkpt lat="48.3661" lon="2.64024">
        <ele>140</ele>
        <time>2023-09-20T09:10:31.596+00:00</time>
      </trkpt>
      <trkpt lat="48.36606" lon="2.64015">
        <ele>140</ele>
        <time>2023-09-20T09:10:36.586+00:00</time>
      </trkpt>
      <trkpt lat="48.36604" lon="2.64009">
        <ele>140</ele>
        <time>2023-09-20T09:10:40.616+00:00</time>
      </trkpt>
      <trkpt lat="48.36602" lon="2.64001">
        <ele>140</ele>
        <time>2023-09-20T09:10:45.580+00:00</time>
      </trkpt>
      <trkpt lat="48.366" lon="2.63994">
        <ele>140</ele>
        <time>2023-09-20T09:10:50.592+00:00</time>
      </trkpt>
      <trkpt lat="48.36597" lon="2.63985">
        <ele>140</ele>
        <time>2023-09-20T09:10:55.593+00:00</time>
      </trkpt>
      <trkpt lat="48.36594" lon="2.63976">
        <ele>140</ele>
        <time>2023-09-20T09:11:00.598+00:00</time>
      </trkpt>
      <trkpt lat="48.36592" lon="2.63967">
        <ele>140</ele>
        <time>2023-09-20T09:11:05.609+00:00</time>
      </trkpt>
      <trkpt lat="48.3659" lon="2.63957">
        <ele>140</ele>
        <time>2023-09-20T09:11:10.596+00:00</time>
      </trkpt>
      <trkpt lat="48.36589" lon="2.63949">
        <ele>140</ele>
        <time>2023-09-20T09:11:15.584+00:00</time>
      </trkpt>
      <trkpt lat="48.36586" lon="2.63937">
        <ele>140</ele>
        <time>2023-09-20T09:11:20.590+00:00</time>
      </trkpt>
      <trkpt lat="48.36582" lon="2.63927">
        <ele>142</ele>
        <time>2023-09-20T09:11:25.593+00:00</time>
      </trkpt>
      <trkpt lat="48.36579" lon="2.63917">
        <ele>142</ele>
        <time>2023-09-20T09:11:30.597+00:00</time>
      </trkpt>
      <trkpt lat="48.36575" lon="2.63909">
        <ele>142</ele>
        <time>2023-09-20T09:11:35.582+00:00</time>
      </trkpt>
      <trkpt lat="48.36574" lon="2.63903">
        <ele>142</ele>
        <time>2023-09-20T09:11:40.586+00:00</time>
      </trkpt>
      <trkpt lat="48.36573" lon="2.63896">
        <ele>143</ele>
        <time>2023-09-20T09:11:45.577+00:00</time>
      </trkpt>
      <trkpt lat="48.36571" lon="2.63888">
        <ele>143</ele>
        <time>2023-09-20T09:11:50.592+00:00</time>
      </trkpt>
      <trkpt lat="48.36569" lon="2.63879">
        <ele>144</ele>
        <time>2023-09-20T09:11:54.621+00:00</time>
      </trkpt>
      <trkpt lat="48.36566" lon="2.6387">
        <ele>145</ele>
        <time>2023-09-20T09:11:59.593+00:00</time>
      </trkpt>
      <trkpt lat="48.36563" lon="2.6386">
        <ele>145</ele>
        <time>2023-09-20T09:12:04.556+00:00</time>
      </trkpt>
      <trkpt lat="48.36562" lon="2.63852">
        <ele>145</ele>
        <time>2023-09-20T09:12:08.592+00:00</time>
      </trkpt>
      <trkpt lat="48.36559" lon="2.63844">
        <ele>146</ele>
        <time>2023-09-20T09:12:12.609+00:00</time>
      </trkpt>
      <trkpt lat="48.36558" lon="2.63836">
        <ele>146</ele>
        <time>2023-09-20T09:12:16.588+00:00</time>
      </trkpt>
      <trkpt lat="48.36556" lon="2.63828">
        <ele>146</ele>
        <time>2023-09-20T09:12:21.585+00:00</time>
      </trkpt>
      <trkpt lat="48.36555" lon="2.63821">
        <ele>146</ele>
        <time>2023-09-20T09:12:25.587+00:00</time>
      </trkpt>
      <trkpt lat="48.36552" lon="2.63811">
        <ele>146</ele>
        <time>2023-09-20T09:12:30.598+00:00</time>
      </trkpt>
      <trkpt lat="48.36547" lon="2.63801">
        <ele>146</ele>
        <time>2023-09-20T09:12:35.578+00:00</time>
      </trkpt>
      <trkpt lat="48.36544" lon="2.63792">
        <ele>146</ele>
        <time>2023-09-20T09:12:40.587+00:00</time>
      </trkpt>
      <trkpt lat="48.36541" lon="2.63786">
        <ele>147</ele>
        <time>2023-09-20T09:12:44.597+00:00</time>
      </trkpt>
      <trkpt lat="48.36538" lon="2.63776">
        <ele>147</ele>
        <time>2023-09-20T09:12:49.599+00:00</time>
      </trkpt>
      <trkpt lat="48.36538" lon="2.63766">
        <ele>147</ele>
        <time>2023-09-20T09:12:54.580+00:00</time>
      </trkpt>
      <trkpt lat="48.36536" lon="2.63758">
        <ele>147</ele>
        <time>2023-09-20T09:12:58.586+00:00</time>
      </trkpt>
      <trkpt lat="48.36533" lon="2.6375">
        <ele>147</ele>
        <time>2023-09-20T09:13:02.604+00:00</time>
      </trkpt>
      <trkpt lat="48.36531" lon="2.63742">
        <ele>147</ele>
        <time>2023-09-20T09:13:07.584+00:00</time>
      </trkpt>
      <trkpt lat="48.36529" lon="2.63734">
        <ele>147</ele>
        <time>2023-09-20T09:13:11.588+00:00</time>
      </trkpt>
      <trkpt lat="48.36525" lon="2.63725">
        <ele>147</ele>
        <time>2023-09-20T09:13:15.612+00:00</time>
      </trkpt>
      <trkpt lat="48.36521" lon="2.63717">
        <ele>147</ele>
        <time>2023-09-20T09:13:20.600+00:00</time>
      </trkpt>
      <trkpt lat="48.36518" lon="2.63706">
        <ele>145</ele>
        <time>2023-09-20T09:13:25.606+00:00</time>
      </trkpt>
      <trkpt lat="48.36516" lon="2.63695">
        <ele>145</ele>
        <time>2023-09-20T09:13:30.601+00:00</time>
      </trkpt>
      <trkpt lat="48.36513" lon="2.63686">
        <ele>145</ele>
        <time>2023-09-20T09:13:35.590+00:00</time>
      </trkpt>
      <trkpt lat="48.36511" lon="2.63677">
        <ele>144</ele>
        <time>2023-09-20T09:13:39.597+00:00</time>
      </trkpt>
      <trkpt lat="48.36508" lon="2.63668">
        <ele>144</ele>
        <time>2023-09-20T09:13:44.597+00:00</time>
      </trkpt>
      <trkpt lat="48.36506" lon="2.63659">
        <ele>144</ele>
        <time>2023-09-20T09:13:49.578+00:00</time>
      </trkpt>
      <trkpt lat="48.36505" lon="2.63653">
        <ele>142</ele>
        <time>2023-09-20T09:13:53.584+00:00</time>
      </trkpt>
      <trkpt lat="48.36502" lon="2.63644">
        <ele>142</ele>
        <time>2023-09-20T09:13:58.583+00:00</time>
      </trkpt>
      <trkpt lat="48.36499" lon="2.63633">
        <ele>142</ele>
        <time>2023-09-20T09:14:03.585+00:00</time>
      </trkpt>
      <trkpt lat="48.36496" lon="2.63623">
        <ele>142</ele>
        <time>2023-09-20T09:14:08.586+00:00</time>
      </trkpt>
      <trkpt lat="48.36494" lon="2.63615">
        <ele>142</ele>
        <time>2023-09-20T09:14:12.589+00:00</time>
      </trkpt>
      <trkpt lat="48.36492" lon="2.63607">
        <ele>142</ele>
        <time>2023-09-20T09:14:17.593+00:00</time>
      </trkpt>
      <trkpt lat="48.3649" lon="2.63598">
        <ele>142</ele>
        <time>2023-09-20T09:14:22.577+00:00</time>
      </trkpt>
      <trkpt lat="48.36489" lon="2.63589">
        <ele>142</ele>
        <time>2023-09-20T09:14:26.589+00:00</time>
      </trkpt>
      <trkpt lat="48.36487" lon="2.63582">
        <ele>142</ele>
        <time>2023-09-20T09:14:30.598+00:00</time>
      </trkpt>
      <trkpt lat="48.36485" lon="2.63575">
        <ele>140</ele>
        <time>2023-09-20T09:14:35.583+00:00</time>
      </trkpt>
      <trkpt lat="48.36481" lon="2.63566">
        <ele>139</ele>
        <time>2023-09-20T09:14:40.592+00:00</time>
      </trkpt>
      <trkpt lat="48.36477" lon="2.63557">
        <ele>139</ele>
        <time>2023-09-20T09:14:45.589+00:00</time>
      </trkpt>
      <trkpt lat="48.36475" lon="2.63548">
        <ele>139</ele>
        <time>2023-09-20T09:14:50.602+00:00</time>
      </trkpt>
      <trkpt lat="48.36473" lon="2.6354">
        <ele>138</ele>
        <time>2023-09-20T09:14:55.583+00:00</time>
      </trkpt>
      <trkpt lat="48.36472" lon="2.63532">
        <ele>138</ele>
        <time>2023-09-20T09:15:00.586+00:00</time>
      </trkpt>
      <trkpt lat="48.36471" lon="2.63523">
        <ele>138</ele>
        <time>2023-09-20T09:15:05.599+00:00</time>
      </trkpt>
      <trkpt lat="48.36466" lon="2.63515">
        <ele>138</ele>
        <time>2023-09-20T09:15:10.592+00:00</time>
      </trkpt>
      <trkpt lat="48.36463" lon="2.63508">
        <ele>138</ele>
        <time>2023-09-20T09:15:15.585+00:00</time>
      </trkpt>
      <trkpt lat="48.36461" lon="2.63498">
        <ele>138</ele>
        <time>2023-09-20T09:15:20.593+00:00</time>
      </trkpt>
      <trkpt lat="48.36459" lon="2.63487">
        <ele>138</ele>
        <time>2023-09-20T09:15:25.583+00:00</time>
      </trkpt>
      <trkpt lat="48.36458" lon="2.63476">
        <ele>137</ele>
        <time>2023-09-20T09:15:30.610+00:00</time>
      </trkpt>
      <trkpt lat="48.36456" lon="2.63468">
        <ele>137</ele>
        <time>2023-09-20T09:15:35.605+00:00</time>
      </trkpt>
      <trkpt lat="48.36453" lon="2.6346">
        <ele>137</ele>
        <time>2023-09-20T09:15:39.611+00:00</time>
      </trkpt>
      <trkpt lat="48.36449" lon="2.63449">
        <ele>138</ele>
        <time>2023-09-20T09:15:44.614+00:00</time>
      </trkpt>
      <trkpt lat="48.36445" lon="2.63439">
        <ele>138</ele>
        <time>2023-09-20T09:15:49.592+00:00</time>
      </trkpt>
      <trkpt lat="48.36442" lon="2.6343">
        <ele>138</ele>
        <time>2023-09-20T09:15:54.592+00:00</time>
      </trkpt>
      <trkpt lat="48.36438" lon="2.63422">
        <ele>138</ele>
        <time>2023-09-20T09:15:59.604+00:00</time>
      </trkpt>
      <trkpt lat="48.36436" lon="2.63413">
        <ele>138</ele>
        <time>2023-09-20T09:16:04.615+00:00</time>
      </trkpt>
      <trkpt lat="48.36435" lon="2.63406">
        <ele>138</ele>
        <time>2023-09-20T09:16:08.598+00:00</time>
      </trkpt>
      <trkpt lat="48.36433" lon="2.63395">
        <ele>138</ele>
        <time>2023-09-20T09:16:13.615+00:00</time>
      </trkpt>
      <trkpt lat="48.3643" lon="2.63386">
        <ele>137</ele>
        <time>2023-09-20T09:16:18.589+00:00</time>
      </trkpt>
      <trkpt lat="48.36427" lon="2.63376">
        <ele>137</ele>
        <time>2023-09-20T09:16:23.588+00:00</time>
      </trkpt>
      <trkpt lat="48.36425" lon="2.63367">
        <ele>136</ele>
        <time>2023-09-20T09:16:28.594+00:00</time>
      </trkpt>
      <trkpt lat="48.36423" lon="2.63358">
        <ele>136</ele>
        <time>2023-09-20T09:16:33.597+00:00</time>
      </trkpt>
      <trkpt lat="48.36421" lon="2.63351">
        <ele>136</ele>
        <time>2023-09-20T09:16:38.583+00:00</time>
      </trkpt>
      <trkpt lat="48.36419" lon="2.63344">
        <ele>134</ele>
        <time>2023-09-20T09:16:42.614+00:00</time>
      </trkpt>
      <trkpt lat="48.36418" lon="2.63335">
        <ele>134</ele>
        <time>2023-09-20T09:16:46.593+00:00</time>
      </trkpt>
      <trkpt lat="48.36416" lon="2.63324">
        <ele>134</ele>
        <time>2023-09-20T09:16:51.589+00:00</time>
      </trkpt>
      <trkpt lat="48.36414" lon="2.63317">
        <ele>133</ele>
        <time>2023-09-20T09:16:56.580+00:00</time>
      </trkpt>
      <trkpt lat="48.36411" lon="2.6331">
        <ele>133</ele>
        <time>2023-09-20T09:17:01.594+00:00</time>
      </trkpt>
      <trkpt lat="48.36409" lon="2.633">
        <ele>133</ele>
        <time>2023-09-20T09:17:06.592+00:00</time>
      </trkpt>
      <trkpt lat="48.36407" lon="2.63293">
        <ele>133</ele>
        <time>2023-09-20T09:17:10.599+00:00</time>
      </trkpt>
      <trkpt lat="48.36405" lon="2.63283">
        <ele>133</ele>
        <time>2023-09-20T09:17:15.584+00:00</time>
      </trkpt>
      <trkpt lat="48.36404" lon="2.63274">
        <ele>133</ele>
        <time>2023-09-20T09:17:20.582+00:00</time>
      </trkpt>
      <trkpt lat="48.36401" lon="2.63265">
        <ele>132</ele>
        <time>2023-09-20T09:17:24.581+00:00</time>
      </trkpt>
      <trkpt lat="48.36399" lon="2.63257">
        <ele>133</ele>
        <time>2023-09-20T09:17:29.579+00:00</time>
      </trkpt>
      <trkpt lat="48.36396" lon="2.6325">
        <ele>133</ele>
        <time>2023-09-20T09:17:34.582+00:00</time>
      </trkpt>
      <trkpt lat="48.36395" lon="2.63242">
        <ele>133</ele>
        <time>2023-09-20T09:17:39.589+00:00</time>
      </trkpt>
      <trkpt lat="48.36393" lon="2.63234">
        <ele>136</ele>
        <time>2023-09-20T09:17:44.593+00:00</time>
      </trkpt>
      <trkpt lat="48.3639" lon="2.63222">
        <ele>136</ele>
        <time>2023-09-20T09:17:49.601+00:00</time>
      </trkpt>
      <trkpt lat="48.36388" lon="2.63216">
        <ele>136</ele>
        <time>2023-09-20T09:17:53.597+00:00</time>
      </trkpt>
      <trkpt lat="48.36386" lon="2.63207">
        <ele>138</ele>
        <time>2023-09-20T09:17:58.591+00:00</time>
      </trkpt>
      <trkpt lat="48.36385" lon="2.63199">
        <ele>138</ele>
        <time>2023-09-20T09:18:03.578+00:00</time>
      </trkpt>
      <trkpt lat="48.36383" lon="2.63191">
        <ele>138</ele>
        <time>2023-09-20T09:18:08.585+00:00</time>
      </trkpt>
      <trkpt lat="48.36381" lon="2.63186">
        <ele>138</ele>
        <time>2023-09-20T09:18:12.607+00:00</time>
      </trkpt>
      <trkpt lat="48.36379" lon="2.63181">
        <ele>138</ele>
        <time>2023-09-20T09:18:16.590+00:00</time>
      </trkpt>
      <trkpt lat="48.36377" lon="2.63175">
        <ele>139</ele>
        <time>2023-09-20T09:18:21.573+00:00</time>
      </trkpt>
      <trkpt lat="48.36376" lon="2.63169">
        <ele>139</ele>
        <time>2023-09-20T09:18:25.581+00:00</time>
      </trkpt>
      <trkpt lat="48.36374" lon="2.6316">
        <ele>138</ele>
        <time>2023-09-20T09:18:30.598+00:00</time>
      </trkpt>
      <trkpt lat="48.36371" lon="2.63149">
        <ele>139</ele>
        <time>2023-09-20T09:18:35.583+00:00</time>
      </trkpt>
      <trkpt lat="48.36367" lon="2.63144">
        <ele>139</ele>
        <time>2023-09-20T09:18:39.581+00:00</time>
      </trkpt>
      <trkpt lat="48.36363" lon="2.6314">
        <ele>139</ele>
        <time>2023-09-20T09:18:43.577+00:00</time>
      </trkpt>
      <trkpt lat="48.36357" lon="2.63139">
        <ele>139</ele>
        <time>2023-09-20T09:18:48.582+00:00</time>
      </trkpt>
      <trkpt lat="48.36351" lon="2.63138">
        <ele>139</ele>
        <time>2023-09-20T09:18:53.590+00:00</time>
      </trkpt>
      <trkpt lat="48.36344" lon="2.63136">
        <ele>141</ele>
        <time>2023-09-20T09:18:58.587+00:00</time>
      </trkpt>
      <trkpt lat="48.36339" lon="2.63136">
        <ele>141</ele>
        <time>2023-09-20T09:19:02.591+00:00</time>
      </trkpt>
      <trkpt lat="48.36332" lon="2.63138">
        <ele>141</ele>
        <time>2023-09-20T09:19:07.590+00:00</time>
      </trkpt>
      <trkpt lat="48.36324" lon="2.63137">
        <ele>141</ele>
        <time>2023-09-20T09:19:12.600+00:00</time>
      </trkpt>
      <trkpt lat="48.36317" lon="2.63137">
        <ele>140</ele>
        <time>2023-09-20T09:19:17.594+00:00</time>
      </trkpt>
      <trkpt lat="48.36313" lon="2.63138">
        <ele>140</ele>
        <time>2023-09-20T09:19:21.590+00:00</time>
      </trkpt>
      <trkpt lat="48.36309" lon="2.63141">
        <ele>140</ele>
        <time>2023-09-20T09:19:26.605+00:00</time>
      </trkpt>
      <trkpt lat="48.36302" lon="2.63143">
        <ele>140</ele>
        <time>2023-09-20T09:19:31.601+00:00</time>
      </trkpt>
      <trkpt lat="48.36297" lon="2.63143">
        <ele>140</ele>
        <time>2023-09-20T09:19:35.599+00:00</time>
      </trkpt>
      <trkpt lat="48.3629" lon="2.63144">
        <ele>138</ele>
        <time>2023-09-20T09:19:40.608+00:00</time>
      </trkpt>
      <trkpt lat="48.36283" lon="2.63146">
        <ele>138</ele>
        <time>2023-09-20T09:19:45.603+00:00</time>
      </trkpt>
      <trkpt lat="48.36277" lon="2.63144">
        <ele>138</ele>
        <time>2023-09-20T09:19:50.599+00:00</time>
      </trkpt>
      <trkpt lat="48.36271" lon="2.63142">
        <ele>138</ele>
        <time>2023-09-20T09:19:54.602+00:00</time>
      </trkpt>
      <trkpt lat="48.36263" lon="2.63142">
        <ele>136</ele>
        <time>2023-09-20T09:19:59.571+00:00</time>
      </trkpt>
      <trkpt lat="48.36257" lon="2.63142">
        <ele>136</ele>
        <time>2023-09-20T09:20:03.586+00:00</time>
      </trkpt>
      <trkpt lat="48.36251" lon="2.63144">
        <ele>136</ele>
        <time>2023-09-20T09:20:07.596+00:00</time>
      </trkpt>
      <trkpt lat="48.36244" lon="2.63146">
        <ele>136</ele>
        <time>2023-09-20T09:20:12.585+00:00</time>
      </trkpt>
      <trkpt lat="48.36238" lon="2.63148">
        <ele>136</ele>
        <time>2023-09-20T09:20:17.595+00:00</time>
      </trkpt>
      <trkpt lat="48.36231" lon="2.63147">
        <ele>135</ele>
        <time>2023-09-20T09:20:22.597+00:00</time>
      </trkpt>
      <trkpt lat="48.36227" lon="2.63148">
        <ele>135</ele>
        <time>2023-09-20T09:20:26.611+00:00</time>
      </trkpt>
      <trkpt lat="48.3622" lon="2.63149">
        <ele>135</ele>
        <time>2023-09-20T09:20:31.596+00:00</time>
      </trkpt>
      <trkpt lat="48.36213" lon="2.63149">
        <ele>135</ele>
        <time>2023-09-20T09:20:36.588+00:00</time>
      </trkpt>
      <trkpt lat="48.36208" lon="2.63151">
        <ele>134</ele>
        <time>2023-09-20T09:20:41.592+00:00</time>
      </trkpt>
      <trkpt lat="48.36201" lon="2.63153">
        <ele>133</ele>
        <time>2023-09-20T09:20:46.591+00:00</time>
      </trkpt>
      <trkpt lat="48.36194" lon="2.63154">
        <ele>133</ele>
        <time>2023-09-20T09:20:51.575+00:00</time>
      </trkpt>
      <trkpt lat="48.36187" lon="2.63154">
        <ele>133</ele>
        <time>2023-09-20T09:20:55.568+00:00</time>
      </trkpt>
      <trkpt lat="48.36181" lon="2.63154">
        <ele>133</ele>
        <time>2023-09-20T09:20:59.584+00:00</time>
      </trkpt>
      <trkpt lat="48.36174" lon="2.63154">
        <ele>134</ele>
        <time>2023-09-20T09:21:04.596+00:00</time>
      </trkpt>
      <trkpt lat="48.36169" lon="2.63153">
        <ele>134</ele>
        <time>2023-09-20T09:21:08.599+00:00</time>
      </trkpt>
      <trkpt lat="48.36164" lon="2.63152">
        <ele>134</ele>
        <time>2023-09-20T09:21:13.586+00:00</time>
      </trkpt>
      <trkpt lat="48.36159" lon="2.63152">
        <ele>134</ele>
        <time>2023-09-20T09:21:18.604+00:00</time>
      </trkpt>
      <trkpt lat="48.36154" lon="2.63154">
        <ele>134</ele>
        <time>2023-09-20T09:21:23.602+00:00</time>
      </trkpt>
      <trkpt lat="48.36148" lon="2.63155">
        <ele>136</ele>
        <time>2023-09-20T09:21:27.611+00:00</time>
      </trkpt>
      <trkpt lat="48.3614" lon="2.63156">
        <ele>136</ele>
        <time>2023-09-20T09:21:32.605+00:00</time>
      </trkpt>
      <trkpt lat="48.36134" lon="2.63156">
        <ele>136</ele>
        <time>2023-09-20T09:21:36.605+00:00</time>
      </trkpt>
      <trkpt lat="48.36127" lon="2.63156">
        <ele>136</ele>
        <time>2023-09-20T09:21:41.610+00:00</time>
      </trkpt>
      <trkpt lat="48.3612" lon="2.63156">
        <ele>136</ele>
        <time>2023-09-20T09:21:46.612+00:00</time>
      </trkpt>
      <trkpt lat="48.36114" lon="2.63156">
        <ele>136</ele>
        <time>2023-09-20T09:21:51.588+00:00</time>
      </trkpt>
      <trkpt lat="48.36109" lon="2.63157">
        <ele>136</ele>
        <time>2023-09-20T09:21:56.597+00:00</time>
      </trkpt>
      <trkpt lat="48.36104" lon="2.63159">
        <ele>136</ele>
        <time>2023-09-20T09:22:00.615+00:00</time>
      </trkpt>
      <trkpt lat="48.361" lon="2.63159">
        <ele>136</ele>
        <time>2023-09-20T09:22:05.601+00:00</time>
      </trkpt>
      <trkpt lat="48.36094" lon="2.63159">
        <ele>134</ele>
        <time>2023-09-20T09:22:10.611+00:00</time>
      </trkpt>
      <trkpt lat="48.36087" lon="2.6316">
        <ele>134</ele>
        <time>2023-09-20T09:22:15.582+00:00</time>
      </trkpt>
      <trkpt lat="48.3608" lon="2.6316">
        <ele>134</ele>
        <time>2023-09-20T09:22:19.570+00:00</time>
      </trkpt>
      <trkpt lat="48.36074" lon="2.63159">
        <ele>134</ele>
        <time>2023-09-20T09:22:23.597+00:00</time>
      </trkpt>
      <trkpt lat="48.36068" lon="2.63159">
        <ele>134</ele>
        <time>2023-09-20T09:22:28.597+00:00</time>
      </trkpt>
      <trkpt lat="48.36061" lon="2.63161">
        <ele>134</ele>
        <time>2023-09-20T09:22:33.579+00:00</time>
      </trkpt>
      <trkpt lat="48.36057" lon="2.63161">
        <ele>134</ele>
        <time>2023-09-20T09:22:37.597+00:00</time>
      </trkpt>
      <trkpt lat="48.3605" lon="2.63161">
        <ele>134</ele>
        <time>2023-09-20T09:22:42.582+00:00</time>
      </trkpt>
      <trkpt lat="48.36045" lon="2.63161">
        <ele>134</ele>
        <time>2023-09-20T09:22:46.596+00:00</time>
      </trkpt>
      <trkpt lat="48.3604" lon="2.63163">
        <ele>133</ele>
        <time>2023-09-20T09:22:51.584+00:00</time>
      </trkpt>
      <trkpt lat="48.36034" lon="2.63163">
        <ele>133</ele>
        <time>2023-09-20T09:22:56.607+00:00</time>
      </trkpt>
      <trkpt lat="48.36027" lon="2.63163">
        <ele>133</ele>
        <time>2023-09-20T09:23:01.592+00:00</time>
      </trkpt>
      <trkpt lat="48.36021" lon="2.63164">
        <ele>133</ele>
        <time>2023-09-20T09:23:06.599+00:00</time>
      </trkpt>
      <trkpt lat="48.36014" lon="2.63163">
        <ele>133</ele>
        <time>2023-09-20T09:23:11.593+00:00</time>
      </trkpt>
      <trkpt lat="48.36009" lon="2.63163">
        <ele>132</ele>
        <time>2023-09-20T09:23:15.620+00:00</time>
      </trkpt>
      <trkpt lat="48.36002" lon="2.63164">
        <ele>132</ele>
        <time>2023-09-20T09:23:20.588+00:00</time>
      </trkpt>
      <trkpt lat="48.35994" lon="2.63166">
        <ele>132</ele>
        <time>2023-09-20T09:23:25.579+00:00</time>
      </trkpt>
      <trkpt lat="48.35988" lon="2.63166">
        <ele>132</ele>
        <time>2023-09-20T09:23:29.594+00:00</time>
      </trkpt>
      <trkpt lat="48.3598" lon="2.63166">
        <ele>134</ele>
        <time>2023-09-20T09:23:34.606+00:00</time>
      </trkpt>
      <trkpt lat="48.35974" lon="2.63166">
        <ele>134</ele>
        <time>2023-09-20T09:23:39.592+00:00</time>
      </trkpt>
      <trkpt lat="48.35967" lon="2.63166">
        <ele>134</ele>
        <time>2023-09-20T09:23:44.584+00:00</time>
      </trkpt>
      <trkpt lat="48.3596" lon="2.63166">
        <ele>134</ele>
        <time>2023-09-20T09:23:48.604+00:00</time>
      </trkpt>
      <trkpt lat="48.3595" lon="2.63168">
        <ele>137</ele>
        <time>2023-09-20T09:23:53.592+00:00</time>
      </trkpt>
      <trkpt lat="48.35944" lon="2.63168">
        <ele>137</ele>
        <time>2023-09-20T09:23:57.608+00:00</time>
      </trkpt>
      <trkpt lat="48.35939" lon="2.63174">
        <ele>137</ele>
        <time>2023-09-20T09:24:02.574+00:00</time>
      </trkpt>
      <trkpt lat="48.35936" lon="2.63184">
        <ele>137</ele>
        <time>2023-09-20T09:24:06.595+00:00</time>
      </trkpt>
      <trkpt lat="48.35936" lon="2.63192">
        <ele>137</ele>
        <time>2023-09-20T09:24:10.609+00:00</time>
      </trkpt>
      <trkpt lat="48.35936" lon="2.63201">
        <ele>137</ele>
        <time>2023-09-20T09:24:15.592+00:00</time>
      </trkpt>
      <trkpt lat="48.35937" lon="2.6321">
        <ele>137</ele>
        <time>2023-09-20T09:24:20.596+00:00</time>
      </trkpt>
      <trkpt lat="48.3594" lon="2.63219">
        <ele>137</ele>
        <time>2023-09-20T09:24:25.602+00:00</time>
      </trkpt>
      <trkpt lat="48.35941" lon="2.63228">
        <ele>137</ele>
        <time>2023-09-20T09:24:30.588+00:00</time>
      </trkpt>
      <trkpt lat="48.35941" lon="2.63236">
        <ele>137</ele>
        <time>2023-09-20T09:24:35.597+00:00</time>
      </trkpt>
      <trkpt lat="48.35942" lon="2.63244">
        <ele>137</ele>
        <time>2023-09-20T09:24:39.598+00:00</time>
      </trkpt>
      <trkpt lat="48.35944" lon="2.63253">
        <ele>137</ele>
        <time>2023-09-20T09:24:43.603+00:00</time>
      </trkpt>
      <trkpt lat="48.35947" lon="2.63263">
        <ele>137</ele>
        <time>2023-09-20T09:24:48.616+00:00</time>
      </trkpt>
      <trkpt lat="48.35948" lon="2.63274">
        <ele>139</ele>
        <time>2023-09-20T09:24:53.591+00:00</time>
      </trkpt>
      <trkpt lat="48.35949" lon="2.63282">
        <ele>139</ele>
        <time>2023-09-20T09:24:58.620+00:00</time>
      </trkpt>
      <trkpt lat="48.35952" lon="2.63294">
        <ele>140</ele>
        <time>2023-09-20T09:25:03.588+00:00</time>
      </trkpt>
      <trkpt lat="48.35953" lon="2.63301">
        <ele>140</ele>
        <time>2023-09-20T09:25:07.613+00:00</time>
      </trkpt>
      <trkpt lat="48.35956" lon="2.6331">
        <ele>140</ele>
        <time>2023-09-20T09:25:12.573+00:00</time>
      </trkpt>
      <trkpt lat="48.35958" lon="2.63319">
        <ele>140</ele>
        <time>2023-09-20T09:25:16.582+00:00</time>
      </trkpt>
      <trkpt lat="48.35959" lon="2.63327">
        <ele>141</ele>
        <time>2023-09-20T09:25:20.619+00:00</time>
      </trkpt>
      <trkpt lat="48.3596" lon="2.63337">
        <ele>141</ele>
        <time>2023-09-20T09:25:25.606+00:00</time>
      </trkpt>
      <trkpt lat="48.35961" lon="2.63344">
        <ele>141</ele>
        <time>2023-09-20T09:25:29.598+00:00</time>
      </trkpt>
      <trkpt lat="48.35963" lon="2.63353">
        <ele>140</ele>
        <time>2023-09-20T09:25:34.606+00:00</time>
      </trkpt>
      <trkpt lat="48.35964" lon="2.63363">
        <ele>140</ele>
        <time>2023-09-20T09:25:39.615+00:00</time>
      </trkpt>
      <trkpt lat="48.35967" lon="2.63373">
        <ele>140</ele>
        <time>2023-09-20T09:25:44.583+00:00</time>
      </trkpt>
      <trkpt lat="48.35968" lon="2.63379">
        <ele>138</ele>
        <time>2023-09-20T09:25:48.612+00:00</time>
      </trkpt>
      <trkpt lat="48.35971" lon="2.63389">
        <ele>138</ele>
        <time>2023-09-20T09:25:53.568+00:00</time>
      </trkpt>
      <trkpt lat="48.35973" lon="2.63397">
        <ele>138</ele>
        <time>2023-09-20T09:25:57.593+00:00</time>
      </trkpt>
      <trkpt lat="48.35977" lon="2.63407">
        <ele>136</ele>
        <time>2023-09-20T09:26:02.577+00:00</time>
      </trkpt>
      <trkpt lat="48.35979" lon="2.63415">
        <ele>136</ele>
        <time>2023-09-20T09:26:06.626+00:00</time>
      </trkpt>
      <trkpt lat="48.35982" lon="2.63424">
        <ele>136</ele>
        <time>2023-09-20T09:26:11.613+00:00</time>
      </trkpt>
      <trkpt lat="48.35983" lon="2.63431">
        <ele>133</ele>
        <time>2023-09-20T09:26:15.614+00:00</time>
      </trkpt>
      <trkpt lat="48.35982" lon="2.63441">
        <ele>133</ele>
        <time>2023-09-20T09:26:20.611+00:00</time>
      </trkpt>
      <trkpt lat="48.35982" lon="2.63451">
        <ele>133</ele>
        <time>2023-09-20T09:26:25.611+00:00</time>
      </trkpt>
      <trkpt lat="48.35984" lon="2.63461">
        <ele>132</ele>
        <time>2023-09-20T09:26:30.608+00:00</time>
      </trkpt>
      <trkpt lat="48.35987" lon="2.63469">
        <ele>134</ele>
        <time>2023-09-20T09:26:34.605+00:00</time>
      </trkpt>
      <trkpt lat="48.35988" lon="2.6348">
        <ele>134</ele>
        <time>2023-09-20T09:26:39.610+00:00</time>
      </trkpt>
      <trkpt lat="48.3599" lon="2.63488">
        <ele>135</ele>
        <time>2023-09-20T09:26:44.602+00:00</time>
      </trkpt>
      <trkpt lat="48.35991" lon="2.63497">
        <ele>135</ele>
        <time>2023-09-20T09:26:48.615+00:00</time>
      </trkpt>
      <trkpt lat="48.35994" lon="2.63508">
        <ele>135</ele>
        <time>2023-09-20T09:26:53.614+00:00</time>
      </trkpt>
      <trkpt lat="48.35997" lon="2.63517">
        <ele>135</ele>
        <time>2023-09-20T09:26:58.572+00:00</time>
      </trkpt>
      <trkpt lat="48.35998" lon="2.63527">
        <ele>135</ele>
        <time>2023-09-20T09:27:03.558+00:00</time>
      </trkpt>
      <trkpt lat="48.35999" lon="2.63532">
        <ele>135</ele>
        <time>2023-09-20T09:27:07.605+00:00</time>
      </trkpt>
      <trkpt lat="48.36" lon="2.63542">
        <ele>135</ele>
        <time>2023-09-20T09:27:12.610+00:00</time>
      </trkpt>
      <trkpt lat="48.36002" lon="2.63551">
        <ele>135</ele>
        <time>2023-09-20T09:27:16.615+00:00</time>
      </trkpt>
      <trkpt lat="48.36003" lon="2.6356">
        <ele>135</ele>
        <time>2023-09-20T09:27:21.589+00:00</time>
      </trkpt>
      <trkpt lat="48.36005" lon="2.63566">
        <ele>135</ele>
        <time>2023-09-20T09:27:25.625+00:00</time>
      </trkpt>
      <trkpt lat="48.36007" lon="2.63575">
        <ele>134</ele>
        <time>2023-09-20T09:27:30.616+00:00</time>
      </trkpt>
      <trkpt lat="48.36009" lon="2.63582">
        <ele>134</ele>
        <time>2023-09-20T09:27:34.628+00:00</time>
      </trkpt>
      <trkpt lat="48.3601" lon="2.6359">
        <ele>134</ele>
        <time>2023-09-20T09:27:38.630+00:00</time>
      </trkpt>
      <trkpt lat="48.36013" lon="2.63603">
        <ele>133</ele>
        <time>2023-09-20T09:27:43.622+00:00</time>
      </trkpt>
      <trkpt lat="48.36014" lon="2.63613">
        <ele>133</ele>
        <time>2023-09-20T09:27:48.602+00:00</time>
      </trkpt>
      <trkpt lat="48.36014" lon="2.6362">
        <ele>135</ele>
        <time>2023-09-20T09:27:52.616+00:00</time>
      </trkpt>
      <trkpt lat="48.36016" lon="2.63629">
        <ele>135</ele>
        <time>2023-09-20T09:27:57.589+00:00</time>
      </trkpt>
      <trkpt lat="48.36017" lon="2.63638">
        <ele>135</ele>
        <time>2023-09-20T09:28:01.618+00:00</time>
      </trkpt>
      <trkpt lat="48.36019" lon="2.63648">
        <ele>135</ele>
        <time>2023-09-20T09:28:06.629+00:00</time>
      </trkpt>
      <trkpt lat="48.3602" lon="2.63658">
        <ele>136</ele>
        <time>2023-09-20T09:28:11.638+00:00</time>
      </trkpt>
      <trkpt lat="48.36024" lon="2.63668">
        <ele>136</ele>
        <time>2023-09-20T09:28:16.613+00:00</time>
      </trkpt>
      <trkpt lat="48.36027" lon="2.63679">
        <ele>136</ele>
        <time>2023-09-20T09:28:21.627+00:00</time>
      </trkpt>
      <trkpt lat="48.36028" lon="2.63688">
        <ele>136</ele>
        <time>2023-09-20T09:28:25.619+00:00</time>
      </trkpt>
      <trkpt lat="48.3603" lon="2.63698">
        <ele>136</ele>
        <time>2023-09-20T09:28:30.629+00:00</time>
      </trkpt>
      <trkpt lat="48.36033" lon="2.63706">
        <ele>136</ele>
        <time>2023-09-20T09:28:35.613+00:00</time>
      </trkpt>
      <trkpt lat="48.36035" lon="2.63715">
        <ele>136</ele>
        <time>2023-09-20T09:28:40.616+00:00</time>
      </trkpt>
      <trkpt lat="48.36036" lon="2.63724">
        <ele>136</ele>
        <time>2023-09-20T09:28:45.627+00:00</time>
      </trkpt>
      <trkpt lat="48.36037" lon="2.63734">
        <ele>136</ele>
        <time>2023-09-20T09:28:50.615+00:00</time>
      </trkpt>
      <trkpt lat="48.36039" lon="2.63743">
        <ele>135</ele>
        <time>2023-09-20T09:28:55.623+00:00</time>
      </trkpt>
      <trkpt lat="48.3604" lon="2.63751">
        <ele>135</ele>
        <time>2023-09-20T09:28:59.630+00:00</time>
      </trkpt>
      <trkpt lat="48.36042" lon="2.63761">
        <ele>136</ele>
        <time>2023-09-20T09:29:04.641+00:00</time>
      </trkpt>
      <trkpt lat="48.36044" lon="2.6377">
        <ele>136</ele>
        <time>2023-09-20T09:29:09.615+00:00</time>
      </trkpt>
      <trkpt lat="48.36048" lon="2.63777">
        <ele>136</ele>
        <time>2023-09-20T09:29:14.587+00:00</time>
      </trkpt>
      <trkpt lat="48.36051" lon="2.63785">
        <ele>136</ele>
        <time>2023-09-20T09:29:19.603+00:00</time>
      </trkpt>
      <trkpt lat="48.36053" lon="2.63797">
        <ele>136</ele>
        <time>2023-09-20T09:29:24.638+00:00</time>
      </trkpt>
      <trkpt lat="48.36055" lon="2.63809">
        <ele>136</ele>
        <time>2023-09-20T09:29:29.605+00:00</time>
      </trkpt>
      <trkpt lat="48.36056" lon="2.63817">
        <ele>136</ele>
        <time>2023-09-20T09:29:34.619+00:00</time>
      </trkpt>
      <trkpt lat="48.36056" lon="2.63824">
        <ele>137</ele>
        <time>2023-09-20T09:29:39.629+00:00</time>
      </trkpt>
      <trkpt lat="48.36058" lon="2.63833">
        <ele>137</ele>
        <time>2023-09-20T09:29:44.630+00:00</time>
      </trkpt>
      <trkpt lat="48.36061" lon="2.63844">
        <ele>137</ele>
        <time>2023-09-20T09:29:49.613+00:00</time>
      </trkpt>
      <trkpt lat="48.36065" lon="2.63854">
        <ele>137</ele>
        <time>2023-09-20T09:29:54.623+00:00</time>
      </trkpt>
      <trkpt lat="48.36067" lon="2.63865">
        <ele>137</ele>
        <time>2023-09-20T09:29:59.615+00:00</time>
      </trkpt>
      <trkpt lat="48.36068" lon="2.63872">
        <ele>137</ele>
        <time>2023-09-20T09:30:03.607+00:00</time>
      </trkpt>
      <trkpt lat="48.36069" lon="2.63881">
        <ele>137</ele>
        <time>2023-09-20T09:30:07.614+00:00</time>
      </trkpt>
      <trkpt lat="48.36065" lon="2.63888">
        <ele>137</ele>
        <time>2023-09-20T09:30:12.642+00:00</time>
      </trkpt>
      <trkpt lat="48.3606" lon="2.63891">
        <ele>137</ele>
        <time>2023-09-20T09:30:17.600+00:00</time>
      </trkpt>
      <trkpt lat="48.36054" lon="2.63891">
        <ele>137</ele>
        <time>2023-09-20T09:30:22.599+00:00</time>
      </trkpt>
      <trkpt lat="48.36048" lon="2.6389">
        <ele>137</ele>
        <time>2023-09-20T09:30:27.575+00:00</time>
      </trkpt>
      <trkpt lat="48.36043" lon="2.63891">
        <ele>137</ele>
        <time>2023-09-20T09:30:31.614+00:00</time>
      </trkpt>
      <trkpt lat="48.36036" lon="2.63893">
        <ele>137</ele>
        <time>2023-09-20T09:30:36.599+00:00</time>
      </trkpt>
      <trkpt lat="48.36029" lon="2.63895">
        <ele>137</ele>
        <time>2023-09-20T09:30:41.622+00:00</time>
      </trkpt>
      <trkpt lat="48.36021" lon="2.63896">
        <ele>137</ele>
        <time>2023-09-20T09:30:46.615+00:00</time>
      </trkpt>
      <trkpt lat="48.36015" lon="2.63898">
        <ele>137</ele>
        <time>2023-09-20T09:30:51.609+00:00</time>
      </trkpt>
      <trkpt lat="48.36006" lon="2.63899">
        <ele>137</ele>
        <time>2023-09-20T09:30:56.621+00:00</time>
      </trkpt>
      <trkpt lat="48.36" lon="2.639">
        <ele>137</ele>
        <time>2023-09-20T09:31:01.619+00:00</time>
      </trkpt>
      <trkpt lat="48.35993" lon="2.639">
        <ele>137</ele>
        <time>2023-09-20T09:31:06.614+00:00</time>
      </trkpt>
      <trkpt lat="48.35988" lon="2.63901">
        <ele>137</ele>
        <time>2023-09-20T09:31:10.619+00:00</time>
      </trkpt>
      <trkpt lat="48.35983" lon="2.63903">
        <ele>139</ele>
        <time>2023-09-20T09:31:15.605+00:00</time>
      </trkpt>
      <trkpt lat="48.35978" lon="2.63904">
        <ele>139</ele>
        <time>2023-09-20T09:31:19.604+00:00</time>
      </trkpt>
      <trkpt lat="48.35973" lon="2.63905">
        <ele>139</ele>
        <time>2023-09-20T09:31:23.593+00:00</time>
      </trkpt>
      <trkpt lat="48.35965" lon="2.63906">
        <ele>139</ele>
        <time>2023-09-20T09:31:28.612+00:00</time>
      </trkpt>
      <trkpt lat="48.3596" lon="2.63907">
        <ele>139</ele>
        <time>2023-09-20T09:31:32.614+00:00</time>
      </trkpt>
      <trkpt lat="48.35955" lon="2.63907">
        <ele>140</ele>
        <time>2023-09-20T09:31:36.630+00:00</time>
      </trkpt>
      <trkpt lat="48.35948" lon="2.63908">
        <ele>140</ele>
        <time>2023-09-20T09:31:41.566+00:00</time>
      </trkpt>
      <trkpt lat="48.35943" lon="2.63908">
        <ele>140</ele>
        <time>2023-09-20T09:31:45.605+00:00</time>
      </trkpt>
      <trkpt lat="48.35936" lon="2.6391">
        <ele>140</ele>
        <time>2023-09-20T09:31:50.609+00:00</time>
      </trkpt>
      <trkpt lat="48.35931" lon="2.63912">
        <ele>140</ele>
        <time>2023-09-20T09:31:54.604+00:00</time>
      </trkpt>
      <trkpt lat="48.35926" lon="2.63913">
        <ele>140</ele>
        <time>2023-09-20T09:31:59.582+00:00</time>
      </trkpt>
      <trkpt lat="48.3592" lon="2.63914">
        <ele>140</ele>
        <time>2023-09-20T09:32:03.602+00:00</time>
      </trkpt>
      <trkpt lat="48.35915" lon="2.63914">
        <ele>140</ele>
        <time>2023-09-20T09:32:07.607+00:00</time>
      </trkpt>
      <trkpt lat="48.35907" lon="2.63916">
        <ele>140</ele>
        <time>2023-09-20T09:32:12.597+00:00</time>
      </trkpt>
      <trkpt lat="48.359" lon="2.63917">
        <ele>139</ele>
        <time>2023-09-20T09:32:16.616+00:00</time>
      </trkpt>
      <trkpt lat="48.35894" lon="2.63917">
        <ele>139</ele>
        <time>2023-09-20T09:32:21.591+00:00</time>
      </trkpt>
      <trkpt lat="48.35888" lon="2.63918">
        <ele>139</ele>
        <time>2023-09-20T09:32:26.599+00:00</time>
      </trkpt>
      <trkpt lat="48.35882" lon="2.63919">
        <ele>139</ele>
        <time>2023-09-20T09:32:31.612+00:00</time>
      </trkpt>
      <trkpt lat="48.35874" lon="2.6392">
        <ele>137</ele>
        <time>2023-09-20T09:32:36.616+00:00</time>
      </trkpt>
      <trkpt lat="48.35866" lon="2.63922">
        <ele>137</ele>
        <time>2023-09-20T09:32:41.584+00:00</time>
      </trkpt>
      <trkpt lat="48.35862" lon="2.63923">
        <ele>137</ele>
        <time>2023-09-20T09:32:45.593+00:00</time>
      </trkpt>
      <trkpt lat="48.35857" lon="2.63922">
        <ele>137</ele>
        <time>2023-09-20T09:32:49.603+00:00</time>
      </trkpt>
      <trkpt lat="48.35852" lon="2.63921">
        <ele>137</ele>
        <time>2023-09-20T09:32:53.613+00:00</time>
      </trkpt>
      <trkpt lat="48.35845" lon="2.63921">
        <ele>135</ele>
        <time>2023-09-20T09:32:58.615+00:00</time>
      </trkpt>
      <trkpt lat="48.35839" lon="2.63922">
        <ele>135</ele>
        <time>2023-09-20T09:33:03.592+00:00</time>
      </trkpt>
      <trkpt lat="48.35831" lon="2.63924">
        <ele>135</ele>
        <time>2023-09-20T09:33:08.598+00:00</time>
      </trkpt>
      <trkpt lat="48.35823" lon="2.63925">
        <ele>135</ele>
        <time>2023-09-20T09:33:13.613+00:00</time>
      </trkpt>
      <trkpt lat="48.35817" lon="2.63927">
        <ele>133</ele>
        <time>2023-09-20T09:33:18.623+00:00</time>
      </trkpt>
      <trkpt lat="48.35812" lon="2.63928">
        <ele>133</ele>
        <time>2023-09-20T09:33:23.596+00:00</time>
      </trkpt>
      <trkpt lat="48.35803" lon="2.63929">
        <ele>133</ele>
        <time>2023-09-20T09:33:28.609+00:00</time>
      </trkpt>
      <trkpt lat="48.35797" lon="2.63933">
        <ele>133</ele>
        <time>2023-09-20T09:33:33.603+00:00</time>
      </trkpt>
      <trkpt lat="48.35792" lon="2.63934">
        <ele>134</ele>
        <time>2023-09-20T09:33:37.610+00:00</time>
      </trkpt>
      <trkpt lat="48.35784" lon="2.63934">
        <ele>134</ele>
        <time>2023-09-20T09:33:42.618+00:00</time>
      </trkpt>
      <trkpt lat="48.35777" lon="2.63933">
        <ele>134</ele>
        <time>2023-09-20T09:33:47.596+00:00</time>
      </trkpt>
      <trkpt lat="48.35772" lon="2.63934">
        <ele>134</ele>
        <time>2023-09-20T09:33:51.603+00:00</time>
      </trkpt>
      <trkpt lat="48.35767" lon="2.63934">
        <ele>134</ele>
        <time>2023-09-20T09:33:55.616+00:00</time>
      </trkpt>
      <trkpt lat="48.3576" lon="2.63936">
        <ele>136</ele>
        <time>2023-09-20T09:34:00.572+00:00</time>
      </trkpt>
      <trkpt lat="48.35753" lon="2.63938">
        <ele>136</ele>
        <time>2023-09-20T09:34:05.556+00:00</time>
      </trkpt>
      <trkpt lat="48.35745" lon="2.63942">
        <ele>136</ele>
        <time>2023-09-20T09:34:10.568+00:00</time>
      </trkpt>
      <trkpt lat="48.35738" lon="2.63942">
        <ele>136</ele>
        <time>2023-09-20T09:34:15.570+00:00</time>
      </trkpt>
      <trkpt lat="48.3573" lon="2.63944">
        <ele>136</ele>
        <time>2023-09-20T09:34:20.610+00:00</time>
      </trkpt>
      <trkpt lat="48.35724" lon="2.63945">
        <ele>136</ele>
        <time>2023-09-20T09:34:25.584+00:00</time>
      </trkpt>
      <trkpt lat="48.35718" lon="2.63944">
        <ele>136</ele>
        <time>2023-09-20T09:34:30.599+00:00</time>
      </trkpt>
      <trkpt lat="48.35711" lon="2.63945">
        <ele>136</ele>
        <time>2023-09-20T09:34:35.588+00:00</time>
      </trkpt>
      <trkpt lat="48.35705" lon="2.63947">
        <ele>135</ele>
        <time>2023-09-20T09:34:40.591+00:00</time>
      </trkpt>
      <trkpt lat="48.35698" lon="2.63949">
        <ele>135</ele>
        <time>2023-09-20T09:34:45.598+00:00</time>
      </trkpt>
      <trkpt lat="48.35692" lon="2.6395">
        <ele>135</ele>
        <time>2023-09-20T09:34:50.597+00:00</time>
      </trkpt>
      <trkpt lat="48.35685" lon="2.63951">
        <ele>135</ele>
        <time>2023-09-20T09:34:55.583+00:00</time>
      </trkpt>
      <trkpt lat="48.3568" lon="2.6395">
        <ele>135</ele>
        <time>2023-09-20T09:34:59.597+00:00</time>
      </trkpt>
      <trkpt lat="48.35675" lon="2.63949">
        <ele>135</ele>
        <time>2023-09-20T09:35:03.622+00:00</time>
      </trkpt>
      <trkpt lat="48.35669" lon="2.63949">
        <ele>135</ele>
        <time>2023-09-20T09:35:08.606+00:00</time>
      </trkpt>
      <trkpt lat="48.35662" lon="2.6395">
        <ele>135</ele>
        <time>2023-09-20T09:35:13.583+00:00</time>
      </trkpt>
      <trkpt lat="48.35656" lon="2.63951">
        <ele>135</ele>
        <time>2023-09-20T09:35:18.613+00:00</time>
      </trkpt>
      <trkpt lat="48.35649" lon="2.63952">
        <ele>134</ele>
        <time>2023-09-20T09:35:23.591+00:00</time>
      </trkpt>
      <trkpt lat="48.35643" lon="2.63954">
        <ele>134</ele>
        <time>2023-09-20T09:35:28.583+00:00</time>
      </trkpt>
      <trkpt lat="48.35635" lon="2.63958">
        <ele>134</ele>
        <time>2023-09-20T09:35:33.600+00:00</time>
      </trkpt>
      <trkpt lat="48.35629" lon="2.63959">
        <ele>133</ele>
        <time>2023-09-20T09:35:38.581+00:00</time>
      </trkpt>
      <trkpt lat="48.35624" lon="2.63961">
        <ele>134</ele>
        <time>2023-09-20T09:35:43.585+00:00</time>
      </trkpt>
      <trkpt lat="48.35618" lon="2.6396">
        <ele>134</ele>
        <time>2023-09-20T09:35:47.579+00:00</time>
      </trkpt>
      <trkpt lat="48.35612" lon="2.63962">
        <ele>134</ele>
        <time>2023-09-20T09:35:51.604+00:00</time>
      </trkpt>
      <trkpt lat="48.35604" lon="2.63964">
        <ele>134</ele>
        <time>2023-09-20T09:35:56.609+00:00</time>
      </trkpt>
      <trkpt lat="48.35598" lon="2.63966">
        <ele>134</ele>
        <time>2023-09-20T09:36:00.615+00:00</time>
      </trkpt>
      <trkpt lat="48.35591" lon="2.63966">
        <ele>135</ele>
        <time>2023-09-20T09:36:05.621+00:00</time>
      </trkpt>
      <trkpt lat="48.35585" lon="2.63966">
        <ele>135</ele>
        <time>2023-09-20T09:36:10.596+00:00</time>
      </trkpt>
      <trkpt lat="48.35581" lon="2.63967">
        <ele>135</ele>
        <time>2023-09-20T09:36:14.613+00:00</time>
      </trkpt>
      <trkpt lat="48.35574" lon="2.63968">
        <ele>135</ele>
        <time>2023-09-20T09:36:19.593+00:00</time>
      </trkpt>
      <trkpt lat="48.35567" lon="2.63971">
        <ele>136</ele>
        <time>2023-09-20T09:36:24.601+00:00</time>
      </trkpt>
      <trkpt lat="48.3556" lon="2.63972">
        <ele>136</ele>
        <time>2023-09-20T09:36:29.599+00:00</time>
      </trkpt>
      <trkpt lat="48.35554" lon="2.63974">
        <ele>136</ele>
        <time>2023-09-20T09:36:33.613+00:00</time>
      </trkpt>
      <trkpt lat="48.35547" lon="2.63978">
        <ele>136</ele>
        <time>2023-09-20T09:36:38.596+00:00</time>
      </trkpt>
      <trkpt lat="48.35542" lon="2.63979">
        <ele>136</ele>
        <time>2023-09-20T09:36:42.595+00:00</time>
      </trkpt>
      <trkpt lat="48.35537" lon="2.6398">
        <ele>137</ele>
        <time>2023-09-20T09:36:47.578+00:00</time>
      </trkpt>
      <trkpt lat="48.35531" lon="2.6398">
        <ele>137</ele>
        <time>2023-09-20T09:36:52.586+00:00</time>
      </trkpt>
      <trkpt lat="48.35528" lon="2.63978">
        <ele>137</ele>
        <time>2023-09-20T09:36:56.609+00:00</time>
      </trkpt>
      <trkpt lat="48.35523" lon="2.63976">
        <ele>137</ele>
        <time>2023-09-20T09:37:01.614+00:00</time>
      </trkpt>
      <trkpt lat="48.35518" lon="2.63974">
        <ele>137</ele>
        <time>2023-09-20T09:37:06.600+00:00</time>
      </trkpt>
      <trkpt lat="48.35515" lon="2.6397">
        <ele>137</ele>
        <time>2023-09-20T09:37:10.610+00:00</time>
      </trkpt>
      <trkpt lat="48.3551" lon="2.63963">
        <ele>137</ele>
        <time>2023-09-20T09:37:15.579+00:00</time>
      </trkpt>
      <trkpt lat="48.35505" lon="2.63958">
        <ele>137</ele>
        <time>2023-09-20T09:37:19.580+00:00</time>
      </trkpt>
      <trkpt lat="48.35501" lon="2.63952">
        <ele>137</ele>
        <time>2023-09-20T09:37:23.617+00:00</time>
      </trkpt>
      <trkpt lat="48.35496" lon="2.63948">
        <ele>137</ele>
        <time>2023-09-20T09:37:28.603+00:00</time>
      </trkpt>
      <trkpt lat="48.35491" lon="2.63944">
        <ele>137</ele>
        <time>2023-09-20T09:37:33.624+00:00</time>
      </trkpt>
      <trkpt lat="48.35488" lon="2.63939">
        <ele>137</ele>
        <time>2023-09-20T09:37:38.615+00:00</time>
      </trkpt>
      <trkpt lat="48.35485" lon="2.63933">
        <ele>138</ele>
        <time>2023-09-20T09:37:43.608+00:00</time>
      </trkpt>
      <trkpt lat="48.35481" lon="2.63928">
        <ele>138</ele>
        <time>2023-09-20T09:37:48.604+00:00</time>
      </trkpt>
      <trkpt lat="48.35478" lon="2.63923">
        <ele>138</ele>
        <time>2023-09-20T09:37:52.604+00:00</time>
      </trkpt>
      <trkpt lat="48.35472" lon="2.63918">
        <ele>138</ele>
        <time>2023-09-20T09:37:57.606+00:00</time>
      </trkpt>
      <trkpt lat="48.35466" lon="2.63911">
        <ele>138</ele>
        <time>2023-09-20T09:38:02.587+00:00</time>
      </trkpt>
      <trkpt lat="48.35462" lon="2.63904">
        <ele>138</ele>
        <time>2023-09-20T09:38:06.588+00:00</time>
      </trkpt>
      <trkpt lat="48.35457" lon="2.63896">
        <ele>138</ele>
        <time>2023-09-20T09:38:11.579+00:00</time>
      </trkpt>
      <trkpt lat="48.35452" lon="2.6389">
        <ele>138</ele>
        <time>2023-09-20T09:38:16.582+00:00</time>
      </trkpt>
      <trkpt lat="48.35449" lon="2.63883">
        <ele>138</ele>
        <time>2023-09-20T09:38:21.578+00:00</time>
      </trkpt>
      <trkpt lat="48.35447" lon="2.63877">
        <ele>138</ele>
        <time>2023-09-20T09:38:25.604+00:00</time>
      </trkpt>
      <trkpt lat="48.35442" lon="2.63869">
        <ele>138</ele>
        <time>2023-09-20T09:38:30.582+00:00</time>
      </trkpt>
      <trkpt lat="48.35437" lon="2.63865">
        <ele>138</ele>
        <time>2023-09-20T09:38:34.602+00:00</time>
      </trkpt>
      <trkpt lat="48.35432" lon="2.6386">
        <ele>138</ele>
        <time>2023-09-20T09:38:39.604+00:00</time>
      </trkpt>
      <trkpt lat="48.35427" lon="2.63855">
        <ele>138</ele>
        <time>2023-09-20T09:38:44.602+00:00</time>
      </trkpt>
      <trkpt lat="48.35422" lon="2.63847">
        <ele>138</ele>
        <time>2023-09-20T09:38:49.580+00:00</time>
      </trkpt>
      <trkpt lat="48.35416" lon="2.63841">
        <ele>138</ele>
        <time>2023-09-20T09:38:54.592+00:00</time>
      </trkpt>
      <trkpt lat="48.35411" lon="2.63835">
        <ele>138</ele>
        <time>2023-09-20T09:38:59.577+00:00</time>
      </trkpt>
      <trkpt lat="48.35406" lon="2.63829">
        <ele>138</ele>
        <time>2023-09-20T09:39:03.590+00:00</time>
      </trkpt>
      <trkpt lat="48.35401" lon="2.63822">
        <ele>137</ele>
        <time>2023-09-20T09:39:08.600+00:00</time>
      </trkpt>
      <trkpt lat="48.35397" lon="2.63814">
        <ele>137</ele>
        <time>2023-09-20T09:39:13.600+00:00</time>
      </trkpt>
      <trkpt lat="48.35393" lon="2.63809">
        <ele>137</ele>
        <time>2023-09-20T09:39:17.598+00:00</time>
      </trkpt>
      <trkpt lat="48.35389" lon="2.63801">
        <ele>137</ele>
        <time>2023-09-20T09:39:22.588+00:00</time>
      </trkpt>
      <trkpt lat="48.35384" lon="2.63794">
        <ele>137</ele>
        <time>2023-09-20T09:39:27.586+00:00</time>
      </trkpt>
      <trkpt lat="48.35379" lon="2.63788">
        <ele>137</ele>
        <time>2023-09-20T09:39:31.601+00:00</time>
      </trkpt>
      <trkpt lat="48.35374" lon="2.63781">
        <ele>136</ele>
        <time>2023-09-20T09:39:36.606+00:00</time>
      </trkpt>
      <trkpt lat="48.35367" lon="2.63771">
        <ele>136</ele>
        <time>2023-09-20T09:39:41.592+00:00</time>
      </trkpt>
      <trkpt lat="48.35362" lon="2.63764">
        <ele>136</ele>
        <time>2023-09-20T09:39:45.596+00:00</time>
      </trkpt>
      <trkpt lat="48.35356" lon="2.63758">
        <ele>135</ele>
        <time>2023-09-20T09:39:50.611+00:00</time>
      </trkpt>
      <trkpt lat="48.3535" lon="2.63752">
        <ele>135</ele>
        <time>2023-09-20T09:39:55.590+00:00</time>
      </trkpt>
      <trkpt lat="48.35345" lon="2.63746">
        <ele>135</ele>
        <time>2023-09-20T09:40:00.601+00:00</time>
      </trkpt>
      <trkpt lat="48.35341" lon="2.63741">
        <ele>135</ele>
        <time>2023-09-20T09:40:04.597+00:00</time>
      </trkpt>
      <trkpt lat="48.35336" lon="2.63738">
        <ele>135</ele>
        <time>2023-09-20T09:40:09.594+00:00</time>
      </trkpt>
      <trkpt lat="48.35332" lon="2.63732">
        <ele>135</ele>
        <time>2023-09-20T09:40:14.584+00:00</time>
      </trkpt>
      <trkpt lat="48.35328" lon="2.63726">
        <ele>135</ele>
        <time>2023-09-20T09:40:18.607+00:00</time>
      </trkpt>
      <trkpt lat="48.35323" lon="2.63719">
        <ele>135</ele>
        <time>2023-09-20T09:40:23.607+00:00</time>
      </trkpt>
      <trkpt lat="48.3532" lon="2.63717">
        <ele>135</ele>
        <time>2023-09-20T09:40:27.593+00:00</time>
      </trkpt>
      <trkpt lat="48.35316" lon="2.6371">
        <ele>136</ele>
        <time>2023-09-20T09:40:32.590+00:00</time>
      </trkpt>
      <trkpt lat="48.3531" lon="2.63704">
        <ele>136</ele>
        <time>2023-09-20T09:40:37.584+00:00</time>
      </trkpt>
      <trkpt lat="48.35304" lon="2.63699">
        <ele>136</ele>
        <time>2023-09-20T09:40:42.591+00:00</time>
      </trkpt>
      <trkpt lat="48.35299" lon="2.63693">
        <ele>136</ele>
        <time>2023-09-20T09:40:46.587+00:00</time>
      </trkpt>
      <trkpt lat="48.35294" lon="2.63686">
        <ele>136</ele>
        <time>2023-09-20T09:40:51.574+00:00</time>
      </trkpt>
      <trkpt lat="48.35291" lon="2.63678">
        <ele>136</ele>
        <time>2023-09-20T09:40:55.573+00:00</time>
      </trkpt>
      <trkpt lat="48.35287" lon="2.6367">
        <ele>136</ele>
        <time>2023-09-20T09:41:00.582+00:00</time>
      </trkpt>
      <trkpt lat="48.35285" lon="2.63665">
        <ele>136</ele>
        <time>2023-09-20T09:41:04.581+00:00</time>
      </trkpt>
      <trkpt lat="48.3528" lon="2.63658">
        <ele>136</ele>
        <time>2023-09-20T09:41:09.576+00:00</time>
      </trkpt>
      <trkpt lat="48.35276" lon="2.63651">
        <ele>136</ele>
        <time>2023-09-20T09:41:13.588+00:00</time>
      </trkpt>
      <trkpt lat="48.35271" lon="2.63644">
        <ele>136</ele>
        <time>2023-09-20T09:41:17.586+00:00</time>
      </trkpt>
      <trkpt lat="48.35266" lon="2.63633">
        <ele>136</ele>
        <time>2023-09-20T09:41:22.579+00:00</time>
      </trkpt>
      <trkpt lat="48.35262" lon="2.63627">
        <ele>135</ele>
        <time>2023-09-20T09:41:26.584+00:00</time>
      </trkpt>
      <trkpt lat="48.35257" lon="2.63621">
        <ele>135</ele>
        <time>2023-09-20T09:41:31.583+00:00</time>
      </trkpt>
      <trkpt lat="48.35254" lon="2.63616">
        <ele>135</ele>
        <time>2023-09-20T09:41:36.594+00:00</time>
      </trkpt>
      <trkpt lat="48.35251" lon="2.6361">
        <ele>135</ele>
        <time>2023-09-20T09:41:41.581+00:00</time>
      </trkpt>
      <trkpt lat="48.35248" lon="2.63602">
        <ele>135</ele>
        <time>2023-09-20T09:41:46.574+00:00</time>
      </trkpt>
      <trkpt lat="48.35244" lon="2.63597">
        <ele>135</ele>
        <time>2023-09-20T09:41:50.590+00:00</time>
      </trkpt>
      <trkpt lat="48.35238" lon="2.63592">
        <ele>135</ele>
        <time>2023-09-20T09:41:55.594+00:00</time>
      </trkpt>
      <trkpt lat="48.35233" lon="2.63587">
        <ele>134</ele>
        <time>2023-09-20T09:41:59.593+00:00</time>
      </trkpt>
      <trkpt lat="48.35229" lon="2.63581">
        <ele>134</ele>
        <time>2023-09-20T09:42:04.590+00:00</time>
      </trkpt>
      <trkpt lat="48.35224" lon="2.63575">
        <ele>134</ele>
        <time>2023-09-20T09:42:09.590+00:00</time>
      </trkpt>
      <trkpt lat="48.35219" lon="2.63569">
        <ele>134</ele>
        <time>2023-09-20T09:42:13.593+00:00</time>
      </trkpt>
      <trkpt lat="48.35215" lon="2.63561">
        <ele>134</ele>
        <time>2023-09-20T09:42:18.601+00:00</time>
      </trkpt>
      <trkpt lat="48.35209" lon="2.63553">
        <ele>134</ele>
        <time>2023-09-20T09:42:23.597+00:00</time>
      </trkpt>
      <trkpt lat="48.35206" lon="2.63547">
        <ele>134</ele>
        <time>2023-09-20T09:42:28.593+00:00</time>
      </trkpt>
      <trkpt lat="48.35201" lon="2.63542">
        <ele>134</ele>
        <time>2023-09-20T09:42:33.568+00:00</time>
      </trkpt>
      <trkpt lat="48.35196" lon="2.63537">
        <ele>135</ele>
        <time>2023-09-20T09:42:37.612+00:00</time>
      </trkpt>
      <trkpt lat="48.35191" lon="2.63531">
        <ele>135</ele>
        <time>2023-09-20T09:42:42.595+00:00</time>
      </trkpt>
      <trkpt lat="48.35186" lon="2.63523">
        <ele>135</ele>
        <time>2023-09-20T09:42:47.596+00:00</time>
      </trkpt>
      <trkpt lat="48.35179" lon="2.63516">
        <ele>135</ele>
        <time>2023-09-20T09:42:52.604+00:00</time>
      </trkpt>
      <trkpt lat="48.35174" lon="2.63509">
        <ele>136</ele>
        <time>2023-09-20T09:42:57.580+00:00</time>
      </trkpt>
      <trkpt lat="48.35166" lon="2.63506">
        <ele>136</ele>
        <time>2023-09-20T09:43:02.567+00:00</time>
      </trkpt>
      <trkpt lat="48.35161" lon="2.63506">
        <ele>136</ele>
        <time>2023-09-20T09:43:06.612+00:00</time>
      </trkpt>
      <trkpt lat="48.35156" lon="2.63505">
        <ele>136</ele>
        <time>2023-09-20T09:43:10.599+00:00</time>
      </trkpt>
      <trkpt lat="48.35151" lon="2.63503">
        <ele>135</ele>
        <time>2023-09-20T09:43:14.591+00:00</time>
      </trkpt>
      <trkpt lat="48.35145" lon="2.63504">
        <ele>135</ele>
        <time>2023-09-20T09:43:19.580+00:00</time>
      </trkpt>
      <trkpt lat="48.3514" lon="2.63509">
        <ele>135</ele>
        <time>2023-09-20T09:43:23.582+00:00</time>
      </trkpt>
      <trkpt lat="48.35136" lon="2.63515">
        <ele>134</ele>
        <time>2023-09-20T09:43:27.600+00:00</time>
      </trkpt>
      <trkpt lat="48.3513" lon="2.63521">
        <ele>134</ele>
        <time>2023-09-20T09:43:32.593+00:00</time>
      </trkpt>
      <trkpt lat="48.35126" lon="2.63527">
        <ele>134</ele>
        <time>2023-09-20T09:43:36.596+00:00</time>
      </trkpt>
      <trkpt lat="48.35123" lon="2.63532">
        <ele>133</ele>
        <time>2023-09-20T09:43:41.564+00:00</time>
      </trkpt>
      <trkpt lat="48.3512" lon="2.63538">
        <ele>133</ele>
        <time>2023-09-20T09:43:45.594+00:00</time>
      </trkpt>
      <trkpt lat="48.35116" lon="2.63547">
        <ele>133</ele>
        <time>2023-09-20T09:43:50.597+00:00</time>
      </trkpt>
      <trkpt lat="48.35112" lon="2.63555">
        <ele>133</ele>
        <time>2023-09-20T09:43:54.598+00:00</time>
      </trkpt>
      <trkpt lat="48.35108" lon="2.63563">
        <ele>133</ele>
        <time>2023-09-20T09:43:59.586+00:00</time>
      </trkpt>
      <trkpt lat="48.35103" lon="2.6357">
        <ele>134</ele>
        <time>2023-09-20T09:44:04.592+00:00</time>
      </trkpt>
      <trkpt lat="48.351" lon="2.63577">
        <ele>134</ele>
        <time>2023-09-20T09:44:08.586+00:00</time>
      </trkpt>
      <trkpt lat="48.35098" lon="2.63584">
        <ele>134</ele>
        <time>2023-09-20T09:44:13.596+00:00</time>
      </trkpt>
      <trkpt lat="48.35092" lon="2.6359">
        <ele>134</ele>
        <time>2023-09-20T09:44:18.598+00:00</time>
      </trkpt>
      <trkpt lat="48.35086" lon="2.63597">
        <ele>134</ele>
        <time>2023-09-20T09:44:23.584+00:00</time>
      </trkpt>
      <trkpt lat="48.35081" lon="2.63602">
        <ele>133</ele>
        <time>2023-09-20T09:44:27.592+00:00</time>
      </trkpt>
      <trkpt lat="48.35075" lon="2.63608">
        <ele>133</ele>
        <time>2023-09-20T09:44:32.603+00:00</time>
      </trkpt>
      <trkpt lat="48.35071" lon="2.63613">
        <ele>133</ele>
        <time>2023-09-20T09:44:37.601+00:00</time>
      </trkpt>
      <trkpt lat="48.35067" lon="2.63617">
        <ele>132</ele>
        <time>2023-09-20T09:44:41.599+00:00</time>
      </trkpt>
      <trkpt lat="48.35064" lon="2.63621">
        <ele>132</ele>
        <time>2023-09-20T09:44:45.597+00:00</time>
      </trkpt>
      <trkpt lat="48.35059" lon="2.63628">
        <ele>131</ele>
        <time>2023-09-20T09:44:50.594+00:00</time>
      </trkpt>
      <trkpt lat="48.35054" lon="2.63633">
        <ele>131</ele>
        <time>2023-09-20T09:44:54.598+00:00</time>
      </trkpt>
      <trkpt lat="48.3505" lon="2.63641">
        <ele>131</ele>
        <time>2023-09-20T09:44:59.601+00:00</time>
      </trkpt>
      <trkpt lat="48.35047" lon="2.6365">
        <ele>131</ele>
        <time>2023-09-20T09:45:04.589+00:00</time>
      </trkpt>
      <trkpt lat="48.35043" lon="2.63658">
        <ele>129</ele>
        <time>2023-09-20T09:45:09.586+00:00</time>
      </trkpt>
      <trkpt lat="48.35037" lon="2.63666">
        <ele>127</ele>
        <time>2023-09-20T09:45:14.580+00:00</time>
      </trkpt>
      <trkpt lat="48.35031" lon="2.63671">
        <ele>127</ele>
        <time>2023-09-20T09:45:18.590+00:00</time>
      </trkpt>
      <trkpt lat="48.35026" lon="2.63678">
        <ele>127</ele>
        <time>2023-09-20T09:45:23.586+00:00</time>
      </trkpt>
      <trkpt lat="48.35022" lon="2.63684">
        <ele>127</ele>
        <time>2023-09-20T09:45:28.569+00:00</time>
      </trkpt>
      <trkpt lat="48.35018" lon="2.6369">
        <ele>127</ele>
        <time>2023-09-20T09:45:32.608+00:00</time>
      </trkpt>
      <trkpt lat="48.35014" lon="2.63697">
        <ele>127</ele>
        <time>2023-09-20T09:45:37.604+00:00</time>
      </trkpt>
      <trkpt lat="48.3501" lon="2.63705">
        <ele>128</ele>
        <time>2023-09-20T09:45:42.604+00:00</time>
      </trkpt>
      <trkpt lat="48.35005" lon="2.63711">
        <ele>128</ele>
        <time>2023-09-20T09:45:47.591+00:00</time>
      </trkpt>
      <trkpt lat="48.35" lon="2.63718">
        <ele>128</ele>
        <time>2023-09-20T09:45:52.589+00:00</time>
      </trkpt>
      <trkpt lat="48.34995" lon="2.63723">
        <ele>128</ele>
        <time>2023-09-20T09:45:57.583+00:00</time>
      </trkpt>
      <trkpt lat="48.3499" lon="2.63732">
        <ele>128</ele>
        <time>2023-09-20T09:46:02.593+00:00</time>
      </trkpt>
      <trkpt lat="48.34984" lon="2.6374">
        <ele>128</ele>
        <time>2023-09-20T09:46:07.579+00:00</time>
      </trkpt>
      <trkpt lat="48.34981" lon="2.63746">
        <ele>128</ele>
        <time>2023-09-20T09:46:11.583+00:00</time>
      </trkpt>
      <trkpt lat="48.34976" lon="2.63753">
        <ele>128</ele>
        <time>2023-09-20T09:46:16.605+00:00</time>
      </trkpt>
      <trkpt lat="48.34972" lon="2.63762">
        <ele>128</ele>
        <time>2023-09-20T09:46:21.593+00:00</time>
      </trkpt>
      <trkpt lat="48.3497" lon="2.63768">
        <ele>128</ele>
        <time>2023-09-20T09:46:25.591+00:00</time>
      </trkpt>
      <trkpt lat="48.34966" lon="2.63777">
        <ele>128</ele>
        <time>2023-09-20T09:46:30.600+00:00</time>
      </trkpt>
      <trkpt lat="48.34962" lon="2.63787">
        <ele>128</ele>
        <time>2023-09-20T09:46:35.585+00:00</time>
      </trkpt>
      <trkpt lat="48.34959" lon="2.63794">
        <ele>129</ele>
        <time>2023-09-20T09:46:39.586+00:00</time>
      </trkpt>
      <trkpt lat="48.34956" lon="2.638">
        <ele>129</ele>
        <time>2023-09-20T09:46:43.594+00:00</time>
      </trkpt>
      <trkpt lat="48.34951" lon="2.63808">
        <ele>129</ele>
        <time>2023-09-20T09:46:48.609+00:00</time>
      </trkpt>
      <trkpt lat="48.34946" lon="2.63815">
        <ele>129</ele>
        <time>2023-09-20T09:46:53.609+00:00</time>
      </trkpt>
      <trkpt lat="48.34941" lon="2.63824">
        <ele>129</ele>
        <time>2023-09-20T09:46:58.601+00:00</time>
      </trkpt>
      <trkpt lat="48.34939" lon="2.63833">
        <ele>129</ele>
        <time>2023-09-20T09:47:02.591+00:00</time>
      </trkpt>
      <trkpt lat="48.34937" lon="2.63843">
        <ele>129</ele>
        <time>2023-09-20T09:47:07.584+00:00</time>
      </trkpt>
      <trkpt lat="48.34935" lon="2.63851">
        <ele>129</ele>
        <time>2023-09-20T09:47:11.589+00:00</time>
      </trkpt>
      <trkpt lat="48.34932" lon="2.63857">
        <ele>129</ele>
        <time>2023-09-20T09:47:15.598+00:00</time>
      </trkpt>
      <trkpt lat="48.34929" lon="2.63865">
        <ele>129</ele>
        <time>2023-09-20T09:47:20.605+00:00</time>
      </trkpt>
      <trkpt lat="48.34927" lon="2.63873">
        <ele>129</ele>
        <time>2023-09-20T09:47:24.601+00:00</time>
      </trkpt>
      <trkpt lat="48.34925" lon="2.63881">
        <ele>128</ele>
        <time>2023-09-20T09:47:28.592+00:00</time>
      </trkpt>
      <trkpt lat="48.34922" lon="2.63891">
        <ele>128</ele>
        <time>2023-09-20T09:47:33.585+00:00</time>
      </trkpt>
      <trkpt lat="48.34919" lon="2.63898">
        <ele>128</ele>
        <time>2023-09-20T09:47:37.598+00:00</time>
      </trkpt>
      <trkpt lat="48.34916" lon="2.63908">
        <ele>129</ele>
        <time>2023-09-20T09:47:42.590+00:00</time>
      </trkpt>
      <trkpt lat="48.34915" lon="2.63915">
        <ele>129</ele>
        <time>2023-09-20T09:47:47.602+00:00</time>
      </trkpt>
      <trkpt lat="48.34913" lon="2.63926">
        <ele>129</ele>
        <time>2023-09-20T09:47:52.587+00:00</time>
      </trkpt>
      <trkpt lat="48.3491" lon="2.63935">
        <ele>129</ele>
        <time>2023-09-20T09:47:57.594+00:00</time>
      </trkpt>
      <trkpt lat="48.34906" lon="2.63944">
        <ele>129</ele>
        <time>2023-09-20T09:48:02.589+00:00</time>
      </trkpt>
      <trkpt lat="48.34903" lon="2.63954">
        <ele>130</ele>
        <time>2023-09-20T09:48:07.605+00:00</time>
      </trkpt>
      <trkpt lat="48.34901" lon="2.63962">
        <ele>130</ele>
        <time>2023-09-20T09:48:12.602+00:00</time>
      </trkpt>
      <trkpt lat="48.34898" lon="2.63971">
        <ele>130</ele>
        <time>2023-09-20T09:48:17.601+00:00</time>
      </trkpt>
      <trkpt lat="48.34894" lon="2.63982">
        <ele>130</ele>
        <time>2023-09-20T09:48:22.609+00:00</time>
      </trkpt>
      <trkpt lat="48.34891" lon="2.63992">
        <ele>130</ele>
        <time>2023-09-20T09:48:27.596+00:00</time>
      </trkpt>
      <trkpt lat="48.34888" lon="2.64002">
        <ele>130</ele>
        <time>2023-09-20T09:48:32.616+00:00</time>
      </trkpt>
      <trkpt lat="48.34884" lon="2.64011">
        <ele>130</ele>
        <time>2023-09-20T09:48:37.587+00:00</time>
      </trkpt>
      <trkpt lat="48.34882" lon="2.64019">
        <ele>129</ele>
        <time>2023-09-20T09:48:42.577+00:00</time>
      </trkpt>
      <trkpt lat="48.3488" lon="2.64024">
        <ele>129</ele>
        <time>2023-09-20T09:48:47.595+00:00</time>
      </trkpt>
      <trkpt lat="48.34876" lon="2.64022">
        <ele>129</ele>
        <time>2023-09-20T09:48:52.594+00:00</time>
      </trkpt>
      <trkpt lat="48.34871" lon="2.6402">
        <ele>130</ele>
        <time>2023-09-20T09:48:56.594+00:00</time>
      </trkpt>
      <trkpt lat="48.34865" lon="2.64018">
        <ele>130</ele>
        <time>2023-09-20T09:49:01.582+00:00</time>
      </trkpt>
      <trkpt lat="48.34859" lon="2.64016">
        <ele>130</ele>
        <time>2023-09-20T09:49:06.582+00:00</time>
      </trkpt>
      <trkpt lat="48.34854" lon="2.64017">
        <ele>130</ele>
        <time>2023-09-20T09:49:10.590+00:00</time>
      </trkpt>
      <trkpt lat="48.3485" lon="2.64016">
        <ele>130</ele>
        <time>2023-09-20T09:49:14.604+00:00</time>
      </trkpt>
      <trkpt lat="48.34845" lon="2.64016">
        <ele>131</ele>
        <time>2023-09-20T09:49:18.603+00:00</time>
      </trkpt>
      <trkpt lat="48.34839" lon="2.64019">
        <ele>131</ele>
        <time>2023-09-20T09:49:23.598+00:00</time>
      </trkpt>
      <trkpt lat="48.34832" lon="2.64021">
        <ele>131</ele>
        <time>2023-09-20T09:49:28.601+00:00</time>
      </trkpt>
      <trkpt lat="48.34826" lon="2.64023">
        <ele>131</ele>
        <time>2023-09-20T09:49:33.573+00:00</time>
      </trkpt>
      <trkpt lat="48.34822" lon="2.64026">
        <ele>131</ele>
        <time>2023-09-20T09:49:37.594+00:00</time>
      </trkpt>
      <trkpt lat="48.34817" lon="2.64027">
        <ele>131</ele>
        <time>2023-09-20T09:49:42.595+00:00</time>
      </trkpt>
      <trkpt lat="48.34811" lon="2.64028">
        <ele>131</ele>
        <time>2023-09-20T09:49:47.593+00:00</time>
      </trkpt>
      <trkpt lat="48.34803" lon="2.64029">
        <ele>131</ele>
        <time>2023-09-20T09:49:52.601+00:00</time>
      </trkpt>
      <trkpt lat="48.34798" lon="2.64033">
        <ele>131</ele>
        <time>2023-09-20T09:49:56.597+00:00</time>
      </trkpt>
      <trkpt lat="48.34791" lon="2.64032">
        <ele>131</ele>
        <time>2023-09-20T09:50:01.584+00:00</time>
      </trkpt>
      <trkpt lat="48.34786" lon="2.64033">
        <ele>131</ele>
        <time>2023-09-20T09:50:05.602+00:00</time>
      </trkpt>
      <trkpt lat="48.34779" lon="2.64036">
        <ele>131</ele>
        <time>2023-09-20T09:50:10.606+00:00</time>
      </trkpt>
      <trkpt lat="48.34772" lon="2.64036">
        <ele>131</ele>
        <time>2023-09-20T09:50:15.597+00:00</time>
      </trkpt>
      <trkpt lat="48.34764" lon="2.64034">
        <ele>131</ele>
        <time>2023-09-20T09:50:20.601+00:00</time>
      </trkpt>
      <trkpt lat="48.3476" lon="2.64034">
        <ele>132</ele>
        <time>2023-09-20T09:50:24.610+00:00</time>
      </trkpt>
      <trkpt lat="48.34753" lon="2.64036">
        <ele>132</ele>
        <time>2023-09-20T09:50:29.578+00:00</time>
      </trkpt>
      <trkpt lat="48.3475" lon="2.64038">
        <ele>132</ele>
        <time>2023-09-20T09:50:33.593+00:00</time>
      </trkpt>
      <trkpt lat="48.34744" lon="2.64041">
        <ele>132</ele>
        <time>2023-09-20T09:50:38.605+00:00</time>
      </trkpt>
      <trkpt lat="48.34738" lon="2.64041">
        <ele>132</ele>
        <time>2023-09-20T09:50:43.595+00:00</time>
      </trkpt>
      <trkpt lat="48.34731" lon="2.64042">
        <ele>131</ele>
        <time>2023-09-20T09:50:48.607+00:00</time>
      </trkpt>
      <trkpt lat="48.34724" lon="2.64044">
        <ele>131</ele>
        <time>2023-09-20T09:50:53.596+00:00</time>
      </trkpt>
      <trkpt lat="48.34716" lon="2.64046">
        <ele>131</ele>
        <time>2023-09-20T09:50:58.603+00:00</time>
      </trkpt>
      <trkpt lat="48.34709" lon="2.64047">
        <ele>131</ele>
        <time>2023-09-20T09:51:03.596+00:00</time>
      </trkpt>
      <trkpt lat="48.347" lon="2.64046">
        <ele>130</ele>
        <time>2023-09-20T09:51:08.603+00:00</time>
      </trkpt>
      <trkpt lat="48.34698" lon="2.64047">
        <ele>130</ele>
        <time>2023-09-20T09:51:13.607+00:00</time>
      </trkpt>
      <trkpt lat="48.34694" lon="2.6405">
        <ele>130</ele>
        <time>2023-09-20T09:51:18.604+00:00</time>
      </trkpt>
      <trkpt lat="48.34685" lon="2.64051">
        <ele>130</ele>
        <time>2023-09-20T09:51:23.581+00:00</time>
      </trkpt>
      <trkpt lat="48.3468" lon="2.64057">
        <ele>130</ele>
        <time>2023-09-20T09:51:28.572+00:00</time>
      </trkpt>
      <trkpt lat="48.34682" lon="2.6406">
        <ele>130</ele>
        <time>2023-09-20T09:51:33.558+00:00</time>
      </trkpt>
      <trkpt lat="48.34681" lon="2.64065">
        <ele>130</ele>
        <time>2023-09-20T09:51:38.565+00:00</time>
      </trkpt>
      <trkpt lat="48.34682" lon="2.64072">
        <ele>130</ele>
        <time>2023-09-20T09:51:42.576+00:00</time>
      </trkpt>
      <trkpt lat="48.34686" lon="2.64084">
        <ele>130</ele>
        <time>2023-09-20T09:51:47.557+00:00</time>
      </trkpt>
      <trkpt lat="48.34689" lon="2.64092">
        <ele>130</ele>
        <time>2023-09-20T09:51:51.552+00:00</time>
      </trkpt>
      <trkpt lat="48.34689" lon="2.64103">
        <ele>129</ele>
        <time>2023-09-20T09:51:56.571+00:00</time>
      </trkpt>
      <trkpt lat="48.34692" lon="2.64113">
        <ele>129</ele>
        <time>2023-09-20T09:52:01.567+00:00</time>
      </trkpt>
      <trkpt lat="48.34694" lon="2.6412">
        <ele>129</ele>
        <time>2023-09-20T09:52:05.565+00:00</time>
      </trkpt>
      <trkpt lat="48.34698" lon="2.64129">
        <ele>129</ele>
        <time>2023-09-20T09:52:10.565+00:00</time>
      </trkpt>
      <trkpt lat="48.34701" lon="2.64139">
        <ele>129</ele>
        <time>2023-09-20T09:52:15.558+00:00</time>
      </trkpt>
      <trkpt lat="48.34704" lon="2.64147">
        <ele>129</ele>
        <time>2023-09-20T09:52:19.571+00:00</time>
      </trkpt>
      <trkpt lat="48.34706" lon="2.64155">
        <ele>129</ele>
        <time>2023-09-20T09:52:23.605+00:00</time>
      </trkpt>
      <trkpt lat="48.34708" lon="2.64163">
        <ele>130</ele>
        <time>2023-09-20T09:52:28.585+00:00</time>
      </trkpt>
      <trkpt lat="48.34712" lon="2.64173">
        <ele>130</ele>
        <time>2023-09-20T09:52:33.581+00:00</time>
      </trkpt>
      <trkpt lat="48.34714" lon="2.64177">
        <ele>130</ele>
        <time>2023-09-20T09:52:37.584+00:00</time>
      </trkpt>
      <trkpt lat="48.34715" lon="2.64182">
        <ele>130</ele>
        <time>2023-09-20T09:52:42.570+00:00</time>
      </trkpt>
      <trkpt lat="48.34717" lon="2.64187">
        <ele>130</ele>
        <time>2023-09-20T09:52:50.592+00:00</time>
      </trkpt>
      <trkpt lat="48.34717" lon="2.64191">
        <ele>130</ele>
        <time>2023-09-20T09:52:55.559+00:00</time>
      </trkpt>
      <trkpt lat="48.34718" lon="2.64191">
        <ele>130</ele>
        <time>2023-09-20T09:53:00.580+00:00</time>
      </trkpt>
      <trkpt lat="48.34722" lon="2.64195">
        <ele>130</ele>
        <time>2023-09-20T09:53:05.566+00:00</time>
      </trkpt>
      <trkpt lat="48.34725" lon="2.64201">
        <ele>130</ele>
        <time>2023-09-20T09:53:10.560+00:00</time>
      </trkpt>
      <trkpt lat="48.34724" lon="2.64207">
        <ele>130</ele>
        <time>2023-09-20T10:04:51.568+00:00</time>
      </trkpt>
      <trkpt lat="48.3472" lon="2.64208">
        <ele>130</ele>
        <time>2023-09-20T10:04:56.573+00:00</time>
      </trkpt>
      <trkpt lat="48.34717" lon="2.64208">
        <ele>130</ele>
        <time>2023-09-20T10:05:00.593+00:00</time>
      </trkpt>
      <trkpt lat="48.34713" lon="2.64211">
        <ele>130</ele>
        <time>2023-09-20T10:05:05.574+00:00</time>
      </trkpt>
      <trkpt lat="48.3471" lon="2.64217">
        <ele>130</ele>
        <time>2023-09-20T10:05:09.577+00:00</time>
      </trkpt>
      <trkpt lat="48.34709" lon="2.6422">
        <ele>130</ele>
        <time>2023-09-20T10:05:23.565+00:00</time>
      </trkpt>
      <trkpt lat="48.34708" lon="2.64228">
        <ele>129</ele>
        <time>2023-09-20T10:05:28.557+00:00</time>
      </trkpt>
      <trkpt lat="48.34706" lon="2.64234">
        <ele>129</ele>
        <time>2023-09-20T10:05:32.567+00:00</time>
      </trkpt>
      <trkpt lat="48.34703" lon="2.64233">
        <ele>129</ele>
        <time>2023-09-20T10:05:36.595+00:00</time>
      </trkpt>
      <trkpt lat="48.34701" lon="2.64235">
        <ele>129</ele>
        <time>2023-09-20T10:05:41.588+00:00</time>
      </trkpt>
      <trkpt lat="48.34696" lon="2.64237">
        <ele>128</ele>
        <time>2023-09-20T10:05:46.576+00:00</time>
      </trkpt>
      <trkpt lat="48.34693" lon="2.64237">
        <ele>128</ele>
        <time>2023-09-20T10:05:51.575+00:00</time>
      </trkpt>
      <trkpt lat="48.34687" lon="2.6424">
        <ele>128</ele>
        <time>2023-09-20T10:05:56.565+00:00</time>
      </trkpt>
      <trkpt lat="48.34683" lon="2.64245">
        <ele>128</ele>
        <time>2023-09-20T10:06:01.558+00:00</time>
      </trkpt>
      <trkpt lat="48.34672" lon="2.64252">
        <ele>127</ele>
        <time>2023-09-20T10:06:19.580+00:00</time>
      </trkpt>
      <trkpt lat="48.34672" lon="2.64256">
        <ele>127</ele>
        <time>2023-09-20T10:06:24.562+00:00</time>
      </trkpt>
      <trkpt lat="48.34671" lon="2.64257">
        <ele>127</ele>
        <time>2023-09-20T10:06:29.561+00:00</time>
      </trkpt>
      <trkpt lat="48.3467" lon="2.64261">
        <ele>127</ele>
        <time>2023-09-20T10:06:33.565+00:00</time>
      </trkpt>
      <trkpt lat="48.34668" lon="2.64266">
        <ele>127</ele>
        <time>2023-09-20T10:06:37.566+00:00</time>
      </trkpt>
      <trkpt lat="48.34663" lon="2.64273">
        <ele>127</ele>
        <time>2023-09-20T10:06:42.569+00:00</time>
      </trkpt>
      <trkpt lat="48.34659" lon="2.64279">
        <ele>127</ele>
        <time>2023-09-20T10:06:47.564+00:00</time>
      </trkpt>
      <trkpt lat="48.34655" lon="2.64283">
        <ele>127</ele>
        <time>2023-09-20T10:06:52.564+00:00</time>
      </trkpt>
      <trkpt lat="48.34654" lon="2.64287">
        <ele>127</ele>
        <time>2023-09-20T10:06:56.568+00:00</time>
      </trkpt>
      <trkpt lat="48.34652" lon="2.64293">
        <ele>127</ele>
        <time>2023-09-20T10:07:01.553+00:00</time>
      </trkpt>
      <trkpt lat="48.34648" lon="2.64297">
        <ele>127</ele>
        <time>2023-09-20T10:07:05.567+00:00</time>
      </trkpt>
      <trkpt lat="48.34645" lon="2.64304">
        <ele>127</ele>
        <time>2023-09-20T10:07:10.558+00:00</time>
      </trkpt>
      <trkpt lat="48.34643" lon="2.64307">
        <ele>127</ele>
        <time>2023-09-20T10:07:14.560+00:00</time>
      </trkpt>
      <trkpt lat="48.3464" lon="2.64314">
        <ele>127</ele>
        <time>2023-09-20T10:07:19.572+00:00</time>
      </trkpt>
      <trkpt lat="48.34637" lon="2.64318">
        <ele>127</ele>
        <time>2023-09-20T10:07:24.568+00:00</time>
      </trkpt>
      <trkpt lat="48.34639" lon="2.64325">
        <ele>127</ele>
        <time>2023-09-20T10:07:28.571+00:00</time>
      </trkpt>
      <trkpt lat="48.34642" lon="2.64331">
        <ele>127</ele>
        <time>2023-09-20T10:07:33.563+00:00</time>
      </trkpt>
      <trkpt lat="48.34644" lon="2.64333">
        <ele>127</ele>
        <time>2023-09-20T10:07:37.570+00:00</time>
      </trkpt>
      <trkpt lat="48.34643" lon="2.64338">
        <ele>127</ele>
        <time>2023-09-20T10:07:42.561+00:00</time>
      </trkpt>
      <trkpt lat="48.34642" lon="2.64344">
        <ele>127</ele>
        <time>2023-09-20T10:07:46.566+00:00</time>
      </trkpt>
      <trkpt lat="48.3464" lon="2.6435">
        <ele>126</ele>
        <time>2023-09-20T10:07:51.557+00:00</time>
      </trkpt>
      <trkpt lat="48.34637" lon="2.64357">
        <ele>126</ele>
        <time>2023-09-20T10:07:55.565+00:00</time>
      </trkpt>
      <trkpt lat="48.34633" lon="2.64363">
        <ele>126</ele>
        <time>2023-09-20T10:08:00.566+00:00</time>
      </trkpt>
      <trkpt lat="48.34628" lon="2.64365">
        <ele>126</ele>
        <time>2023-09-20T10:08:05.561+00:00</time>
      </trkpt>
      <trkpt lat="48.34624" lon="2.64367">
        <ele>124</ele>
        <time>2023-09-20T10:08:10.563+00:00</time>
      </trkpt>
      <trkpt lat="48.34621" lon="2.6437">
        <ele>124</ele>
        <time>2023-09-20T10:08:15.561+00:00</time>
      </trkpt>
      <trkpt lat="48.34618" lon="2.64372">
        <ele>124</ele>
        <time>2023-09-20T10:08:19.560+00:00</time>
      </trkpt>
      <trkpt lat="48.34617" lon="2.64373">
        <ele>124</ele>
        <time>2023-09-20T10:08:23.565+00:00</time>
      </trkpt>
      <trkpt lat="48.34612" lon="2.64378">
        <ele>123</ele>
        <time>2023-09-20T10:08:28.555+00:00</time>
      </trkpt>
      <trkpt lat="48.34607" lon="2.64381">
        <ele>123</ele>
        <time>2023-09-20T10:08:32.602+00:00</time>
      </trkpt>
      <trkpt lat="48.34603" lon="2.64384">
        <ele>123</ele>
        <time>2023-09-20T10:08:37.612+00:00</time>
      </trkpt>
      <trkpt lat="48.34598" lon="2.64388">
        <ele>123</ele>
        <time>2023-09-20T10:08:42.597+00:00</time>
      </trkpt>
      <trkpt lat="48.34594" lon="2.64389">
        <ele>120</ele>
        <time>2023-09-20T10:08:47.576+00:00</time>
      </trkpt>
      <trkpt lat="48.34591" lon="2.6439">
        <ele>120</ele>
        <time>2023-09-20T10:08:51.585+00:00</time>
      </trkpt>
      <trkpt lat="48.34589" lon="2.64393">
        <ele>120</ele>
        <time>2023-09-20T10:08:55.607+00:00</time>
      </trkpt>
      <trkpt lat="48.34584" lon="2.64397">
        <ele>120</ele>
        <time>2023-09-20T10:09:00.582+00:00</time>
      </trkpt>
      <trkpt lat="48.34578" lon="2.64399">
        <ele>120</ele>
        <time>2023-09-20T10:09:05.573+00:00</time>
      </trkpt>
      <trkpt lat="48.34573" lon="2.64401">
        <ele>120</ele>
        <time>2023-09-20T10:09:09.583+00:00</time>
      </trkpt>
      <trkpt lat="48.34568" lon="2.64401">
        <ele>117</ele>
        <time>2023-09-20T10:09:14.591+00:00</time>
      </trkpt>
      <trkpt lat="48.34565" lon="2.64402">
        <ele>117</ele>
        <time>2023-09-20T10:09:18.586+00:00</time>
      </trkpt>
      <trkpt lat="48.34557" lon="2.64405">
        <ele>116</ele>
        <time>2023-09-20T10:09:23.585+00:00</time>
      </trkpt>
      <trkpt lat="48.3455" lon="2.64408">
        <ele>116</ele>
        <time>2023-09-20T10:09:28.584+00:00</time>
      </trkpt>
      <trkpt lat="48.34546" lon="2.64412">
        <ele>116</ele>
        <time>2023-09-20T10:09:32.584+00:00</time>
      </trkpt>
      <trkpt lat="48.34541" lon="2.64415">
        <ele>114</ele>
        <time>2023-09-20T10:09:37.595+00:00</time>
      </trkpt>
      <trkpt lat="48.34537" lon="2.6442">
        <ele>114</ele>
        <time>2023-09-20T10:09:41.595+00:00</time>
      </trkpt>
      <trkpt lat="48.34532" lon="2.64424">
        <ele>114</ele>
        <time>2023-09-20T10:09:46.570+00:00</time>
      </trkpt>
      <trkpt lat="48.34526" lon="2.64429">
        <ele>114</ele>
        <time>2023-09-20T10:09:51.594+00:00</time>
      </trkpt>
      <trkpt lat="48.34519" lon="2.64432">
        <ele>115</ele>
        <time>2023-09-20T10:09:56.580+00:00</time>
      </trkpt>
      <trkpt lat="48.34515" lon="2.64432">
        <ele>115</ele>
        <time>2023-09-20T10:10:00.594+00:00</time>
      </trkpt>
      <trkpt lat="48.34512" lon="2.64434">
        <ele>111</ele>
        <time>2023-09-20T10:10:04.588+00:00</time>
      </trkpt>
      <trkpt lat="48.34507" lon="2.64436">
        <ele>111</ele>
        <time>2023-09-20T10:10:09.598+00:00</time>
      </trkpt>
      <trkpt lat="48.34501" lon="2.64439">
        <ele>111</ele>
        <time>2023-09-20T10:10:14.583+00:00</time>
      </trkpt>
      <trkpt lat="48.34496" lon="2.64441">
        <ele>111</ele>
        <time>2023-09-20T10:10:18.600+00:00</time>
      </trkpt>
      <trkpt lat="48.3449" lon="2.64445">
        <ele>111</ele>
        <time>2023-09-20T10:10:22.611+00:00</time>
      </trkpt>
      <trkpt lat="48.34484" lon="2.64449">
        <ele>103</ele>
        <time>2023-09-20T10:10:27.603+00:00</time>
      </trkpt>
      <trkpt lat="48.34479" lon="2.64453">
        <ele>103</ele>
        <time>2023-09-20T10:10:32.594+00:00</time>
      </trkpt>
      <trkpt lat="48.34474" lon="2.64459">
        <ele>104</ele>
        <time>2023-09-20T10:10:36.588+00:00</time>
      </trkpt>
      <trkpt lat="48.34471" lon="2.64467">
        <ele>104</ele>
        <time>2023-09-20T10:10:41.612+00:00</time>
      </trkpt>
      <trkpt lat="48.34467" lon="2.64473">
        <ele>104</ele>
        <time>2023-09-20T10:10:46.586+00:00</time>
      </trkpt>
      <trkpt lat="48.34463" lon="2.64478">
        <ele>104</ele>
        <time>2023-09-20T10:10:50.603+00:00</time>
      </trkpt>
      <trkpt lat="48.34459" lon="2.64486">
        <ele>104</ele>
        <time>2023-09-20T10:10:54.597+00:00</time>
      </trkpt>
      <trkpt lat="48.34457" lon="2.64492">
        <ele>99</ele>
        <time>2023-09-20T10:10:59.597+00:00</time>
      </trkpt>
      <trkpt lat="48.34454" lon="2.645">
        <ele>99</ele>
        <time>2023-09-20T10:11:04.581+00:00</time>
      </trkpt>
      <trkpt lat="48.34451" lon="2.64507">
        <ele>99</ele>
        <time>2023-09-20T10:11:08.597+00:00</time>
      </trkpt>
      <trkpt lat="48.34448" lon="2.64513">
        <ele>99</ele>
        <time>2023-09-20T10:11:13.591+00:00</time>
      </trkpt>
      <trkpt lat="48.34445" lon="2.64519">
        <ele>100</ele>
        <time>2023-09-20T10:11:18.597+00:00</time>
      </trkpt>
      <trkpt lat="48.3444" lon="2.64526">
        <ele>100</ele>
        <time>2023-09-20T10:11:23.612+00:00</time>
      </trkpt>
      <trkpt lat="48.34438" lon="2.64535">
        <ele>100</ele>
        <time>2023-09-20T10:11:28.597+00:00</time>
      </trkpt>
      <trkpt lat="48.34436" lon="2.64544">
        <ele>100</ele>
        <time>2023-09-20T10:11:33.601+00:00</time>
      </trkpt>
      <trkpt lat="48.34436" lon="2.64554">
        <ele>100</ele>
        <time>2023-09-20T10:11:38.591+00:00</time>
      </trkpt>
      <trkpt lat="48.34435" lon="2.64562">
        <ele>100</ele>
        <time>2023-09-20T10:11:42.602+00:00</time>
      </trkpt>
      <trkpt lat="48.34434" lon="2.64572">
        <ele>99</ele>
        <time>2023-09-20T10:11:47.578+00:00</time>
      </trkpt>
      <trkpt lat="48.34433" lon="2.64581">
        <ele>99</ele>
        <time>2023-09-20T10:11:52.614+00:00</time>
      </trkpt>
      <trkpt lat="48.34431" lon="2.64593">
        <ele>99</ele>
        <time>2023-09-20T10:11:57.606+00:00</time>
      </trkpt>
      <trkpt lat="48.3443" lon="2.64602">
        <ele>96</ele>
        <time>2023-09-20T10:12:01.610+00:00</time>
      </trkpt>
      <trkpt lat="48.34428" lon="2.64612">
        <ele>96</ele>
        <time>2023-09-20T10:12:06.594+00:00</time>
      </trkpt>
      <trkpt lat="48.34427" lon="2.6462">
        <ele>96</ele>
        <time>2023-09-20T10:12:10.598+00:00</time>
      </trkpt>
      <trkpt lat="48.34426" lon="2.6463">
        <ele>94</ele>
        <time>2023-09-20T10:12:15.587+00:00</time>
      </trkpt>
      <trkpt lat="48.34425" lon="2.64637">
        <ele>94</ele>
        <time>2023-09-20T10:12:19.598+00:00</time>
      </trkpt>
      <trkpt lat="48.34424" lon="2.64646">
        <ele>94</ele>
        <time>2023-09-20T10:12:24.616+00:00</time>
      </trkpt>
      <trkpt lat="48.34423" lon="2.64657">
        <ele>93</ele>
        <time>2023-09-20T10:12:29.607+00:00</time>
      </trkpt>
      <trkpt lat="48.34422" lon="2.64665">
        <ele>93</ele>
        <time>2023-09-20T10:12:33.621+00:00</time>
      </trkpt>
      <trkpt lat="48.34421" lon="2.64673">
        <ele>93</ele>
        <time>2023-09-20T10:12:38.592+00:00</time>
      </trkpt>
      <trkpt lat="48.34419" lon="2.64682">
        <ele>93</ele>
        <time>2023-09-20T10:12:43.593+00:00</time>
      </trkpt>
      <trkpt lat="48.34419" lon="2.64691">
        <ele>93</ele>
        <time>2023-09-20T10:12:48.584+00:00</time>
      </trkpt>
      <trkpt lat="48.34417" lon="2.64703">
        <ele>93</ele>
        <time>2023-09-20T10:12:53.593+00:00</time>
      </trkpt>
      <trkpt lat="48.34414" lon="2.64712">
        <ele>94</ele>
        <time>2023-09-20T10:12:58.591+00:00</time>
      </trkpt>
      <trkpt lat="48.34414" lon="2.6472">
        <ele>94</ele>
        <time>2023-09-20T10:13:03.595+00:00</time>
      </trkpt>
      <trkpt lat="48.34414" lon="2.64726">
        <ele>94</ele>
        <time>2023-09-20T10:13:08.577+00:00</time>
      </trkpt>
      <trkpt lat="48.34413" lon="2.64735">
        <ele>94</ele>
        <time>2023-09-20T10:13:13.575+00:00</time>
      </trkpt>
      <trkpt lat="48.34412" lon="2.64744">
        <ele>95</ele>
        <time>2023-09-20T10:13:18.573+00:00</time>
      </trkpt>
      <trkpt lat="48.34413" lon="2.6475">
        <ele>95</ele>
        <time>2023-09-20T10:13:22.587+00:00</time>
      </trkpt>
      <trkpt lat="48.34411" lon="2.64759">
        <ele>95</ele>
        <time>2023-09-20T10:13:27.575+00:00</time>
      </trkpt>
      <trkpt lat="48.34409" lon="2.64766">
        <ele>96</ele>
        <time>2023-09-20T10:13:31.614+00:00</time>
      </trkpt>
      <trkpt lat="48.34408" lon="2.64776">
        <ele>96</ele>
        <time>2023-09-20T10:13:36.614+00:00</time>
      </trkpt>
      <trkpt lat="48.34406" lon="2.64786">
        <ele>96</ele>
        <time>2023-09-20T10:13:41.595+00:00</time>
      </trkpt>
      <trkpt lat="48.34406" lon="2.64794">
        <ele>97</ele>
        <time>2023-09-20T10:13:45.608+00:00</time>
      </trkpt>
      <trkpt lat="48.34404" lon="2.64805">
        <ele>97</ele>
        <time>2023-09-20T10:13:50.590+00:00</time>
      </trkpt>
      <trkpt lat="48.34404" lon="2.64813">
        <ele>97</ele>
        <time>2023-09-20T10:13:55.600+00:00</time>
      </trkpt>
      <trkpt lat="48.34405" lon="2.64823">
        <ele>98</ele>
        <time>2023-09-20T10:14:00.606+00:00</time>
      </trkpt>
      <trkpt lat="48.34405" lon="2.64831">
        <ele>98</ele>
        <time>2023-09-20T10:14:04.620+00:00</time>
      </trkpt>
      <trkpt lat="48.34405" lon="2.64843">
        <ele>98</ele>
        <time>2023-09-20T10:14:09.601+00:00</time>
      </trkpt>
      <trkpt lat="48.34405" lon="2.64853">
        <ele>97</ele>
        <time>2023-09-20T10:14:14.594+00:00</time>
      </trkpt>
      <trkpt lat="48.34404" lon="2.64863">
        <ele>97</ele>
        <time>2023-09-20T10:14:19.604+00:00</time>
      </trkpt>
      <trkpt lat="48.34403" lon="2.64871">
        <ele>94</ele>
        <time>2023-09-20T10:14:23.612+00:00</time>
      </trkpt>
      <trkpt lat="48.34401" lon="2.6488">
        <ele>93</ele>
        <time>2023-09-20T10:14:28.612+00:00</time>
      </trkpt>
      <trkpt lat="48.34402" lon="2.64888">
        <ele>93</ele>
        <time>2023-09-20T10:14:33.573+00:00</time>
      </trkpt>
      <trkpt lat="48.34402" lon="2.64897">
        <ele>93</ele>
        <time>2023-09-20T10:14:37.594+00:00</time>
      </trkpt>
      <trkpt lat="48.34404" lon="2.64905">
        <ele>94</ele>
        <time>2023-09-20T10:14:41.607+00:00</time>
      </trkpt>
      <trkpt lat="48.34404" lon="2.64916">
        <ele>94</ele>
        <time>2023-09-20T10:14:46.590+00:00</time>
      </trkpt>
      <trkpt lat="48.34403" lon="2.64926">
        <ele>94</ele>
        <time>2023-09-20T10:14:50.607+00:00</time>
      </trkpt>
      <trkpt lat="48.34402" lon="2.64936">
        <ele>92</ele>
        <time>2023-09-20T10:14:55.602+00:00</time>
      </trkpt>
      <trkpt lat="48.34401" lon="2.6495">
        <ele>92</ele>
        <time>2023-09-20T10:15:00.600+00:00</time>
      </trkpt>
      <trkpt lat="48.34402" lon="2.64961">
        <ele>92</ele>
        <time>2023-09-20T10:15:05.609+00:00</time>
      </trkpt>
      <trkpt lat="48.34402" lon="2.64974">
        <ele>92</ele>
        <time>2023-09-20T10:15:10.609+00:00</time>
      </trkpt>
      <trkpt lat="48.34402" lon="2.64985">
        <ele>92</ele>
        <time>2023-09-20T10:15:15.582+00:00</time>
      </trkpt>
      <trkpt lat="48.34403" lon="2.64992">
        <ele>92</ele>
        <time>2023-09-20T10:15:19.619+00:00</time>
      </trkpt>
      <trkpt lat="48.34403" lon="2.65002">
        <ele>93</ele>
        <time>2023-09-20T10:15:24.594+00:00</time>
      </trkpt>
      <trkpt lat="48.34404" lon="2.65012">
        <ele>93</ele>
        <time>2023-09-20T10:15:29.602+00:00</time>
      </trkpt>
      <trkpt lat="48.34405" lon="2.65024">
        <ele>93</ele>
        <time>2023-09-20T10:15:34.596+00:00</time>
      </trkpt>
      <trkpt lat="48.34403" lon="2.65035">
        <ele>93</ele>
        <time>2023-09-20T10:15:39.612+00:00</time>
      </trkpt>
      <trkpt lat="48.34402" lon="2.65046">
        <ele>93</ele>
        <time>2023-09-20T10:15:44.588+00:00</time>
      </trkpt>
      <trkpt lat="48.34401" lon="2.65052">
        <ele>93</ele>
        <time>2023-09-20T10:15:48.582+00:00</time>
      </trkpt>
      <trkpt lat="48.34401" lon="2.65062">
        <ele>93</ele>
        <time>2023-09-20T10:15:53.602+00:00</time>
      </trkpt>
      <trkpt lat="48.344" lon="2.65072">
        <ele>93</ele>
        <time>2023-09-20T10:15:58.590+00:00</time>
      </trkpt>
      <trkpt lat="48.34399" lon="2.65081">
        <ele>93</ele>
        <time>2023-09-20T10:16:03.587+00:00</time>
      </trkpt>
      <trkpt lat="48.34398" lon="2.65093">
        <ele>93</ele>
        <time>2023-09-20T10:16:08.625+00:00</time>
      </trkpt>
      <trkpt lat="48.34395" lon="2.65102">
        <ele>93</ele>
        <time>2023-09-20T10:16:13.581+00:00</time>
      </trkpt>
      <trkpt lat="48.34394" lon="2.65111">
        <ele>93</ele>
        <time>2023-09-20T10:16:17.587+00:00</time>
      </trkpt>
      <trkpt lat="48.34396" lon="2.6512">
        <ele>93</ele>
        <time>2023-09-20T10:16:21.605+00:00</time>
      </trkpt>
      <trkpt lat="48.34396" lon="2.65129">
        <ele>92</ele>
        <time>2023-09-20T10:16:25.596+00:00</time>
      </trkpt>
      <trkpt lat="48.34396" lon="2.65138">
        <ele>92</ele>
        <time>2023-09-20T10:16:30.600+00:00</time>
      </trkpt>
      <trkpt lat="48.34395" lon="2.65145">
        <ele>92</ele>
        <time>2023-09-20T10:16:35.612+00:00</time>
      </trkpt>
      <trkpt lat="48.34394" lon="2.65155">
        <ele>91</ele>
        <time>2023-09-20T10:16:40.583+00:00</time>
      </trkpt>
      <trkpt lat="48.34393" lon="2.65165">
        <ele>91</ele>
        <time>2023-09-20T10:16:45.585+00:00</time>
      </trkpt>
      <trkpt lat="48.34392" lon="2.65174">
        <ele>91</ele>
        <time>2023-09-20T10:16:50.587+00:00</time>
      </trkpt>
      <trkpt lat="48.34393" lon="2.65182">
        <ele>91</ele>
        <time>2023-09-20T10:16:54.599+00:00</time>
      </trkpt>
      <trkpt lat="48.34393" lon="2.65191">
        <ele>91</ele>
        <time>2023-09-20T10:16:59.573+00:00</time>
      </trkpt>
      <trkpt lat="48.34392" lon="2.652">
        <ele>91</ele>
        <time>2023-09-20T10:17:04.585+00:00</time>
      </trkpt>
      <trkpt lat="48.34392" lon="2.65213">
        <ele>92</ele>
        <time>2023-09-20T10:17:09.588+00:00</time>
      </trkpt>
      <trkpt lat="48.34393" lon="2.65222">
        <ele>92</ele>
        <time>2023-09-20T10:17:14.575+00:00</time>
      </trkpt>
      <trkpt lat="48.34394" lon="2.6523">
        <ele>92</ele>
        <time>2023-09-20T10:17:18.592+00:00</time>
      </trkpt>
      <trkpt lat="48.34394" lon="2.6524">
        <ele>93</ele>
        <time>2023-09-20T10:17:23.595+00:00</time>
      </trkpt>
      <trkpt lat="48.34393" lon="2.65249">
        <ele>93</ele>
        <time>2023-09-20T10:17:28.568+00:00</time>
      </trkpt>
      <trkpt lat="48.34394" lon="2.65258">
        <ele>93</ele>
        <time>2023-09-20T10:17:33.582+00:00</time>
      </trkpt>
      <trkpt lat="48.34396" lon="2.65265">
        <ele>93</ele>
        <time>2023-09-20T10:17:37.603+00:00</time>
      </trkpt>
      <trkpt lat="48.34397" lon="2.65275">
        <ele>93</ele>
        <time>2023-09-20T10:17:42.579+00:00</time>
      </trkpt>
      <trkpt lat="48.34398" lon="2.65284">
        <ele>93</ele>
        <time>2023-09-20T10:17:46.616+00:00</time>
      </trkpt>
      <trkpt lat="48.344" lon="2.65294">
        <ele>92</ele>
        <time>2023-09-20T10:17:51.607+00:00</time>
      </trkpt>
      <trkpt lat="48.34401" lon="2.65303">
        <ele>92</ele>
        <time>2023-09-20T10:17:56.576+00:00</time>
      </trkpt>
      <trkpt lat="48.34401" lon="2.65311">
        <ele>92</ele>
        <time>2023-09-20T10:18:00.594+00:00</time>
      </trkpt>
      <trkpt lat="48.344" lon="2.65319">
        <ele>92</ele>
        <time>2023-09-20T10:18:05.619+00:00</time>
      </trkpt>
      <trkpt lat="48.344" lon="2.65328">
        <ele>91</ele>
        <time>2023-09-20T10:18:10.600+00:00</time>
      </trkpt>
      <trkpt lat="48.34399" lon="2.65336">
        <ele>91</ele>
        <time>2023-09-20T10:18:15.600+00:00</time>
      </trkpt>
      <trkpt lat="48.34398" lon="2.65345">
        <ele>91</ele>
        <time>2023-09-20T10:18:20.601+00:00</time>
      </trkpt>
      <trkpt lat="48.34399" lon="2.65352">
        <ele>91</ele>
        <time>2023-09-20T10:18:25.602+00:00</time>
      </trkpt>
      <trkpt lat="48.34399" lon="2.6536">
        <ele>91</ele>
        <time>2023-09-20T10:18:30.625+00:00</time>
      </trkpt>
      <trkpt lat="48.34399" lon="2.6537">
        <ele>91</ele>
        <time>2023-09-20T10:18:35.601+00:00</time>
      </trkpt>
      <trkpt lat="48.34399" lon="2.65379">
        <ele>92</ele>
        <time>2023-09-20T10:18:39.611+00:00</time>
      </trkpt>
      <trkpt lat="48.34398" lon="2.65388">
        <ele>92</ele>
        <time>2023-09-20T10:18:44.604+00:00</time>
      </trkpt>
      <trkpt lat="48.34398" lon="2.65398">
        <ele>92</ele>
        <time>2023-09-20T10:18:49.601+00:00</time>
      </trkpt>
      <trkpt lat="48.34396" lon="2.65409">
        <ele>93</ele>
        <time>2023-09-20T10:18:54.600+00:00</time>
      </trkpt>
      <trkpt lat="48.34395" lon="2.65416">
        <ele>93</ele>
        <time>2023-09-20T10:18:58.610+00:00</time>
      </trkpt>
      <trkpt lat="48.34395" lon="2.65424">
        <ele>93</ele>
        <time>2023-09-20T10:19:03.614+00:00</time>
      </trkpt>
      <trkpt lat="48.34395" lon="2.65433">
        <ele>95</ele>
        <time>2023-09-20T10:19:08.607+00:00</time>
      </trkpt>
      <trkpt lat="48.34393" lon="2.65442">
        <ele>95</ele>
        <time>2023-09-20T10:19:13.607+00:00</time>
      </trkpt>
      <trkpt lat="48.34392" lon="2.65452">
        <ele>95</ele>
        <time>2023-09-20T10:19:18.612+00:00</time>
      </trkpt>
      <trkpt lat="48.3439" lon="2.65461">
        <ele>94</ele>
        <time>2023-09-20T10:19:23.600+00:00</time>
      </trkpt>
      <trkpt lat="48.34388" lon="2.65469">
        <ele>94</ele>
        <time>2023-09-20T10:19:27.622+00:00</time>
      </trkpt>
      <trkpt lat="48.34387" lon="2.65479">
        <ele>94</ele>
        <time>2023-09-20T10:19:32.576+00:00</time>
      </trkpt>
      <trkpt lat="48.34383" lon="2.65487">
        <ele>93</ele>
        <time>2023-09-20T10:19:36.622+00:00</time>
      </trkpt>
      <trkpt lat="48.34381" lon="2.65495">
        <ele>93</ele>
        <time>2023-09-20T10:19:40.603+00:00</time>
      </trkpt>
      <trkpt lat="48.3438" lon="2.65506">
        <ele>93</ele>
        <time>2023-09-20T10:19:45.622+00:00</time>
      </trkpt>
      <trkpt lat="48.3438" lon="2.65516">
        <ele>93</ele>
        <time>2023-09-20T10:19:50.624+00:00</time>
      </trkpt>
      <trkpt lat="48.34379" lon="2.65527">
        <ele>93</ele>
        <time>2023-09-20T10:19:55.614+00:00</time>
      </trkpt>
      <trkpt lat="48.34376" lon="2.65534">
        <ele>93</ele>
        <time>2023-09-20T10:20:00.612+00:00</time>
      </trkpt>
      <trkpt lat="48.34373" lon="2.6554">
        <ele>91</ele>
        <time>2023-09-20T10:20:05.613+00:00</time>
      </trkpt>
      <trkpt lat="48.3437" lon="2.6555">
        <ele>91</ele>
        <time>2023-09-20T10:20:10.614+00:00</time>
      </trkpt>
      <trkpt lat="48.34366" lon="2.65558">
        <ele>91</ele>
        <time>2023-09-20T10:20:15.605+00:00</time>
      </trkpt>
      <trkpt lat="48.34363" lon="2.6557">
        <ele>91</ele>
        <time>2023-09-20T10:20:20.594+00:00</time>
      </trkpt>
      <trkpt lat="48.34362" lon="2.65577">
        <ele>91</ele>
        <time>2023-09-20T10:20:24.603+00:00</time>
      </trkpt>
      <trkpt lat="48.34361" lon="2.65585">
        <ele>91</ele>
        <time>2023-09-20T10:20:29.614+00:00</time>
      </trkpt>
      <trkpt lat="48.34358" lon="2.65593">
        <ele>91</ele>
        <time>2023-09-20T10:20:34.604+00:00</time>
      </trkpt>
      <trkpt lat="48.34356" lon="2.656">
        <ele>90</ele>
        <time>2023-09-20T10:20:38.610+00:00</time>
      </trkpt>
      <trkpt lat="48.34355" lon="2.65609">
        <ele>90</ele>
        <time>2023-09-20T10:20:43.611+00:00</time>
      </trkpt>
      <trkpt lat="48.34354" lon="2.65617">
        <ele>90</ele>
        <time>2023-09-20T10:20:47.619+00:00</time>
      </trkpt>
      <trkpt lat="48.34353" lon="2.65627">
        <ele>91</ele>
        <time>2023-09-20T10:20:52.586+00:00</time>
      </trkpt>
      <trkpt lat="48.34351" lon="2.65636">
        <ele>91</ele>
        <time>2023-09-20T10:20:56.607+00:00</time>
      </trkpt>
      <trkpt lat="48.34349" lon="2.65645">
        <ele>91</ele>
        <time>2023-09-20T10:21:01.620+00:00</time>
      </trkpt>
      <trkpt lat="48.34347" lon="2.65653">
        <ele>90</ele>
        <time>2023-09-20T10:21:06.604+00:00</time>
      </trkpt>
      <trkpt lat="48.34343" lon="2.65665">
        <ele>90</ele>
        <time>2023-09-20T10:21:11.607+00:00</time>
      </trkpt>
      <trkpt lat="48.34341" lon="2.65675">
        <ele>90</ele>
        <time>2023-09-20T10:21:16.614+00:00</time>
      </trkpt>
      <trkpt lat="48.34339" lon="2.65684">
        <ele>91</ele>
        <time>2023-09-20T10:21:20.611+00:00</time>
      </trkpt>
      <trkpt lat="48.34336" lon="2.65693">
        <ele>91</ele>
        <time>2023-09-20T10:21:25.597+00:00</time>
      </trkpt>
      <trkpt lat="48.34334" lon="2.657">
        <ele>91</ele>
        <time>2023-09-20T10:21:29.615+00:00</time>
      </trkpt>
      <trkpt lat="48.34333" lon="2.65712">
        <ele>92</ele>
        <time>2023-09-20T10:21:34.618+00:00</time>
      </trkpt>
      <trkpt lat="48.3433" lon="2.65721">
        <ele>92</ele>
        <time>2023-09-20T10:21:39.589+00:00</time>
      </trkpt>
      <trkpt lat="48.34329" lon="2.65732">
        <ele>92</ele>
        <time>2023-09-20T10:21:44.615+00:00</time>
      </trkpt>
      <trkpt lat="48.34328" lon="2.65741">
        <ele>94</ele>
        <time>2023-09-20T10:21:49.626+00:00</time>
      </trkpt>
      <trkpt lat="48.34325" lon="2.6575">
        <ele>94</ele>
        <time>2023-09-20T10:21:54.609+00:00</time>
      </trkpt>
      <trkpt lat="48.34325" lon="2.65758">
        <ele>94</ele>
        <time>2023-09-20T10:21:59.599+00:00</time>
      </trkpt>
      <trkpt lat="48.34325" lon="2.65768">
        <ele>95</ele>
        <time>2023-09-20T10:22:04.610+00:00</time>
      </trkpt>
      <trkpt lat="48.34324" lon="2.6578">
        <ele>95</ele>
        <time>2023-09-20T10:22:09.607+00:00</time>
      </trkpt>
      <trkpt lat="48.34324" lon="2.65792">
        <ele>94</ele>
        <time>2023-09-20T10:22:14.603+00:00</time>
      </trkpt>
      <trkpt lat="48.34322" lon="2.65799">
        <ele>94</ele>
        <time>2023-09-20T10:22:19.610+00:00</time>
      </trkpt>
      <trkpt lat="48.3432" lon="2.65805">
        <ele>94</ele>
        <time>2023-09-20T10:22:23.617+00:00</time>
      </trkpt>
      <trkpt lat="48.34318" lon="2.65811">
        <ele>93</ele>
        <time>2023-09-20T10:22:27.750+00:00</time>
      </trkpt>
      <trkpt lat="48.34315" lon="2.65818">
        <ele>93</ele>
        <time>2023-09-20T10:22:32.727+00:00</time>
      </trkpt>
      <trkpt lat="48.34313" lon="2.65826">
        <ele>93</ele>
        <time>2023-09-20T10:22:37.668+00:00</time>
      </trkpt>
      <trkpt lat="48.3431" lon="2.65837">
        <ele>93</ele>
        <time>2023-09-20T10:22:42.641+00:00</time>
      </trkpt>
      <trkpt lat="48.34307" lon="2.65846">
        <ele>93</ele>
        <time>2023-09-20T10:22:47.630+00:00</time>
      </trkpt>
      <trkpt lat="48.34304" lon="2.65852">
        <ele>92</ele>
        <time>2023-09-20T10:22:51.640+00:00</time>
      </trkpt>
      <trkpt lat="48.34301" lon="2.6586">
        <ele>92</ele>
        <time>2023-09-20T10:22:56.642+00:00</time>
      </trkpt>
      <trkpt lat="48.34299" lon="2.65868">
        <ele>92</ele>
        <time>2023-09-20T10:23:01.630+00:00</time>
      </trkpt>
      <trkpt lat="48.34295" lon="2.65877">
        <ele>92</ele>
        <time>2023-09-20T10:23:06.608+00:00</time>
      </trkpt>
      <trkpt lat="48.34293" lon="2.65886">
        <ele>92</ele>
        <time>2023-09-20T10:23:10.626+00:00</time>
      </trkpt>
      <trkpt lat="48.34291" lon="2.65895">
        <ele>91</ele>
        <time>2023-09-20T10:23:14.632+00:00</time>
      </trkpt>
      <trkpt lat="48.34288" lon="2.65902">
        <ele>91</ele>
        <time>2023-09-20T10:23:19.620+00:00</time>
      </trkpt>
      <trkpt lat="48.34286" lon="2.65911">
        <ele>91</ele>
        <time>2023-09-20T10:23:24.588+00:00</time>
      </trkpt>
      <trkpt lat="48.34285" lon="2.6592">
        <ele>91</ele>
        <time>2023-09-20T10:23:28.621+00:00</time>
      </trkpt>
      <trkpt lat="48.34282" lon="2.65931">
        <ele>90</ele>
        <time>2023-09-20T10:23:33.622+00:00</time>
      </trkpt>
      <trkpt lat="48.3428" lon="2.65941">
        <ele>90</ele>
        <time>2023-09-20T10:23:38.627+00:00</time>
      </trkpt>
      <trkpt lat="48.34278" lon="2.65951">
        <ele>90</ele>
        <time>2023-09-20T10:23:43.636+00:00</time>
      </trkpt>
      <trkpt lat="48.34276" lon="2.6596">
        <ele>90</ele>
        <time>2023-09-20T10:23:48.632+00:00</time>
      </trkpt>
      <trkpt lat="48.34274" lon="2.6597">
        <ele>90</ele>
        <time>2023-09-20T10:23:53.611+00:00</time>
      </trkpt>
      <trkpt lat="48.34272" lon="2.65979">
        <ele>90</ele>
        <time>2023-09-20T10:23:58.630+00:00</time>
      </trkpt>
      <trkpt lat="48.3427" lon="2.6599">
        <ele>91</ele>
        <time>2023-09-20T10:24:03.570+00:00</time>
      </trkpt>
      <trkpt lat="48.34267" lon="2.65998">
        <ele>91</ele>
        <time>2023-09-20T10:24:08.567+00:00</time>
      </trkpt>
      <trkpt lat="48.34268" lon="2.66007">
        <ele>91</ele>
        <time>2023-09-20T10:24:13.559+00:00</time>
      </trkpt>
      <trkpt lat="48.3427" lon="2.66014">
        <ele>92</ele>
        <time>2023-09-20T10:24:17.554+00:00</time>
      </trkpt>
      <trkpt lat="48.34269" lon="2.66025">
        <ele>92</ele>
        <time>2023-09-20T10:24:22.564+00:00</time>
      </trkpt>
      <trkpt lat="48.34262" lon="2.66034">
        <ele>91</ele>
        <time>2023-09-20T10:24:26.562+00:00</time>
      </trkpt>
      <trkpt lat="48.3426" lon="2.66042">
        <ele>92</ele>
        <time>2023-09-20T10:24:30.558+00:00</time>
      </trkpt>
      <trkpt lat="48.3426" lon="2.66052">
        <ele>92</ele>
        <time>2023-09-20T10:24:35.562+00:00</time>
      </trkpt>
      <trkpt lat="48.34258" lon="2.66059">
        <ele>92</ele>
        <time>2023-09-20T10:24:39.558+00:00</time>
      </trkpt>
      <trkpt lat="48.34256" lon="2.66068">
        <ele>92</ele>
        <time>2023-09-20T10:24:44.565+00:00</time>
      </trkpt>
      <trkpt lat="48.34253" lon="2.66073">
        <ele>93</ele>
        <time>2023-09-20T10:24:49.566+00:00</time>
      </trkpt>
      <trkpt lat="48.34253" lon="2.66083">
        <ele>93</ele>
        <time>2023-09-20T10:24:54.566+00:00</time>
      </trkpt>
      <trkpt lat="48.34252" lon="2.66091">
        <ele>93</ele>
        <time>2023-09-20T10:24:58.560+00:00</time>
      </trkpt>
      <trkpt lat="48.3425" lon="2.66095">
        <ele>93</ele>
        <time>2023-09-20T10:25:02.566+00:00</time>
      </trkpt>
      <trkpt lat="48.34249" lon="2.66104">
        <ele>93</ele>
        <time>2023-09-20T10:25:07.565+00:00</time>
      </trkpt>
      <trkpt lat="48.34247" lon="2.66112">
        <ele>93</ele>
        <time>2023-09-20T10:25:12.553+00:00</time>
      </trkpt>
      <trkpt lat="48.34245" lon="2.66119">
        <ele>93</ele>
        <time>2023-09-20T10:25:16.564+00:00</time>
      </trkpt>
      <trkpt lat="48.34241" lon="2.66128">
        <ele>95</ele>
        <time>2023-09-20T10:25:21.566+00:00</time>
      </trkpt>
      <trkpt lat="48.34241" lon="2.66137">
        <ele>95</ele>
        <time>2023-09-20T10:25:25.566+00:00</time>
      </trkpt>
      <trkpt lat="48.34237" lon="2.66147">
        <ele>95</ele>
        <time>2023-09-20T10:25:30.570+00:00</time>
      </trkpt>
      <trkpt lat="48.34236" lon="2.66156">
        <ele>91</ele>
        <time>2023-09-20T10:25:34.563+00:00</time>
      </trkpt>
      <trkpt lat="48.34235" lon="2.66167">
        <ele>91</ele>
        <time>2023-09-20T10:25:39.573+00:00</time>
      </trkpt>
      <trkpt lat="48.34233" lon="2.66176">
        <ele>91</ele>
        <time>2023-09-20T10:25:44.560+00:00</time>
      </trkpt>
      <trkpt lat="48.3423" lon="2.66185">
        <ele>91</ele>
        <time>2023-09-20T10:25:49.571+00:00</time>
      </trkpt>
      <trkpt lat="48.34228" lon="2.66194">
        <ele>91</ele>
        <time>2023-09-20T10:25:54.571+00:00</time>
      </trkpt>
      <trkpt lat="48.34227" lon="2.662">
        <ele>91</ele>
        <time>2023-09-20T10:25:58.563+00:00</time>
      </trkpt>
      <trkpt lat="48.34226" lon="2.66206">
        <ele>91</ele>
        <time>2023-09-20T10:26:03.583+00:00</time>
      </trkpt>
      <trkpt lat="48.34225" lon="2.66213">
        <ele>92</ele>
        <time>2023-09-20T10:26:08.570+00:00</time>
      </trkpt>
      <trkpt lat="48.34221" lon="2.66222">
        <ele>92</ele>
        <time>2023-09-20T10:26:13.572+00:00</time>
      </trkpt>
      <trkpt lat="48.3422" lon="2.66235">
        <ele>92</ele>
        <time>2023-09-20T10:26:18.570+00:00</time>
      </trkpt>
      <trkpt lat="48.34218" lon="2.66247">
        <ele>93</ele>
        <time>2023-09-20T10:26:22.593+00:00</time>
      </trkpt>
      <trkpt lat="48.34217" lon="2.66258">
        <ele>93</ele>
        <time>2023-09-20T10:26:27.595+00:00</time>
      </trkpt>
      <trkpt lat="48.34216" lon="2.66266">
        <ele>93</ele>
        <time>2023-09-20T10:26:32.588+00:00</time>
      </trkpt>
      <trkpt lat="48.34217" lon="2.66271">
        <ele>93</ele>
        <time>2023-09-20T10:26:36.604+00:00</time>
      </trkpt>
      <trkpt lat="48.34218" lon="2.66278">
        <ele>93</ele>
        <time>2023-09-20T10:26:40.604+00:00</time>
      </trkpt>
      <trkpt lat="48.34218" lon="2.66285">
        <ele>93</ele>
        <time>2023-09-20T10:26:45.610+00:00</time>
      </trkpt>
      <trkpt lat="48.34218" lon="2.66293">
        <ele>93</ele>
        <time>2023-09-20T10:26:49.615+00:00</time>
      </trkpt>
      <trkpt lat="48.34217" lon="2.66302">
        <ele>93</ele>
        <time>2023-09-20T10:26:54.587+00:00</time>
      </trkpt>
      <trkpt lat="48.34216" lon="2.66311">
        <ele>93</ele>
        <time>2023-09-20T10:26:59.578+00:00</time>
      </trkpt>
      <trkpt lat="48.34216" lon="2.66318">
        <ele>93</ele>
        <time>2023-09-20T10:27:03.593+00:00</time>
      </trkpt>
      <trkpt lat="48.34217" lon="2.66324">
        <ele>93</ele>
        <time>2023-09-20T10:27:07.609+00:00</time>
      </trkpt>
      <trkpt lat="48.34217" lon="2.66336">
        <ele>93</ele>
        <time>2023-09-20T10:27:12.615+00:00</time>
      </trkpt>
      <trkpt lat="48.34217" lon="2.66346">
        <ele>93</ele>
        <time>2023-09-20T10:27:17.576+00:00</time>
      </trkpt>
      <trkpt lat="48.34216" lon="2.66352">
        <ele>93</ele>
        <time>2023-09-20T10:27:21.599+00:00</time>
      </trkpt>
      <trkpt lat="48.34214" lon="2.66359">
        <ele>93</ele>
        <time>2023-09-20T10:27:25.597+00:00</time>
      </trkpt>
      <trkpt lat="48.34213" lon="2.66369">
        <ele>93</ele>
        <time>2023-09-20T10:27:30.590+00:00</time>
      </trkpt>
      <trkpt lat="48.34212" lon="2.66376">
        <ele>94</ele>
        <time>2023-09-20T10:27:34.609+00:00</time>
      </trkpt>
      <trkpt lat="48.34211" lon="2.66384">
        <ele>94</ele>
        <time>2023-09-20T10:27:38.604+00:00</time>
      </trkpt>
      <trkpt lat="48.3421" lon="2.66396">
        <ele>94</ele>
        <time>2023-09-20T10:27:43.612+00:00</time>
      </trkpt>
      <trkpt lat="48.34211" lon="2.66406">
        <ele>94</ele>
        <time>2023-09-20T10:27:48.598+00:00</time>
      </trkpt>
      <trkpt lat="48.34211" lon="2.66414">
        <ele>94</ele>
        <time>2023-09-20T10:27:53.584+00:00</time>
      </trkpt>
      <trkpt lat="48.34212" lon="2.66423">
        <ele>94</ele>
        <time>2023-09-20T10:27:58.569+00:00</time>
      </trkpt>
      <trkpt lat="48.34213" lon="2.66434">
        <ele>94</ele>
        <time>2023-09-20T10:28:03.559+00:00</time>
      </trkpt>
      <trkpt lat="48.34214" lon="2.66446">
        <ele>94</ele>
        <time>2023-09-20T10:28:07.579+00:00</time>
      </trkpt>
      <trkpt lat="48.34214" lon="2.6645">
        <ele>94</ele>
        <time>2023-09-20T10:28:11.590+00:00</time>
      </trkpt>
      <trkpt lat="48.34212" lon="2.66462">
        <ele>95</ele>
        <time>2023-09-20T10:28:16.561+00:00</time>
      </trkpt>
      <trkpt lat="48.34212" lon="2.66475">
        <ele>95</ele>
        <time>2023-09-20T10:28:20.561+00:00</time>
      </trkpt>
      <trkpt lat="48.34211" lon="2.66481">
        <ele>95</ele>
        <time>2023-09-20T10:28:24.565+00:00</time>
      </trkpt>
      <trkpt lat="48.34208" lon="2.66489">
        <ele>90</ele>
        <time>2023-09-20T10:28:29.564+00:00</time>
      </trkpt>
      <trkpt lat="48.34207" lon="2.66495">
        <ele>90</ele>
        <time>2023-09-20T10:28:34.562+00:00</time>
      </trkpt>
      <trkpt lat="48.34206" lon="2.66504">
        <ele>90</ele>
        <time>2023-09-20T10:28:39.563+00:00</time>
      </trkpt>
      <trkpt lat="48.34204" lon="2.66511">
        <ele>90</ele>
        <time>2023-09-20T10:28:43.574+00:00</time>
      </trkpt>
      <trkpt lat="48.34203" lon="2.6652">
        <ele>92</ele>
        <time>2023-09-20T10:28:48.566+00:00</time>
      </trkpt>
      <trkpt lat="48.34202" lon="2.66529">
        <ele>92</ele>
        <time>2023-09-20T10:28:53.557+00:00</time>
      </trkpt>
      <trkpt lat="48.34202" lon="2.66538">
        <ele>92</ele>
        <time>2023-09-20T10:28:57.577+00:00</time>
      </trkpt>
      <trkpt lat="48.34203" lon="2.66547">
        <ele>94</ele>
        <time>2023-09-20T10:29:02.568+00:00</time>
      </trkpt>
      <trkpt lat="48.34201" lon="2.66553">
        <ele>94</ele>
        <time>2023-09-20T10:29:06.568+00:00</time>
      </trkpt>
      <trkpt lat="48.34199" lon="2.66564">
        <ele>94</ele>
        <time>2023-09-20T10:29:11.571+00:00</time>
      </trkpt>
      <trkpt lat="48.342" lon="2.66574">
        <ele>96</ele>
        <time>2023-09-20T10:29:16.573+00:00</time>
      </trkpt>
      <trkpt lat="48.34201" lon="2.66581">
        <ele>96</ele>
        <time>2023-09-20T10:29:21.571+00:00</time>
      </trkpt>
      <trkpt lat="48.34199" lon="2.66592">
        <ele>96</ele>
        <time>2023-09-20T10:29:26.566+00:00</time>
      </trkpt>
      <trkpt lat="48.342" lon="2.666">
        <ele>96</ele>
        <time>2023-09-20T10:29:31.575+00:00</time>
      </trkpt>
      <trkpt lat="48.342" lon="2.66609">
        <ele>96</ele>
        <time>2023-09-20T10:29:35.570+00:00</time>
      </trkpt>
      <trkpt lat="48.34201" lon="2.66617">
        <ele>96</ele>
        <time>2023-09-20T10:29:40.566+00:00</time>
      </trkpt>
      <trkpt lat="48.34199" lon="2.66624">
        <ele>96</ele>
        <time>2023-09-20T10:29:44.567+00:00</time>
      </trkpt>
      <trkpt lat="48.34196" lon="2.66634">
        <ele>96</ele>
        <time>2023-09-20T10:29:49.562+00:00</time>
      </trkpt>
      <trkpt lat="48.34195" lon="2.6664">
        <ele>96</ele>
        <time>2023-09-20T10:29:54.557+00:00</time>
      </trkpt>
      <trkpt lat="48.34194" lon="2.66643">
        <ele>96</ele>
        <time>2023-09-20T10:29:58.559+00:00</time>
      </trkpt>
      <trkpt lat="48.34189" lon="2.66645">
        <ele>96</ele>
        <time>2023-09-20T10:30:03.562+00:00</time>
      </trkpt>
      <trkpt lat="48.34186" lon="2.66643">
        <ele>96</ele>
        <time>2023-09-20T10:30:07.590+00:00</time>
      </trkpt>
      <trkpt lat="48.34183" lon="2.66636">
        <ele>96</ele>
        <time>2023-09-20T10:30:12.581+00:00</time>
      </trkpt>
      <trkpt lat="48.34179" lon="2.6663">
        <ele>94</ele>
        <time>2023-09-20T10:30:17.579+00:00</time>
      </trkpt>
      <trkpt lat="48.34172" lon="2.66626">
        <ele>94</ele>
        <time>2023-09-20T10:30:22.561+00:00</time>
      </trkpt>
      <trkpt lat="48.3417" lon="2.66622">
        <ele>94</ele>
        <time>2023-09-20T10:30:26.592+00:00</time>
      </trkpt>
      <trkpt lat="48.34163" lon="2.66617">
        <ele>94</ele>
        <time>2023-09-20T10:30:31.588+00:00</time>
      </trkpt>
      <trkpt lat="48.34158" lon="2.66611">
        <ele>94</ele>
        <time>2023-09-20T10:30:36.597+00:00</time>
      </trkpt>
      <trkpt lat="48.34156" lon="2.66604">
        <ele>94</ele>
        <time>2023-09-20T10:30:41.599+00:00</time>
      </trkpt>
      <trkpt lat="48.34151" lon="2.66596">
        <ele>93</ele>
        <time>2023-09-20T10:30:46.594+00:00</time>
      </trkpt>
      <trkpt lat="48.34148" lon="2.66591">
        <ele>93</ele>
        <time>2023-09-20T10:30:50.595+00:00</time>
      </trkpt>
      <trkpt lat="48.34144" lon="2.66588">
        <ele>93</ele>
        <time>2023-09-20T10:30:55.612+00:00</time>
      </trkpt>
      <trkpt lat="48.34141" lon="2.66581">
        <ele>93</ele>
        <time>2023-09-20T10:31:00.607+00:00</time>
      </trkpt>
      <trkpt lat="48.34136" lon="2.66577">
        <ele>93</ele>
        <time>2023-09-20T10:31:05.579+00:00</time>
      </trkpt>
      <trkpt lat="48.34128" lon="2.66573">
        <ele>93</ele>
        <time>2023-09-20T10:31:10.556+00:00</time>
      </trkpt>
      <trkpt lat="48.34122" lon="2.66572">
        <ele>92</ele>
        <time>2023-09-20T10:31:14.570+00:00</time>
      </trkpt>
      <trkpt lat="48.34117" lon="2.66568">
        <ele>92</ele>
        <time>2023-09-20T10:31:19.560+00:00</time>
      </trkpt>
      <trkpt lat="48.34113" lon="2.66561">
        <ele>92</ele>
        <time>2023-09-20T10:31:23.570+00:00</time>
      </trkpt>
      <trkpt lat="48.34109" lon="2.66552">
        <ele>92</ele>
        <time>2023-09-20T10:31:28.572+00:00</time>
      </trkpt>
      <trkpt lat="48.34105" lon="2.66544">
        <ele>92</ele>
        <time>2023-09-20T10:31:33.568+00:00</time>
      </trkpt>
      <trkpt lat="48.34101" lon="2.66542">
        <ele>92</ele>
        <time>2023-09-20T10:31:38.572+00:00</time>
      </trkpt>
      <trkpt lat="48.34095" lon="2.66544">
        <ele>92</ele>
        <time>2023-09-20T10:31:42.578+00:00</time>
      </trkpt>
      <trkpt lat="48.34089" lon="2.66544">
        <ele>92</ele>
        <time>2023-09-20T10:31:47.578+00:00</time>
      </trkpt>
      <trkpt lat="48.34084" lon="2.66545">
        <ele>92</ele>
        <time>2023-09-20T10:31:51.586+00:00</time>
      </trkpt>
      <trkpt lat="48.34078" lon="2.66545">
        <ele>92</ele>
        <time>2023-09-20T10:31:56.588+00:00</time>
      </trkpt>
      <trkpt lat="48.34072" lon="2.66545">
        <ele>92</ele>
        <time>2023-09-20T10:32:01.595+00:00</time>
      </trkpt>
      <trkpt lat="48.34065" lon="2.66546">
        <ele>94</ele>
        <time>2023-09-20T10:32:06.590+00:00</time>
      </trkpt>
      <trkpt lat="48.34061" lon="2.66548">
        <ele>94</ele>
        <time>2023-09-20T10:32:11.577+00:00</time>
      </trkpt>
      <trkpt lat="48.34056" lon="2.66549">
        <ele>94</ele>
        <time>2023-09-20T10:32:15.593+00:00</time>
      </trkpt>
      <trkpt lat="48.34051" lon="2.66548">
        <ele>94</ele>
        <time>2023-09-20T10:32:19.610+00:00</time>
      </trkpt>
      <trkpt lat="48.34044" lon="2.6655">
        <ele>94</ele>
        <time>2023-09-20T10:32:24.596+00:00</time>
      </trkpt>
      <trkpt lat="48.34037" lon="2.66555">
        <ele>96</ele>
        <time>2023-09-20T10:32:29.598+00:00</time>
      </trkpt>
      <trkpt lat="48.34033" lon="2.6656">
        <ele>96</ele>
        <time>2023-09-20T10:32:33.625+00:00</time>
      </trkpt>
      <trkpt lat="48.34028" lon="2.66567">
        <ele>96</ele>
        <time>2023-09-20T10:32:38.594+00:00</time>
      </trkpt>
      <trkpt lat="48.34025" lon="2.66571">
        <ele>97</ele>
        <time>2023-09-20T10:32:42.610+00:00</time>
      </trkpt>
      <trkpt lat="48.34019" lon="2.66576">
        <ele>97</ele>
        <time>2023-09-20T10:32:47.611+00:00</time>
      </trkpt>
      <trkpt lat="48.34014" lon="2.6658">
        <ele>97</ele>
        <time>2023-09-20T10:32:51.621+00:00</time>
      </trkpt>
      <trkpt lat="48.3401" lon="2.6658">
        <ele>99</ele>
        <time>2023-09-20T10:32:56.609+00:00</time>
      </trkpt>
      <trkpt lat="48.34005" lon="2.66578">
        <ele>99</ele>
        <time>2023-09-20T10:33:01.606+00:00</time>
      </trkpt>
      <trkpt lat="48.34" lon="2.66578">
        <ele>99</ele>
        <time>2023-09-20T10:33:05.610+00:00</time>
      </trkpt>
      <trkpt lat="48.33992" lon="2.66576">
        <ele>99</ele>
        <time>2023-09-20T10:33:10.598+00:00</time>
      </trkpt>
      <trkpt lat="48.33986" lon="2.66574">
        <ele>99</ele>
        <time>2023-09-20T10:33:14.610+00:00</time>
      </trkpt>
      <trkpt lat="48.33979" lon="2.66572">
        <ele>101</ele>
        <time>2023-09-20T10:33:19.598+00:00</time>
      </trkpt>
      <trkpt lat="48.33974" lon="2.6657">
        <ele>101</ele>
        <time>2023-09-20T10:33:23.606+00:00</time>
      </trkpt>
      <trkpt lat="48.33967" lon="2.66569">
        <ele>101</ele>
        <time>2023-09-20T10:33:28.586+00:00</time>
      </trkpt>
      <trkpt lat="48.33962" lon="2.66569">
        <ele>101</ele>
        <time>2023-09-20T10:33:32.598+00:00</time>
      </trkpt>
      <trkpt lat="48.33957" lon="2.66568">
        <ele>103</ele>
        <time>2023-09-20T10:33:36.622+00:00</time>
      </trkpt>
      <trkpt lat="48.33952" lon="2.66563">
        <ele>103</ele>
        <time>2023-09-20T10:33:41.612+00:00</time>
      </trkpt>
      <trkpt lat="48.33946" lon="2.66557">
        <ele>103</ele>
        <time>2023-09-20T10:33:46.607+00:00</time>
      </trkpt>
      <trkpt lat="48.3394" lon="2.66552">
        <ele>103</ele>
        <time>2023-09-20T10:33:51.594+00:00</time>
      </trkpt>
      <trkpt lat="48.33935" lon="2.66549">
        <ele>103</ele>
        <time>2023-09-20T10:33:56.606+00:00</time>
      </trkpt>
      <trkpt lat="48.33931" lon="2.66548">
        <ele>103</ele>
        <time>2023-09-20T10:34:01.600+00:00</time>
      </trkpt>
      <trkpt lat="48.33926" lon="2.66545">
        <ele>104</ele>
        <time>2023-09-20T10:34:05.604+00:00</time>
      </trkpt>
      <trkpt lat="48.33921" lon="2.66544">
        <ele>104</ele>
        <time>2023-09-20T10:34:10.593+00:00</time>
      </trkpt>
      <trkpt lat="48.33917" lon="2.66539">
        <ele>103</ele>
        <time>2023-09-20T10:34:15.592+00:00</time>
      </trkpt>
      <trkpt lat="48.33913" lon="2.66535">
        <ele>103</ele>
        <time>2023-09-20T10:34:19.602+00:00</time>
      </trkpt>
      <trkpt lat="48.33907" lon="2.6653">
        <ele>103</ele>
        <time>2023-09-20T10:34:24.597+00:00</time>
      </trkpt>
      <trkpt lat="48.33902" lon="2.66526">
        <ele>103</ele>
        <time>2023-09-20T10:34:29.612+00:00</time>
      </trkpt>
      <trkpt lat="48.33899" lon="2.66524">
        <ele>103</ele>
        <time>2023-09-20T10:34:34.575+00:00</time>
      </trkpt>
      <trkpt lat="48.33897" lon="2.66522">
        <ele>103</ele>
        <time>2023-09-20T10:34:38.596+00:00</time>
      </trkpt>
      <trkpt lat="48.33893" lon="2.66518">
        <ele>103</ele>
        <time>2023-09-20T10:34:43.587+00:00</time>
      </trkpt>
      <trkpt lat="48.3389" lon="2.66515">
        <ele>103</ele>
        <time>2023-09-20T10:34:48.561+00:00</time>
      </trkpt>
      <trkpt lat="48.3389" lon="2.66519">
        <ele>103</ele>
        <time>2023-09-20T10:34:52.553+00:00</time>
      </trkpt>
      <trkpt lat="48.33883" lon="2.66516">
        <ele>103</ele>
        <time>2023-09-20T10:34:57.561+00:00</time>
      </trkpt>
      <trkpt lat="48.33878" lon="2.66516">
        <ele>103</ele>
        <time>2023-09-20T10:35:02.566+00:00</time>
      </trkpt>
      <trkpt lat="48.33869" lon="2.66519">
        <ele>105</ele>
        <time>2023-09-20T10:35:07.557+00:00</time>
      </trkpt>
      <trkpt lat="48.33864" lon="2.66524">
        <ele>105</ele>
        <time>2023-09-20T10:35:11.570+00:00</time>
      </trkpt>
      <trkpt lat="48.3386" lon="2.66529">
        <ele>105</ele>
        <time>2023-09-20T10:35:16.561+00:00</time>
      </trkpt>
      <trkpt lat="48.33857" lon="2.66536">
        <ele>105</ele>
        <time>2023-09-20T10:35:21.561+00:00</time>
      </trkpt>
      <trkpt lat="48.33855" lon="2.66543">
        <ele>105</ele>
        <time>2023-09-20T10:35:25.561+00:00</time>
      </trkpt>
      <trkpt lat="48.33853" lon="2.66553">
        <ele>105</ele>
        <time>2023-09-20T10:35:30.557+00:00</time>
      </trkpt>
      <trkpt lat="48.33852" lon="2.66561">
        <ele>105</ele>
        <time>2023-09-20T10:35:35.564+00:00</time>
      </trkpt>
      <trkpt lat="48.33853" lon="2.66569">
        <ele>105</ele>
        <time>2023-09-20T10:35:39.566+00:00</time>
      </trkpt>
      <trkpt lat="48.33854" lon="2.66575">
        <ele>105</ele>
        <time>2023-09-20T10:35:43.559+00:00</time>
      </trkpt>
      <trkpt lat="48.33854" lon="2.66585">
        <ele>105</ele>
        <time>2023-09-20T10:35:48.569+00:00</time>
      </trkpt>
      <trkpt lat="48.33853" lon="2.66593">
        <ele>105</ele>
        <time>2023-09-20T10:35:52.564+00:00</time>
      </trkpt>
      <trkpt lat="48.33852" lon="2.66601">
        <ele>105</ele>
        <time>2023-09-20T10:35:57.563+00:00</time>
      </trkpt>
      <trkpt lat="48.3385" lon="2.6661">
        <ele>105</ele>
        <time>2023-09-20T10:36:02.568+00:00</time>
      </trkpt>
      <trkpt lat="48.33848" lon="2.66619">
        <ele>105</ele>
        <time>2023-09-20T10:36:07.564+00:00</time>
      </trkpt>
      <trkpt lat="48.33848" lon="2.66627">
        <ele>104</ele>
        <time>2023-09-20T10:36:12.563+00:00</time>
      </trkpt>
      <trkpt lat="48.33847" lon="2.66633">
        <ele>104</ele>
        <time>2023-09-20T10:36:16.567+00:00</time>
      </trkpt>
      <trkpt lat="48.33847" lon="2.6664">
        <ele>104</ele>
        <time>2023-09-20T10:36:21.559+00:00</time>
      </trkpt>
      <trkpt lat="48.33846" lon="2.66645">
        <ele>109</ele>
        <time>2023-09-20T10:36:25.567+00:00</time>
      </trkpt>
      <trkpt lat="48.33841" lon="2.66652">
        <ele>109</ele>
        <time>2023-09-20T10:36:30.567+00:00</time>
      </trkpt>
      <trkpt lat="48.33836" lon="2.66657">
        <ele>105</ele>
        <time>2023-09-20T10:36:35.565+00:00</time>
      </trkpt>
      <trkpt lat="48.33833" lon="2.66661">
        <ele>105</ele>
        <time>2023-09-20T10:36:39.574+00:00</time>
      </trkpt>
      <trkpt lat="48.33828" lon="2.66664">
        <ele>105</ele>
        <time>2023-09-20T10:36:44.568+00:00</time>
      </trkpt>
      <trkpt lat="48.33823" lon="2.66666">
        <ele>105</ele>
        <time>2023-09-20T10:36:49.568+00:00</time>
      </trkpt>
      <trkpt lat="48.33819" lon="2.66671">
        <ele>108</ele>
        <time>2023-09-20T10:36:53.607+00:00</time>
      </trkpt>
      <trkpt lat="48.33815" lon="2.66673">
        <ele>108</ele>
        <time>2023-09-20T10:36:58.605+00:00</time>
      </trkpt>
      <trkpt lat="48.33812" lon="2.66672">
        <ele>108</ele>
        <time>2023-09-20T10:37:03.581+00:00</time>
      </trkpt>
      <trkpt lat="48.3381" lon="2.66669">
        <ele>108</ele>
        <time>2023-09-20T10:37:07.582+00:00</time>
      </trkpt>
      <trkpt lat="48.33807" lon="2.66666">
        <ele>108</ele>
        <time>2023-09-20T10:37:11.604+00:00</time>
      </trkpt>
      <trkpt lat="48.33801" lon="2.66666">
        <ele>108</ele>
        <time>2023-09-20T10:37:16.593+00:00</time>
      </trkpt>
      <trkpt lat="48.33795" lon="2.66669">
        <ele>108</ele>
        <time>2023-09-20T10:37:21.616+00:00</time>
      </trkpt>
      <trkpt lat="48.33794" lon="2.66672">
        <ele>108</ele>
        <time>2023-09-20T10:37:26.581+00:00</time>
      </trkpt>
      <trkpt lat="48.3379" lon="2.66672">
        <ele>106</ele>
        <time>2023-09-20T10:37:30.579+00:00</time>
      </trkpt>
      <trkpt lat="48.33788" lon="2.6668">
        <ele>106</ele>
        <time>2023-09-20T10:37:44.582+00:00</time>
      </trkpt>
      <trkpt lat="48.33784" lon="2.66676">
        <ele>106</ele>
        <time>2023-09-20T10:37:49.586+00:00</time>
      </trkpt>
      <trkpt lat="48.3378" lon="2.66676">
        <ele>106</ele>
        <time>2023-09-20T10:37:54.591+00:00</time>
      </trkpt>
      <trkpt lat="48.33777" lon="2.66678">
        <ele>106</ele>
        <time>2023-09-20T10:37:59.590+00:00</time>
      </trkpt>
      <trkpt lat="48.33776" lon="2.66679">
        <ele>106</ele>
        <time>2023-09-20T10:38:04.598+00:00</time>
      </trkpt>
      <trkpt lat="48.33772" lon="2.66682">
        <ele>104</ele>
        <time>2023-09-20T10:38:19.591+00:00</time>
      </trkpt>
      <trkpt lat="48.33769" lon="2.66684">
        <ele>104</ele>
        <time>2023-09-20T10:38:24.577+00:00</time>
      </trkpt>
      <trkpt lat="48.33768" lon="2.66683">
        <ele>104</ele>
        <time>2023-09-20T10:38:28.588+00:00</time>
      </trkpt>
      <trkpt lat="48.33768" lon="2.66685">
        <ele>104</ele>
        <time>2023-09-20T10:38:32.618+00:00</time>
      </trkpt>
      <trkpt lat="48.33766" lon="2.66689">
        <ele>104</ele>
        <time>2023-09-20T10:38:37.592+00:00</time>
      </trkpt>
      <trkpt lat="48.33765" lon="2.6669">
        <ele>104</ele>
        <time>2023-09-20T10:38:42.589+00:00</time>
      </trkpt>
      <trkpt lat="48.33761" lon="2.6669">
        <ele>99</ele>
        <time>2023-09-20T10:38:47.595+00:00</time>
      </trkpt>
      <trkpt lat="48.33758" lon="2.66688">
        <ele>99</ele>
        <time>2023-09-20T10:38:52.603+00:00</time>
      </trkpt>
      <trkpt lat="48.33755" lon="2.66689">
        <ele>99</ele>
        <time>2023-09-20T10:38:56.608+00:00</time>
      </trkpt>
      <trkpt lat="48.33751" lon="2.66691">
        <ele>99</ele>
        <time>2023-09-20T10:39:01.579+00:00</time>
      </trkpt>
      <trkpt lat="48.33749" lon="2.66698">
        <ele>99</ele>
        <time>2023-09-20T10:39:06.600+00:00</time>
      </trkpt>
      <trkpt lat="48.33749" lon="2.66705">
        <ele>99</ele>
        <time>2023-09-20T10:39:11.591+00:00</time>
      </trkpt>
      <trkpt lat="48.33745" lon="2.66707">
        <ele>99</ele>
        <time>2023-09-20T10:39:16.609+00:00</time>
      </trkpt>
      <trkpt lat="48.3374" lon="2.66708">
        <ele>99</ele>
        <time>2023-09-20T10:39:21.616+00:00</time>
      </trkpt>
      <trkpt lat="48.33734" lon="2.66711">
        <ele>91</ele>
        <time>2023-09-20T10:39:26.591+00:00</time>
      </trkpt>
      <trkpt lat="48.33731" lon="2.66715">
        <ele>91</ele>
        <time>2023-09-20T10:39:31.582+00:00</time>
      </trkpt>
      <trkpt lat="48.33729" lon="2.66718">
        <ele>91</ele>
        <time>2023-09-20T10:39:35.580+00:00</time>
      </trkpt>
      <trkpt lat="48.33726" lon="2.66722">
        <ele>91</ele>
        <time>2023-09-20T10:39:40.579+00:00</time>
      </trkpt>
      <trkpt lat="48.33724" lon="2.66725">
        <ele>91</ele>
        <time>2023-09-20T10:39:44.597+00:00</time>
      </trkpt>
      <trkpt lat="48.33721" lon="2.6673">
        <ele>91</ele>
        <time>2023-09-20T10:39:49.599+00:00</time>
      </trkpt>
      <trkpt lat="48.33718" lon="2.66735">
        <ele>91</ele>
        <time>2023-09-20T10:39:53.602+00:00</time>
      </trkpt>
      <trkpt lat="48.33713" lon="2.6674">
        <ele>91</ele>
        <time>2023-09-20T10:39:58.597+00:00</time>
      </trkpt>
      <trkpt lat="48.33708" lon="2.66744">
        <ele>89</ele>
        <time>2023-09-20T10:40:02.602+00:00</time>
      </trkpt>
      <trkpt lat="48.33702" lon="2.66747">
        <ele>89</ele>
        <time>2023-09-20T10:40:07.595+00:00</time>
      </trkpt>
      <trkpt lat="48.33696" lon="2.66751">
        <ele>89</ele>
        <time>2023-09-20T10:40:11.589+00:00</time>
      </trkpt>
      <trkpt lat="48.3369" lon="2.66755">
        <ele>89</ele>
        <time>2023-09-20T10:40:16.606+00:00</time>
      </trkpt>
      <trkpt lat="48.33685" lon="2.6676">
        <ele>89</ele>
        <time>2023-09-20T10:40:21.592+00:00</time>
      </trkpt>
      <trkpt lat="48.33681" lon="2.66761">
        <ele>89</ele>
        <time>2023-09-20T10:40:25.595+00:00</time>
      </trkpt>
      <trkpt lat="48.33676" lon="2.66761">
        <ele>89</ele>
        <time>2023-09-20T10:40:30.579+00:00</time>
      </trkpt>
      <trkpt lat="48.33675" lon="2.66759">
        <ele>89</ele>
        <time>2023-09-20T10:40:34.594+00:00</time>
      </trkpt>
      <trkpt lat="48.33672" lon="2.66759">
        <ele>89</ele>
        <time>2023-09-20T10:40:39.593+00:00</time>
      </trkpt>
      <trkpt lat="48.33668" lon="2.66758">
        <ele>89</ele>
        <time>2023-09-20T10:40:44.590+00:00</time>
      </trkpt>
      <trkpt lat="48.33661" lon="2.6676">
        <ele>89</ele>
        <time>2023-09-20T10:40:49.596+00:00</time>
      </trkpt>
      <trkpt lat="48.33656" lon="2.66763">
        <ele>89</ele>
        <time>2023-09-20T10:40:54.579+00:00</time>
      </trkpt>
      <trkpt lat="48.33649" lon="2.66767">
        <ele>88</ele>
        <time>2023-09-20T10:40:59.604+00:00</time>
      </trkpt>
      <trkpt lat="48.33642" lon="2.66766">
        <ele>88</ele>
        <time>2023-09-20T10:41:04.586+00:00</time>
      </trkpt>
      <trkpt lat="48.33636" lon="2.66765">
        <ele>88</ele>
        <time>2023-09-20T10:41:08.603+00:00</time>
      </trkpt>
      <trkpt lat="48.33629" lon="2.66765">
        <ele>88</ele>
        <time>2023-09-20T10:41:13.600+00:00</time>
      </trkpt>
      <trkpt lat="48.33623" lon="2.66765">
        <ele>85</ele>
        <time>2023-09-20T10:41:18.589+00:00</time>
      </trkpt>
      <trkpt lat="48.33619" lon="2.66766">
        <ele>85</ele>
        <time>2023-09-20T10:41:22.606+00:00</time>
      </trkpt>
      <trkpt lat="48.33613" lon="2.66767">
        <ele>85</ele>
        <time>2023-09-20T10:41:27.598+00:00</time>
      </trkpt>
      <trkpt lat="48.33606" lon="2.66767">
        <ele>85</ele>
        <time>2023-09-20T10:41:32.605+00:00</time>
      </trkpt>
      <trkpt lat="48.336" lon="2.66766">
        <ele>85</ele>
        <time>2023-09-20T10:41:37.594+00:00</time>
      </trkpt>
      <trkpt lat="48.33594" lon="2.66766">
        <ele>82</ele>
        <time>2023-09-20T10:41:41.614+00:00</time>
      </trkpt>
      <trkpt lat="48.33586" lon="2.66769">
        <ele>82</ele>
        <time>2023-09-20T10:41:46.598+00:00</time>
      </trkpt>
      <trkpt lat="48.33579" lon="2.66768">
        <ele>82</ele>
        <time>2023-09-20T10:41:51.588+00:00</time>
      </trkpt>
      <trkpt lat="48.33574" lon="2.66769">
        <ele>82</ele>
        <time>2023-09-20T10:41:55.586+00:00</time>
      </trkpt>
      <trkpt lat="48.3357" lon="2.6677">
        <ele>82</ele>
        <time>2023-09-20T10:41:59.597+00:00</time>
      </trkpt>
      <trkpt lat="48.33563" lon="2.66769">
        <ele>80</ele>
        <time>2023-09-20T10:42:04.601+00:00</time>
      </trkpt>
      <trkpt lat="48.33557" lon="2.6677">
        <ele>80</ele>
        <time>2023-09-20T10:42:08.608+00:00</time>
      </trkpt>
      <trkpt lat="48.33553" lon="2.66771">
        <ele>80</ele>
        <time>2023-09-20T10:42:13.616+00:00</time>
      </trkpt>
      <trkpt lat="48.33548" lon="2.66768">
        <ele>80</ele>
        <time>2023-09-20T10:42:18.615+00:00</time>
      </trkpt>
      <trkpt lat="48.3354" lon="2.66768">
        <ele>81</ele>
        <time>2023-09-20T10:42:23.578+00:00</time>
      </trkpt>
      <trkpt lat="48.33534" lon="2.66768">
        <ele>81</ele>
        <time>2023-09-20T10:42:27.596+00:00</time>
      </trkpt>
      <trkpt lat="48.33527" lon="2.66769">
        <ele>81</ele>
        <time>2023-09-20T10:42:32.582+00:00</time>
      </trkpt>
      <trkpt lat="48.33521" lon="2.6677">
        <ele>81</ele>
        <time>2023-09-20T10:42:36.590+00:00</time>
      </trkpt>
      <trkpt lat="48.33516" lon="2.66768">
        <ele>81</ele>
        <time>2023-09-20T10:42:41.593+00:00</time>
      </trkpt>
      <trkpt lat="48.33509" lon="2.66767">
        <ele>83</ele>
        <time>2023-09-20T10:42:46.601+00:00</time>
      </trkpt>
      <trkpt lat="48.33504" lon="2.66766">
        <ele>83</ele>
        <time>2023-09-20T10:42:51.603+00:00</time>
      </trkpt>
      <trkpt lat="48.33499" lon="2.66765">
        <ele>83</ele>
        <time>2023-09-20T10:42:56.612+00:00</time>
      </trkpt>
      <trkpt lat="48.33492" lon="2.66764">
        <ele>80</ele>
        <time>2023-09-20T10:43:01.595+00:00</time>
      </trkpt>
      <trkpt lat="48.33487" lon="2.66763">
        <ele>80</ele>
        <time>2023-09-20T10:43:05.609+00:00</time>
      </trkpt>
      <trkpt lat="48.33482" lon="2.66762">
        <ele>81</ele>
        <time>2023-09-20T10:43:10.603+00:00</time>
      </trkpt>
      <trkpt lat="48.33477" lon="2.6676">
        <ele>81</ele>
        <time>2023-09-20T10:43:15.607+00:00</time>
      </trkpt>
      <trkpt lat="48.33472" lon="2.6676">
        <ele>81</ele>
        <time>2023-09-20T10:43:19.615+00:00</time>
      </trkpt>
      <trkpt lat="48.33462" lon="2.6676">
        <ele>81</ele>
        <time>2023-09-20T10:43:24.591+00:00</time>
      </trkpt>
      <trkpt lat="48.33454" lon="2.66762">
        <ele>78</ele>
        <time>2023-09-20T10:43:29.597+00:00</time>
      </trkpt>
      <trkpt lat="48.33446" lon="2.66763">
        <ele>78</ele>
        <time>2023-09-20T10:43:34.596+00:00</time>
      </trkpt>
      <trkpt lat="48.3344" lon="2.66761">
        <ele>78</ele>
        <time>2023-09-20T10:43:39.595+00:00</time>
      </trkpt>
      <trkpt lat="48.33433" lon="2.66761">
        <ele>78</ele>
        <time>2023-09-20T10:43:44.607+00:00</time>
      </trkpt>
      <trkpt lat="48.33428" lon="2.6676">
        <ele>78</ele>
        <time>2023-09-20T10:43:49.607+00:00</time>
      </trkpt>
      <trkpt lat="48.33421" lon="2.66761">
        <ele>78</ele>
        <time>2023-09-20T10:43:54.600+00:00</time>
      </trkpt>
      <trkpt lat="48.33414" lon="2.66763">
        <ele>78</ele>
        <time>2023-09-20T10:43:58.592+00:00</time>
      </trkpt>
      <trkpt lat="48.33407" lon="2.66764">
        <ele>80</ele>
        <time>2023-09-20T10:44:03.606+00:00</time>
      </trkpt>
      <trkpt lat="48.33402" lon="2.66763">
        <ele>81</ele>
        <time>2023-09-20T10:44:08.599+00:00</time>
      </trkpt>
      <trkpt lat="48.33397" lon="2.66763">
        <ele>81</ele>
        <time>2023-09-20T10:44:13.611+00:00</time>
      </trkpt>
      <trkpt lat="48.33391" lon="2.66765">
        <ele>81</ele>
        <time>2023-09-20T10:44:18.616+00:00</time>
      </trkpt>
      <trkpt lat="48.33385" lon="2.66765">
        <ele>81</ele>
        <time>2023-09-20T10:44:23.586+00:00</time>
      </trkpt>
      <trkpt lat="48.3338" lon="2.66766">
        <ele>81</ele>
        <time>2023-09-20T10:44:28.592+00:00</time>
      </trkpt>
      <trkpt lat="48.33374" lon="2.66765">
        <ele>83</ele>
        <time>2023-09-20T10:44:33.592+00:00</time>
      </trkpt>
      <trkpt lat="48.33368" lon="2.66765">
        <ele>83</ele>
        <time>2023-09-20T10:44:38.615+00:00</time>
      </trkpt>
      <trkpt lat="48.33361" lon="2.66767">
        <ele>83</ele>
        <time>2023-09-20T10:44:43.598+00:00</time>
      </trkpt>
      <trkpt lat="48.33355" lon="2.66771">
        <ele>83</ele>
        <time>2023-09-20T10:44:48.600+00:00</time>
      </trkpt>
      <trkpt lat="48.33349" lon="2.66775">
        <ele>83</ele>
        <time>2023-09-20T10:44:53.609+00:00</time>
      </trkpt>
      <trkpt lat="48.33345" lon="2.6678">
        <ele>82</ele>
        <time>2023-09-20T10:44:58.598+00:00</time>
      </trkpt>
      <trkpt lat="48.33342" lon="2.66785">
        <ele>82</ele>
        <time>2023-09-20T10:45:03.587+00:00</time>
      </trkpt>
      <trkpt lat="48.33339" lon="2.66795">
        <ele>81</ele>
        <time>2023-09-20T10:45:08.603+00:00</time>
      </trkpt>
      <trkpt lat="48.33336" lon="2.66798">
        <ele>81</ele>
        <time>2023-09-20T10:45:13.607+00:00</time>
      </trkpt>
      <trkpt lat="48.33331" lon="2.66805">
        <ele>81</ele>
        <time>2023-09-20T10:45:18.593+00:00</time>
      </trkpt>
      <trkpt lat="48.33326" lon="2.66816">
        <ele>81</ele>
        <time>2023-09-20T10:45:23.597+00:00</time>
      </trkpt>
      <trkpt lat="48.33324" lon="2.6682">
        <ele>81</ele>
        <time>2023-09-20T10:45:28.593+00:00</time>
      </trkpt>
      <trkpt lat="48.33321" lon="2.66828">
        <ele>81</ele>
        <time>2023-09-20T10:45:33.599+00:00</time>
      </trkpt>
      <trkpt lat="48.33316" lon="2.66834">
        <ele>78</ele>
        <time>2023-09-20T10:45:37.591+00:00</time>
      </trkpt>
      <trkpt lat="48.33312" lon="2.66843">
        <ele>78</ele>
        <time>2023-09-20T10:45:42.594+00:00</time>
      </trkpt>
      <trkpt lat="48.33307" lon="2.66849">
        <ele>79</ele>
        <time>2023-09-20T10:45:47.590+00:00</time>
      </trkpt>
      <trkpt lat="48.33304" lon="2.66856">
        <ele>79</ele>
        <time>2023-09-20T10:45:52.594+00:00</time>
      </trkpt>
      <trkpt lat="48.33301" lon="2.66864">
        <ele>79</ele>
        <time>2023-09-20T10:45:57.593+00:00</time>
      </trkpt>
      <trkpt lat="48.33296" lon="2.66872">
        <ele>79</ele>
        <time>2023-09-20T10:46:02.604+00:00</time>
      </trkpt>
      <trkpt lat="48.33289" lon="2.6688">
        <ele>79</ele>
        <time>2023-09-20T10:46:07.595+00:00</time>
      </trkpt>
      <trkpt lat="48.33286" lon="2.66886">
        <ele>79</ele>
        <time>2023-09-20T10:46:12.577+00:00</time>
      </trkpt>
      <trkpt lat="48.33282" lon="2.66892">
        <ele>79</ele>
        <time>2023-09-20T10:46:16.614+00:00</time>
      </trkpt>
      <trkpt lat="48.33277" lon="2.66902">
        <ele>79</ele>
        <time>2023-09-20T10:46:21.584+00:00</time>
      </trkpt>
      <trkpt lat="48.33273" lon="2.66908">
        <ele>81</ele>
        <time>2023-09-20T10:46:25.590+00:00</time>
      </trkpt>
      <trkpt lat="48.33271" lon="2.66915">
        <ele>81</ele>
        <time>2023-09-20T10:46:30.604+00:00</time>
      </trkpt>
      <trkpt lat="48.33268" lon="2.66923">
        <ele>81</ele>
        <time>2023-09-20T10:46:35.572+00:00</time>
      </trkpt>
      <trkpt lat="48.33267" lon="2.66931">
        <ele>84</ele>
        <time>2023-09-20T10:46:39.605+00:00</time>
      </trkpt>
      <trkpt lat="48.33268" lon="2.66938">
        <ele>84</ele>
        <time>2023-09-20T10:46:44.591+00:00</time>
      </trkpt>
      <trkpt lat="48.33266" lon="2.66948">
        <ele>84</ele>
        <time>2023-09-20T10:46:49.607+00:00</time>
      </trkpt>
      <trkpt lat="48.33261" lon="2.66958">
        <ele>82</ele>
        <time>2023-09-20T10:46:54.596+00:00</time>
      </trkpt>
      <trkpt lat="48.33258" lon="2.66968">
        <ele>83</ele>
        <time>2023-09-20T10:46:59.614+00:00</time>
      </trkpt>
      <trkpt lat="48.33256" lon="2.66975">
        <ele>83</ele>
        <time>2023-09-20T10:47:04.596+00:00</time>
      </trkpt>
      <trkpt lat="48.33255" lon="2.66984">
        <ele>83</ele>
        <time>2023-09-20T10:47:09.576+00:00</time>
      </trkpt>
      <trkpt lat="48.33254" lon="2.66992">
        <ele>83</ele>
        <time>2023-09-20T10:47:13.608+00:00</time>
      </trkpt>
      <trkpt lat="48.33252" lon="2.66998">
        <ele>83</ele>
        <time>2023-09-20T10:47:17.592+00:00</time>
      </trkpt>
      <trkpt lat="48.3325" lon="2.67005">
        <ele>83</ele>
        <time>2023-09-20T10:47:22.610+00:00</time>
      </trkpt>
      <trkpt lat="48.33248" lon="2.67014">
        <ele>83</ele>
        <time>2023-09-20T10:47:27.604+00:00</time>
      </trkpt>
      <trkpt lat="48.33246" lon="2.67024">
        <ele>82</ele>
        <time>2023-09-20T10:47:32.613+00:00</time>
      </trkpt>
      <trkpt lat="48.33245" lon="2.67033">
        <ele>82</ele>
        <time>2023-09-20T10:47:37.599+00:00</time>
      </trkpt>
      <trkpt lat="48.33244" lon="2.6704">
        <ele>82</ele>
        <time>2023-09-20T10:47:41.612+00:00</time>
      </trkpt>
      <trkpt lat="48.33242" lon="2.67045">
        <ele>81</ele>
        <time>2023-09-20T10:47:46.600+00:00</time>
      </trkpt>
      <trkpt lat="48.33237" lon="2.67054">
        <ele>81</ele>
        <time>2023-09-20T10:47:50.596+00:00</time>
      </trkpt>
      <trkpt lat="48.33234" lon="2.67063">
        <ele>79</ele>
        <time>2023-09-20T10:47:54.605+00:00</time>
      </trkpt>
      <trkpt lat="48.33232" lon="2.67074">
        <ele>80</ele>
        <time>2023-09-20T10:47:59.594+00:00</time>
      </trkpt>
      <trkpt lat="48.3323" lon="2.67082">
        <ele>80</ele>
        <time>2023-09-20T10:48:03.604+00:00</time>
      </trkpt>
      <trkpt lat="48.33229" lon="2.67092">
        <ele>80</ele>
        <time>2023-09-20T10:48:08.594+00:00</time>
      </trkpt>
      <trkpt lat="48.33226" lon="2.67098">
        <ele>81</ele>
        <time>2023-09-20T10:48:12.590+00:00</time>
      </trkpt>
      <trkpt lat="48.33222" lon="2.67105">
        <ele>81</ele>
        <time>2023-09-20T10:48:16.599+00:00</time>
      </trkpt>
      <trkpt lat="48.33219" lon="2.67112">
        <ele>81</ele>
        <time>2023-09-20T10:48:21.604+00:00</time>
      </trkpt>
      <trkpt lat="48.33216" lon="2.6712">
        <ele>81</ele>
        <time>2023-09-20T10:48:26.579+00:00</time>
      </trkpt>
      <trkpt lat="48.33216" lon="2.67128">
        <ele>83</ele>
        <time>2023-09-20T10:48:30.596+00:00</time>
      </trkpt>
      <trkpt lat="48.33215" lon="2.67136">
        <ele>83</ele>
        <time>2023-09-20T10:48:35.599+00:00</time>
      </trkpt>
      <trkpt lat="48.33215" lon="2.67143">
        <ele>83</ele>
        <time>2023-09-20T10:48:40.576+00:00</time>
      </trkpt>
      <trkpt lat="48.33212" lon="2.67148">
        <ele>83</ele>
        <time>2023-09-20T10:48:44.592+00:00</time>
      </trkpt>
      <trkpt lat="48.3321" lon="2.67152">
        <ele>83</ele>
        <time>2023-09-20T10:48:49.580+00:00</time>
      </trkpt>
      <trkpt lat="48.33208" lon="2.67156">
        <ele>83</ele>
        <time>2023-09-20T10:48:53.591+00:00</time>
      </trkpt>
      <trkpt lat="48.33205" lon="2.67162">
        <ele>83</ele>
        <time>2023-09-20T10:48:57.619+00:00</time>
      </trkpt>
      <trkpt lat="48.33202" lon="2.6717">
        <ele>83</ele>
        <time>2023-09-20T10:49:02.603+00:00</time>
      </trkpt>
      <trkpt lat="48.33198" lon="2.6718">
        <ele>83</ele>
        <time>2023-09-20T10:49:07.598+00:00</time>
      </trkpt>
      <trkpt lat="48.33194" lon="2.67187">
        <ele>83</ele>
        <time>2023-09-20T10:49:11.589+00:00</time>
      </trkpt>
      <trkpt lat="48.33191" lon="2.67195">
        <ele>83</ele>
        <time>2023-09-20T10:49:16.575+00:00</time>
      </trkpt>
      <trkpt lat="48.33189" lon="2.67202">
        <ele>83</ele>
        <time>2023-09-20T10:49:20.595+00:00</time>
      </trkpt>
      <trkpt lat="48.33186" lon="2.67212">
        <ele>84</ele>
        <time>2023-09-20T10:49:25.596+00:00</time>
      </trkpt>
      <trkpt lat="48.33183" lon="2.67217">
        <ele>84</ele>
        <time>2023-09-20T10:49:29.611+00:00</time>
      </trkpt>
      <trkpt lat="48.33181" lon="2.67227">
        <ele>84</ele>
        <time>2023-09-20T10:49:34.598+00:00</time>
      </trkpt>
      <trkpt lat="48.33179" lon="2.67234">
        <ele>81</ele>
        <time>2023-09-20T10:49:38.608+00:00</time>
      </trkpt>
      <trkpt lat="48.33176" lon="2.67242">
        <ele>81</ele>
        <time>2023-09-20T10:49:43.591+00:00</time>
      </trkpt>
      <trkpt lat="48.33175" lon="2.67247">
        <ele>81</ele>
        <time>2023-09-20T10:49:47.602+00:00</time>
      </trkpt>
      <trkpt lat="48.33171" lon="2.67255">
        <ele>81</ele>
        <time>2023-09-20T10:49:52.575+00:00</time>
      </trkpt>
      <trkpt lat="48.33165" lon="2.67264">
        <ele>81</ele>
        <time>2023-09-20T10:49:57.609+00:00</time>
      </trkpt>
      <trkpt lat="48.33164" lon="2.6727">
        <ele>83</ele>
        <time>2023-09-20T10:50:01.604+00:00</time>
      </trkpt>
      <trkpt lat="48.33161" lon="2.67279">
        <ele>83</ele>
        <time>2023-09-20T10:50:06.577+00:00</time>
      </trkpt>
      <trkpt lat="48.33157" lon="2.67287">
        <ele>83</ele>
        <time>2023-09-20T10:50:10.596+00:00</time>
      </trkpt>
      <trkpt lat="48.33155" lon="2.67294">
        <ele>84</ele>
        <time>2023-09-20T10:50:15.599+00:00</time>
      </trkpt>
      <trkpt lat="48.33154" lon="2.67304">
        <ele>84</ele>
        <time>2023-09-20T10:50:20.585+00:00</time>
      </trkpt>
      <trkpt lat="48.33151" lon="2.67309">
        <ele>82</ele>
        <time>2023-09-20T10:50:24.602+00:00</time>
      </trkpt>
      <trkpt lat="48.33147" lon="2.67314">
        <ele>82</ele>
        <time>2023-09-20T10:50:29.593+00:00</time>
      </trkpt>
      <trkpt lat="48.33143" lon="2.67321">
        <ele>83</ele>
        <time>2023-09-20T10:50:33.598+00:00</time>
      </trkpt>
      <trkpt lat="48.33139" lon="2.67329">
        <ele>83</ele>
        <time>2023-09-20T10:50:38.596+00:00</time>
      </trkpt>
      <trkpt lat="48.33135" lon="2.67338">
        <ele>83</ele>
        <time>2023-09-20T10:50:43.593+00:00</time>
      </trkpt>
      <trkpt lat="48.33132" lon="2.67347">
        <ele>83</ele>
        <time>2023-09-20T10:50:48.608+00:00</time>
      </trkpt>
      <trkpt lat="48.3313" lon="2.67356">
        <ele>83</ele>
        <time>2023-09-20T10:50:53.594+00:00</time>
      </trkpt>
      <trkpt lat="48.33129" lon="2.67364">
        <ele>83</ele>
        <time>2023-09-20T10:50:58.616+00:00</time>
      </trkpt>
      <trkpt lat="48.33127" lon="2.67373">
        <ele>83</ele>
        <time>2023-09-20T10:51:03.610+00:00</time>
      </trkpt>
      <trkpt lat="48.33124" lon="2.67381">
        <ele>82</ele>
        <time>2023-09-20T10:51:08.601+00:00</time>
      </trkpt>
      <trkpt lat="48.3312" lon="2.67387">
        <ele>82</ele>
        <time>2023-09-20T10:51:13.591+00:00</time>
      </trkpt>
      <trkpt lat="48.33113" lon="2.67398">
        <ele>82</ele>
        <time>2023-09-20T10:51:18.614+00:00</time>
      </trkpt>
      <trkpt lat="48.33108" lon="2.67409">
        <ele>84</ele>
        <time>2023-09-20T10:51:23.607+00:00</time>
      </trkpt>
      <trkpt lat="48.33105" lon="2.67417">
        <ele>84</ele>
        <time>2023-09-20T10:51:28.609+00:00</time>
      </trkpt>
      <trkpt lat="48.33103" lon="2.67423">
        <ele>84</ele>
        <time>2023-09-20T10:51:33.602+00:00</time>
      </trkpt>
      <trkpt lat="48.331" lon="2.6743">
        <ele>84</ele>
        <time>2023-09-20T10:51:38.594+00:00</time>
      </trkpt>
      <trkpt lat="48.33097" lon="2.67437">
        <ele>84</ele>
        <time>2023-09-20T10:51:43.600+00:00</time>
      </trkpt>
      <trkpt lat="48.33093" lon="2.67447">
        <ele>84</ele>
        <time>2023-09-20T10:51:48.615+00:00</time>
      </trkpt>
      <trkpt lat="48.33088" lon="2.67456">
        <ele>84</ele>
        <time>2023-09-20T10:51:53.595+00:00</time>
      </trkpt>
      <trkpt lat="48.33084" lon="2.67462">
        <ele>84</ele>
        <time>2023-09-20T10:51:57.614+00:00</time>
      </trkpt>
      <trkpt lat="48.33079" lon="2.67468">
        <ele>84</ele>
        <time>2023-09-20T10:52:02.594+00:00</time>
      </trkpt>
      <trkpt lat="48.33074" lon="2.67475">
        <ele>84</ele>
        <time>2023-09-20T10:52:07.615+00:00</time>
      </trkpt>
      <trkpt lat="48.33071" lon="2.67483">
        <ele>84</ele>
        <time>2023-09-20T10:52:12.573+00:00</time>
      </trkpt>
      <trkpt lat="48.33067" lon="2.67487">
        <ele>82</ele>
        <time>2023-09-20T10:52:16.606+00:00</time>
      </trkpt>
      <trkpt lat="48.33062" lon="2.6749">
        <ele>82</ele>
        <time>2023-09-20T10:52:21.603+00:00</time>
      </trkpt>
      <trkpt lat="48.33058" lon="2.67494">
        <ele>82</ele>
        <time>2023-09-20T10:52:26.608+00:00</time>
      </trkpt>
      <trkpt lat="48.33052" lon="2.67501">
        <ele>82</ele>
        <time>2023-09-20T10:52:31.593+00:00</time>
      </trkpt>
      <trkpt lat="48.33048" lon="2.67509">
        <ele>82</ele>
        <time>2023-09-20T10:52:35.611+00:00</time>
      </trkpt>
      <trkpt lat="48.33044" lon="2.67516">
        <ele>83</ele>
        <time>2023-09-20T10:52:40.606+00:00</time>
      </trkpt>
      <trkpt lat="48.33041" lon="2.67523">
        <ele>79</ele>
        <time>2023-09-20T10:52:45.604+00:00</time>
      </trkpt>
      <trkpt lat="48.33036" lon="2.67531">
        <ele>79</ele>
        <time>2023-09-20T10:52:50.606+00:00</time>
      </trkpt>
      <trkpt lat="48.33034" lon="2.67535">
        <ele>79</ele>
        <time>2023-09-20T10:52:54.614+00:00</time>
      </trkpt>
      <trkpt lat="48.33028" lon="2.67539">
        <ele>79</ele>
        <time>2023-09-20T10:52:59.595+00:00</time>
      </trkpt>
      <trkpt lat="48.33023" lon="2.67537">
        <ele>79</ele>
        <time>2023-09-20T10:53:04.579+00:00</time>
      </trkpt>
      <trkpt lat="48.33019" lon="2.67534">
        <ele>79</ele>
        <time>2023-09-20T10:53:08.602+00:00</time>
      </trkpt>
      <trkpt lat="48.33013" lon="2.67535">
        <ele>76</ele>
        <time>2023-09-20T10:53:13.605+00:00</time>
      </trkpt>
      <trkpt lat="48.33008" lon="2.67539">
        <ele>76</ele>
        <time>2023-09-20T10:53:18.606+00:00</time>
      </trkpt>
      <trkpt lat="48.33005" lon="2.67544">
        <ele>77</ele>
        <time>2023-09-20T10:53:22.603+00:00</time>
      </trkpt>
      <trkpt lat="48.33002" lon="2.67549">
        <ele>77</ele>
        <time>2023-09-20T10:53:27.601+00:00</time>
      </trkpt>
      <trkpt lat="48.32999" lon="2.67557">
        <ele>77</ele>
        <time>2023-09-20T10:53:32.584+00:00</time>
      </trkpt>
      <trkpt lat="48.32996" lon="2.67563">
        <ele>77</ele>
        <time>2023-09-20T10:53:36.593+00:00</time>
      </trkpt>
      <trkpt lat="48.32992" lon="2.67574">
        <ele>79</ele>
        <time>2023-09-20T10:53:41.607+00:00</time>
      </trkpt>
      <trkpt lat="48.32987" lon="2.67585">
        <ele>79</ele>
        <time>2023-09-20T10:53:46.608+00:00</time>
      </trkpt>
      <trkpt lat="48.32985" lon="2.67596">
        <ele>77</ele>
        <time>2023-09-20T10:53:51.590+00:00</time>
      </trkpt>
      <trkpt lat="48.32983" lon="2.67604">
        <ele>77</ele>
        <time>2023-09-20T10:53:55.585+00:00</time>
      </trkpt>
      <trkpt lat="48.32981" lon="2.67613">
        <ele>77</ele>
        <time>2023-09-20T10:53:59.602+00:00</time>
      </trkpt>
      <trkpt lat="48.32979" lon="2.67623">
        <ele>77</ele>
        <time>2023-09-20T10:54:04.590+00:00</time>
      </trkpt>
      <trkpt lat="48.32977" lon="2.67627">
        <ele>77</ele>
        <time>2023-09-20T10:54:08.593+00:00</time>
      </trkpt>
      <trkpt lat="48.32974" lon="2.67634">
        <ele>77</ele>
        <time>2023-09-20T10:54:12.610+00:00</time>
      </trkpt>
      <trkpt lat="48.32972" lon="2.67642">
        <ele>77</ele>
        <time>2023-09-20T10:54:16.612+00:00</time>
      </trkpt>
      <trkpt lat="48.32968" lon="2.67652">
        <ele>77</ele>
        <time>2023-09-20T10:54:21.592+00:00</time>
      </trkpt>
      <trkpt lat="48.32965" lon="2.6766">
        <ele>78</ele>
        <time>2023-09-20T10:54:25.592+00:00</time>
      </trkpt>
      <trkpt lat="48.32962" lon="2.67669">
        <ele>78</ele>
        <time>2023-09-20T10:54:30.610+00:00</time>
      </trkpt>
      <trkpt lat="48.32961" lon="2.67678">
        <ele>78</ele>
        <time>2023-09-20T10:54:35.593+00:00</time>
      </trkpt>
      <trkpt lat="48.32958" lon="2.67689">
        <ele>77</ele>
        <time>2023-09-20T10:54:40.614+00:00</time>
      </trkpt>
      <trkpt lat="48.32956" lon="2.67699">
        <ele>77</ele>
        <time>2023-09-20T10:54:45.605+00:00</time>
      </trkpt>
      <trkpt lat="48.32952" lon="2.67708">
        <ele>77</ele>
        <time>2023-09-20T10:54:49.597+00:00</time>
      </trkpt>
      <trkpt lat="48.3295" lon="2.67714">
        <ele>77</ele>
        <time>2023-09-20T10:54:54.587+00:00</time>
      </trkpt>
      <trkpt lat="48.32947" lon="2.67721">
        <ele>77</ele>
        <time>2023-09-20T10:54:58.609+00:00</time>
      </trkpt>
      <trkpt lat="48.32945" lon="2.67729">
        <ele>77</ele>
        <time>2023-09-20T10:55:03.610+00:00</time>
      </trkpt>
      <trkpt lat="48.32941" lon="2.67736">
        <ele>77</ele>
        <time>2023-09-20T10:55:08.596+00:00</time>
      </trkpt>
      <trkpt lat="48.32936" lon="2.67743">
        <ele>77</ele>
        <time>2023-09-20T10:55:13.602+00:00</time>
      </trkpt>
      <trkpt lat="48.32935" lon="2.67753">
        <ele>77</ele>
        <time>2023-09-20T10:55:18.584+00:00</time>
      </trkpt>
      <trkpt lat="48.32934" lon="2.67762">
        <ele>77</ele>
        <time>2023-09-20T10:55:22.590+00:00</time>
      </trkpt>
      <trkpt lat="48.32934" lon="2.67771">
        <ele>77</ele>
        <time>2023-09-20T10:55:26.590+00:00</time>
      </trkpt>
      <trkpt lat="48.32935" lon="2.67781">
        <ele>77</ele>
        <time>2023-09-20T10:55:31.587+00:00</time>
      </trkpt>
      <trkpt lat="48.32937" lon="2.67793">
        <ele>77</ele>
        <time>2023-09-20T10:55:36.579+00:00</time>
      </trkpt>
      <trkpt lat="48.32939" lon="2.67801">
        <ele>77</ele>
        <time>2023-09-20T10:55:40.589+00:00</time>
      </trkpt>
      <trkpt lat="48.32941" lon="2.67808">
        <ele>77</ele>
        <time>2023-09-20T10:55:44.605+00:00</time>
      </trkpt>
      <trkpt lat="48.32946" lon="2.67815">
        <ele>77</ele>
        <time>2023-09-20T10:55:49.603+00:00</time>
      </trkpt>
      <trkpt lat="48.32951" lon="2.67822">
        <ele>77</ele>
        <time>2023-09-20T10:55:54.595+00:00</time>
      </trkpt>
      <trkpt lat="48.32955" lon="2.6783">
        <ele>77</ele>
        <time>2023-09-20T10:55:59.565+00:00</time>
      </trkpt>
      <trkpt lat="48.32972" lon="2.67839">
        <ele>81</ele>
        <time>2023-09-20T10:56:03.573+00:00</time>
      </trkpt>
      <trkpt lat="48.32982" lon="2.67845">
        <ele>81</ele>
        <time>2023-09-20T10:56:08.006+00:00</time>
      </trkpt>
      <trkpt lat="48.32982" lon="2.67851">
        <ele>79</ele>
        <time>2023-09-20T10:56:12.513+00:00</time>
      </trkpt>
      <trkpt lat="48.32981" lon="2.6786">
        <ele>79</ele>
        <time>2023-09-20T10:56:17.036+00:00</time>
      </trkpt>
      <trkpt lat="48.32982" lon="2.67866">
        <ele>79</ele>
        <time>2023-09-20T10:56:21.640+00:00</time>
      </trkpt>
      <trkpt lat="48.32983" lon="2.67872">
        <ele>79</ele>
        <time>2023-09-20T10:56:26.147+00:00</time>
      </trkpt>
      <trkpt lat="48.32985" lon="2.6788">
        <ele>79</ele>
        <time>2023-09-20T10:56:30.154+00:00</time>
      </trkpt>
      <trkpt lat="48.32987" lon="2.67888">
        <ele>79</ele>
        <time>2023-09-20T10:56:34.659+00:00</time>
      </trkpt>
      <trkpt lat="48.32986" lon="2.67896">
        <ele>79</ele>
        <time>2023-09-20T10:56:38.664+00:00</time>
      </trkpt>
      <trkpt lat="48.32986" lon="2.67905">
        <ele>78</ele>
        <time>2023-09-20T10:56:42.693+00:00</time>
      </trkpt>
      <trkpt lat="48.32988" lon="2.67915">
        <ele>78</ele>
        <time>2023-09-20T10:56:47.312+00:00</time>
      </trkpt>
      <trkpt lat="48.3299" lon="2.67923">
        <ele>78</ele>
        <time>2023-09-20T10:56:51.271+00:00</time>
      </trkpt>
      <trkpt lat="48.32993" lon="2.67927">
        <ele>78</ele>
        <time>2023-09-20T10:56:55.551+00:00</time>
      </trkpt>
      <trkpt lat="48.32997" lon="2.67931">
        <ele>78</ele>
        <time>2023-09-20T10:56:59.291+00:00</time>
      </trkpt>
      <trkpt lat="48.33" lon="2.67937">
        <ele>79</ele>
        <time>2023-09-20T10:57:03.951+00:00</time>
      </trkpt>
      <trkpt lat="48.33001" lon="2.67943">
        <ele>79</ele>
        <time>2023-09-20T10:57:07.930+00:00</time>
      </trkpt>
      <trkpt lat="48.33001" lon="2.67948">
        <ele>79</ele>
        <time>2023-09-20T10:57:12.410+00:00</time>
      </trkpt>
      <trkpt lat="48.33" lon="2.67955">
        <ele>79</ele>
        <time>2023-09-20T10:57:17.133+00:00</time>
      </trkpt>
      <trkpt lat="48.33001" lon="2.67964">
        <ele>79</ele>
        <time>2023-09-20T10:57:21.353+00:00</time>
      </trkpt>
      <trkpt lat="48.33003" lon="2.67972">
        <ele>79</ele>
        <time>2023-09-20T10:57:25.473+00:00</time>
      </trkpt>
      <trkpt lat="48.33006" lon="2.6798">
        <ele>79</ele>
        <time>2023-09-20T10:57:30.459+00:00</time>
      </trkpt>
      <trkpt lat="48.33009" lon="2.67986">
        <ele>79</ele>
        <time>2023-09-20T10:57:34.492+00:00</time>
      </trkpt>
      <trkpt lat="48.33011" lon="2.67994">
        <ele>79</ele>
        <time>2023-09-20T10:57:38.613+00:00</time>
      </trkpt>
      <trkpt lat="48.33013" lon="2.68002">
        <ele>79</ele>
        <time>2023-09-20T10:57:42.714+00:00</time>
      </trkpt>
      <trkpt lat="48.33019" lon="2.68008">
        <ele>81</ele>
        <time>2023-09-20T10:57:47.374+00:00</time>
      </trkpt>
      <trkpt lat="48.33026" lon="2.68013">
        <ele>81</ele>
        <time>2023-09-20T10:57:51.314+00:00</time>
      </trkpt>
      <trkpt lat="48.33029" lon="2.6802">
        <ele>81</ele>
        <time>2023-09-20T10:57:55.952+00:00</time>
      </trkpt>
      <trkpt lat="48.33031" lon="2.68029">
        <ele>81</ele>
        <time>2023-09-20T10:58:00.511+00:00</time>
      </trkpt>
      <trkpt lat="48.33031" lon="2.68039">
        <ele>81</ele>
        <time>2023-09-20T10:58:04.702+00:00</time>
      </trkpt>
      <trkpt lat="48.33032" lon="2.68049">
        <ele>81</ele>
        <time>2023-09-20T10:58:08.767+00:00</time>
      </trkpt>
      <trkpt lat="48.33034" lon="2.68056">
        <ele>81</ele>
        <time>2023-09-20T10:58:12.725+00:00</time>
      </trkpt>
      <trkpt lat="48.33036" lon="2.68065">
        <ele>81</ele>
        <time>2023-09-20T10:58:17.184+00:00</time>
      </trkpt>
      <trkpt lat="48.33038" lon="2.68073">
        <ele>81</ele>
        <time>2023-09-20T10:58:21.263+00:00</time>
      </trkpt>
      <trkpt lat="48.3304" lon="2.68079">
        <ele>81</ele>
        <time>2023-09-20T10:58:25.361+00:00</time>
      </trkpt>
      <trkpt lat="48.33042" lon="2.68088">
        <ele>82</ele>
        <time>2023-09-20T10:58:29.803+00:00</time>
      </trkpt>
      <trkpt lat="48.33045" lon="2.68095">
        <ele>82</ele>
        <time>2023-09-20T10:58:33.939+00:00</time>
      </trkpt>
      <trkpt lat="48.33047" lon="2.681">
        <ele>83</ele>
        <time>2023-09-20T10:58:38.018+00:00</time>
      </trkpt>
      <trkpt lat="48.33046" lon="2.68106">
        <ele>83</ele>
        <time>2023-09-20T10:58:42.557+00:00</time>
      </trkpt>
      <trkpt lat="48.33048" lon="2.68113">
        <ele>83</ele>
        <time>2023-09-20T10:58:47.115+00:00</time>
      </trkpt>
      <trkpt lat="48.33051" lon="2.6812">
        <ele>83</ele>
        <time>2023-09-20T10:58:51.395+00:00</time>
      </trkpt>
      <trkpt lat="48.33053" lon="2.68127">
        <ele>83</ele>
        <time>2023-09-20T10:58:55.196+00:00</time>
      </trkpt>
      <trkpt lat="48.33055" lon="2.68134">
        <ele>83</ele>
        <time>2023-09-20T10:58:59.580+00:00</time>
      </trkpt>
      <trkpt lat="48.33056" lon="2.68143">
        <ele>83</ele>
        <time>2023-09-20T10:59:04.175+00:00</time>
      </trkpt>
      <trkpt lat="48.33058" lon="2.68149">
        <ele>83</ele>
        <time>2023-09-20T10:59:08.173+00:00</time>
      </trkpt>
      <trkpt lat="48.3306" lon="2.68156">
        <ele>83</ele>
        <time>2023-09-20T10:59:12.232+00:00</time>
      </trkpt>
      <trkpt lat="48.33064" lon="2.68165">
        <ele>83</ele>
        <time>2023-09-20T10:59:17.183+00:00</time>
      </trkpt>
      <trkpt lat="48.33068" lon="2.68173">
        <ele>83</ele>
        <time>2023-09-20T10:59:21.542+00:00</time>
      </trkpt>
      <trkpt lat="48.3307" lon="2.68181">
        <ele>83</ele>
        <time>2023-09-20T10:59:25.746+00:00</time>
      </trkpt>
      <trkpt lat="48.33072" lon="2.6819">
        <ele>83</ele>
        <time>2023-09-20T10:59:30.305+00:00</time>
      </trkpt>
      <trkpt lat="48.33075" lon="2.68197">
        <ele>83</ele>
        <time>2023-09-20T10:59:34.884+00:00</time>
      </trkpt>
      <trkpt lat="48.33078" lon="2.68205">
        <ele>83</ele>
        <time>2023-09-20T10:59:39.505+00:00</time>
      </trkpt>
      <trkpt lat="48.33081" lon="2.68212">
        <ele>83</ele>
        <time>2023-09-20T10:59:43.576+00:00</time>
      </trkpt>
      <trkpt lat="48.33084" lon="2.68221">
        <ele>83</ele>
        <time>2023-09-20T10:59:48.142+00:00</time>
      </trkpt>
      <trkpt lat="48.33086" lon="2.68229">
        <ele>83</ele>
        <time>2023-09-20T10:59:52.022+00:00</time>
      </trkpt>
      <trkpt lat="48.3309" lon="2.68236">
        <ele>84</ele>
        <time>2023-09-20T10:59:56.581+00:00</time>
      </trkpt>
      <trkpt lat="48.33094" lon="2.68243">
        <ele>84</ele>
        <time>2023-09-20T11:00:01.060+00:00</time>
      </trkpt>
      <trkpt lat="48.33097" lon="2.6825">
        <ele>83</ele>
        <time>2023-09-20T11:00:05.497+00:00</time>
      </trkpt>
      <trkpt lat="48.331" lon="2.68257">
        <ele>83</ele>
        <time>2023-09-20T11:00:10.054+00:00</time>
      </trkpt>
      <trkpt lat="48.33102" lon="2.68265">
        <ele>84</ele>
        <time>2023-09-20T11:00:14.583+00:00</time>
      </trkpt>
      <trkpt lat="48.33104" lon="2.68274">
        <ele>84</ele>
        <time>2023-09-20T11:00:19.129+00:00</time>
      </trkpt>
      <trkpt lat="48.33106" lon="2.68282">
        <ele>84</ele>
        <time>2023-09-20T11:00:23.686+00:00</time>
      </trkpt>
      <trkpt lat="48.33109" lon="2.68291">
        <ele>84</ele>
        <time>2023-09-20T11:00:28.206+00:00</time>
      </trkpt>
      <trkpt lat="48.33109" lon="2.683">
        <ele>82</ele>
        <time>2023-09-20T11:00:32.485+00:00</time>
      </trkpt>
      <trkpt lat="48.3311" lon="2.68307">
        <ele>82</ele>
        <time>2023-09-20T11:00:36.206+00:00</time>
      </trkpt>
      <trkpt lat="48.33114" lon="2.68314">
        <ele>82</ele>
        <time>2023-09-20T11:00:40.946+00:00</time>
      </trkpt>
      <trkpt lat="48.33118" lon="2.68322">
        <ele>80</ele>
        <time>2023-09-20T11:00:45.575+00:00</time>
      </trkpt>
      <trkpt lat="48.33121" lon="2.6833">
        <ele>80</ele>
        <time>2023-09-20T11:00:50.367+00:00</time>
      </trkpt>
      <trkpt lat="48.33123" lon="2.68338">
        <ele>80</ele>
        <time>2023-09-20T11:00:54.488+00:00</time>
      </trkpt>
      <trkpt lat="48.33126" lon="2.68344">
        <ele>80</ele>
        <time>2023-09-20T11:00:58.529+00:00</time>
      </trkpt>
      <trkpt lat="48.33129" lon="2.68351">
        <ele>79</ele>
        <time>2023-09-20T11:01:02.731+00:00</time>
      </trkpt>
      <trkpt lat="48.33133" lon="2.68359">
        <ele>79</ele>
        <time>2023-09-20T11:01:07.310+00:00</time>
      </trkpt>
      <trkpt lat="48.33136" lon="2.68367">
        <ele>79</ele>
        <time>2023-09-20T11:01:11.730+00:00</time>
      </trkpt>
      <trkpt lat="48.33137" lon="2.68376">
        <ele>76</ele>
        <time>2023-09-20T11:01:16.360+00:00</time>
      </trkpt>
      <trkpt lat="48.33138" lon="2.68384">
        <ele>76</ele>
        <time>2023-09-20T11:01:20.306+00:00</time>
      </trkpt>
      <trkpt lat="48.33141" lon="2.68394">
        <ele>76</ele>
        <time>2023-09-20T11:01:25.445+00:00</time>
      </trkpt>
      <trkpt lat="48.33147" lon="2.68399">
        <ele>76</ele>
        <time>2023-09-20T11:01:29.417+00:00</time>
      </trkpt>
      <trkpt lat="48.33151" lon="2.6841">
        <ele>75</ele>
        <time>2023-09-20T11:01:34.325+00:00</time>
      </trkpt>
      <trkpt lat="48.33153" lon="2.68418">
        <ele>75</ele>
        <time>2023-09-20T11:01:38.166+00:00</time>
      </trkpt>
      <trkpt lat="48.33156" lon="2.68426">
        <ele>75</ele>
        <time>2023-09-20T11:01:43.320+00:00</time>
      </trkpt>
      <trkpt lat="48.3316" lon="2.68432">
        <ele>74</ele>
        <time>2023-09-20T11:01:47.396+00:00</time>
      </trkpt>
      <trkpt lat="48.33164" lon="2.68439">
        <ele>74</ele>
        <time>2023-09-20T11:01:52.441+00:00</time>
      </trkpt>
      <trkpt lat="48.33167" lon="2.68445">
        <ele>74</ele>
        <time>2023-09-20T11:01:56.364+00:00</time>
      </trkpt>
      <trkpt lat="48.33169" lon="2.68451">
        <ele>74</ele>
        <time>2023-09-20T11:02:00.940+00:00</time>
      </trkpt>
      <trkpt lat="48.33172" lon="2.68457">
        <ele>74</ele>
        <time>2023-09-20T11:02:05.297+00:00</time>
      </trkpt>
      <trkpt lat="48.33175" lon="2.68463">
        <ele>73</ele>
        <time>2023-09-20T11:02:09.307+00:00</time>
      </trkpt>
      <trkpt lat="48.33179" lon="2.68468">
        <ele>73</ele>
        <time>2023-09-20T11:02:13.141+00:00</time>
      </trkpt>
      <trkpt lat="48.33185" lon="2.68474">
        <ele>75</ele>
        <time>2023-09-20T11:02:18.293+00:00</time>
      </trkpt>
      <trkpt lat="48.33189" lon="2.68478">
        <ele>75</ele>
        <time>2023-09-20T11:02:22.367+00:00</time>
      </trkpt>
      <trkpt lat="48.33192" lon="2.68486">
        <ele>75</ele>
        <time>2023-09-20T11:02:27.398+00:00</time>
      </trkpt>
      <trkpt lat="48.33194" lon="2.68494">
        <ele>74</ele>
        <time>2023-09-20T11:02:31.333+00:00</time>
      </trkpt>
      <trkpt lat="48.33198" lon="2.68503">
        <ele>74</ele>
        <time>2023-09-20T11:02:36.304+00:00</time>
      </trkpt>
      <trkpt lat="48.33202" lon="2.6851">
        <ele>74</ele>
        <time>2023-09-20T11:02:40.376+00:00</time>
      </trkpt>
      <trkpt lat="48.33206" lon="2.68518">
        <ele>75</ele>
        <time>2023-09-20T11:02:45.539+00:00</time>
      </trkpt>
      <trkpt lat="48.33209" lon="2.68524">
        <ele>77</ele>
        <time>2023-09-20T11:02:49.477+00:00</time>
      </trkpt>
      <trkpt lat="48.33212" lon="2.68531">
        <ele>77</ele>
        <time>2023-09-20T11:02:54.149+00:00</time>
      </trkpt>
      <trkpt lat="48.33215" lon="2.68538">
        <ele>77</ele>
        <time>2023-09-20T11:02:59.181+00:00</time>
      </trkpt>
      <trkpt lat="48.33219" lon="2.68545">
        <ele>77</ele>
        <time>2023-09-20T11:03:03.714+00:00</time>
      </trkpt>
      <trkpt lat="48.33223" lon="2.68552">
        <ele>77</ele>
        <time>2023-09-20T11:03:08.319+00:00</time>
      </trkpt>
      <trkpt lat="48.33226" lon="2.68557">
        <ele>77</ele>
        <time>2023-09-20T11:03:12.339+00:00</time>
      </trkpt>
      <trkpt lat="48.33232" lon="2.68564">
        <ele>77</ele>
        <time>2023-09-20T11:03:17.365+00:00</time>
      </trkpt>
      <trkpt lat="48.33236" lon="2.6857">
        <ele>78</ele>
        <time>2023-09-20T11:03:21.206+00:00</time>
      </trkpt>
      <trkpt lat="48.33239" lon="2.68579">
        <ele>78</ele>
        <time>2023-09-20T11:03:26.317+00:00</time>
      </trkpt>
      <trkpt lat="48.33241" lon="2.68587">
        <ele>78</ele>
        <time>2023-09-20T11:03:30.429+00:00</time>
      </trkpt>
      <trkpt lat="48.33247" lon="2.68594">
        <ele>78</ele>
        <time>2023-09-20T11:03:35.324+00:00</time>
      </trkpt>
      <trkpt lat="48.33252" lon="2.68601">
        <ele>75</ele>
        <time>2023-09-20T11:03:39.520+00:00</time>
      </trkpt>
      <trkpt lat="48.33257" lon="2.68608">
        <ele>75</ele>
        <time>2023-09-20T11:03:44.460+00:00</time>
      </trkpt>
      <trkpt lat="48.33259" lon="2.68617">
        <ele>75</ele>
        <time>2023-09-20T11:03:48.803+00:00</time>
      </trkpt>
      <trkpt lat="48.3326" lon="2.68625">
        <ele>73</ele>
        <time>2023-09-20T11:03:53.498+00:00</time>
      </trkpt>
      <trkpt lat="48.3326" lon="2.68634">
        <ele>73</ele>
        <time>2023-09-20T11:03:57.913+00:00</time>
      </trkpt>
      <trkpt lat="48.33262" lon="2.68641">
        <ele>73</ele>
        <time>2023-09-20T11:04:02.588+00:00</time>
      </trkpt>
      <trkpt lat="48.33263" lon="2.68645">
        <ele>73</ele>
        <time>2023-09-20T11:04:06.725+00:00</time>
      </trkpt>
      <trkpt lat="48.33261" lon="2.6865">
        <ele>73</ele>
        <time>2023-09-20T11:04:10.800+00:00</time>
      </trkpt>
      <trkpt lat="48.33258" lon="2.68656">
        <ele>73</ele>
        <time>2023-09-20T11:04:15.316+00:00</time>
      </trkpt>
      <trkpt lat="48.33255" lon="2.68662">
        <ele>73</ele>
        <time>2023-09-20T11:04:19.269+00:00</time>
      </trkpt>
      <trkpt lat="48.33251" lon="2.6867">
        <ele>73</ele>
        <time>2023-09-20T11:04:24.517+00:00</time>
      </trkpt>
      <trkpt lat="48.33249" lon="2.68676">
        <ele>73</ele>
        <time>2023-09-20T11:04:28.379+00:00</time>
      </trkpt>
      <trkpt lat="48.33246" lon="2.68681">
        <ele>73</ele>
        <time>2023-09-20T11:04:32.996+00:00</time>
      </trkpt>
      <trkpt lat="48.33243" lon="2.68685">
        <ele>73</ele>
        <time>2023-09-20T11:04:37.071+00:00</time>
      </trkpt>
      <trkpt lat="48.33239" lon="2.68689">
        <ele>73</ele>
        <time>2023-09-20T11:04:41.766+00:00</time>
      </trkpt>
      <trkpt lat="48.33238" lon="2.68693">
        <ele>73</ele>
        <time>2023-09-20T11:04:46.559+00:00</time>
      </trkpt>
      <trkpt lat="48.33238" lon="2.687">
        <ele>73</ele>
        <time>2023-09-20T11:04:50.754+00:00</time>
      </trkpt>
      <trkpt lat="48.33236" lon="2.68708">
        <ele>73</ele>
        <time>2023-09-20T11:04:54.803+00:00</time>
      </trkpt>
      <trkpt lat="48.33232" lon="2.68713">
        <ele>73</ele>
        <time>2023-09-20T11:04:59.053+00:00</time>
      </trkpt>
      <trkpt lat="48.33228" lon="2.68718">
        <ele>73</ele>
        <time>2023-09-20T11:05:03.314+00:00</time>
      </trkpt>
      <trkpt lat="48.33224" lon="2.68722">
        <ele>73</ele>
        <time>2023-09-20T11:05:07.765+00:00</time>
      </trkpt>
      <trkpt lat="48.33219" lon="2.68726">
        <ele>73</ele>
        <time>2023-09-20T11:05:11.785+00:00</time>
      </trkpt>
      <trkpt lat="48.33213" lon="2.68729">
        <ele>73</ele>
        <time>2023-09-20T11:05:16.267+00:00</time>
      </trkpt>
      <trkpt lat="48.33208" lon="2.68734">
        <ele>72</ele>
        <time>2023-09-20T11:05:21.380+00:00</time>
      </trkpt>
      <trkpt lat="48.33204" lon="2.68739">
        <ele>72</ele>
        <time>2023-09-20T11:05:25.219+00:00</time>
      </trkpt>
      <trkpt lat="48.33199" lon="2.68744">
        <ele>72</ele>
        <time>2023-09-20T11:05:29.575+00:00</time>
      </trkpt>
      <trkpt lat="48.33191" lon="2.68751">
        <ele>72</ele>
        <time>2023-09-20T11:05:34.458+00:00</time>
      </trkpt>
      <trkpt lat="48.33186" lon="2.68754">
        <ele>72</ele>
        <time>2023-09-20T11:05:38.434+00:00</time>
      </trkpt>
      <trkpt lat="48.33181" lon="2.68759">
        <ele>72</ele>
        <time>2023-09-20T11:05:42.511+00:00</time>
      </trkpt>
      <trkpt lat="48.33177" lon="2.68764">
        <ele>72</ele>
        <time>2023-09-20T11:05:46.982+00:00</time>
      </trkpt>
      <trkpt lat="48.33172" lon="2.6877">
        <ele>72</ele>
        <time>2023-09-20T11:05:51.528+00:00</time>
      </trkpt>
      <trkpt lat="48.33168" lon="2.68777">
        <ele>72</ele>
        <time>2023-09-20T11:05:56.306+00:00</time>
      </trkpt>
      <trkpt lat="48.33164" lon="2.68781">
        <ele>72</ele>
        <time>2023-09-20T11:06:00.165+00:00</time>
      </trkpt>
      <trkpt lat="48.33161" lon="2.68785">
        <ele>72</ele>
        <time>2023-09-20T11:06:04.587+00:00</time>
      </trkpt>
      <trkpt lat="48.33158" lon="2.6879">
        <ele>72</ele>
        <time>2023-09-20T11:06:08.684+00:00</time>
      </trkpt>
      <trkpt lat="48.33155" lon="2.68797">
        <ele>72</ele>
        <time>2023-09-20T11:06:12.803+00:00</time>
      </trkpt>
      <trkpt lat="48.33152" lon="2.68804">
        <ele>74</ele>
        <time>2023-09-20T11:06:17.424+00:00</time>
      </trkpt>
      <trkpt lat="48.33149" lon="2.68811">
        <ele>74</ele>
        <time>2023-09-20T11:06:21.224+00:00</time>
      </trkpt>
      <trkpt lat="48.33146" lon="2.68817">
        <ele>74</ele>
        <time>2023-09-20T11:06:25.445+00:00</time>
      </trkpt>
      <trkpt lat="48.33143" lon="2.68824">
        <ele>74</ele>
        <time>2023-09-20T11:06:29.606+00:00</time>
      </trkpt>
      <trkpt lat="48.3314" lon="2.68833">
        <ele>74</ele>
        <time>2023-09-20T11:06:33.628+00:00</time>
      </trkpt>
      <trkpt lat="48.33138" lon="2.68842">
        <ele>74</ele>
        <time>2023-09-20T11:06:38.361+00:00</time>
      </trkpt>
      <trkpt lat="48.33138" lon="2.68849">
        <ele>73</ele>
        <time>2023-09-20T11:06:42.566+00:00</time>
      </trkpt>
      <trkpt lat="48.3314" lon="2.68856">
        <ele>73</ele>
        <time>2023-09-20T11:06:47.350+00:00</time>
      </trkpt>
      <trkpt lat="48.33143" lon="2.68862">
        <ele>73</ele>
        <time>2023-09-20T11:06:51.208+00:00</time>
      </trkpt>
      <trkpt lat="48.33143" lon="2.68864">
        <ele>73</ele>
        <time>2023-09-20T11:06:55.750+00:00</time>
      </trkpt>
      <trkpt lat="48.33143" lon="2.6887">
        <ele>73</ele>
        <time>2023-09-20T11:06:59.989+00:00</time>
      </trkpt>
      <trkpt lat="48.33143" lon="2.68877">
        <ele>72</ele>
        <time>2023-09-20T11:07:03.949+00:00</time>
      </trkpt>
      <trkpt lat="48.33143" lon="2.68884">
        <ele>72</ele>
        <time>2023-09-20T11:07:08.147+00:00</time>
      </trkpt>
      <trkpt lat="48.33142" lon="2.68895">
        <ele>72</ele>
        <time>2023-09-20T11:07:12.803+00:00</time>
      </trkpt>
      <trkpt lat="48.33155" lon="2.68949">
        <ele>70</ele>
        <time>2023-09-20T11:07:34.585+00:00</time>
      </trkpt>
      <trkpt lat="48.33158" lon="2.68952">
        <ele>70</ele>
        <time>2023-09-20T11:07:38.583+00:00</time>
      </trkpt>
      <trkpt lat="48.33159" lon="2.68952">
        <ele>70</ele>
        <time>2023-09-20T11:07:43.006+00:00</time>
      </trkpt>
      <trkpt lat="48.3316" lon="2.68955">
        <ele>70</ele>
        <time>2023-09-20T11:07:47.263+00:00</time>
      </trkpt>
      <trkpt lat="48.33163" lon="2.68962">
        <ele>70</ele>
        <time>2023-09-20T11:07:52.248+00:00</time>
      </trkpt>
      <trkpt lat="48.33166" lon="2.68969">
        <ele>70</ele>
        <time>2023-09-20T11:07:56.003+00:00</time>
      </trkpt>
      <trkpt lat="48.33169" lon="2.68975">
        <ele>70</ele>
        <time>2023-09-20T11:08:00.323+00:00</time>
      </trkpt>
      <trkpt lat="48.33171" lon="2.68983">
        <ele>70</ele>
        <time>2023-09-20T11:08:04.424+00:00</time>
      </trkpt>
      <trkpt lat="48.33174" lon="2.68991">
        <ele>70</ele>
        <time>2023-09-20T11:08:08.845+00:00</time>
      </trkpt>
      <trkpt lat="48.33177" lon="2.68997">
        <ele>70</ele>
        <time>2023-09-20T11:08:13.165+00:00</time>
      </trkpt>
      <trkpt lat="48.33181" lon="2.69004">
        <ele>70</ele>
        <time>2023-09-20T11:08:17.625+00:00</time>
      </trkpt>
      <trkpt lat="48.33184" lon="2.69011">
        <ele>70</ele>
        <time>2023-09-20T11:08:22.126+00:00</time>
      </trkpt>
      <trkpt lat="48.33187" lon="2.69018">
        <ele>70</ele>
        <time>2023-09-20T11:08:26.228+00:00</time>
      </trkpt>
      <trkpt lat="48.3319" lon="2.69028">
        <ele>70</ele>
        <time>2023-09-20T11:08:30.989+00:00</time>
      </trkpt>
      <trkpt lat="48.33192" lon="2.69036">
        <ele>70</ele>
        <time>2023-09-20T11:08:35.289+00:00</time>
      </trkpt>
      <trkpt lat="48.33195" lon="2.69042">
        <ele>70</ele>
        <time>2023-09-20T11:08:39.570+00:00</time>
      </trkpt>
      <trkpt lat="48.33199" lon="2.6905">
        <ele>70</ele>
        <time>2023-09-20T11:08:44.152+00:00</time>
      </trkpt>
      <trkpt lat="48.33202" lon="2.69058">
        <ele>70</ele>
        <time>2023-09-20T11:08:48.072+00:00</time>
      </trkpt>
      <trkpt lat="48.33206" lon="2.69067">
        <ele>70</ele>
        <time>2023-09-20T11:08:52.853+00:00</time>
      </trkpt>
      <trkpt lat="48.33211" lon="2.69073">
        <ele>70</ele>
        <time>2023-09-20T11:08:57.428+00:00</time>
      </trkpt>
      <trkpt lat="48.33214" lon="2.69079">
        <ele>70</ele>
        <time>2023-09-20T11:09:01.570+00:00</time>
      </trkpt>
      <trkpt lat="48.33217" lon="2.69085">
        <ele>70</ele>
        <time>2023-09-20T11:09:05.734+00:00</time>
      </trkpt>
      <trkpt lat="48.33221" lon="2.69092">
        <ele>70</ele>
        <time>2023-09-20T11:09:10.240+00:00</time>
      </trkpt>
      <trkpt lat="48.33224" lon="2.69099">
        <ele>71</ele>
        <time>2023-09-20T11:09:14.334+00:00</time>
      </trkpt>
      <trkpt lat="48.33229" lon="2.69106">
        <ele>71</ele>
        <time>2023-09-20T11:09:18.943+00:00</time>
      </trkpt>
      <trkpt lat="48.33233" lon="2.69112">
        <ele>71</ele>
        <time>2023-09-20T11:09:23.081+00:00</time>
      </trkpt>
      <trkpt lat="48.33236" lon="2.6912">
        <ele>71</ele>
        <time>2023-09-20T11:09:27.398+00:00</time>
      </trkpt>
      <trkpt lat="48.33239" lon="2.69128">
        <ele>72</ele>
        <time>2023-09-20T11:09:32.280+00:00</time>
      </trkpt>
      <trkpt lat="48.33242" lon="2.69136">
        <ele>72</ele>
        <time>2023-09-20T11:09:36.312+00:00</time>
      </trkpt>
      <trkpt lat="48.33245" lon="2.69142">
        <ele>72</ele>
        <time>2023-09-20T11:09:40.334+00:00</time>
      </trkpt>
      <trkpt lat="48.3325" lon="2.69148">
        <ele>72</ele>
        <time>2023-09-20T11:09:44.944+00:00</time>
      </trkpt>
      <trkpt lat="48.33255" lon="2.69153">
        <ele>72</ele>
        <time>2023-09-20T11:09:49.140+00:00</time>
      </trkpt>
      <trkpt lat="48.33261" lon="2.69158">
        <ele>71</ele>
        <time>2023-09-20T11:09:53.656+00:00</time>
      </trkpt>
      <trkpt lat="48.33265" lon="2.69162">
        <ele>71</ele>
        <time>2023-09-20T11:09:57.972+00:00</time>
      </trkpt>
      <trkpt lat="48.3327" lon="2.69167">
        <ele>71</ele>
        <time>2023-09-20T11:10:02.582+00:00</time>
      </trkpt>
      <trkpt lat="48.33274" lon="2.69173">
        <ele>71</ele>
        <time>2023-09-20T11:10:06.334+00:00</time>
      </trkpt>
      <trkpt lat="48.33277" lon="2.69179">
        <ele>71</ele>
        <time>2023-09-20T11:10:10.698+00:00</time>
      </trkpt>
      <trkpt lat="48.3328" lon="2.69185">
        <ele>69</ele>
        <time>2023-09-20T11:10:15.102+00:00</time>
      </trkpt>
      <trkpt lat="48.33283" lon="2.69192">
        <ele>69</ele>
        <time>2023-09-20T11:10:19.254+00:00</time>
      </trkpt>
      <trkpt lat="48.33284" lon="2.692">
        <ele>69</ele>
        <time>2023-09-20T11:10:23.604+00:00</time>
      </trkpt>
      <trkpt lat="48.33287" lon="2.69206">
        <ele>69</ele>
        <time>2023-09-20T11:10:28.349+00:00</time>
      </trkpt>
      <trkpt lat="48.3329" lon="2.69213">
        <ele>69</ele>
        <time>2023-09-20T11:10:33.067+00:00</time>
      </trkpt>
      <trkpt lat="48.33292" lon="2.69221">
        <ele>72</ele>
        <time>2023-09-20T11:10:37.545+00:00</time>
      </trkpt>
      <trkpt lat="48.33294" lon="2.6923">
        <ele>72</ele>
        <time>2023-09-20T11:10:41.626+00:00</time>
      </trkpt>
      <trkpt lat="48.33296" lon="2.69238">
        <ele>72</ele>
        <time>2023-09-20T11:10:46.375+00:00</time>
      </trkpt>
      <trkpt lat="48.33298" lon="2.69242">
        <ele>72</ele>
        <time>2023-09-20T11:10:50.599+00:00</time>
      </trkpt>
      <trkpt lat="48.33302" lon="2.69245">
        <ele>72</ele>
        <time>2023-09-20T11:10:55.451+00:00</time>
      </trkpt>
      <trkpt lat="48.33306" lon="2.69249">
        <ele>72</ele>
        <time>2023-09-20T11:10:59.607+00:00</time>
      </trkpt>
      <trkpt lat="48.33311" lon="2.69257">
        <ele>72</ele>
        <time>2023-09-20T11:11:04.447+00:00</time>
      </trkpt>
      <trkpt lat="48.33313" lon="2.69267">
        <ele>71</ele>
        <time>2023-09-20T11:11:08.596+00:00</time>
      </trkpt>
      <trkpt lat="48.33314" lon="2.69275">
        <ele>71</ele>
        <time>2023-09-20T11:11:13.196+00:00</time>
      </trkpt>
      <trkpt lat="48.33316" lon="2.69283">
        <ele>71</ele>
        <time>2023-09-20T11:11:17.571+00:00</time>
      </trkpt>
      <trkpt lat="48.33317" lon="2.69291">
        <ele>71</ele>
        <time>2023-09-20T11:11:21.602+00:00</time>
      </trkpt>
      <trkpt lat="48.3332" lon="2.69298">
        <ele>72</ele>
        <time>2023-09-20T11:11:26.365+00:00</time>
      </trkpt>
      <trkpt lat="48.33323" lon="2.69306">
        <ele>72</ele>
        <time>2023-09-20T11:11:30.610+00:00</time>
      </trkpt>
      <trkpt lat="48.33325" lon="2.69317">
        <ele>72</ele>
        <time>2023-09-20T11:11:35.333+00:00</time>
      </trkpt>
      <trkpt lat="48.33328" lon="2.69327">
        <ele>71</ele>
        <time>2023-09-20T11:11:40.387+00:00</time>
      </trkpt>
      <trkpt lat="48.33332" lon="2.69335">
        <ele>71</ele>
        <time>2023-09-20T11:11:44.591+00:00</time>
      </trkpt>
      <trkpt lat="48.33336" lon="2.69344">
        <ele>71</ele>
        <time>2023-09-20T11:11:49.242+00:00</time>
      </trkpt>
      <trkpt lat="48.33339" lon="2.69355">
        <ele>70</ele>
        <time>2023-09-20T11:11:54.243+00:00</time>
      </trkpt>
      <trkpt lat="48.33342" lon="2.69362">
        <ele>70</ele>
        <time>2023-09-20T11:11:58.541+00:00</time>
      </trkpt>
      <trkpt lat="48.33345" lon="2.69369">
        <ele>70</ele>
        <time>2023-09-20T11:12:02.607+00:00</time>
      </trkpt>
      <trkpt lat="48.33348" lon="2.69377">
        <ele>73</ele>
        <time>2023-09-20T11:12:07.236+00:00</time>
      </trkpt>
      <trkpt lat="48.33351" lon="2.69384">
        <ele>73</ele>
        <time>2023-09-20T11:12:11.553+00:00</time>
      </trkpt>
      <trkpt lat="48.33355" lon="2.69392">
        <ele>73</ele>
        <time>2023-09-20T11:12:15.889+00:00</time>
      </trkpt>
      <trkpt lat="48.33359" lon="2.694">
        <ele>73</ele>
        <time>2023-09-20T11:12:20.208+00:00</time>
      </trkpt>
      <trkpt lat="48.33362" lon="2.69407">
        <ele>72</ele>
        <time>2023-09-20T11:12:24.527+00:00</time>
      </trkpt>
      <trkpt lat="48.33364" lon="2.69414">
        <ele>72</ele>
        <time>2023-09-20T11:12:28.833+00:00</time>
      </trkpt>
      <trkpt lat="48.33367" lon="2.69421">
        <ele>72</ele>
        <time>2023-09-20T11:12:33.088+00:00</time>
      </trkpt>
      <trkpt lat="48.3337" lon="2.69429">
        <ele>72</ele>
        <time>2023-09-20T11:12:37.400+00:00</time>
      </trkpt>
      <trkpt lat="48.33373" lon="2.69437">
        <ele>70</ele>
        <time>2023-09-20T11:12:41.607+00:00</time>
      </trkpt>
      <trkpt lat="48.33377" lon="2.69443">
        <ele>73</ele>
        <time>2023-09-20T11:12:46.172+00:00</time>
      </trkpt>
      <trkpt lat="48.33381" lon="2.69447">
        <ele>73</ele>
        <time>2023-09-20T11:12:50.590+00:00</time>
      </trkpt>
      <trkpt lat="48.33386" lon="2.69453">
        <ele>73</ele>
        <time>2023-09-20T11:12:54.963+00:00</time>
      </trkpt>
      <trkpt lat="48.3339" lon="2.69458">
        <ele>73</ele>
        <time>2023-09-20T11:12:59.335+00:00</time>
      </trkpt>
      <trkpt lat="48.33394" lon="2.69462">
        <ele>72</ele>
        <time>2023-09-20T11:13:03.576+00:00</time>
      </trkpt>
      <trkpt lat="48.33399" lon="2.69465">
        <ele>72</ele>
        <time>2023-09-20T11:13:07.608+00:00</time>
      </trkpt>
      <trkpt lat="48.33406" lon="2.69469">
        <ele>72</ele>
        <time>2023-09-20T11:13:12.321+00:00</time>
      </trkpt>
      <trkpt lat="48.33412" lon="2.69471">
        <ele>72</ele>
        <time>2023-09-20T11:13:16.581+00:00</time>
      </trkpt>
      <trkpt lat="48.33417" lon="2.69475">
        <ele>72</ele>
        <time>2023-09-20T11:13:20.603+00:00</time>
      </trkpt>
      <trkpt lat="48.33422" lon="2.69481">
        <ele>72</ele>
        <time>2023-09-20T11:13:24.609+00:00</time>
      </trkpt>
      <trkpt lat="48.33428" lon="2.69486">
        <ele>71</ele>
        <time>2023-09-20T11:13:29.355+00:00</time>
      </trkpt>
      <trkpt lat="48.33434" lon="2.69493">
        <ele>71</ele>
        <time>2023-09-20T11:13:33.590+00:00</time>
      </trkpt>
      <trkpt lat="48.33438" lon="2.69497">
        <ele>71</ele>
        <time>2023-09-20T11:13:38.319+00:00</time>
      </trkpt>
      <trkpt lat="48.33443" lon="2.69504">
        <ele>71</ele>
        <time>2023-09-20T11:13:43.242+00:00</time>
      </trkpt>
      <trkpt lat="48.33449" lon="2.6951">
        <ele>71</ele>
        <time>2023-09-20T11:13:47.547+00:00</time>
      </trkpt>
      <trkpt lat="48.33454" lon="2.69514">
        <ele>71</ele>
        <time>2023-09-20T11:13:51.810+00:00</time>
      </trkpt>
      <trkpt lat="48.33458" lon="2.69517">
        <ele>71</ele>
        <time>2023-09-20T11:13:56.014+00:00</time>
      </trkpt>
      <trkpt lat="48.33464" lon="2.69521">
        <ele>71</ele>
        <time>2023-09-20T11:14:00.256+00:00</time>
      </trkpt>
      <trkpt lat="48.33471" lon="2.69526">
        <ele>71</ele>
        <time>2023-09-20T11:14:04.497+00:00</time>
      </trkpt>
      <trkpt lat="48.33479" lon="2.69531">
        <ele>71</ele>
        <time>2023-09-20T11:14:08.604+00:00</time>
      </trkpt>
      <trkpt lat="48.33484" lon="2.69536">
        <ele>71</ele>
        <time>2023-09-20T11:14:13.077+00:00</time>
      </trkpt>
      <trkpt lat="48.33488" lon="2.69539">
        <ele>74</ele>
        <time>2023-09-20T11:14:17.339+00:00</time>
      </trkpt>
      <trkpt lat="48.33492" lon="2.69544">
        <ele>72</ele>
        <time>2023-09-20T11:14:21.578+00:00</time>
      </trkpt>
      <trkpt lat="48.33496" lon="2.6955">
        <ele>72</ele>
        <time>2023-09-20T11:14:25.940+00:00</time>
      </trkpt>
      <trkpt lat="48.33503" lon="2.69553">
        <ele>72</ele>
        <time>2023-09-20T11:14:30.218+00:00</time>
      </trkpt>
      <trkpt lat="48.33509" lon="2.69557">
        <ele>72</ele>
        <time>2023-09-20T11:14:34.580+00:00</time>
      </trkpt>
      <trkpt lat="48.33515" lon="2.69561">
        <ele>74</ele>
        <time>2023-09-20T11:14:39.397+00:00</time>
      </trkpt>
      <trkpt lat="48.33521" lon="2.69565">
        <ele>74</ele>
        <time>2023-09-20T11:14:44.358+00:00</time>
      </trkpt>
      <trkpt lat="48.33525" lon="2.69569">
        <ele>74</ele>
        <time>2023-09-20T11:14:48.599+00:00</time>
      </trkpt>
      <trkpt lat="48.3353" lon="2.69572">
        <ele>73</ele>
        <time>2023-09-20T11:14:53.195+00:00</time>
      </trkpt>
      <trkpt lat="48.33535" lon="2.69573">
        <ele>73</ele>
        <time>2023-09-20T11:14:57.581+00:00</time>
      </trkpt>
      <trkpt lat="48.33539" lon="2.69574">
        <ele>73</ele>
        <time>2023-09-20T11:15:02.215+00:00</time>
      </trkpt>
      <trkpt lat="48.33542" lon="2.69576">
        <ele>76</ele>
        <time>2023-09-20T11:15:06.314+00:00</time>
      </trkpt>
      <trkpt lat="48.33545" lon="2.69579">
        <ele>76</ele>
        <time>2023-09-20T11:15:10.589+00:00</time>
      </trkpt>
      <trkpt lat="48.33548" lon="2.69583">
        <ele>76</ele>
        <time>2023-09-20T11:15:14.928+00:00</time>
      </trkpt>
      <trkpt lat="48.33551" lon="2.69588">
        <ele>76</ele>
        <time>2023-09-20T11:15:19.369+00:00</time>
      </trkpt>
      <trkpt lat="48.33554" lon="2.69594">
        <ele>76</ele>
        <time>2023-09-20T11:15:23.906+00:00</time>
      </trkpt>
      <trkpt lat="48.33558" lon="2.69598">
        <ele>77</ele>
        <time>2023-09-20T11:15:28.444+00:00</time>
      </trkpt>
      <trkpt lat="48.33561" lon="2.69601">
        <ele>77</ele>
        <time>2023-09-20T11:15:32.578+00:00</time>
      </trkpt>
      <trkpt lat="48.33567" lon="2.69604">
        <ele>77</ele>
        <time>2023-09-20T11:15:37.220+00:00</time>
      </trkpt>
      <trkpt lat="48.33572" lon="2.69607">
        <ele>80</ele>
        <time>2023-09-20T11:15:41.605+00:00</time>
      </trkpt>
      <trkpt lat="48.33577" lon="2.69609">
        <ele>80</ele>
        <time>2023-09-20T11:15:46.440+00:00</time>
      </trkpt>
      <trkpt lat="48.33583" lon="2.69613">
        <ele>80</ele>
        <time>2023-09-20T11:15:50.901+00:00</time>
      </trkpt>
      <trkpt lat="48.33587" lon="2.69616">
        <ele>80</ele>
        <time>2023-09-20T11:15:55.277+00:00</time>
      </trkpt>
      <trkpt lat="48.33592" lon="2.6962">
        <ele>80</ele>
        <time>2023-09-20T11:15:59.576+00:00</time>
      </trkpt>
      <trkpt lat="48.33596" lon="2.69625">
        <ele>80</ele>
        <time>2023-09-20T11:16:03.582+00:00</time>
      </trkpt>
      <trkpt lat="48.33601" lon="2.69629">
        <ele>80</ele>
        <time>2023-09-20T11:16:07.559+00:00</time>
      </trkpt>
      <trkpt lat="48.33606" lon="2.69635">
        <ele>80</ele>
        <time>2023-09-20T11:16:12.353+00:00</time>
      </trkpt>
      <trkpt lat="48.33612" lon="2.6964">
        <ele>80</ele>
        <time>2023-09-20T11:16:16.580+00:00</time>
      </trkpt>
      <trkpt lat="48.33619" lon="2.69644">
        <ele>80</ele>
        <time>2023-09-20T11:16:21.589+00:00</time>
      </trkpt>
      <trkpt lat="48.33627" lon="2.69649">
        <ele>79</ele>
        <time>2023-09-20T11:16:26.247+00:00</time>
      </trkpt>
      <trkpt lat="48.33631" lon="2.69653">
        <ele>79</ele>
        <time>2023-09-20T11:16:30.287+00:00</time>
      </trkpt>
      <trkpt lat="48.33638" lon="2.69656">
        <ele>77</ele>
        <time>2023-09-20T11:16:34.600+00:00</time>
      </trkpt>
      <trkpt lat="48.33644" lon="2.69659">
        <ele>77</ele>
        <time>2023-09-20T11:16:38.761+00:00</time>
      </trkpt>
      <trkpt lat="48.3365" lon="2.69663">
        <ele>77</ele>
        <time>2023-09-20T11:16:43.581+00:00</time>
      </trkpt>
      <trkpt lat="48.33653" lon="2.69664">
        <ele>77</ele>
        <time>2023-09-20T11:16:48.588+00:00</time>
      </trkpt>
      <trkpt lat="48.33655" lon="2.69665">
        <ele>76</ele>
        <time>2023-09-20T11:16:52.606+00:00</time>
      </trkpt>
      <trkpt lat="48.33658" lon="2.69667">
        <ele>76</ele>
        <time>2023-09-20T11:16:57.594+00:00</time>
      </trkpt>
      <trkpt lat="48.3366" lon="2.69669">
        <ele>76</ele>
        <time>2023-09-20T11:17:02.586+00:00</time>
      </trkpt>
      <trkpt lat="48.33663" lon="2.69673">
        <ele>76</ele>
        <time>2023-09-20T11:17:07.603+00:00</time>
      </trkpt>
      <trkpt lat="48.33665" lon="2.69674">
        <ele>76</ele>
        <time>2023-09-20T11:17:12.394+00:00</time>
      </trkpt>
      <trkpt lat="48.33666" lon="2.69675">
        <ele>76</ele>
        <time>2023-09-20T11:17:17.551+00:00</time>
      </trkpt>
      <trkpt lat="48.33669" lon="2.69677">
        <ele>76</ele>
        <time>2023-09-20T11:17:21.580+00:00</time>
      </trkpt>
      <trkpt lat="48.33673" lon="2.69681">
        <ele>74</ele>
        <time>2023-09-20T11:17:25.687+00:00</time>
      </trkpt>
      <trkpt lat="48.33677" lon="2.69684">
        <ele>74</ele>
        <time>2023-09-20T11:17:30.446+00:00</time>
      </trkpt>
      <trkpt lat="48.33679" lon="2.69688">
        <ele>74</ele>
        <time>2023-09-20T11:17:35.607+00:00</time>
      </trkpt>
      <trkpt lat="48.33683" lon="2.69692">
        <ele>75</ele>
        <time>2023-09-20T11:17:40.604+00:00</time>
      </trkpt>
      <trkpt lat="48.33686" lon="2.69695">
        <ele>75</ele>
        <time>2023-09-20T11:17:45.314+00:00</time>
      </trkpt>
      <trkpt lat="48.33689" lon="2.69707">
        <ele>75</ele>
        <time>2023-09-20T11:17:58.607+00:00</time>
      </trkpt>
      <trkpt lat="48.33689" lon="2.69708">
        <ele>75</ele>
        <time>2023-09-20T11:18:03.594+00:00</time>
      </trkpt>
      <trkpt lat="48.33689" lon="2.69709">
        <ele>73</ele>
        <time>2023-09-20T11:18:08.581+00:00</time>
      </trkpt>
      <trkpt lat="48.33689" lon="2.69712">
        <ele>73</ele>
        <time>2023-09-20T11:18:13.388+00:00</time>
      </trkpt>
      <trkpt lat="48.33689" lon="2.69714">
        <ele>73</ele>
        <time>2023-09-20T11:18:17.578+00:00</time>
      </trkpt>
      <trkpt lat="48.33694" lon="2.69712">
        <ele>73</ele>
        <time>2023-09-20T11:19:42.576+00:00</time>
      </trkpt>
      <trkpt lat="48.33693" lon="2.6971">
        <ele>73</ele>
        <time>2023-09-20T11:19:47.574+00:00</time>
      </trkpt>
      <trkpt lat="48.33694" lon="2.69712">
        <ele>73</ele>
        <time>2023-09-20T11:19:52.563+00:00</time>
      </trkpt>
      <trkpt lat="48.33696" lon="2.69711">
        <ele>73</ele>
        <time>2023-09-20T11:19:56.562+00:00</time>
      </trkpt>
      <trkpt lat="48.33699" lon="2.69711">
        <ele>73</ele>
        <time>2023-09-20T11:20:01.410+00:00</time>
      </trkpt>
      <trkpt lat="48.33701" lon="2.69709">
        <ele>73</ele>
        <time>2023-09-20T11:20:05.566+00:00</time>
      </trkpt>
      <trkpt lat="48.33703" lon="2.69708">
        <ele>73</ele>
        <time>2023-09-20T11:20:09.578+00:00</time>
      </trkpt>
      <trkpt lat="48.33706" lon="2.6971">
        <ele>73</ele>
        <time>2023-09-20T11:20:14.281+00:00</time>
      </trkpt>
      <trkpt lat="48.33708" lon="2.69714">
        <ele>73</ele>
        <time>2023-09-20T11:20:18.579+00:00</time>
      </trkpt>
      <trkpt lat="48.33712" lon="2.69719">
        <ele>73</ele>
        <time>2023-09-20T11:20:23.351+00:00</time>
      </trkpt>
      <trkpt lat="48.33717" lon="2.69726">
        <ele>73</ele>
        <time>2023-09-20T11:20:27.955+00:00</time>
      </trkpt>
      <trkpt lat="48.33723" lon="2.69733">
        <ele>73</ele>
        <time>2023-09-20T11:20:32.523+00:00</time>
      </trkpt>
      <trkpt lat="48.33731" lon="2.6974">
        <ele>72</ele>
        <time>2023-09-20T11:20:36.565+00:00</time>
      </trkpt>
      <trkpt lat="48.33738" lon="2.69743">
        <ele>73</ele>
        <time>2023-09-20T11:20:40.586+00:00</time>
      </trkpt>
      <trkpt lat="48.33745" lon="2.69744">
        <ele>73</ele>
        <time>2023-09-20T11:20:45.162+00:00</time>
      </trkpt>
      <trkpt lat="48.33749" lon="2.69747">
        <ele>73</ele>
        <time>2023-09-20T11:20:49.566+00:00</time>
      </trkpt>
      <trkpt lat="48.33753" lon="2.69751">
        <ele>73</ele>
        <time>2023-09-20T11:20:54.344+00:00</time>
      </trkpt>
      <trkpt lat="48.33757" lon="2.6976">
        <ele>73</ele>
        <time>2023-09-20T11:20:58.566+00:00</time>
      </trkpt>
      <trkpt lat="48.3376" lon="2.6977">
        <ele>73</ele>
        <time>2023-09-20T11:21:03.560+00:00</time>
      </trkpt>
      <trkpt lat="48.33765" lon="2.69777">
        <ele>74</ele>
        <time>2023-09-20T11:21:08.211+00:00</time>
      </trkpt>
      <trkpt lat="48.33768" lon="2.69785">
        <ele>74</ele>
        <time>2023-09-20T11:21:12.562+00:00</time>
      </trkpt>
      <trkpt lat="48.33769" lon="2.69796">
        <ele>73</ele>
        <time>2023-09-20T11:21:17.367+00:00</time>
      </trkpt>
      <trkpt lat="48.33773" lon="2.69803">
        <ele>73</ele>
        <time>2023-09-20T11:21:21.917+00:00</time>
      </trkpt>
      <trkpt lat="48.33779" lon="2.69808">
        <ele>73</ele>
        <time>2023-09-20T11:21:26.527+00:00</time>
      </trkpt>
      <trkpt lat="48.33783" lon="2.69812">
        <ele>73</ele>
        <time>2023-09-20T11:21:30.571+00:00</time>
      </trkpt>
      <trkpt lat="48.33789" lon="2.69819">
        <ele>73</ele>
        <time>2023-09-20T11:21:35.580+00:00</time>
      </trkpt>
      <trkpt lat="48.33792" lon="2.69827">
        <ele>74</ele>
        <time>2023-09-20T11:21:40.171+00:00</time>
      </trkpt>
      <trkpt lat="48.33795" lon="2.69835">
        <ele>74</ele>
        <time>2023-09-20T11:21:44.353+00:00</time>
      </trkpt>
      <trkpt lat="48.338" lon="2.69843">
        <ele>74</ele>
        <time>2023-09-20T11:21:48.568+00:00</time>
      </trkpt>
      <trkpt lat="48.3381" lon="2.69846">
        <ele>74</ele>
        <time>2023-09-20T11:21:53.423+00:00</time>
      </trkpt>
      <trkpt lat="48.33815" lon="2.69847">
        <ele>72</ele>
        <time>2023-09-20T11:21:57.561+00:00</time>
      </trkpt>
      <trkpt lat="48.33819" lon="2.69851">
        <ele>72</ele>
        <time>2023-09-20T11:22:02.256+00:00</time>
      </trkpt>
      <trkpt lat="48.33822" lon="2.69855">
        <ele>73</ele>
        <time>2023-09-20T11:22:06.934+00:00</time>
      </trkpt>
      <trkpt lat="48.33826" lon="2.69863">
        <ele>73</ele>
        <time>2023-09-20T11:22:11.569+00:00</time>
      </trkpt>
      <trkpt lat="48.33828" lon="2.69871">
        <ele>73</ele>
        <time>2023-09-20T11:22:16.285+00:00</time>
      </trkpt>
      <trkpt lat="48.33832" lon="2.69878">
        <ele>72</ele>
        <time>2023-09-20T11:22:21.030+00:00</time>
      </trkpt>
      <trkpt lat="48.33835" lon="2.69884">
        <ele>72</ele>
        <time>2023-09-20T11:22:25.566+00:00</time>
      </trkpt>
      <trkpt lat="48.33839" lon="2.69892">
        <ele>72</ele>
        <time>2023-09-20T11:22:30.563+00:00</time>
      </trkpt>
      <trkpt lat="48.33842" lon="2.699">
        <ele>72</ele>
        <time>2023-09-20T11:22:34.737+00:00</time>
      </trkpt>
      <trkpt lat="48.33845" lon="2.69907">
        <ele>72</ele>
        <time>2023-09-20T11:22:39.133+00:00</time>
      </trkpt>
      <trkpt lat="48.33848" lon="2.69913">
        <ele>73</ele>
        <time>2023-09-20T11:22:43.948+00:00</time>
      </trkpt>
      <trkpt lat="48.33851" lon="2.69917">
        <ele>73</ele>
        <time>2023-09-20T11:22:48.337+00:00</time>
      </trkpt>
      <trkpt lat="48.33854" lon="2.69917">
        <ele>73</ele>
        <time>2023-09-20T11:22:52.959+00:00</time>
      </trkpt>
      <trkpt lat="48.33857" lon="2.69915">
        <ele>73</ele>
        <time>2023-09-20T11:22:57.124+00:00</time>
      </trkpt>
      <trkpt lat="48.33862" lon="2.69913">
        <ele>73</ele>
        <time>2023-09-20T11:23:01.580+00:00</time>
      </trkpt>
      <trkpt lat="48.33869" lon="2.69909">
        <ele>73</ele>
        <time>2023-09-20T11:23:06.562+00:00</time>
      </trkpt>
      <trkpt lat="48.33873" lon="2.69908">
        <ele>73</ele>
        <time>2023-09-20T11:23:10.578+00:00</time>
      </trkpt>
      <trkpt lat="48.33873" lon="2.69907">
        <ele>73</ele>
        <time>2023-09-20T11:23:15.275+00:00</time>
      </trkpt>
      <trkpt lat="48.33878" lon="2.69911">
        <ele>73</ele>
        <time>2023-09-20T11:23:19.353+00:00</time>
      </trkpt>
      <trkpt lat="48.33882" lon="2.69917">
        <ele>73</ele>
        <time>2023-09-20T11:23:23.568+00:00</time>
      </trkpt>
      <trkpt lat="48.33889" lon="2.69921">
        <ele>73</ele>
        <time>2023-09-20T11:23:28.559+00:00</time>
      </trkpt>
      <trkpt lat="48.33894" lon="2.69922">
        <ele>73</ele>
        <time>2023-09-20T11:23:33.566+00:00</time>
      </trkpt>
      <trkpt lat="48.339" lon="2.69923">
        <ele>73</ele>
        <time>2023-09-20T11:23:38.573+00:00</time>
      </trkpt>
      <trkpt lat="48.33905" lon="2.69924">
        <ele>74</ele>
        <time>2023-09-20T11:23:43.476+00:00</time>
      </trkpt>
      <trkpt lat="48.3391" lon="2.69919">
        <ele>74</ele>
        <time>2023-09-20T11:23:47.575+00:00</time>
      </trkpt>
      <trkpt lat="48.33917" lon="2.69915">
        <ele>74</ele>
        <time>2023-09-20T11:23:52.563+00:00</time>
      </trkpt>
      <trkpt lat="48.33924" lon="2.69916">
        <ele>74</ele>
        <time>2023-09-20T11:23:56.561+00:00</time>
      </trkpt>
      <trkpt lat="48.33931" lon="2.69916">
        <ele>75</ele>
        <time>2023-09-20T11:24:01.586+00:00</time>
      </trkpt>
      <trkpt lat="48.33937" lon="2.69916">
        <ele>75</ele>
        <time>2023-09-20T11:24:06.336+00:00</time>
      </trkpt>
      <trkpt lat="48.33941" lon="2.69914">
        <ele>75</ele>
        <time>2023-09-20T11:24:10.449+00:00</time>
      </trkpt>
      <trkpt lat="48.33944" lon="2.69912">
        <ele>75</ele>
        <time>2023-09-20T11:24:14.570+00:00</time>
      </trkpt>
      <trkpt lat="48.33947" lon="2.69911">
        <ele>75</ele>
        <time>2023-09-20T11:24:19.383+00:00</time>
      </trkpt>
      <trkpt lat="48.33954" lon="2.69909">
        <ele>75</ele>
        <time>2023-09-20T11:24:24.515+00:00</time>
      </trkpt>
      <trkpt lat="48.3396" lon="2.69906">
        <ele>74</ele>
        <time>2023-09-20T11:24:28.746+00:00</time>
      </trkpt>
      <trkpt lat="48.33965" lon="2.69904">
        <ele>74</ele>
        <time>2023-09-20T11:24:33.341+00:00</time>
      </trkpt>
      <trkpt lat="48.33969" lon="2.69903">
        <ele>74</ele>
        <time>2023-09-20T11:24:37.562+00:00</time>
      </trkpt>
      <trkpt lat="48.33971" lon="2.69905">
        <ele>74</ele>
        <time>2023-09-20T11:24:42.559+00:00</time>
      </trkpt>
      <trkpt lat="48.33974" lon="2.69907">
        <ele>74</ele>
        <time>2023-09-20T11:24:46.823+00:00</time>
      </trkpt>
      <trkpt lat="48.33977" lon="2.69912">
        <ele>74</ele>
        <time>2023-09-20T11:24:51.572+00:00</time>
      </trkpt>
      <trkpt lat="48.3398" lon="2.69915">
        <ele>74</ele>
        <time>2023-09-20T11:24:56.437+00:00</time>
      </trkpt>
      <trkpt lat="48.33981" lon="2.69918">
        <ele>74</ele>
        <time>2023-09-20T11:25:01.578+00:00</time>
      </trkpt>
      <trkpt lat="48.33983" lon="2.69925">
        <ele>74</ele>
        <time>2023-09-20T11:25:06.585+00:00</time>
      </trkpt>
      <trkpt lat="48.33984" lon="2.69938">
        <ele>76</ele>
        <time>2023-09-20T11:25:11.510+00:00</time>
      </trkpt>
      <trkpt lat="48.33981" lon="2.69947">
        <ele>76</ele>
        <time>2023-09-20T11:25:16.101+00:00</time>
      </trkpt>
      <trkpt lat="48.33981" lon="2.69955">
        <ele>76</ele>
        <time>2023-09-20T11:25:20.487+00:00</time>
      </trkpt>
      <trkpt lat="48.33981" lon="2.69965">
        <ele>77</ele>
        <time>2023-09-20T11:25:25.572+00:00</time>
      </trkpt>
      <trkpt lat="48.33987" lon="2.6997">
        <ele>77</ele>
        <time>2023-09-20T11:25:30.256+00:00</time>
      </trkpt>
      <trkpt lat="48.33992" lon="2.69972">
        <ele>77</ele>
        <time>2023-09-20T11:25:34.616+00:00</time>
      </trkpt>
      <trkpt lat="48.33998" lon="2.69973">
        <ele>77</ele>
        <time>2023-09-20T11:25:39.302+00:00</time>
      </trkpt>
      <trkpt lat="48.34004" lon="2.69972">
        <ele>77</ele>
        <time>2023-09-20T11:25:43.610+00:00</time>
      </trkpt>
      <trkpt lat="48.3401" lon="2.6997">
        <ele>77</ele>
        <time>2023-09-20T11:25:48+00:00</time>
      </trkpt>
      <trkpt lat="48.34013" lon="2.6997">
        <ele>77</ele>
        <time>2023-09-20T11:25:52.281+00:00</time>
      </trkpt>
      <trkpt lat="48.34005" lon="2.6997">
        <ele>77</ele>
        <time>2023-09-20T11:54:00.594+00:00</time>
      </trkpt>
      <trkpt lat="48.34005" lon="2.6997">
        <ele>77</ele>
        <time>2023-09-20T11:54:05.588+00:00</time>
      </trkpt>
      <trkpt lat="48.34005" lon="2.6997">
        <ele>77</ele>
        <time>2023-09-20T11:54:10.598+00:00</time>
      </trkpt>
      <trkpt lat="48.34005" lon="2.6997">
        <ele>77</ele>
        <time>2023-09-20T11:54:15.598+00:00</time>
      </trkpt>
      <trkpt lat="48.34005" lon="2.6997">
        <ele>77</ele>
        <time>2023-09-20T11:54:20.600+00:00</time>
      </trkpt>
      <trkpt lat="48.34001" lon="2.69963">
        <ele>77</ele>
        <time>2023-09-20T12:12:30.563+00:00</time>
      </trkpt>
      <trkpt lat="48.33998" lon="2.69965">
        <ele>77</ele>
        <time>2023-09-20T12:12:34.528+00:00</time>
      </trkpt>
      <trkpt lat="48.33993" lon="2.69965">
        <ele>77</ele>
        <time>2023-09-20T12:12:39.557+00:00</time>
      </trkpt>
      <trkpt lat="48.3399" lon="2.69963">
        <ele>77</ele>
        <time>2023-09-20T12:12:43.599+00:00</time>
      </trkpt>
      <trkpt lat="48.33985" lon="2.69961">
        <ele>77</ele>
        <time>2023-09-20T12:12:48.571+00:00</time>
      </trkpt>
      <trkpt lat="48.33984" lon="2.69956">
        <ele>76</ele>
        <time>2023-09-20T12:12:53.565+00:00</time>
      </trkpt>
      <trkpt lat="48.33985" lon="2.69946">
        <ele>76</ele>
        <time>2023-09-20T12:12:58.564+00:00</time>
      </trkpt>
      <trkpt lat="48.33985" lon="2.69936">
        <ele>76</ele>
        <time>2023-09-20T12:13:03.571+00:00</time>
      </trkpt>
      <trkpt lat="48.33985" lon="2.69927">
        <ele>74</ele>
        <time>2023-09-20T12:13:08.571+00:00</time>
      </trkpt>
      <trkpt lat="48.33988" lon="2.69919">
        <ele>75</ele>
        <time>2023-09-20T12:13:13.567+00:00</time>
      </trkpt>
      <trkpt lat="48.33991" lon="2.69919">
        <ele>75</ele>
        <time>2023-09-20T12:13:18.591+00:00</time>
      </trkpt>
      <trkpt lat="48.33997" lon="2.69921">
        <ele>75</ele>
        <time>2023-09-20T12:13:23.587+00:00</time>
      </trkpt>
      <trkpt lat="48.33998" lon="2.69922">
        <ele>75</ele>
        <time>2023-09-20T12:13:28.554+00:00</time>
      </trkpt>
      <trkpt lat="48.33999" lon="2.6992">
        <ele>75</ele>
        <time>2023-09-20T12:13:32.552+00:00</time>
      </trkpt>
      <trkpt lat="48.34004" lon="2.69918">
        <ele>75</ele>
        <time>2023-09-20T12:13:36.556+00:00</time>
      </trkpt>
      <trkpt lat="48.33975" lon="2.69927">
        <ele>74</ele>
        <time>2023-09-20T12:14:19.548+00:00</time>
      </trkpt>
      <trkpt lat="48.33968" lon="2.69928">
        <ele>74</ele>
        <time>2023-09-20T12:14:23.562+00:00</time>
      </trkpt>
      <trkpt lat="48.3396" lon="2.6993">
        <ele>74</ele>
        <time>2023-09-20T12:14:38.258+00:00</time>
      </trkpt>
      <trkpt lat="48.33969" lon="2.6993">
        <ele>74</ele>
        <time>2023-09-20T12:14:42.774+00:00</time>
      </trkpt>
      <trkpt lat="48.33974" lon="2.69928">
        <ele>74</ele>
        <time>2023-09-20T12:14:47.290+00:00</time>
      </trkpt>
      <trkpt lat="48.33979" lon="2.69924">
        <ele>74</ele>
        <time>2023-09-20T12:14:52.307+00:00</time>
      </trkpt>
      <trkpt lat="48.33982" lon="2.69921">
        <ele>74</ele>
        <time>2023-09-20T12:14:57.328+00:00</time>
      </trkpt>
      <trkpt lat="48.33984" lon="2.69916">
        <ele>74</ele>
        <time>2023-09-20T12:15:21.565+00:00</time>
      </trkpt>
      <trkpt lat="48.33982" lon="2.69916">
        <ele>74</ele>
        <time>2023-09-20T12:15:26.564+00:00</time>
      </trkpt>
      <trkpt lat="48.33979" lon="2.69917">
        <ele>74</ele>
        <time>2023-09-20T12:15:31.391+00:00</time>
      </trkpt>
      <trkpt lat="48.33979" lon="2.69915">
        <ele>74</ele>
        <time>2023-09-20T12:15:36.012+00:00</time>
      </trkpt>
      <trkpt lat="48.33977" lon="2.69909">
        <ele>74</ele>
        <time>2023-09-20T12:15:40.546+00:00</time>
      </trkpt>
      <trkpt lat="48.33976" lon="2.699">
        <ele>73</ele>
        <time>2023-09-20T12:15:44.560+00:00</time>
      </trkpt>
      <trkpt lat="48.33977" lon="2.69892">
        <ele>73</ele>
        <time>2023-09-20T12:15:48.574+00:00</time>
      </trkpt>
      <trkpt lat="48.33977" lon="2.69884">
        <ele>73</ele>
        <time>2023-09-20T12:15:52.587+00:00</time>
      </trkpt>
      <trkpt lat="48.33977" lon="2.69876">
        <ele>73</ele>
        <time>2023-09-20T12:15:57.101+00:00</time>
      </trkpt>
      <trkpt lat="48.33983" lon="2.69862">
        <ele>73</ele>
        <time>2023-09-20T12:16:14.723+00:00</time>
      </trkpt>
      <trkpt lat="48.33985" lon="2.69864">
        <ele>73</ele>
        <time>2023-09-20T12:16:19.225+00:00</time>
      </trkpt>
      <trkpt lat="48.33989" lon="2.69865">
        <ele>74</ele>
        <time>2023-09-20T12:16:23.267+00:00</time>
      </trkpt>
      <trkpt lat="48.33995" lon="2.69868">
        <ele>74</ele>
        <time>2023-09-20T12:16:27.960+00:00</time>
      </trkpt>
      <trkpt lat="48.34" lon="2.69868">
        <ele>74</ele>
        <time>2023-09-20T12:16:32.020+00:00</time>
      </trkpt>
      <trkpt lat="48.34004" lon="2.69866">
        <ele>74</ele>
        <time>2023-09-20T12:16:36.062+00:00</time>
      </trkpt>
      <trkpt lat="48.34008" lon="2.69866">
        <ele>74</ele>
        <time>2023-09-20T12:16:40.123+00:00</time>
      </trkpt>
      <trkpt lat="48.34012" lon="2.69866">
        <ele>74</ele>
        <time>2023-09-20T12:16:44.618+00:00</time>
      </trkpt>
      <trkpt lat="48.34017" lon="2.69866">
        <ele>75</ele>
        <time>2023-09-20T12:16:49.442+00:00</time>
      </trkpt>
      <trkpt lat="48.34019" lon="2.69867">
        <ele>75</ele>
        <time>2023-09-20T12:16:54.092+00:00</time>
      </trkpt>
      <trkpt lat="48.34021" lon="2.69867">
        <ele>75</ele>
        <time>2023-09-20T12:16:59.109+00:00</time>
      </trkpt>
      <trkpt lat="48.34023" lon="2.69865">
        <ele>75</ele>
        <time>2023-09-20T12:17:03.123+00:00</time>
      </trkpt>
      <trkpt lat="48.34027" lon="2.69863">
        <ele>75</ele>
        <time>2023-09-20T12:17:07.236+00:00</time>
      </trkpt>
      <trkpt lat="48.34032" lon="2.69859">
        <ele>75</ele>
        <time>2023-09-20T12:17:11.849+00:00</time>
      </trkpt>
      <trkpt lat="48.34037" lon="2.69855">
        <ele>75</ele>
        <time>2023-09-20T12:17:16.362+00:00</time>
      </trkpt>
      <trkpt lat="48.34042" lon="2.69851">
        <ele>75</ele>
        <time>2023-09-20T12:17:21.076+00:00</time>
      </trkpt>
      <trkpt lat="48.34046" lon="2.6985">
        <ele>75</ele>
        <time>2023-09-20T12:17:25.186+00:00</time>
      </trkpt>
      <trkpt lat="48.34051" lon="2.69851">
        <ele>75</ele>
        <time>2023-09-20T12:17:29.701+00:00</time>
      </trkpt>
      <trkpt lat="48.34055" lon="2.69849">
        <ele>75</ele>
        <time>2023-09-20T12:17:33.712+00:00</time>
      </trkpt>
      <trkpt lat="48.34059" lon="2.69847">
        <ele>75</ele>
        <time>2023-09-20T12:17:37.726+00:00</time>
      </trkpt>
      <trkpt lat="48.34064" lon="2.69844">
        <ele>74</ele>
        <time>2023-09-20T12:17:42.240+00:00</time>
      </trkpt>
      <trkpt lat="48.34068" lon="2.69842">
        <ele>74</ele>
        <time>2023-09-20T12:17:46.753+00:00</time>
      </trkpt>
      <trkpt lat="48.34073" lon="2.69842">
        <ele>74</ele>
        <time>2023-09-20T12:17:50.765+00:00</time>
      </trkpt>
      <trkpt lat="48.34078" lon="2.69841">
        <ele>74</ele>
        <time>2023-09-20T12:17:55.277+00:00</time>
      </trkpt>
      <trkpt lat="48.34082" lon="2.69841">
        <ele>74</ele>
        <time>2023-09-20T12:17:59.289+00:00</time>
      </trkpt>
      <trkpt lat="48.34086" lon="2.6984">
        <ele>74</ele>
        <time>2023-09-20T12:18:04.422+00:00</time>
      </trkpt>
      <trkpt lat="48.34091" lon="2.69839">
        <ele>74</ele>
        <time>2023-09-20T12:18:08.951+00:00</time>
      </trkpt>
      <trkpt lat="48.34097" lon="2.69837">
        <ele>74</ele>
        <time>2023-09-20T12:18:13.464+00:00</time>
      </trkpt>
      <trkpt lat="48.34101" lon="2.69834">
        <ele>73</ele>
        <time>2023-09-20T12:18:17.475+00:00</time>
      </trkpt>
      <trkpt lat="48.34107" lon="2.6983">
        <ele>73</ele>
        <time>2023-09-20T12:18:21.988+00:00</time>
      </trkpt>
      <trkpt lat="48.3411" lon="2.69826">
        <ele>73</ele>
        <time>2023-09-20T12:18:26.502+00:00</time>
      </trkpt>
      <trkpt lat="48.34115" lon="2.69825">
        <ele>73</ele>
        <time>2023-09-20T12:18:30.514+00:00</time>
      </trkpt>
      <trkpt lat="48.3412" lon="2.69822">
        <ele>73</ele>
        <time>2023-09-20T12:18:35.028+00:00</time>
      </trkpt>
      <trkpt lat="48.34124" lon="2.69821">
        <ele>73</ele>
        <time>2023-09-20T12:18:39.540+00:00</time>
      </trkpt>
      <trkpt lat="48.34129" lon="2.69818">
        <ele>73</ele>
        <time>2023-09-20T12:18:43.551+00:00</time>
      </trkpt>
      <trkpt lat="48.34136" lon="2.69815">
        <ele>73</ele>
        <time>2023-09-20T12:18:48.561+00:00</time>
      </trkpt>
      <trkpt lat="48.34141" lon="2.69815">
        <ele>73</ele>
        <time>2023-09-20T12:18:52.567+00:00</time>
      </trkpt>
      <trkpt lat="48.34146" lon="2.69811">
        <ele>73</ele>
        <time>2023-09-20T12:18:56.595+00:00</time>
      </trkpt>
      <trkpt lat="48.34151" lon="2.69807">
        <ele>73</ele>
        <time>2023-09-20T12:19:00.782+00:00</time>
      </trkpt>
      <trkpt lat="48.34155" lon="2.69802">
        <ele>73</ele>
        <time>2023-09-20T12:19:05.289+00:00</time>
      </trkpt>
      <trkpt lat="48.34161" lon="2.69798">
        <ele>73</ele>
        <time>2023-09-20T12:19:09.794+00:00</time>
      </trkpt>
      <trkpt lat="48.34167" lon="2.69795">
        <ele>73</ele>
        <time>2023-09-20T12:19:14.300+00:00</time>
      </trkpt>
      <trkpt lat="48.34173" lon="2.69795">
        <ele>73</ele>
        <time>2023-09-20T12:19:18.807+00:00</time>
      </trkpt>
      <trkpt lat="48.34176" lon="2.69795">
        <ele>73</ele>
        <time>2023-09-20T12:19:22.913+00:00</time>
      </trkpt>
      <trkpt lat="48.34181" lon="2.69792">
        <ele>74</ele>
        <time>2023-09-20T12:19:27.419+00:00</time>
      </trkpt>
      <trkpt lat="48.34186" lon="2.69788">
        <ele>74</ele>
        <time>2023-09-20T12:19:31.926+00:00</time>
      </trkpt>
      <trkpt lat="48.3419" lon="2.69785">
        <ele>74</ele>
        <time>2023-09-20T12:19:35.930+00:00</time>
      </trkpt>
      <trkpt lat="48.34195" lon="2.69783">
        <ele>74</ele>
        <time>2023-09-20T12:19:40.434+00:00</time>
      </trkpt>
      <trkpt lat="48.34201" lon="2.6978">
        <ele>74</ele>
        <time>2023-09-20T12:19:45.037+00:00</time>
      </trkpt>
      <trkpt lat="48.34206" lon="2.69775">
        <ele>74</ele>
        <time>2023-09-20T12:19:49.641+00:00</time>
      </trkpt>
      <trkpt lat="48.34211" lon="2.69772">
        <ele>75</ele>
        <time>2023-09-20T12:19:54.237+00:00</time>
      </trkpt>
      <trkpt lat="48.34216" lon="2.69768">
        <ele>75</ele>
        <time>2023-09-20T12:19:58.247+00:00</time>
      </trkpt>
      <trkpt lat="48.34222" lon="2.69765">
        <ele>75</ele>
        <time>2023-09-20T12:20:02.851+00:00</time>
      </trkpt>
      <trkpt lat="48.34227" lon="2.69761">
        <ele>75</ele>
        <time>2023-09-20T12:20:07.355+00:00</time>
      </trkpt>
      <trkpt lat="48.34232" lon="2.69758">
        <ele>75</ele>
        <time>2023-09-20T12:20:11.959+00:00</time>
      </trkpt>
      <trkpt lat="48.34238" lon="2.69756">
        <ele>76</ele>
        <time>2023-09-20T12:20:15.961+00:00</time>
      </trkpt>
      <trkpt lat="48.34242" lon="2.69753">
        <ele>76</ele>
        <time>2023-09-20T12:20:20.563+00:00</time>
      </trkpt>
      <trkpt lat="48.34248" lon="2.69749">
        <ele>76</ele>
        <time>2023-09-20T12:20:25.066+00:00</time>
      </trkpt>
      <trkpt lat="48.34254" lon="2.69747">
        <ele>76</ele>
        <time>2023-09-20T12:20:29.568+00:00</time>
      </trkpt>
      <trkpt lat="48.34259" lon="2.69745">
        <ele>76</ele>
        <time>2023-09-20T12:20:33.572+00:00</time>
      </trkpt>
      <trkpt lat="48.34263" lon="2.69739">
        <ele>76</ele>
        <time>2023-09-20T12:20:38.076+00:00</time>
      </trkpt>
      <trkpt lat="48.34267" lon="2.69735">
        <ele>75</ele>
        <time>2023-09-20T12:20:43.080+00:00</time>
      </trkpt>
      <trkpt lat="48.34266" lon="2.69732">
        <ele>75</ele>
        <time>2023-09-20T12:20:48.093+00:00</time>
      </trkpt>
      <trkpt lat="48.34267" lon="2.69731">
        <ele>75</ele>
        <time>2023-09-20T12:20:52.897+00:00</time>
      </trkpt>
      <trkpt lat="48.3427" lon="2.6973">
        <ele>75</ele>
        <time>2023-09-20T12:20:56.917+00:00</time>
      </trkpt>
      <trkpt lat="48.34274" lon="2.69728">
        <ele>75</ele>
        <time>2023-09-20T12:21:01.530+00:00</time>
      </trkpt>
      <trkpt lat="48.34278" lon="2.69722">
        <ele>75</ele>
        <time>2023-09-20T12:21:06.544+00:00</time>
      </trkpt>
      <trkpt lat="48.34282" lon="2.69716">
        <ele>75</ele>
        <time>2023-09-20T12:21:10.652+00:00</time>
      </trkpt>
      <trkpt lat="48.34288" lon="2.69712">
        <ele>75</ele>
        <time>2023-09-20T12:21:15.261+00:00</time>
      </trkpt>
      <trkpt lat="48.34294" lon="2.69712">
        <ele>74</ele>
        <time>2023-09-20T12:21:19.268+00:00</time>
      </trkpt>
      <trkpt lat="48.343" lon="2.69712">
        <ele>74</ele>
        <time>2023-09-20T12:21:23.274+00:00</time>
      </trkpt>
      <trkpt lat="48.34306" lon="2.6971">
        <ele>74</ele>
        <time>2023-09-20T12:21:28.282+00:00</time>
      </trkpt>
      <trkpt lat="48.34313" lon="2.69708">
        <ele>74</ele>
        <time>2023-09-20T12:21:32.891+00:00</time>
      </trkpt>
      <trkpt lat="48.34319" lon="2.69705">
        <ele>74</ele>
        <time>2023-09-20T12:21:37.499+00:00</time>
      </trkpt>
      <trkpt lat="48.34325" lon="2.69702">
        <ele>75</ele>
        <time>2023-09-20T12:21:41.606+00:00</time>
      </trkpt>
      <trkpt lat="48.34331" lon="2.69699">
        <ele>75</ele>
        <time>2023-09-20T12:21:46.214+00:00</time>
      </trkpt>
      <trkpt lat="48.34336" lon="2.69697">
        <ele>75</ele>
        <time>2023-09-20T12:21:51.223+00:00</time>
      </trkpt>
      <trkpt lat="48.3434" lon="2.69694">
        <ele>75</ele>
        <time>2023-09-20T12:21:55.731+00:00</time>
      </trkpt>
      <trkpt lat="48.34346" lon="2.6969">
        <ele>75</ele>
        <time>2023-09-20T12:22:00.340+00:00</time>
      </trkpt>
      <trkpt lat="48.34351" lon="2.69687">
        <ele>76</ele>
        <time>2023-09-20T12:22:04.347+00:00</time>
      </trkpt>
      <trkpt lat="48.34357" lon="2.69684">
        <ele>76</ele>
        <time>2023-09-20T12:22:08.953+00:00</time>
      </trkpt>
      <trkpt lat="48.34361" lon="2.69682">
        <ele>76</ele>
        <time>2023-09-20T12:22:12.960+00:00</time>
      </trkpt>
      <trkpt lat="48.34366" lon="2.69678">
        <ele>75</ele>
        <time>2023-09-20T12:22:17.578+00:00</time>
      </trkpt>
      <trkpt lat="48.34371" lon="2.69676">
        <ele>75</ele>
        <time>2023-09-20T12:22:21.687+00:00</time>
      </trkpt>
      <trkpt lat="48.34374" lon="2.69671">
        <ele>75</ele>
        <time>2023-09-20T12:22:26.198+00:00</time>
      </trkpt>
      <trkpt lat="48.34379" lon="2.6967">
        <ele>76</ele>
        <time>2023-09-20T12:22:30.206+00:00</time>
      </trkpt>
      <trkpt lat="48.34384" lon="2.69669">
        <ele>76</ele>
        <time>2023-09-20T12:22:34.715+00:00</time>
      </trkpt>
      <trkpt lat="48.34389" lon="2.69667">
        <ele>76</ele>
        <time>2023-09-20T12:22:38.724+00:00</time>
      </trkpt>
      <trkpt lat="48.34395" lon="2.69665">
        <ele>76</ele>
        <time>2023-09-20T12:22:43.234+00:00</time>
      </trkpt>
      <trkpt lat="48.344" lon="2.69664">
        <ele>76</ele>
        <time>2023-09-20T12:22:47.242+00:00</time>
      </trkpt>
      <trkpt lat="48.34407" lon="2.69664">
        <ele>77</ele>
        <time>2023-09-20T12:22:52.254+00:00</time>
      </trkpt>
      <trkpt lat="48.3441" lon="2.69662">
        <ele>77</ele>
        <time>2023-09-20T12:22:57.564+00:00</time>
      </trkpt>
      <trkpt lat="48.34414" lon="2.69655">
        <ele>77</ele>
        <time>2023-09-20T12:23:02.071+00:00</time>
      </trkpt>
      <trkpt lat="48.34418" lon="2.6965">
        <ele>76</ele>
        <time>2023-09-20T12:23:06.576+00:00</time>
      </trkpt>
      <trkpt lat="48.34423" lon="2.69643">
        <ele>76</ele>
        <time>2023-09-20T12:23:11.079+00:00</time>
      </trkpt>
      <trkpt lat="48.34427" lon="2.69636">
        <ele>76</ele>
        <time>2023-09-20T12:23:15.581+00:00</time>
      </trkpt>
      <trkpt lat="48.3443" lon="2.69628">
        <ele>76</ele>
        <time>2023-09-20T12:23:20.262+00:00</time>
      </trkpt>
      <trkpt lat="48.34433" lon="2.69621">
        <ele>78</ele>
        <time>2023-09-20T12:23:24.265+00:00</time>
      </trkpt>
      <trkpt lat="48.34437" lon="2.69612">
        <ele>78</ele>
        <time>2023-09-20T12:23:29.165+00:00</time>
      </trkpt>
      <trkpt lat="48.34441" lon="2.69605">
        <ele>78</ele>
        <time>2023-09-20T12:23:33.639+00:00</time>
      </trkpt>
      <trkpt lat="48.34444" lon="2.69598">
        <ele>78</ele>
        <time>2023-09-20T12:23:37.684+00:00</time>
      </trkpt>
      <trkpt lat="48.34448" lon="2.69592">
        <ele>79</ele>
        <time>2023-09-20T12:23:42.123+00:00</time>
      </trkpt>
      <trkpt lat="48.34452" lon="2.69586">
        <ele>79</ele>
        <time>2023-09-20T12:23:46.562+00:00</time>
      </trkpt>
      <trkpt lat="48.34456" lon="2.69579">
        <ele>79</ele>
        <time>2023-09-20T12:23:51.522+00:00</time>
      </trkpt>
      <trkpt lat="48.3446" lon="2.6957">
        <ele>80</ele>
        <time>2023-09-20T12:23:56.535+00:00</time>
      </trkpt>
      <trkpt lat="48.34463" lon="2.69564">
        <ele>80</ele>
        <time>2023-09-20T12:24:00.165+00:00</time>
      </trkpt>
      <trkpt lat="48.34467" lon="2.69558">
        <ele>80</ele>
        <time>2023-09-20T12:24:04.664+00:00</time>
      </trkpt>
      <trkpt lat="48.34471" lon="2.69553">
        <ele>80</ele>
        <time>2023-09-20T12:24:09.304+00:00</time>
      </trkpt>
      <trkpt lat="48.34474" lon="2.69548">
        <ele>80</ele>
        <time>2023-09-20T12:24:13.203+00:00</time>
      </trkpt>
      <trkpt lat="48.34477" lon="2.69538">
        <ele>79</ele>
        <time>2023-09-20T12:24:18.303+00:00</time>
      </trkpt>
      <trkpt lat="48.34479" lon="2.6953">
        <ele>79</ele>
        <time>2023-09-20T12:24:22.262+00:00</time>
      </trkpt>
      <trkpt lat="48.34482" lon="2.69522">
        <ele>79</ele>
        <time>2023-09-20T12:24:27.083+00:00</time>
      </trkpt>
      <trkpt lat="48.34486" lon="2.69514">
        <ele>80</ele>
        <time>2023-09-20T12:24:31.583+00:00</time>
      </trkpt>
      <trkpt lat="48.34488" lon="2.69509">
        <ele>80</ele>
        <time>2023-09-20T12:24:35.522+00:00</time>
      </trkpt>
      <trkpt lat="48.34492" lon="2.69503">
        <ele>80</ele>
        <time>2023-09-20T12:24:40.144+00:00</time>
      </trkpt>
      <trkpt lat="48.34494" lon="2.69501">
        <ele>80</ele>
        <time>2023-09-20T12:24:45.147+00:00</time>
      </trkpt>
      <trkpt lat="48.34494" lon="2.69501">
        <ele>80</ele>
        <time>2023-09-20T12:24:50.189+00:00</time>
      </trkpt>
      <trkpt lat="48.3449" lon="2.69504">
        <ele>80</ele>
        <time>2023-09-20T12:24:54.310+00:00</time>
      </trkpt>
      <trkpt lat="48.34484" lon="2.69511">
        <ele>78</ele>
        <time>2023-09-20T12:24:59.472+00:00</time>
      </trkpt>
      <trkpt lat="48.34482" lon="2.69517">
        <ele>79</ele>
        <time>2023-09-20T12:25:03.233+00:00</time>
      </trkpt>
      <trkpt lat="48.34477" lon="2.69523">
        <ele>79</ele>
        <time>2023-09-20T12:25:08.498+00:00</time>
      </trkpt>
      <trkpt lat="48.34473" lon="2.69529">
        <ele>79</ele>
        <time>2023-09-20T12:25:13.335+00:00</time>
      </trkpt>
      <trkpt lat="48.34468" lon="2.69535">
        <ele>79</ele>
        <time>2023-09-20T12:25:17.413+00:00</time>
      </trkpt>
      <trkpt lat="48.34464" lon="2.69542">
        <ele>80</ele>
        <time>2023-09-20T12:25:21.899+00:00</time>
      </trkpt>
      <trkpt lat="48.34461" lon="2.69549">
        <ele>80</ele>
        <time>2023-09-20T12:25:26.217+00:00</time>
      </trkpt>
      <trkpt lat="48.34458" lon="2.69555">
        <ele>79</ele>
        <time>2023-09-20T12:25:30.576+00:00</time>
      </trkpt>
      <trkpt lat="48.34455" lon="2.69561">
        <ele>79</ele>
        <time>2023-09-20T12:25:34.579+00:00</time>
      </trkpt>
      <trkpt lat="48.34452" lon="2.69569">
        <ele>79</ele>
        <time>2023-09-20T12:25:39.131+00:00</time>
      </trkpt>
      <trkpt lat="48.3445" lon="2.69577">
        <ele>79</ele>
        <time>2023-09-20T12:25:43.572+00:00</time>
      </trkpt>
      <trkpt lat="48.34447" lon="2.69585">
        <ele>79</ele>
        <time>2023-09-20T12:25:47.734+00:00</time>
      </trkpt>
      <trkpt lat="48.34443" lon="2.69593">
        <ele>79</ele>
        <time>2023-09-20T12:25:52.277+00:00</time>
      </trkpt>
      <trkpt lat="48.34438" lon="2.69609">
        <ele>78</ele>
        <time>2023-09-20T12:26:10.585+00:00</time>
      </trkpt>
      <trkpt lat="48.34439" lon="2.69609">
        <ele>78</ele>
        <time>2023-09-20T12:26:14.582+00:00</time>
      </trkpt>
      <trkpt lat="48.34439" lon="2.69609">
        <ele>78</ele>
        <time>2023-09-20T12:26:19.576+00:00</time>
      </trkpt>
      <trkpt lat="48.34437" lon="2.6961">
        <ele>78</ele>
        <time>2023-09-20T12:26:24.158+00:00</time>
      </trkpt>
      <trkpt lat="48.34434" lon="2.69617">
        <ele>78</ele>
        <time>2023-09-20T12:26:28.259+00:00</time>
      </trkpt>
      <trkpt lat="48.3443" lon="2.69623">
        <ele>77</ele>
        <time>2023-09-20T12:26:32.574+00:00</time>
      </trkpt>
      <trkpt lat="48.34426" lon="2.69628">
        <ele>76</ele>
        <time>2023-09-20T12:26:36.615+00:00</time>
      </trkpt>
      <trkpt lat="48.34423" lon="2.69633">
        <ele>76</ele>
        <time>2023-09-20T12:26:41.513+00:00</time>
      </trkpt>
      <trkpt lat="48.3442" lon="2.69638">
        <ele>76</ele>
        <time>2023-09-20T12:26:45.550+00:00</time>
      </trkpt>
      <trkpt lat="48.34416" lon="2.69644">
        <ele>76</ele>
        <time>2023-09-20T12:26:49.850+00:00</time>
      </trkpt>
      <trkpt lat="48.34413" lon="2.69653">
        <ele>77</ele>
        <time>2023-09-20T12:26:54.234+00:00</time>
      </trkpt>
      <trkpt lat="48.3441" lon="2.69661">
        <ele>77</ele>
        <time>2023-09-20T12:26:58.594+00:00</time>
      </trkpt>
      <trkpt lat="48.34406" lon="2.6967">
        <ele>77</ele>
        <time>2023-09-20T12:27:03.352+00:00</time>
      </trkpt>
      <trkpt lat="48.34403" lon="2.69678">
        <ele>77</ele>
        <time>2023-09-20T12:27:07.372+00:00</time>
      </trkpt>
      <trkpt lat="48.344" lon="2.69687">
        <ele>77</ele>
        <time>2023-09-20T12:27:11.612+00:00</time>
      </trkpt>
      <trkpt lat="48.34398" lon="2.69696">
        <ele>77</ele>
        <time>2023-09-20T12:27:16.090+00:00</time>
      </trkpt>
      <trkpt lat="48.34396" lon="2.69705">
        <ele>77</ele>
        <time>2023-09-20T12:27:20.581+00:00</time>
      </trkpt>
      <trkpt lat="48.34394" lon="2.69714">
        <ele>78</ele>
        <time>2023-09-20T12:27:24.953+00:00</time>
      </trkpt>
      <trkpt lat="48.34393" lon="2.69723">
        <ele>78</ele>
        <time>2023-09-20T12:27:29.373+00:00</time>
      </trkpt>
      <trkpt lat="48.34391" lon="2.69731">
        <ele>78</ele>
        <time>2023-09-20T12:27:33.856+00:00</time>
      </trkpt>
      <trkpt lat="48.3439" lon="2.69739">
        <ele>78</ele>
        <time>2023-09-20T12:27:38.239+00:00</time>
      </trkpt>
      <trkpt lat="48.3439" lon="2.69748">
        <ele>78</ele>
        <time>2023-09-20T12:27:42.584+00:00</time>
      </trkpt>
      <trkpt lat="48.34389" lon="2.69758">
        <ele>78</ele>
        <time>2023-09-20T12:27:47.528+00:00</time>
      </trkpt>
      <trkpt lat="48.34388" lon="2.69767">
        <ele>77</ele>
        <time>2023-09-20T12:27:51.610+00:00</time>
      </trkpt>
      <trkpt lat="48.34387" lon="2.69776">
        <ele>77</ele>
        <time>2023-09-20T12:27:56.146+00:00</time>
      </trkpt>
      <trkpt lat="48.34387" lon="2.69784">
        <ele>77</ele>
        <time>2023-09-20T12:28:00.432+00:00</time>
      </trkpt>
      <trkpt lat="48.34387" lon="2.69789">
        <ele>77</ele>
        <time>2023-09-20T12:28:04.567+00:00</time>
      </trkpt>
      <trkpt lat="48.34387" lon="2.69793">
        <ele>75</ele>
        <time>2023-09-20T12:28:08.843+00:00</time>
      </trkpt>
      <trkpt lat="48.34386" lon="2.69798">
        <ele>75</ele>
        <time>2023-09-20T12:28:12.856+00:00</time>
      </trkpt>
      <trkpt lat="48.34385" lon="2.69807">
        <ele>75</ele>
        <time>2023-09-20T12:28:17.417+00:00</time>
      </trkpt>
      <trkpt lat="48.34387" lon="2.69817">
        <ele>75</ele>
        <time>2023-09-20T12:28:22.163+00:00</time>
      </trkpt>
      <trkpt lat="48.34394" lon="2.69823">
        <ele>75</ele>
        <time>2023-09-20T12:28:26.592+00:00</time>
      </trkpt>
      <trkpt lat="48.34401" lon="2.69827">
        <ele>75</ele>
        <time>2023-09-20T12:28:31.155+00:00</time>
      </trkpt>
      <trkpt lat="48.34407" lon="2.6983">
        <ele>77</ele>
        <time>2023-09-20T12:28:35.615+00:00</time>
      </trkpt>
      <trkpt lat="48.34412" lon="2.69832">
        <ele>77</ele>
        <time>2023-09-20T12:28:39.620+00:00</time>
      </trkpt>
      <trkpt lat="48.34417" lon="2.69836">
        <ele>77</ele>
        <time>2023-09-20T12:28:44.586+00:00</time>
      </trkpt>
      <trkpt lat="48.34422" lon="2.69839">
        <ele>77</ele>
        <time>2023-09-20T12:28:48.843+00:00</time>
      </trkpt>
      <trkpt lat="48.34427" lon="2.69844">
        <ele>77</ele>
        <time>2023-09-20T12:28:53.425+00:00</time>
      </trkpt>
      <trkpt lat="48.34432" lon="2.69849">
        <ele>79</ele>
        <time>2023-09-20T12:28:58.391+00:00</time>
      </trkpt>
      <trkpt lat="48.34437" lon="2.69853">
        <ele>79</ele>
        <time>2023-09-20T12:29:02.599+00:00</time>
      </trkpt>
      <trkpt lat="48.34442" lon="2.69856">
        <ele>79</ele>
        <time>2023-09-20T12:29:06.976+00:00</time>
      </trkpt>
      <trkpt lat="48.34447" lon="2.69859">
        <ele>79</ele>
        <time>2023-09-20T12:29:11.412+00:00</time>
      </trkpt>
      <trkpt lat="48.34452" lon="2.69862">
        <ele>79</ele>
        <time>2023-09-20T12:29:16.349+00:00</time>
      </trkpt>
      <trkpt lat="48.34457" lon="2.69868">
        <ele>79</ele>
        <time>2023-09-20T12:29:20.608+00:00</time>
      </trkpt>
      <trkpt lat="48.34461" lon="2.69875">
        <ele>83</ele>
        <time>2023-09-20T12:29:25.528+00:00</time>
      </trkpt>
      <trkpt lat="48.34464" lon="2.69881">
        <ele>81</ele>
        <time>2023-09-20T12:29:29.600+00:00</time>
      </trkpt>
      <trkpt lat="48.34468" lon="2.69886">
        <ele>81</ele>
        <time>2023-09-20T12:29:34.185+00:00</time>
      </trkpt>
      <trkpt lat="48.34471" lon="2.69891">
        <ele>81</ele>
        <time>2023-09-20T12:29:38.102+00:00</time>
      </trkpt>
      <trkpt lat="48.34476" lon="2.69896">
        <ele>81</ele>
        <time>2023-09-20T12:29:42.431+00:00</time>
      </trkpt>
      <trkpt lat="48.3448" lon="2.69901">
        <ele>81</ele>
        <time>2023-09-20T12:29:46.594+00:00</time>
      </trkpt>
      <trkpt lat="48.34485" lon="2.69906">
        <ele>79</ele>
        <time>2023-09-20T12:29:51.102+00:00</time>
      </trkpt>
      <trkpt lat="48.34488" lon="2.6991">
        <ele>83</ele>
        <time>2023-09-20T12:29:55.613+00:00</time>
      </trkpt>
      <trkpt lat="48.34493" lon="2.69915">
        <ele>83</ele>
        <time>2023-09-20T12:30:00.514+00:00</time>
      </trkpt>
      <trkpt lat="48.34497" lon="2.6992">
        <ele>83</ele>
        <time>2023-09-20T12:30:04.597+00:00</time>
      </trkpt>
      <trkpt lat="48.34503" lon="2.69925">
        <ele>83</ele>
        <time>2023-09-20T12:30:09.067+00:00</time>
      </trkpt>
      <trkpt lat="48.34508" lon="2.69929">
        <ele>83</ele>
        <time>2023-09-20T12:30:13.625+00:00</time>
      </trkpt>
      <trkpt lat="48.34512" lon="2.69934">
        <ele>81</ele>
        <time>2023-09-20T12:30:18.064+00:00</time>
      </trkpt>
      <trkpt lat="48.34516" lon="2.69939">
        <ele>81</ele>
        <time>2023-09-20T12:30:22.141+00:00</time>
      </trkpt>
      <trkpt lat="48.3452" lon="2.69945">
        <ele>81</ele>
        <time>2023-09-20T12:30:26.499+00:00</time>
      </trkpt>
      <trkpt lat="48.34524" lon="2.69949">
        <ele>81</ele>
        <time>2023-09-20T12:30:30.605+00:00</time>
      </trkpt>
      <trkpt lat="48.3453" lon="2.69954">
        <ele>81</ele>
        <time>2023-09-20T12:30:35.535+00:00</time>
      </trkpt>
      <trkpt lat="48.34534" lon="2.6996">
        <ele>80</ele>
        <time>2023-09-20T12:30:39.603+00:00</time>
      </trkpt>
      <trkpt lat="48.34539" lon="2.69967">
        <ele>80</ele>
        <time>2023-09-20T12:30:44.491+00:00</time>
      </trkpt>
      <trkpt lat="48.34543" lon="2.6997">
        <ele>82</ele>
        <time>2023-09-20T12:30:48.627+00:00</time>
      </trkpt>
      <trkpt lat="48.34549" lon="2.69975">
        <ele>82</ele>
        <time>2023-09-20T12:30:53.426+00:00</time>
      </trkpt>
      <trkpt lat="48.34551" lon="2.69982">
        <ele>82</ele>
        <time>2023-09-20T12:30:57.564+00:00</time>
      </trkpt>
      <trkpt lat="48.34554" lon="2.69989">
        <ele>81</ele>
        <time>2023-09-20T12:31:02.360+00:00</time>
      </trkpt>
      <trkpt lat="48.34558" lon="2.69995">
        <ele>81</ele>
        <time>2023-09-20T12:31:06.606+00:00</time>
      </trkpt>
      <trkpt lat="48.34562" lon="2.70002">
        <ele>81</ele>
        <time>2023-09-20T12:31:11.338+00:00</time>
      </trkpt>
      <trkpt lat="48.34566" lon="2.70009">
        <ele>81</ele>
        <time>2023-09-20T12:31:15.593+00:00</time>
      </trkpt>
      <trkpt lat="48.34569" lon="2.70014">
        <ele>83</ele>
        <time>2023-09-20T12:31:19.618+00:00</time>
      </trkpt>
      <trkpt lat="48.34575" lon="2.70021">
        <ele>83</ele>
        <time>2023-09-20T12:31:24.468+00:00</time>
      </trkpt>
      <trkpt lat="48.3458" lon="2.70025">
        <ele>83</ele>
        <time>2023-09-20T12:31:28.594+00:00</time>
      </trkpt>
      <trkpt lat="48.34585" lon="2.70028">
        <ele>83</ele>
        <time>2023-09-20T12:31:33.285+00:00</time>
      </trkpt>
      <trkpt lat="48.34588" lon="2.70035">
        <ele>83</ele>
        <time>2023-09-20T12:31:37.592+00:00</time>
      </trkpt>
      <trkpt lat="48.34591" lon="2.7004">
        <ele>83</ele>
        <time>2023-09-20T12:31:41.599+00:00</time>
      </trkpt>
      <trkpt lat="48.34596" lon="2.70045">
        <ele>84</ele>
        <time>2023-09-20T12:31:46.619+00:00</time>
      </trkpt>
      <trkpt lat="48.34601" lon="2.70051">
        <ele>86</ele>
        <time>2023-09-20T12:31:50.998+00:00</time>
      </trkpt>
      <trkpt lat="48.34605" lon="2.70056">
        <ele>86</ele>
        <time>2023-09-20T12:31:55.396+00:00</time>
      </trkpt>
      <trkpt lat="48.34609" lon="2.70061">
        <ele>86</ele>
        <time>2023-09-20T12:31:59.837+00:00</time>
      </trkpt>
      <trkpt lat="48.34613" lon="2.70067">
        <ele>86</ele>
        <time>2023-09-20T12:32:04.251+00:00</time>
      </trkpt>
      <trkpt lat="48.34618" lon="2.70073">
        <ele>89</ele>
        <time>2023-09-20T12:32:08.584+00:00</time>
      </trkpt>
      <trkpt lat="48.34622" lon="2.70079">
        <ele>89</ele>
        <time>2023-09-20T12:32:13.226+00:00</time>
      </trkpt>
      <trkpt lat="48.34626" lon="2.70085">
        <ele>89</ele>
        <time>2023-09-20T12:32:17.587+00:00</time>
      </trkpt>
      <trkpt lat="48.3463" lon="2.7009">
        <ele>89</ele>
        <time>2023-09-20T12:32:22.138+00:00</time>
      </trkpt>
      <trkpt lat="48.34634" lon="2.70094">
        <ele>89</ele>
        <time>2023-09-20T12:32:26.299+00:00</time>
      </trkpt>
      <trkpt lat="48.34639" lon="2.70099">
        <ele>89</ele>
        <time>2023-09-20T12:32:30.602+00:00</time>
      </trkpt>
      <trkpt lat="48.34643" lon="2.70104">
        <ele>89</ele>
        <time>2023-09-20T12:32:35.471+00:00</time>
      </trkpt>
      <trkpt lat="48.34648" lon="2.70107">
        <ele>89</ele>
        <time>2023-09-20T12:32:39.587+00:00</time>
      </trkpt>
      <trkpt lat="48.34653" lon="2.70111">
        <ele>89</ele>
        <time>2023-09-20T12:32:44.382+00:00</time>
      </trkpt>
      <trkpt lat="48.34659" lon="2.70115">
        <ele>89</ele>
        <time>2023-09-20T12:32:48.577+00:00</time>
      </trkpt>
      <trkpt lat="48.34665" lon="2.70119">
        <ele>89</ele>
        <time>2023-09-20T12:32:53.375+00:00</time>
      </trkpt>
      <trkpt lat="48.34671" lon="2.70123">
        <ele>89</ele>
        <time>2023-09-20T12:32:57.587+00:00</time>
      </trkpt>
      <trkpt lat="48.34675" lon="2.70127">
        <ele>89</ele>
        <time>2023-09-20T12:33:02.092+00:00</time>
      </trkpt>
      <trkpt lat="48.34679" lon="2.7013">
        <ele>89</ele>
        <time>2023-09-20T12:33:06.448+00:00</time>
      </trkpt>
      <trkpt lat="48.34684" lon="2.70134">
        <ele>90</ele>
        <time>2023-09-20T12:33:10.576+00:00</time>
      </trkpt>
      <trkpt lat="48.3469" lon="2.70139">
        <ele>90</ele>
        <time>2023-09-20T12:33:15.205+00:00</time>
      </trkpt>
      <trkpt lat="48.34696" lon="2.70143">
        <ele>90</ele>
        <time>2023-09-20T12:33:19.495+00:00</time>
      </trkpt>
      <trkpt lat="48.34701" lon="2.70149">
        <ele>90</ele>
        <time>2023-09-20T12:33:23.601+00:00</time>
      </trkpt>
      <trkpt lat="48.34705" lon="2.70154">
        <ele>90</ele>
        <time>2023-09-20T12:33:27.605+00:00</time>
      </trkpt>
      <trkpt lat="48.3471" lon="2.7016">
        <ele>92</ele>
        <time>2023-09-20T12:33:32.410+00:00</time>
      </trkpt>
      <trkpt lat="48.34712" lon="2.70163">
        <ele>92</ele>
        <time>2023-09-20T12:33:36.593+00:00</time>
      </trkpt>
      <trkpt lat="48.34715" lon="2.70168">
        <ele>92</ele>
        <time>2023-09-20T12:33:40.834+00:00</time>
      </trkpt>
      <trkpt lat="48.34719" lon="2.70174">
        <ele>92</ele>
        <time>2023-09-20T12:33:45.287+00:00</time>
      </trkpt>
      <trkpt lat="48.34722" lon="2.70174">
        <ele>92</ele>
        <time>2023-09-20T12:33:49.367+00:00</time>
      </trkpt>
      <trkpt lat="48.34722" lon="2.70172">
        <ele>92</ele>
        <time>2023-09-20T12:33:53.595+00:00</time>
      </trkpt>
      <trkpt lat="48.34724" lon="2.70172">
        <ele>92</ele>
        <time>2023-09-20T12:33:57.825+00:00</time>
      </trkpt>
      <trkpt lat="48.34728" lon="2.70169">
        <ele>92</ele>
        <time>2023-09-20T12:34:02.589+00:00</time>
      </trkpt>
      <trkpt lat="48.34728" lon="2.70143">
        <ele>91</ele>
        <time>2023-09-20T12:34:07.477+00:00</time>
      </trkpt>
      <trkpt lat="48.34728" lon="2.70136">
        <ele>91</ele>
        <time>2023-09-20T12:35:15.573+00:00</time>
      </trkpt>
      <trkpt lat="48.34726" lon="2.70137">
        <ele>91</ele>
        <time>2023-09-20T12:35:20.565+00:00</time>
      </trkpt>
      <trkpt lat="48.34724" lon="2.70139">
        <ele>91</ele>
        <time>2023-09-20T12:35:24.577+00:00</time>
      </trkpt>
      <trkpt lat="48.3472" lon="2.70139">
        <ele>91</ele>
        <time>2023-09-20T12:35:29.576+00:00</time>
      </trkpt>
      <trkpt lat="48.3472" lon="2.70147">
        <ele>91</ele>
        <time>2023-09-20T12:35:34.563+00:00</time>
      </trkpt>
      <trkpt lat="48.34722" lon="2.70153">
        <ele>92</ele>
        <time>2023-09-20T12:35:38.576+00:00</time>
      </trkpt>
      <trkpt lat="48.34723" lon="2.70159">
        <ele>92</ele>
        <time>2023-09-20T12:35:42.589+00:00</time>
      </trkpt>
      <trkpt lat="48.34725" lon="2.70167">
        <ele>92</ele>
        <time>2023-09-20T12:35:47.590+00:00</time>
      </trkpt>
      <trkpt lat="48.34728" lon="2.70177">
        <ele>92</ele>
        <time>2023-09-20T12:35:52.597+00:00</time>
      </trkpt>
      <trkpt lat="48.34731" lon="2.70185">
        <ele>96</ele>
        <time>2023-09-20T12:35:57.591+00:00</time>
      </trkpt>
      <trkpt lat="48.34734" lon="2.7019">
        <ele>96</ele>
        <time>2023-09-20T12:36:02.597+00:00</time>
      </trkpt>
      <trkpt lat="48.34738" lon="2.70198">
        <ele>99</ele>
        <time>2023-09-20T12:36:07.587+00:00</time>
      </trkpt>
      <trkpt lat="48.34742" lon="2.70206">
        <ele>99</ele>
        <time>2023-09-20T12:36:12.578+00:00</time>
      </trkpt>
      <trkpt lat="48.34745" lon="2.70211">
        <ele>103</ele>
        <time>2023-09-20T12:36:16.594+00:00</time>
      </trkpt>
      <trkpt lat="48.3475" lon="2.70216">
        <ele>103</ele>
        <time>2023-09-20T12:36:20.597+00:00</time>
      </trkpt>
      <trkpt lat="48.34756" lon="2.70219">
        <ele>103</ele>
        <time>2023-09-20T12:36:25.586+00:00</time>
      </trkpt>
      <trkpt lat="48.34761" lon="2.70221">
        <ele>103</ele>
        <time>2023-09-20T12:36:30.599+00:00</time>
      </trkpt>
      <trkpt lat="48.34767" lon="2.70224">
        <ele>104</ele>
        <time>2023-09-20T12:36:35.579+00:00</time>
      </trkpt>
      <trkpt lat="48.34772" lon="2.70226">
        <ele>104</ele>
        <time>2023-09-20T12:36:39.591+00:00</time>
      </trkpt>
      <trkpt lat="48.34779" lon="2.70229">
        <ele>104</ele>
        <time>2023-09-20T12:36:44.585+00:00</time>
      </trkpt>
      <trkpt lat="48.34786" lon="2.70232">
        <ele>104</ele>
        <time>2023-09-20T12:36:49.588+00:00</time>
      </trkpt>
      <trkpt lat="48.34791" lon="2.70237">
        <ele>108</ele>
        <time>2023-09-20T12:36:54.589+00:00</time>
      </trkpt>
      <trkpt lat="48.34797" lon="2.70244">
        <ele>109</ele>
        <time>2023-09-20T12:36:59.586+00:00</time>
      </trkpt>
      <trkpt lat="48.34802" lon="2.7025">
        <ele>109</ele>
        <time>2023-09-20T12:37:04.573+00:00</time>
      </trkpt>
      <trkpt lat="48.34806" lon="2.70255">
        <ele>109</ele>
        <time>2023-09-20T12:37:08.598+00:00</time>
      </trkpt>
      <trkpt lat="48.34809" lon="2.70256">
        <ele>109</ele>
        <time>2023-09-20T12:37:27.585+00:00</time>
      </trkpt>
      <trkpt lat="48.34805" lon="2.70255">
        <ele>109</ele>
        <time>2023-09-20T12:37:32.573+00:00</time>
      </trkpt>
      <trkpt lat="48.34803" lon="2.70259">
        <ele>109</ele>
        <time>2023-09-20T12:37:36.600+00:00</time>
      </trkpt>
      <trkpt lat="48.34802" lon="2.70262">
        <ele>109</ele>
        <time>2023-09-20T12:37:40.599+00:00</time>
      </trkpt>
      <trkpt lat="48.34799" lon="2.70268">
        <ele>112</ele>
        <time>2023-09-20T12:37:45.579+00:00</time>
      </trkpt>
      <trkpt lat="48.34799" lon="2.70272">
        <ele>112</ele>
        <time>2023-09-20T12:37:49.600+00:00</time>
      </trkpt>
      <trkpt lat="48.34799" lon="2.70276">
        <ele>112</ele>
        <time>2023-09-20T12:37:54.574+00:00</time>
      </trkpt>
      <trkpt lat="48.34799" lon="2.70282">
        <ele>112</ele>
        <time>2023-09-20T12:37:58.582+00:00</time>
      </trkpt>
      <trkpt lat="48.34801" lon="2.70288">
        <ele>112</ele>
        <time>2023-09-20T12:38:02.591+00:00</time>
      </trkpt>
      <trkpt lat="48.34803" lon="2.70293">
        <ele>115</ele>
        <time>2023-09-20T12:38:07.578+00:00</time>
      </trkpt>
      <trkpt lat="48.34803" lon="2.703">
        <ele>115</ele>
        <time>2023-09-20T12:38:11.570+00:00</time>
      </trkpt>
      <trkpt lat="48.34805" lon="2.70306">
        <ele>115</ele>
        <time>2023-09-20T12:38:15.599+00:00</time>
      </trkpt>
      <trkpt lat="48.34808" lon="2.70315">
        <ele>115</ele>
        <time>2023-09-20T12:38:20.579+00:00</time>
      </trkpt>
      <trkpt lat="48.34808" lon="2.70323">
        <ele>118</ele>
        <time>2023-09-20T12:38:25.574+00:00</time>
      </trkpt>
      <trkpt lat="48.34811" lon="2.70326">
        <ele>118</ele>
        <time>2023-09-20T12:38:30.568+00:00</time>
      </trkpt>
      <trkpt lat="48.34811" lon="2.70329">
        <ele>118</ele>
        <time>2023-09-20T12:38:34.573+00:00</time>
      </trkpt>
      <trkpt lat="48.34812" lon="2.70333">
        <ele>118</ele>
        <time>2023-09-20T12:38:38.588+00:00</time>
      </trkpt>
      <trkpt lat="48.3481" lon="2.70341">
        <ele>118</ele>
        <time>2023-09-20T12:38:43.575+00:00</time>
      </trkpt>
      <trkpt lat="48.3481" lon="2.70344">
        <ele>118</ele>
        <time>2023-09-20T12:38:47.580+00:00</time>
      </trkpt>
      <trkpt lat="48.34809" lon="2.70349">
        <ele>122</ele>
        <time>2023-09-20T12:38:52.567+00:00</time>
      </trkpt>
      <trkpt lat="48.34809" lon="2.70353">
        <ele>122</ele>
        <time>2023-09-20T12:38:56.584+00:00</time>
      </trkpt>
      <trkpt lat="48.3481" lon="2.70358">
        <ele>122</ele>
        <time>2023-09-20T12:39:01.565+00:00</time>
      </trkpt>
      <trkpt lat="48.34809" lon="2.70361">
        <ele>122</ele>
        <time>2023-09-20T12:39:05.572+00:00</time>
      </trkpt>
      <trkpt lat="48.34808" lon="2.70364">
        <ele>122</ele>
        <time>2023-09-20T12:39:09.572+00:00</time>
      </trkpt>
      <trkpt lat="48.34806" lon="2.70369">
        <ele>122</ele>
        <time>2023-09-20T12:39:14.591+00:00</time>
      </trkpt>
      <trkpt lat="48.34804" lon="2.70374">
        <ele>122</ele>
        <time>2023-09-20T12:39:19.572+00:00</time>
      </trkpt>
      <trkpt lat="48.34804" lon="2.70378">
        <ele>124</ele>
        <time>2023-09-20T12:39:24.572+00:00</time>
      </trkpt>
      <trkpt lat="48.34804" lon="2.70382">
        <ele>124</ele>
        <time>2023-09-20T12:39:29.591+00:00</time>
      </trkpt>
      <trkpt lat="48.34807" lon="2.70387">
        <ele>124</ele>
        <time>2023-09-20T12:39:34.568+00:00</time>
      </trkpt>
      <trkpt lat="48.34809" lon="2.70392">
        <ele>124</ele>
        <time>2023-09-20T12:39:39.564+00:00</time>
      </trkpt>
      <trkpt lat="48.34809" lon="2.70394">
        <ele>124</ele>
        <time>2023-09-20T12:39:43.576+00:00</time>
      </trkpt>
      <trkpt lat="48.3481" lon="2.70397">
        <ele>124</ele>
        <time>2023-09-20T12:39:48.575+00:00</time>
      </trkpt>
      <trkpt lat="48.3481" lon="2.70401">
        <ele>124</ele>
        <time>2023-09-20T12:39:53.568+00:00</time>
      </trkpt>
      <trkpt lat="48.34811" lon="2.70404">
        <ele>124</ele>
        <time>2023-09-20T12:39:57.581+00:00</time>
      </trkpt>
      <trkpt lat="48.34816" lon="2.70409">
        <ele>124</ele>
        <time>2023-09-20T12:40:02.566+00:00</time>
      </trkpt>
      <trkpt lat="48.34819" lon="2.70413">
        <ele>124</ele>
        <time>2023-09-20T12:40:06.570+00:00</time>
      </trkpt>
      <trkpt lat="48.34822" lon="2.70418">
        <ele>123</ele>
        <time>2023-09-20T12:40:11.574+00:00</time>
      </trkpt>
      <trkpt lat="48.34822" lon="2.70427">
        <ele>123</ele>
        <time>2023-09-20T12:40:16.580+00:00</time>
      </trkpt>
      <trkpt lat="48.34822" lon="2.70432">
        <ele>125</ele>
        <time>2023-09-20T12:40:21.589+00:00</time>
      </trkpt>
      <trkpt lat="48.34823" lon="2.70439">
        <ele>125</ele>
        <time>2023-09-20T12:40:26.568+00:00</time>
      </trkpt>
      <trkpt lat="48.34825" lon="2.70444">
        <ele>125</ele>
        <time>2023-09-20T12:40:30.574+00:00</time>
      </trkpt>
      <trkpt lat="48.34827" lon="2.7045">
        <ele>125</ele>
        <time>2023-09-20T12:40:34.591+00:00</time>
      </trkpt>
      <trkpt lat="48.34825" lon="2.70454">
        <ele>125</ele>
        <time>2023-09-20T12:40:39.575+00:00</time>
      </trkpt>
      <trkpt lat="48.34824" lon="2.70455">
        <ele>125</ele>
        <time>2023-09-20T12:40:44.564+00:00</time>
      </trkpt>
      <trkpt lat="48.34824" lon="2.70459">
        <ele>125</ele>
        <time>2023-09-20T12:40:49.566+00:00</time>
      </trkpt>
      <trkpt lat="48.34825" lon="2.70465">
        <ele>125</ele>
        <time>2023-09-20T12:40:53.572+00:00</time>
      </trkpt>
      <trkpt lat="48.34826" lon="2.70469">
        <ele>125</ele>
        <time>2023-09-20T12:40:57.584+00:00</time>
      </trkpt>
      <trkpt lat="48.34827" lon="2.70473">
        <ele>125</ele>
        <time>2023-09-20T12:41:02.595+00:00</time>
      </trkpt>
      <trkpt lat="48.34828" lon="2.70481">
        <ele>125</ele>
        <time>2023-09-20T12:41:07.604+00:00</time>
      </trkpt>
      <trkpt lat="48.34829" lon="2.70489">
        <ele>123</ele>
        <time>2023-09-20T12:41:12.565+00:00</time>
      </trkpt>
      <trkpt lat="48.3483" lon="2.70495">
        <ele>123</ele>
        <time>2023-09-20T12:41:16.575+00:00</time>
      </trkpt>
      <trkpt lat="48.3483" lon="2.70504">
        <ele>123</ele>
        <time>2023-09-20T12:41:21.569+00:00</time>
      </trkpt>
      <trkpt lat="48.3483" lon="2.70512">
        <ele>123</ele>
        <time>2023-09-20T12:41:26.577+00:00</time>
      </trkpt>
      <trkpt lat="48.34831" lon="2.70522">
        <ele>121</ele>
        <time>2023-09-20T12:41:31.562+00:00</time>
      </trkpt>
      <trkpt lat="48.34832" lon="2.70529">
        <ele>121</ele>
        <time>2023-09-20T12:41:35.577+00:00</time>
      </trkpt>
      <trkpt lat="48.34834" lon="2.70537">
        <ele>121</ele>
        <time>2023-09-20T12:41:39.580+00:00</time>
      </trkpt>
      <trkpt lat="48.34837" lon="2.7055">
        <ele>121</ele>
        <time>2023-09-20T12:41:44.571+00:00</time>
      </trkpt>
      <trkpt lat="48.34839" lon="2.7056">
        <ele>121</ele>
        <time>2023-09-20T12:41:49.567+00:00</time>
      </trkpt>
      <trkpt lat="48.34843" lon="2.70564">
        <ele>121</ele>
        <time>2023-09-20T12:41:53.591+00:00</time>
      </trkpt>
      <trkpt lat="48.3484" lon="2.70561">
        <ele>121</ele>
        <time>2023-09-20T12:41:58.576+00:00</time>
      </trkpt>
      <trkpt lat="48.34841" lon="2.70558">
        <ele>121</ele>
        <time>2023-09-20T12:42:02.585+00:00</time>
      </trkpt>
      <trkpt lat="48.34845" lon="2.70553">
        <ele>121</ele>
        <time>2023-09-20T12:42:06.588+00:00</time>
      </trkpt>
      <trkpt lat="48.34849" lon="2.70547">
        <ele>123</ele>
        <time>2023-09-20T12:42:11.577+00:00</time>
      </trkpt>
      <trkpt lat="48.34853" lon="2.70542">
        <ele>123</ele>
        <time>2023-09-20T12:42:16.584+00:00</time>
      </trkpt>
      <trkpt lat="48.34858" lon="2.70537">
        <ele>123</ele>
        <time>2023-09-20T12:42:21.578+00:00</time>
      </trkpt>
      <trkpt lat="48.34862" lon="2.70531">
        <ele>123</ele>
        <time>2023-09-20T12:42:26.577+00:00</time>
      </trkpt>
      <trkpt lat="48.34867" lon="2.70525">
        <ele>123</ele>
        <time>2023-09-20T12:42:31.568+00:00</time>
      </trkpt>
      <trkpt lat="48.34873" lon="2.70519">
        <ele>123</ele>
        <time>2023-09-20T12:42:36.566+00:00</time>
      </trkpt>
      <trkpt lat="48.34876" lon="2.70514">
        <ele>126</ele>
        <time>2023-09-20T12:42:40.592+00:00</time>
      </trkpt>
      <trkpt lat="48.3488" lon="2.70509">
        <ele>126</ele>
        <time>2023-09-20T12:42:45.575+00:00</time>
      </trkpt>
      <trkpt lat="48.34882" lon="2.70503">
        <ele>126</ele>
        <time>2023-09-20T12:42:50.580+00:00</time>
      </trkpt>
      <trkpt lat="48.34885" lon="2.70495">
        <ele>126</ele>
        <time>2023-09-20T12:42:55.589+00:00</time>
      </trkpt>
      <trkpt lat="48.34889" lon="2.7049">
        <ele>126</ele>
        <time>2023-09-20T12:43:00.584+00:00</time>
      </trkpt>
      <trkpt lat="48.34894" lon="2.70481">
        <ele>127</ele>
        <time>2023-09-20T12:43:05.566+00:00</time>
      </trkpt>
      <trkpt lat="48.34899" lon="2.70474">
        <ele>127</ele>
        <time>2023-09-20T12:43:10.572+00:00</time>
      </trkpt>
      <trkpt lat="48.34902" lon="2.70469">
        <ele>127</ele>
        <time>2023-09-20T12:43:14.596+00:00</time>
      </trkpt>
      <trkpt lat="48.34908" lon="2.70461">
        <ele>127</ele>
        <time>2023-09-20T12:43:19.571+00:00</time>
      </trkpt>
      <trkpt lat="48.34911" lon="2.70456">
        <ele>128</ele>
        <time>2023-09-20T12:43:23.582+00:00</time>
      </trkpt>
      <trkpt lat="48.34917" lon="2.70449">
        <ele>128</ele>
        <time>2023-09-20T12:43:28.566+00:00</time>
      </trkpt>
      <trkpt lat="48.34924" lon="2.70444">
        <ele>128</ele>
        <time>2023-09-20T12:43:33.555+00:00</time>
      </trkpt>
      <trkpt lat="48.34935" lon="2.70437">
        <ele>127</ele>
        <time>2023-09-20T12:43:38.578+00:00</time>
      </trkpt>
      <trkpt lat="48.34942" lon="2.70432">
        <ele>127</ele>
        <time>2023-09-20T12:43:42.583+00:00</time>
      </trkpt>
      <trkpt lat="48.34947" lon="2.70426">
        <ele>127</ele>
        <time>2023-09-20T12:43:47.576+00:00</time>
      </trkpt>
      <trkpt lat="48.34949" lon="2.70419">
        <ele>127</ele>
        <time>2023-09-20T12:43:52.574+00:00</time>
      </trkpt>
      <trkpt lat="48.34955" lon="2.70411">
        <ele>127</ele>
        <time>2023-09-20T12:43:56.581+00:00</time>
      </trkpt>
      <trkpt lat="48.3496" lon="2.70403">
        <ele>127</ele>
        <time>2023-09-20T12:44:01.566+00:00</time>
      </trkpt>
      <trkpt lat="48.34966" lon="2.70396">
        <ele>125</ele>
        <time>2023-09-20T12:44:06.571+00:00</time>
      </trkpt>
      <trkpt lat="48.34971" lon="2.70396">
        <ele>125</ele>
        <time>2023-09-20T12:44:10.575+00:00</time>
      </trkpt>
      <trkpt lat="48.34976" lon="2.70396">
        <ele>125</ele>
        <time>2023-09-20T12:44:15.577+00:00</time>
      </trkpt>
      <trkpt lat="48.3498" lon="2.70393">
        <ele>125</ele>
        <time>2023-09-20T12:44:20.593+00:00</time>
      </trkpt>
      <trkpt lat="48.34986" lon="2.70391">
        <ele>126</ele>
        <time>2023-09-20T12:44:25.570+00:00</time>
      </trkpt>
      <trkpt lat="48.34992" lon="2.7039">
        <ele>126</ele>
        <time>2023-09-20T12:44:29.577+00:00</time>
      </trkpt>
      <trkpt lat="48.35" lon="2.70388">
        <ele>126</ele>
        <time>2023-09-20T12:44:34.595+00:00</time>
      </trkpt>
      <trkpt lat="48.3501" lon="2.70386">
        <ele>126</ele>
        <time>2023-09-20T12:44:39.571+00:00</time>
      </trkpt>
      <trkpt lat="48.35016" lon="2.70386">
        <ele>125</ele>
        <time>2023-09-20T12:44:44.569+00:00</time>
      </trkpt>
      <trkpt lat="48.35019" lon="2.70386">
        <ele>125</ele>
        <time>2023-09-20T12:45:07.579+00:00</time>
      </trkpt>
      <trkpt lat="48.35022" lon="2.7039">
        <ele>125</ele>
        <time>2023-09-20T12:45:12.599+00:00</time>
      </trkpt>
      <trkpt lat="48.35025" lon="2.70392">
        <ele>125</ele>
        <time>2023-09-20T12:45:17.562+00:00</time>
      </trkpt>
      <trkpt lat="48.35028" lon="2.70394">
        <ele>125</ele>
        <time>2023-09-20T12:45:21.575+00:00</time>
      </trkpt>
      <trkpt lat="48.35033" lon="2.70398">
        <ele>125</ele>
        <time>2023-09-20T12:45:26.569+00:00</time>
      </trkpt>
      <trkpt lat="48.35038" lon="2.704">
        <ele>125</ele>
        <time>2023-09-20T12:45:30.600+00:00</time>
      </trkpt>
      <trkpt lat="48.35044" lon="2.70403">
        <ele>125</ele>
        <time>2023-09-20T12:45:35.578+00:00</time>
      </trkpt>
      <trkpt lat="48.35047" lon="2.70407">
        <ele>125</ele>
        <time>2023-09-20T12:45:39.605+00:00</time>
      </trkpt>
      <trkpt lat="48.3505" lon="2.7041">
        <ele>125</ele>
        <time>2023-09-20T12:45:43.597+00:00</time>
      </trkpt>
      <trkpt lat="48.35054" lon="2.70412">
        <ele>125</ele>
        <time>2023-09-20T12:45:48.576+00:00</time>
      </trkpt>
      <trkpt lat="48.35058" lon="2.70416">
        <ele>125</ele>
        <time>2023-09-20T12:45:52.585+00:00</time>
      </trkpt>
      <trkpt lat="48.35063" lon="2.70421">
        <ele>125</ele>
        <time>2023-09-20T12:45:57.592+00:00</time>
      </trkpt>
      <trkpt lat="48.35068" lon="2.70424">
        <ele>125</ele>
        <time>2023-09-20T12:46:02.579+00:00</time>
      </trkpt>
      <trkpt lat="48.35074" lon="2.70428">
        <ele>127</ele>
        <time>2023-09-20T12:46:06.598+00:00</time>
      </trkpt>
      <trkpt lat="48.3508" lon="2.70433">
        <ele>129</ele>
        <time>2023-09-20T12:46:11.590+00:00</time>
      </trkpt>
      <trkpt lat="48.35085" lon="2.70436">
        <ele>129</ele>
        <time>2023-09-20T12:46:15.602+00:00</time>
      </trkpt>
      <trkpt lat="48.35092" lon="2.7044">
        <ele>129</ele>
        <time>2023-09-20T12:46:20.577+00:00</time>
      </trkpt>
      <trkpt lat="48.35098" lon="2.70444">
        <ele>131</ele>
        <time>2023-09-20T12:46:25.599+00:00</time>
      </trkpt>
      <trkpt lat="48.35102" lon="2.7045">
        <ele>131</ele>
        <time>2023-09-20T12:46:30.577+00:00</time>
      </trkpt>
      <trkpt lat="48.35106" lon="2.70454">
        <ele>131</ele>
        <time>2023-09-20T12:46:34.579+00:00</time>
      </trkpt>
      <trkpt lat="48.35112" lon="2.70459">
        <ele>132</ele>
        <time>2023-09-20T12:46:39.575+00:00</time>
      </trkpt>
      <trkpt lat="48.35117" lon="2.70463">
        <ele>132</ele>
        <time>2023-09-20T12:46:44.572+00:00</time>
      </trkpt>
      <trkpt lat="48.35123" lon="2.70467">
        <ele>132</ele>
        <time>2023-09-20T12:46:49.572+00:00</time>
      </trkpt>
      <trkpt lat="48.35127" lon="2.70471">
        <ele>133</ele>
        <time>2023-09-20T12:46:53.576+00:00</time>
      </trkpt>
      <trkpt lat="48.35131" lon="2.70475">
        <ele>133</ele>
        <time>2023-09-20T12:46:57.596+00:00</time>
      </trkpt>
      <trkpt lat="48.35137" lon="2.70481">
        <ele>133</ele>
        <time>2023-09-20T12:47:02.573+00:00</time>
      </trkpt>
      <trkpt lat="48.35142" lon="2.70486">
        <ele>133</ele>
        <time>2023-09-20T12:47:06.571+00:00</time>
      </trkpt>
      <trkpt lat="48.35147" lon="2.70491">
        <ele>133</ele>
        <time>2023-09-20T12:47:10.581+00:00</time>
      </trkpt>
      <trkpt lat="48.35154" lon="2.70493">
        <ele>135</ele>
        <time>2023-09-20T12:47:14.572+00:00</time>
      </trkpt>
      <trkpt lat="48.3516" lon="2.70496">
        <ele>135</ele>
        <time>2023-09-20T12:47:19.573+00:00</time>
      </trkpt>
      <trkpt lat="48.35163" lon="2.70501">
        <ele>135</ele>
        <time>2023-09-20T12:47:23.574+00:00</time>
      </trkpt>
      <trkpt lat="48.35168" lon="2.70506">
        <ele>135</ele>
        <time>2023-09-20T12:47:28.579+00:00</time>
      </trkpt>
      <trkpt lat="48.35174" lon="2.70509">
        <ele>135</ele>
        <time>2023-09-20T12:47:33.576+00:00</time>
      </trkpt>
      <trkpt lat="48.35182" lon="2.70514">
        <ele>138</ele>
        <time>2023-09-20T12:47:38.582+00:00</time>
      </trkpt>
      <trkpt lat="48.35188" lon="2.7052">
        <ele>138</ele>
        <time>2023-09-20T12:47:43.571+00:00</time>
      </trkpt>
      <trkpt lat="48.35192" lon="2.70524">
        <ele>138</ele>
        <time>2023-09-20T12:47:48.581+00:00</time>
      </trkpt>
      <trkpt lat="48.35196" lon="2.70526">
        <ele>138</ele>
        <time>2023-09-20T12:47:52.593+00:00</time>
      </trkpt>
      <trkpt lat="48.35201" lon="2.7053">
        <ele>138</ele>
        <time>2023-09-20T12:47:57.611+00:00</time>
      </trkpt>
      <trkpt lat="48.35206" lon="2.70536">
        <ele>138</ele>
        <time>2023-09-20T12:48:02.580+00:00</time>
      </trkpt>
      <trkpt lat="48.35209" lon="2.7054">
        <ele>140</ele>
        <time>2023-09-20T12:48:06.577+00:00</time>
      </trkpt>
      <trkpt lat="48.35215" lon="2.70544">
        <ele>140</ele>
        <time>2023-09-20T12:48:11.593+00:00</time>
      </trkpt>
      <trkpt lat="48.35221" lon="2.70548">
        <ele>140</ele>
        <time>2023-09-20T12:48:16.575+00:00</time>
      </trkpt>
      <trkpt lat="48.35226" lon="2.70553">
        <ele>140</ele>
        <time>2023-09-20T12:48:21.575+00:00</time>
      </trkpt>
      <trkpt lat="48.35229" lon="2.70558">
        <ele>140</ele>
        <time>2023-09-20T12:48:25.582+00:00</time>
      </trkpt>
      <trkpt lat="48.35235" lon="2.70564">
        <ele>140</ele>
        <time>2023-09-20T12:48:30.577+00:00</time>
      </trkpt>
      <trkpt lat="48.35241" lon="2.7057">
        <ele>140</ele>
        <time>2023-09-20T12:48:35.579+00:00</time>
      </trkpt>
      <trkpt lat="48.35248" lon="2.70574">
        <ele>140</ele>
        <time>2023-09-20T12:48:40.577+00:00</time>
      </trkpt>
      <trkpt lat="48.35256" lon="2.70578">
        <ele>140</ele>
        <time>2023-09-20T12:48:45.584+00:00</time>
      </trkpt>
      <trkpt lat="48.35263" lon="2.70584">
        <ele>140</ele>
        <time>2023-09-20T12:48:50.577+00:00</time>
      </trkpt>
      <trkpt lat="48.35269" lon="2.70589">
        <ele>139</ele>
        <time>2023-09-20T12:48:55.579+00:00</time>
      </trkpt>
      <trkpt lat="48.35274" lon="2.70592">
        <ele>139</ele>
        <time>2023-09-20T12:49:00.571+00:00</time>
      </trkpt>
      <trkpt lat="48.35279" lon="2.70596">
        <ele>139</ele>
        <time>2023-09-20T12:49:04.578+00:00</time>
      </trkpt>
      <trkpt lat="48.35286" lon="2.70601">
        <ele>138</ele>
        <time>2023-09-20T12:49:09.588+00:00</time>
      </trkpt>
      <trkpt lat="48.35293" lon="2.70606">
        <ele>139</ele>
        <time>2023-09-20T12:49:14.582+00:00</time>
      </trkpt>
      <trkpt lat="48.35299" lon="2.70613">
        <ele>139</ele>
        <time>2023-09-20T12:49:19.665+00:00</time>
      </trkpt>
      <trkpt lat="48.35305" lon="2.70617">
        <ele>139</ele>
        <time>2023-09-20T12:49:24.583+00:00</time>
      </trkpt>
      <trkpt lat="48.3531" lon="2.7062">
        <ele>139</ele>
        <time>2023-09-20T12:49:29.573+00:00</time>
      </trkpt>
      <trkpt lat="48.35315" lon="2.70624">
        <ele>139</ele>
        <time>2023-09-20T12:49:33.581+00:00</time>
      </trkpt>
      <trkpt lat="48.35319" lon="2.7063">
        <ele>139</ele>
        <time>2023-09-20T12:49:37.596+00:00</time>
      </trkpt>
      <trkpt lat="48.35325" lon="2.70638">
        <ele>140</ele>
        <time>2023-09-20T12:49:42.579+00:00</time>
      </trkpt>
      <trkpt lat="48.35332" lon="2.70645">
        <ele>140</ele>
        <time>2023-09-20T12:49:47.574+00:00</time>
      </trkpt>
      <trkpt lat="48.35336" lon="2.70647">
        <ele>140</ele>
        <time>2023-09-20T12:49:51.575+00:00</time>
      </trkpt>
      <trkpt lat="48.35339" lon="2.70652">
        <ele>140</ele>
        <time>2023-09-20T12:49:55.581+00:00</time>
      </trkpt>
      <trkpt lat="48.35338" lon="2.70663">
        <ele>139</ele>
        <time>2023-09-20T12:49:59.587+00:00</time>
      </trkpt>
      <trkpt lat="48.35342" lon="2.70679">
        <ele>139</ele>
        <time>2023-09-20T12:50:04.571+00:00</time>
      </trkpt>
      <trkpt lat="48.35344" lon="2.70688">
        <ele>136</ele>
        <time>2023-09-20T12:50:09.566+00:00</time>
      </trkpt>
      <trkpt lat="48.35346" lon="2.70697">
        <ele>136</ele>
        <time>2023-09-20T12:50:14.583+00:00</time>
      </trkpt>
      <trkpt lat="48.35346" lon="2.70704">
        <ele>136</ele>
        <time>2023-09-20T12:50:18.554+00:00</time>
      </trkpt>
      <trkpt lat="48.35346" lon="2.70712">
        <ele>135</ele>
        <time>2023-09-20T12:50:23.579+00:00</time>
      </trkpt>
      <trkpt lat="48.35346" lon="2.7072">
        <ele>135</ele>
        <time>2023-09-20T12:50:28.576+00:00</time>
      </trkpt>
      <trkpt lat="48.35347" lon="2.70726">
        <ele>135</ele>
        <time>2023-09-20T12:50:32.595+00:00</time>
      </trkpt>
      <trkpt lat="48.35349" lon="2.70733">
        <ele>135</ele>
        <time>2023-09-20T12:50:37.579+00:00</time>
      </trkpt>
      <trkpt lat="48.3535" lon="2.70739">
        <ele>134</ele>
        <time>2023-09-20T12:50:41.597+00:00</time>
      </trkpt>
      <trkpt lat="48.35351" lon="2.70746">
        <ele>134</ele>
        <time>2023-09-20T12:50:46.573+00:00</time>
      </trkpt>
      <trkpt lat="48.35351" lon="2.70754">
        <ele>134</ele>
        <time>2023-09-20T12:50:51.569+00:00</time>
      </trkpt>
      <trkpt lat="48.35352" lon="2.70763">
        <ele>134</ele>
        <time>2023-09-20T12:50:56.571+00:00</time>
      </trkpt>
      <trkpt lat="48.35352" lon="2.7077">
        <ele>132</ele>
        <time>2023-09-20T12:51:00.580+00:00</time>
      </trkpt>
      <trkpt lat="48.35352" lon="2.70781">
        <ele>132</ele>
        <time>2023-09-20T12:51:05.571+00:00</time>
      </trkpt>
      <trkpt lat="48.35353" lon="2.70791">
        <ele>132</ele>
        <time>2023-09-20T12:51:09.583+00:00</time>
      </trkpt>
      <trkpt lat="48.35354" lon="2.70799">
        <ele>131</ele>
        <time>2023-09-20T12:51:13.594+00:00</time>
      </trkpt>
      <trkpt lat="48.35355" lon="2.70809">
        <ele>131</ele>
        <time>2023-09-20T12:51:18.574+00:00</time>
      </trkpt>
      <trkpt lat="48.35354" lon="2.70821">
        <ele>131</ele>
        <time>2023-09-20T12:51:23.572+00:00</time>
      </trkpt>
      <trkpt lat="48.35355" lon="2.70829">
        <ele>131</ele>
        <time>2023-09-20T12:51:27.580+00:00</time>
      </trkpt>
      <trkpt lat="48.35356" lon="2.70839">
        <ele>131</ele>
        <time>2023-09-20T12:51:32.574+00:00</time>
      </trkpt>
      <trkpt lat="48.35357" lon="2.70846">
        <ele>131</ele>
        <time>2023-09-20T12:51:36.578+00:00</time>
      </trkpt>
      <trkpt lat="48.35358" lon="2.70855">
        <ele>130</ele>
        <time>2023-09-20T12:51:41.577+00:00</time>
      </trkpt>
      <trkpt lat="48.35358" lon="2.70864">
        <ele>130</ele>
        <time>2023-09-20T12:51:46.569+00:00</time>
      </trkpt>
      <trkpt lat="48.35359" lon="2.70873">
        <ele>130</ele>
        <time>2023-09-20T12:51:51.573+00:00</time>
      </trkpt>
      <trkpt lat="48.3536" lon="2.70879">
        <ele>129</ele>
        <time>2023-09-20T12:51:55.576+00:00</time>
      </trkpt>
      <trkpt lat="48.35359" lon="2.70889">
        <ele>129</ele>
        <time>2023-09-20T12:52:00.578+00:00</time>
      </trkpt>
      <trkpt lat="48.35359" lon="2.70897">
        <ele>129</ele>
        <time>2023-09-20T12:52:04.578+00:00</time>
      </trkpt>
      <trkpt lat="48.3536" lon="2.70907">
        <ele>126</ele>
        <time>2023-09-20T12:52:09.576+00:00</time>
      </trkpt>
      <trkpt lat="48.35359" lon="2.70913">
        <ele>126</ele>
        <time>2023-09-20T12:52:13.582+00:00</time>
      </trkpt>
      <trkpt lat="48.35359" lon="2.70923">
        <ele>126</ele>
        <time>2023-09-20T12:52:18.579+00:00</time>
      </trkpt>
      <trkpt lat="48.3536" lon="2.70931">
        <ele>122</ele>
        <time>2023-09-20T12:52:23.582+00:00</time>
      </trkpt>
      <trkpt lat="48.35359" lon="2.70941">
        <ele>122</ele>
        <time>2023-09-20T12:52:28.577+00:00</time>
      </trkpt>
      <trkpt lat="48.35358" lon="2.70949">
        <ele>122</ele>
        <time>2023-09-20T12:52:33.576+00:00</time>
      </trkpt>
      <trkpt lat="48.35357" lon="2.70957">
        <ele>122</ele>
        <time>2023-09-20T12:52:37.577+00:00</time>
      </trkpt>
      <trkpt lat="48.35357" lon="2.70964">
        <ele>119</ele>
        <time>2023-09-20T12:52:42.580+00:00</time>
      </trkpt>
      <trkpt lat="48.35357" lon="2.7097">
        <ele>119</ele>
        <time>2023-09-20T12:52:46.593+00:00</time>
      </trkpt>
      <trkpt lat="48.35356" lon="2.70978">
        <ele>119</ele>
        <time>2023-09-20T12:52:51.575+00:00</time>
      </trkpt>
      <trkpt lat="48.35357" lon="2.70986">
        <ele>119</ele>
        <time>2023-09-20T12:52:56.578+00:00</time>
      </trkpt>
      <trkpt lat="48.35357" lon="2.70994">
        <ele>119</ele>
        <time>2023-09-20T12:53:00.581+00:00</time>
      </trkpt>
      <trkpt lat="48.35357" lon="2.71001">
        <ele>119</ele>
        <time>2023-09-20T12:53:04.571+00:00</time>
      </trkpt>
      <trkpt lat="48.35359" lon="2.7101">
        <ele>119</ele>
        <time>2023-09-20T12:53:09.579+00:00</time>
      </trkpt>
      <trkpt lat="48.35359" lon="2.7102">
        <ele>118</ele>
        <time>2023-09-20T12:53:14.582+00:00</time>
      </trkpt>
      <trkpt lat="48.35359" lon="2.7103">
        <ele>118</ele>
        <time>2023-09-20T12:53:19.581+00:00</time>
      </trkpt>
      <trkpt lat="48.35359" lon="2.7104">
        <ele>118</ele>
        <time>2023-09-20T12:53:24.565+00:00</time>
      </trkpt>
      <trkpt lat="48.35359" lon="2.71048">
        <ele>118</ele>
        <time>2023-09-20T12:53:28.568+00:00</time>
      </trkpt>
      <trkpt lat="48.35358" lon="2.71057">
        <ele>118</ele>
        <time>2023-09-20T12:53:32.577+00:00</time>
      </trkpt>
      <trkpt lat="48.35356" lon="2.71068">
        <ele>118</ele>
        <time>2023-09-20T12:53:37.568+00:00</time>
      </trkpt>
      <trkpt lat="48.35354" lon="2.71079">
        <ele>119</ele>
        <time>2023-09-20T12:53:42.571+00:00</time>
      </trkpt>
      <trkpt lat="48.35354" lon="2.71089">
        <ele>119</ele>
        <time>2023-09-20T12:53:47.573+00:00</time>
      </trkpt>
      <trkpt lat="48.35355" lon="2.71098">
        <ele>119</ele>
        <time>2023-09-20T12:53:52.574+00:00</time>
      </trkpt>
      <trkpt lat="48.35353" lon="2.71107">
        <ele>119</ele>
        <time>2023-09-20T12:53:57.573+00:00</time>
      </trkpt>
      <trkpt lat="48.35352" lon="2.71115">
        <ele>119</ele>
        <time>2023-09-20T12:54:01.578+00:00</time>
      </trkpt>
      <trkpt lat="48.35351" lon="2.71123">
        <ele>119</ele>
        <time>2023-09-20T12:54:05.585+00:00</time>
      </trkpt>
      <trkpt lat="48.35351" lon="2.71133">
        <ele>118</ele>
        <time>2023-09-20T12:54:10.577+00:00</time>
      </trkpt>
      <trkpt lat="48.35354" lon="2.71142">
        <ele>118</ele>
        <time>2023-09-20T12:54:15.570+00:00</time>
      </trkpt>
      <trkpt lat="48.35356" lon="2.71151">
        <ele>118</ele>
        <time>2023-09-20T12:54:20.580+00:00</time>
      </trkpt>
      <trkpt lat="48.35356" lon="2.7116">
        <ele>116</ele>
        <time>2023-09-20T12:54:25.579+00:00</time>
      </trkpt>
      <trkpt lat="48.35356" lon="2.7117">
        <ele>116</ele>
        <time>2023-09-20T12:54:29.574+00:00</time>
      </trkpt>
      <trkpt lat="48.35357" lon="2.71181">
        <ele>115</ele>
        <time>2023-09-20T12:54:34.569+00:00</time>
      </trkpt>
      <trkpt lat="48.35359" lon="2.71189">
        <ele>115</ele>
        <time>2023-09-20T12:54:38.572+00:00</time>
      </trkpt>
      <trkpt lat="48.3536" lon="2.71197">
        <ele>115</ele>
        <time>2023-09-20T12:54:42.594+00:00</time>
      </trkpt>
      <trkpt lat="48.35362" lon="2.71206">
        <ele>115</ele>
        <time>2023-09-20T12:54:47.565+00:00</time>
      </trkpt>
      <trkpt lat="48.35364" lon="2.71214">
        <ele>113</ele>
        <time>2023-09-20T12:54:51.570+00:00</time>
      </trkpt>
      <trkpt lat="48.35364" lon="2.71223">
        <ele>113</ele>
        <time>2023-09-20T12:54:55.603+00:00</time>
      </trkpt>
      <trkpt lat="48.35365" lon="2.71233">
        <ele>113</ele>
        <time>2023-09-20T12:55:00.569+00:00</time>
      </trkpt>
      <trkpt lat="48.35366" lon="2.7124">
        <ele>111</ele>
        <time>2023-09-20T12:55:04.573+00:00</time>
      </trkpt>
      <trkpt lat="48.35366" lon="2.7125">
        <ele>111</ele>
        <time>2023-09-20T12:55:09.573+00:00</time>
      </trkpt>
      <trkpt lat="48.35367" lon="2.71257">
        <ele>111</ele>
        <time>2023-09-20T12:55:13.582+00:00</time>
      </trkpt>
      <trkpt lat="48.35367" lon="2.71264">
        <ele>110</ele>
        <time>2023-09-20T12:55:18.571+00:00</time>
      </trkpt>
      <trkpt lat="48.35366" lon="2.71271">
        <ele>110</ele>
        <time>2023-09-20T12:55:22.658+00:00</time>
      </trkpt>
      <trkpt lat="48.35366" lon="2.71281">
        <ele>110</ele>
        <time>2023-09-20T12:55:27.572+00:00</time>
      </trkpt>
      <trkpt lat="48.35365" lon="2.71288">
        <ele>110</ele>
        <time>2023-09-20T12:55:31.575+00:00</time>
      </trkpt>
      <trkpt lat="48.35366" lon="2.71299">
        <ele>110</ele>
        <time>2023-09-20T12:55:36.577+00:00</time>
      </trkpt>
      <trkpt lat="48.35365" lon="2.7131">
        <ele>110</ele>
        <time>2023-09-20T12:55:41.574+00:00</time>
      </trkpt>
      <trkpt lat="48.35364" lon="2.7132">
        <ele>110</ele>
        <time>2023-09-20T12:55:46.578+00:00</time>
      </trkpt>
      <trkpt lat="48.35363" lon="2.71329">
        <ele>110</ele>
        <time>2023-09-20T12:55:50.574+00:00</time>
      </trkpt>
      <trkpt lat="48.35364" lon="2.71339">
        <ele>110</ele>
        <time>2023-09-20T12:55:55.570+00:00</time>
      </trkpt>
      <trkpt lat="48.35365" lon="2.7135">
        <ele>109</ele>
        <time>2023-09-20T12:56:00.571+00:00</time>
      </trkpt>
      <trkpt lat="48.35367" lon="2.7136">
        <ele>109</ele>
        <time>2023-09-20T12:56:05.570+00:00</time>
      </trkpt>
      <trkpt lat="48.35369" lon="2.71367">
        <ele>109</ele>
        <time>2023-09-20T12:56:09.573+00:00</time>
      </trkpt>
      <trkpt lat="48.3537" lon="2.71374">
        <ele>109</ele>
        <time>2023-09-20T12:56:13.578+00:00</time>
      </trkpt>
      <trkpt lat="48.35369" lon="2.71384">
        <ele>109</ele>
        <time>2023-09-20T12:56:18.573+00:00</time>
      </trkpt>
      <trkpt lat="48.35369" lon="2.71394">
        <ele>109</ele>
        <time>2023-09-20T12:56:23.575+00:00</time>
      </trkpt>
      <trkpt lat="48.35371" lon="2.71404">
        <ele>109</ele>
        <time>2023-09-20T12:56:28.576+00:00</time>
      </trkpt>
      <trkpt lat="48.35372" lon="2.71414">
        <ele>109</ele>
        <time>2023-09-20T12:56:33.574+00:00</time>
      </trkpt>
      <trkpt lat="48.35374" lon="2.71422">
        <ele>109</ele>
        <time>2023-09-20T12:56:38.570+00:00</time>
      </trkpt>
      <trkpt lat="48.35378" lon="2.71431">
        <ele>110</ele>
        <time>2023-09-20T12:56:43.577+00:00</time>
      </trkpt>
      <trkpt lat="48.35381" lon="2.71438">
        <ele>110</ele>
        <time>2023-09-20T12:56:48.587+00:00</time>
      </trkpt>
      <trkpt lat="48.35386" lon="2.71443">
        <ele>110</ele>
        <time>2023-09-20T12:56:53.580+00:00</time>
      </trkpt>
      <trkpt lat="48.35391" lon="2.71446">
        <ele>110</ele>
        <time>2023-09-20T12:56:58.574+00:00</time>
      </trkpt>
      <trkpt lat="48.35393" lon="2.71447">
        <ele>110</ele>
        <time>2023-09-20T12:57:02.585+00:00</time>
      </trkpt>
      <trkpt lat="48.35397" lon="2.7145">
        <ele>110</ele>
        <time>2023-09-20T12:57:07.565+00:00</time>
      </trkpt>
      <trkpt lat="48.35401" lon="2.71453">
        <ele>110</ele>
        <time>2023-09-20T12:57:11.599+00:00</time>
      </trkpt>
      <trkpt lat="48.35407" lon="2.71455">
        <ele>111</ele>
        <time>2023-09-20T12:57:16.572+00:00</time>
      </trkpt>
      <trkpt lat="48.3541" lon="2.71458">
        <ele>111</ele>
        <time>2023-09-20T12:57:20.585+00:00</time>
      </trkpt>
      <trkpt lat="48.35414" lon="2.7146">
        <ele>112</ele>
        <time>2023-09-20T12:57:25.578+00:00</time>
      </trkpt>
      <trkpt lat="48.35417" lon="2.71461">
        <ele>112</ele>
        <time>2023-09-20T12:57:30.582+00:00</time>
      </trkpt>
      <trkpt lat="48.3542" lon="2.71463">
        <ele>112</ele>
        <time>2023-09-20T12:57:34.607+00:00</time>
      </trkpt>
      <trkpt lat="48.35425" lon="2.71467">
        <ele>112</ele>
        <time>2023-09-20T12:57:39.577+00:00</time>
      </trkpt>
      <trkpt lat="48.3543" lon="2.71473">
        <ele>112</ele>
        <time>2023-09-20T12:57:44.575+00:00</time>
      </trkpt>
      <trkpt lat="48.35433" lon="2.71477">
        <ele>113</ele>
        <time>2023-09-20T12:57:48.578+00:00</time>
      </trkpt>
      <trkpt lat="48.35437" lon="2.71478">
        <ele>113</ele>
        <time>2023-09-20T12:57:52.604+00:00</time>
      </trkpt>
      <trkpt lat="48.35441" lon="2.71475">
        <ele>113</ele>
        <time>2023-09-20T12:57:57.576+00:00</time>
      </trkpt>
      <trkpt lat="48.35443" lon="2.71472">
        <ele>113</ele>
        <time>2023-09-20T12:58:01.578+00:00</time>
      </trkpt>
      <trkpt lat="48.35446" lon="2.71466">
        <ele>113</ele>
        <time>2023-09-20T12:58:06.572+00:00</time>
      </trkpt>
      <trkpt lat="48.3545" lon="2.71463">
        <ele>113</ele>
        <time>2023-09-20T12:58:11.585+00:00</time>
      </trkpt>
      <trkpt lat="48.35453" lon="2.71461">
        <ele>113</ele>
        <time>2023-09-20T12:58:15.597+00:00</time>
      </trkpt>
      <trkpt lat="48.35457" lon="2.71458">
        <ele>113</ele>
        <time>2023-09-20T12:58:20.570+00:00</time>
      </trkpt>
      <trkpt lat="48.35463" lon="2.71459">
        <ele>114</ele>
        <time>2023-09-20T12:58:25.582+00:00</time>
      </trkpt>
      <trkpt lat="48.35469" lon="2.71459">
        <ele>114</ele>
        <time>2023-09-20T12:58:30.576+00:00</time>
      </trkpt>
      <trkpt lat="48.35473" lon="2.7146">
        <ele>114</ele>
        <time>2023-09-20T12:58:34.587+00:00</time>
      </trkpt>
      <trkpt lat="48.35475" lon="2.71461">
        <ele>114</ele>
        <time>2023-09-20T12:58:38.598+00:00</time>
      </trkpt>
      <trkpt lat="48.3548" lon="2.71464">
        <ele>114</ele>
        <time>2023-09-20T12:58:43.573+00:00</time>
      </trkpt>
      <trkpt lat="48.35484" lon="2.71468">
        <ele>114</ele>
        <time>2023-09-20T12:58:47.588+00:00</time>
      </trkpt>
      <trkpt lat="48.35489" lon="2.71469">
        <ele>116</ele>
        <time>2023-09-20T12:58:52.573+00:00</time>
      </trkpt>
      <trkpt lat="48.35492" lon="2.71469">
        <ele>116</ele>
        <time>2023-09-20T12:58:57.582+00:00</time>
      </trkpt>
      <trkpt lat="48.35495" lon="2.7147">
        <ele>116</ele>
        <time>2023-09-20T12:59:02.583+00:00</time>
      </trkpt>
      <trkpt lat="48.355" lon="2.7147">
        <ele>116</ele>
        <time>2023-09-20T12:59:07.570+00:00</time>
      </trkpt>
      <trkpt lat="48.35504" lon="2.71473">
        <ele>116</ele>
        <time>2023-09-20T12:59:11.583+00:00</time>
      </trkpt>
      <trkpt lat="48.35508" lon="2.71474">
        <ele>116</ele>
        <time>2023-09-20T12:59:16.574+00:00</time>
      </trkpt>
      <trkpt lat="48.35513" lon="2.71478">
        <ele>116</ele>
        <time>2023-09-20T12:59:21.573+00:00</time>
      </trkpt>
      <trkpt lat="48.35516" lon="2.71477">
        <ele>119</ele>
        <time>2023-09-20T12:59:25.579+00:00</time>
      </trkpt>
      <trkpt lat="48.35521" lon="2.71472">
        <ele>119</ele>
        <time>2023-09-20T12:59:30.580+00:00</time>
      </trkpt>
      <trkpt lat="48.35526" lon="2.71464">
        <ele>119</ele>
        <time>2023-09-20T12:59:35.578+00:00</time>
      </trkpt>
      <trkpt lat="48.35529" lon="2.71456">
        <ele>118</ele>
        <time>2023-09-20T12:59:40.576+00:00</time>
      </trkpt>
      <trkpt lat="48.35533" lon="2.7145">
        <ele>118</ele>
        <time>2023-09-20T12:59:45.574+00:00</time>
      </trkpt>
      <trkpt lat="48.35537" lon="2.71446">
        <ele>118</ele>
        <time>2023-09-20T12:59:50.569+00:00</time>
      </trkpt>
      <trkpt lat="48.3554" lon="2.71442">
        <ele>118</ele>
        <time>2023-09-20T12:59:54.571+00:00</time>
      </trkpt>
      <trkpt lat="48.35545" lon="2.71438">
        <ele>120</ele>
        <time>2023-09-20T12:59:58.580+00:00</time>
      </trkpt>
      <trkpt lat="48.35552" lon="2.71434">
        <ele>120</ele>
        <time>2023-09-20T13:00:03.573+00:00</time>
      </trkpt>
      <trkpt lat="48.35558" lon="2.71433">
        <ele>120</ele>
        <time>2023-09-20T13:00:08.570+00:00</time>
      </trkpt>
      <trkpt lat="48.35561" lon="2.71434">
        <ele>120</ele>
        <time>2023-09-20T13:00:12.576+00:00</time>
      </trkpt>
      <trkpt lat="48.35565" lon="2.71429">
        <ele>119</ele>
        <time>2023-09-20T13:00:17.569+00:00</time>
      </trkpt>
      <trkpt lat="48.35566" lon="2.71423">
        <ele>119</ele>
        <time>2023-09-20T13:00:22.575+00:00</time>
      </trkpt>
      <trkpt lat="48.35567" lon="2.71418">
        <ele>119</ele>
        <time>2023-09-20T13:00:27.582+00:00</time>
      </trkpt>
      <trkpt lat="48.35572" lon="2.71415">
        <ele>121</ele>
        <time>2023-09-20T13:00:32.580+00:00</time>
      </trkpt>
      <trkpt lat="48.35576" lon="2.71411">
        <ele>121</ele>
        <time>2023-09-20T13:00:36.590+00:00</time>
      </trkpt>
      <trkpt lat="48.35578" lon="2.71405">
        <ele>121</ele>
        <time>2023-09-20T13:00:41.576+00:00</time>
      </trkpt>
      <trkpt lat="48.3558" lon="2.71397">
        <ele>120</ele>
        <time>2023-09-20T13:00:46.614+00:00</time>
      </trkpt>
      <trkpt lat="48.35582" lon="2.71391">
        <ele>120</ele>
        <time>2023-09-20T13:00:51.578+00:00</time>
      </trkpt>
      <trkpt lat="48.35583" lon="2.71384">
        <ele>120</ele>
        <time>2023-09-20T13:00:55.593+00:00</time>
      </trkpt>
      <trkpt lat="48.35588" lon="2.71378">
        <ele>120</ele>
        <time>2023-09-20T13:01:00.576+00:00</time>
      </trkpt>
      <trkpt lat="48.35591" lon="2.71371">
        <ele>119</ele>
        <time>2023-09-20T13:01:05.564+00:00</time>
      </trkpt>
      <trkpt lat="48.35592" lon="2.71366">
        <ele>119</ele>
        <time>2023-09-20T13:01:10.579+00:00</time>
      </trkpt>
      <trkpt lat="48.35592" lon="2.71361">
        <ele>119</ele>
        <time>2023-09-20T13:01:15.581+00:00</time>
      </trkpt>
      <trkpt lat="48.35592" lon="2.71354">
        <ele>119</ele>
        <time>2023-09-20T13:01:20.575+00:00</time>
      </trkpt>
      <trkpt lat="48.35596" lon="2.71346">
        <ele>118</ele>
        <time>2023-09-20T13:01:25.579+00:00</time>
      </trkpt>
      <trkpt lat="48.35598" lon="2.7134">
        <ele>121</ele>
        <time>2023-09-20T13:01:29.578+00:00</time>
      </trkpt>
      <trkpt lat="48.35602" lon="2.71337">
        <ele>121</ele>
        <time>2023-09-20T13:01:33.604+00:00</time>
      </trkpt>
      <trkpt lat="48.35607" lon="2.71337">
        <ele>121</ele>
        <time>2023-09-20T13:01:38.599+00:00</time>
      </trkpt>
      <trkpt lat="48.35611" lon="2.71335">
        <ele>121</ele>
        <time>2023-09-20T13:01:43.571+00:00</time>
      </trkpt>
      <trkpt lat="48.35614" lon="2.71335">
        <ele>121</ele>
        <time>2023-09-20T13:01:48.580+00:00</time>
      </trkpt>
      <trkpt lat="48.35615" lon="2.71334">
        <ele>121</ele>
        <time>2023-09-20T13:01:52.577+00:00</time>
      </trkpt>
      <trkpt lat="48.35617" lon="2.71333">
        <ele>121</ele>
        <time>2023-09-20T13:01:56.606+00:00</time>
      </trkpt>
      <trkpt lat="48.35621" lon="2.71335">
        <ele>121</ele>
        <time>2023-09-20T13:02:01.574+00:00</time>
      </trkpt>
      <trkpt lat="48.35625" lon="2.71334">
        <ele>121</ele>
        <time>2023-09-20T13:02:05.597+00:00</time>
      </trkpt>
      <trkpt lat="48.35629" lon="2.71331">
        <ele>126</ele>
        <time>2023-09-20T13:02:10.566+00:00</time>
      </trkpt>
      <trkpt lat="48.35632" lon="2.71328">
        <ele>126</ele>
        <time>2023-09-20T13:02:14.574+00:00</time>
      </trkpt>
      <trkpt lat="48.35635" lon="2.71324">
        <ele>126</ele>
        <time>2023-09-20T13:02:19.573+00:00</time>
      </trkpt>
      <trkpt lat="48.35637" lon="2.7132">
        <ele>126</ele>
        <time>2023-09-20T13:02:23.580+00:00</time>
      </trkpt>
      <trkpt lat="48.3564" lon="2.71316">
        <ele>125</ele>
        <time>2023-09-20T13:02:28.569+00:00</time>
      </trkpt>
      <trkpt lat="48.35643" lon="2.71309">
        <ele>125</ele>
        <time>2023-09-20T13:02:32.602+00:00</time>
      </trkpt>
      <trkpt lat="48.35647" lon="2.71302">
        <ele>125</ele>
        <time>2023-09-20T13:02:37.572+00:00</time>
      </trkpt>
      <trkpt lat="48.3565" lon="2.71301">
        <ele>125</ele>
        <time>2023-09-20T13:02:41.570+00:00</time>
      </trkpt>
      <trkpt lat="48.35654" lon="2.71298">
        <ele>129</ele>
        <time>2023-09-20T13:02:46.602+00:00</time>
      </trkpt>
      <trkpt lat="48.35657" lon="2.71296">
        <ele>129</ele>
        <time>2023-09-20T13:02:51.565+00:00</time>
      </trkpt>
      <trkpt lat="48.35659" lon="2.71295">
        <ele>129</ele>
        <time>2023-09-20T13:02:55.575+00:00</time>
      </trkpt>
      <trkpt lat="48.35663" lon="2.71292">
        <ele>129</ele>
        <time>2023-09-20T13:03:00.577+00:00</time>
      </trkpt>
      <trkpt lat="48.35665" lon="2.7129">
        <ele>129</ele>
        <time>2023-09-20T13:03:04.593+00:00</time>
      </trkpt>
      <trkpt lat="48.35668" lon="2.71283">
        <ele>129</ele>
        <time>2023-09-20T13:03:09.566+00:00</time>
      </trkpt>
      <trkpt lat="48.35668" lon="2.71279">
        <ele>129</ele>
        <time>2023-09-20T13:03:13.581+00:00</time>
      </trkpt>
      <trkpt lat="48.35671" lon="2.71275">
        <ele>129</ele>
        <time>2023-09-20T13:03:18.573+00:00</time>
      </trkpt>
      <trkpt lat="48.35674" lon="2.7127">
        <ele>129</ele>
        <time>2023-09-20T13:03:22.571+00:00</time>
      </trkpt>
      <trkpt lat="48.35676" lon="2.71266">
        <ele>129</ele>
        <time>2023-09-20T13:03:26.579+00:00</time>
      </trkpt>
      <trkpt lat="48.35678" lon="2.71262">
        <ele>129</ele>
        <time>2023-09-20T13:03:31.582+00:00</time>
      </trkpt>
      <trkpt lat="48.35679" lon="2.71261">
        <ele>129</ele>
        <time>2023-09-20T13:03:35.582+00:00</time>
      </trkpt>
      <trkpt lat="48.35683" lon="2.71257">
        <ele>132</ele>
        <time>2023-09-20T13:03:40.576+00:00</time>
      </trkpt>
      <trkpt lat="48.35685" lon="2.71254">
        <ele>132</ele>
        <time>2023-09-20T13:03:44.577+00:00</time>
      </trkpt>
      <trkpt lat="48.3569" lon="2.71247">
        <ele>132</ele>
        <time>2023-09-20T13:03:49.577+00:00</time>
      </trkpt>
      <trkpt lat="48.35693" lon="2.71242">
        <ele>132</ele>
        <time>2023-09-20T13:03:53.575+00:00</time>
      </trkpt>
      <trkpt lat="48.35697" lon="2.71237">
        <ele>132</ele>
        <time>2023-09-20T13:03:58.595+00:00</time>
      </trkpt>
      <trkpt lat="48.357" lon="2.71227">
        <ele>132</ele>
        <time>2023-09-20T13:04:03.591+00:00</time>
      </trkpt>
      <trkpt lat="48.35701" lon="2.7122">
        <ele>132</ele>
        <time>2023-09-20T13:04:08.575+00:00</time>
      </trkpt>
      <trkpt lat="48.35703" lon="2.71211">
        <ele>132</ele>
        <time>2023-09-20T13:04:13.581+00:00</time>
      </trkpt>
      <trkpt lat="48.35705" lon="2.71203">
        <ele>133</ele>
        <time>2023-09-20T13:04:18.572+00:00</time>
      </trkpt>
      <trkpt lat="48.35709" lon="2.71195">
        <ele>134</ele>
        <time>2023-09-20T13:04:23.566+00:00</time>
      </trkpt>
      <trkpt lat="48.35709" lon="2.71186">
        <ele>134</ele>
        <time>2023-09-20T13:04:28.569+00:00</time>
      </trkpt>
      <trkpt lat="48.35709" lon="2.71176">
        <ele>135</ele>
        <time>2023-09-20T13:04:33.569+00:00</time>
      </trkpt>
      <trkpt lat="48.35711" lon="2.71168">
        <ele>135</ele>
        <time>2023-09-20T13:04:38.571+00:00</time>
      </trkpt>
      <trkpt lat="48.3571" lon="2.71157">
        <ele>135</ele>
        <time>2023-09-20T13:04:43.575+00:00</time>
      </trkpt>
      <trkpt lat="48.35711" lon="2.71147">
        <ele>136</ele>
        <time>2023-09-20T13:04:48.572+00:00</time>
      </trkpt>
      <trkpt lat="48.3571" lon="2.7114">
        <ele>136</ele>
        <time>2023-09-20T13:04:52.585+00:00</time>
      </trkpt>
      <trkpt lat="48.35711" lon="2.71132">
        <ele>136</ele>
        <time>2023-09-20T13:04:57.575+00:00</time>
      </trkpt>
      <trkpt lat="48.35714" lon="2.71128">
        <ele>136</ele>
        <time>2023-09-20T13:05:01.605+00:00</time>
      </trkpt>
      <trkpt lat="48.3572" lon="2.71126">
        <ele>136</ele>
        <time>2023-09-20T13:05:06.567+00:00</time>
      </trkpt>
      <trkpt lat="48.35724" lon="2.71123">
        <ele>137</ele>
        <time>2023-09-20T13:05:10.574+00:00</time>
      </trkpt>
      <trkpt lat="48.35729" lon="2.7112">
        <ele>137</ele>
        <time>2023-09-20T13:05:15.579+00:00</time>
      </trkpt>
      <trkpt lat="48.35732" lon="2.71115">
        <ele>137</ele>
        <time>2023-09-20T13:05:20.570+00:00</time>
      </trkpt>
      <trkpt lat="48.35735" lon="2.7111">
        <ele>137</ele>
        <time>2023-09-20T13:05:24.578+00:00</time>
      </trkpt>
      <trkpt lat="48.35738" lon="2.71107">
        <ele>135</ele>
        <time>2023-09-20T13:05:28.578+00:00</time>
      </trkpt>
      <trkpt lat="48.35744" lon="2.71103">
        <ele>135</ele>
        <time>2023-09-20T13:05:33.567+00:00</time>
      </trkpt>
      <trkpt lat="48.35749" lon="2.711">
        <ele>135</ele>
        <time>2023-09-20T13:05:37.568+00:00</time>
      </trkpt>
      <trkpt lat="48.35753" lon="2.71095">
        <ele>137</ele>
        <time>2023-09-20T13:05:42.574+00:00</time>
      </trkpt>
      <trkpt lat="48.35756" lon="2.71091">
        <ele>137</ele>
        <time>2023-09-20T13:05:47.572+00:00</time>
      </trkpt>
      <trkpt lat="48.35759" lon="2.71088">
        <ele>137</ele>
        <time>2023-09-20T13:05:51.582+00:00</time>
      </trkpt>
      <trkpt lat="48.35765" lon="2.71085">
        <ele>135</ele>
        <time>2023-09-20T13:05:56.589+00:00</time>
      </trkpt>
      <trkpt lat="48.35771" lon="2.71083">
        <ele>135</ele>
        <time>2023-09-20T13:06:01.576+00:00</time>
      </trkpt>
      <trkpt lat="48.35775" lon="2.71081">
        <ele>135</ele>
        <time>2023-09-20T13:06:05.606+00:00</time>
      </trkpt>
      <trkpt lat="48.35778" lon="2.71078">
        <ele>135</ele>
        <time>2023-09-20T13:06:10.575+00:00</time>
      </trkpt>
      <trkpt lat="48.35782" lon="2.71071">
        <ele>135</ele>
        <time>2023-09-20T13:06:14.565+00:00</time>
      </trkpt>
      <trkpt lat="48.35796" lon="2.71057">
        <ele>132</ele>
        <time>2023-09-20T13:06:43.573+00:00</time>
      </trkpt>
      <trkpt lat="48.35796" lon="2.71057">
        <ele>132</ele>
        <time>2023-09-20T13:06:48.573+00:00</time>
      </trkpt>
      <trkpt lat="48.35796" lon="2.71056">
        <ele>132</ele>
        <time>2023-09-20T13:06:52.579+00:00</time>
      </trkpt>
      <trkpt lat="48.35796" lon="2.71051">
        <ele>132</ele>
        <time>2023-09-20T13:06:57.572+00:00</time>
      </trkpt>
      <trkpt lat="48.35795" lon="2.71045">
        <ele>132</ele>
        <time>2023-09-20T13:07:02.577+00:00</time>
      </trkpt>
      <trkpt lat="48.35796" lon="2.71039">
        <ele>131</ele>
        <time>2023-09-20T13:07:06.566+00:00</time>
      </trkpt>
      <trkpt lat="48.35795" lon="2.7103">
        <ele>131</ele>
        <time>2023-09-20T13:07:11.556+00:00</time>
      </trkpt>
      <trkpt lat="48.35795" lon="2.71024">
        <ele>131</ele>
        <time>2023-09-20T13:07:15.565+00:00</time>
      </trkpt>
      <trkpt lat="48.35794" lon="2.71021">
        <ele>131</ele>
        <time>2023-09-20T13:07:19.579+00:00</time>
      </trkpt>
      <trkpt lat="48.35794" lon="2.71021">
        <ele>131</ele>
        <time>2023-09-20T13:08:22.574+00:00</time>
      </trkpt>
      <trkpt lat="48.35794" lon="2.7102">
        <ele>131</ele>
        <time>2023-09-20T13:08:26.583+00:00</time>
      </trkpt>
      <trkpt lat="48.35796" lon="2.71016">
        <ele>131</ele>
        <time>2023-09-20T13:08:31.572+00:00</time>
      </trkpt>
      <trkpt lat="48.35797" lon="2.71011">
        <ele>132</ele>
        <time>2023-09-20T13:08:35.581+00:00</time>
      </trkpt>
      <trkpt lat="48.35797" lon="2.71003">
        <ele>132</ele>
        <time>2023-09-20T13:08:40.589+00:00</time>
      </trkpt>
      <trkpt lat="48.35797" lon="2.70995">
        <ele>132</ele>
        <time>2023-09-20T13:08:45.575+00:00</time>
      </trkpt>
      <trkpt lat="48.35797" lon="2.70988">
        <ele>132</ele>
        <time>2023-09-20T13:08:49.582+00:00</time>
      </trkpt>
      <trkpt lat="48.35799" lon="2.7098">
        <ele>133</ele>
        <time>2023-09-20T13:08:53.577+00:00</time>
      </trkpt>
      <trkpt lat="48.35798" lon="2.70969">
        <ele>133</ele>
        <time>2023-09-20T13:08:58.580+00:00</time>
      </trkpt>
      <trkpt lat="48.35797" lon="2.70961">
        <ele>133</ele>
        <time>2023-09-20T13:09:02.578+00:00</time>
      </trkpt>
      <trkpt lat="48.358" lon="2.70952">
        <ele>134</ele>
        <time>2023-09-20T13:09:07.596+00:00</time>
      </trkpt>
      <trkpt lat="48.35803" lon="2.70945">
        <ele>134</ele>
        <time>2023-09-20T13:09:12.586+00:00</time>
      </trkpt>
      <trkpt lat="48.35806" lon="2.70944">
        <ele>134</ele>
        <time>2023-09-20T13:09:16.595+00:00</time>
      </trkpt>
      <trkpt lat="48.35809" lon="2.70945">
        <ele>134</ele>
        <time>2023-09-20T13:09:20.596+00:00</time>
      </trkpt>
      <trkpt lat="48.35813" lon="2.70945">
        <ele>134</ele>
        <time>2023-09-20T13:09:25.575+00:00</time>
      </trkpt>
      <trkpt lat="48.35817" lon="2.70946">
        <ele>134</ele>
        <time>2023-09-20T13:09:29.581+00:00</time>
      </trkpt>
      <trkpt lat="48.35821" lon="2.70947">
        <ele>132</ele>
        <time>2023-09-20T13:09:33.613+00:00</time>
      </trkpt>
      <trkpt lat="48.35827" lon="2.70946">
        <ele>132</ele>
        <time>2023-09-20T13:09:38.597+00:00</time>
      </trkpt>
      <trkpt lat="48.35833" lon="2.70946">
        <ele>132</ele>
        <time>2023-09-20T13:09:42.601+00:00</time>
      </trkpt>
      <trkpt lat="48.3584" lon="2.70946">
        <ele>132</ele>
        <time>2023-09-20T13:09:47.590+00:00</time>
      </trkpt>
      <trkpt lat="48.35845" lon="2.70946">
        <ele>132</ele>
        <time>2023-09-20T13:09:51.594+00:00</time>
      </trkpt>
      <trkpt lat="48.35851" lon="2.70947">
        <ele>131</ele>
        <time>2023-09-20T13:09:56.598+00:00</time>
      </trkpt>
      <trkpt lat="48.35856" lon="2.70945">
        <ele>131</ele>
        <time>2023-09-20T13:10:00.595+00:00</time>
      </trkpt>
      <trkpt lat="48.35861" lon="2.70939">
        <ele>131</ele>
        <time>2023-09-20T13:10:04.588+00:00</time>
      </trkpt>
      <trkpt lat="48.35866" lon="2.70933">
        <ele>131</ele>
        <time>2023-09-20T13:10:08.616+00:00</time>
      </trkpt>
      <trkpt lat="48.35869" lon="2.70925">
        <ele>131</ele>
        <time>2023-09-20T13:10:13.596+00:00</time>
      </trkpt>
      <trkpt lat="48.35872" lon="2.70915">
        <ele>131</ele>
        <time>2023-09-20T13:10:18.592+00:00</time>
      </trkpt>
      <trkpt lat="48.35876" lon="2.70908">
        <ele>130</ele>
        <time>2023-09-20T13:10:22.575+00:00</time>
      </trkpt>
      <trkpt lat="48.3588" lon="2.70901">
        <ele>130</ele>
        <time>2023-09-20T13:10:26.585+00:00</time>
      </trkpt>
      <trkpt lat="48.35883" lon="2.70892">
        <ele>130</ele>
        <time>2023-09-20T13:10:31.591+00:00</time>
      </trkpt>
      <trkpt lat="48.35885" lon="2.70887">
        <ele>130</ele>
        <time>2023-09-20T13:10:35.590+00:00</time>
      </trkpt>
      <trkpt lat="48.35887" lon="2.70878">
        <ele>130</ele>
        <time>2023-09-20T13:10:40.574+00:00</time>
      </trkpt>
      <trkpt lat="48.35889" lon="2.70872">
        <ele>131</ele>
        <time>2023-09-20T13:10:44.585+00:00</time>
      </trkpt>
      <trkpt lat="48.35892" lon="2.70862">
        <ele>131</ele>
        <time>2023-09-20T13:10:49.588+00:00</time>
      </trkpt>
      <trkpt lat="48.35895" lon="2.70856">
        <ele>131</ele>
        <time>2023-09-20T13:10:53.610+00:00</time>
      </trkpt>
      <trkpt lat="48.35898" lon="2.70847">
        <ele>131</ele>
        <time>2023-09-20T13:10:58.589+00:00</time>
      </trkpt>
      <trkpt lat="48.35899" lon="2.7084">
        <ele>131</ele>
        <time>2023-09-20T13:11:03.588+00:00</time>
      </trkpt>
      <trkpt lat="48.35902" lon="2.70833">
        <ele>131</ele>
        <time>2023-09-20T13:11:07.609+00:00</time>
      </trkpt>
      <trkpt lat="48.35904" lon="2.70827">
        <ele>131</ele>
        <time>2023-09-20T13:11:12.573+00:00</time>
      </trkpt>
      <trkpt lat="48.35908" lon="2.7082">
        <ele>131</ele>
        <time>2023-09-20T13:11:17.583+00:00</time>
      </trkpt>
      <trkpt lat="48.35911" lon="2.70814">
        <ele>131</ele>
        <time>2023-09-20T13:11:21.583+00:00</time>
      </trkpt>
      <trkpt lat="48.35917" lon="2.70805">
        <ele>131</ele>
        <time>2023-09-20T13:11:26.574+00:00</time>
      </trkpt>
      <trkpt lat="48.35921" lon="2.70801">
        <ele>131</ele>
        <time>2023-09-20T13:11:30.594+00:00</time>
      </trkpt>
      <trkpt lat="48.35926" lon="2.70796">
        <ele>131</ele>
        <time>2023-09-20T13:11:34.581+00:00</time>
      </trkpt>
      <trkpt lat="48.35931" lon="2.70791">
        <ele>130</ele>
        <time>2023-09-20T13:11:38.610+00:00</time>
      </trkpt>
      <trkpt lat="48.35937" lon="2.70786">
        <ele>130</ele>
        <time>2023-09-20T13:11:43.598+00:00</time>
      </trkpt>
      <trkpt lat="48.35943" lon="2.7078">
        <ele>130</ele>
        <time>2023-09-20T13:11:48.603+00:00</time>
      </trkpt>
      <trkpt lat="48.35948" lon="2.70775">
        <ele>130</ele>
        <time>2023-09-20T13:11:53.593+00:00</time>
      </trkpt>
      <trkpt lat="48.35953" lon="2.70772">
        <ele>130</ele>
        <time>2023-09-20T13:11:57.598+00:00</time>
      </trkpt>
      <trkpt lat="48.35957" lon="2.70767">
        <ele>130</ele>
        <time>2023-09-20T13:12:01.596+00:00</time>
      </trkpt>
      <trkpt lat="48.35961" lon="2.70761">
        <ele>130</ele>
        <time>2023-09-20T13:12:06.591+00:00</time>
      </trkpt>
      <trkpt lat="48.35965" lon="2.70759">
        <ele>130</ele>
        <time>2023-09-20T13:12:10.600+00:00</time>
      </trkpt>
      <trkpt lat="48.3597" lon="2.70754">
        <ele>130</ele>
        <time>2023-09-20T13:12:15.593+00:00</time>
      </trkpt>
      <trkpt lat="48.35975" lon="2.7075">
        <ele>130</ele>
        <time>2023-09-20T13:12:19.582+00:00</time>
      </trkpt>
      <trkpt lat="48.3598" lon="2.70742">
        <ele>130</ele>
        <time>2023-09-20T13:12:24.583+00:00</time>
      </trkpt>
      <trkpt lat="48.35984" lon="2.70734">
        <ele>130</ele>
        <time>2023-09-20T13:12:29.607+00:00</time>
      </trkpt>
      <trkpt lat="48.35987" lon="2.70724">
        <ele>130</ele>
        <time>2023-09-20T13:12:34.587+00:00</time>
      </trkpt>
      <trkpt lat="48.35989" lon="2.70715">
        <ele>130</ele>
        <time>2023-09-20T13:12:39.587+00:00</time>
      </trkpt>
      <trkpt lat="48.35992" lon="2.70704">
        <ele>131</ele>
        <time>2023-09-20T13:12:44.568+00:00</time>
      </trkpt>
      <trkpt lat="48.35993" lon="2.70695">
        <ele>131</ele>
        <time>2023-09-20T13:12:48.599+00:00</time>
      </trkpt>
      <trkpt lat="48.35993" lon="2.70687">
        <ele>131</ele>
        <time>2023-09-20T13:12:52.597+00:00</time>
      </trkpt>
      <trkpt lat="48.35994" lon="2.70679">
        <ele>132</ele>
        <time>2023-09-20T13:12:57.577+00:00</time>
      </trkpt>
      <trkpt lat="48.35995" lon="2.70673">
        <ele>132</ele>
        <time>2023-09-20T13:13:01.594+00:00</time>
      </trkpt>
      <trkpt lat="48.35994" lon="2.70665">
        <ele>132</ele>
        <time>2023-09-20T13:13:06.602+00:00</time>
      </trkpt>
      <trkpt lat="48.35991" lon="2.70659">
        <ele>132</ele>
        <time>2023-09-20T13:13:11.582+00:00</time>
      </trkpt>
      <trkpt lat="48.35989" lon="2.70655">
        <ele>132</ele>
        <time>2023-09-20T13:13:15.598+00:00</time>
      </trkpt>
      <trkpt lat="48.35987" lon="2.70646">
        <ele>132</ele>
        <time>2023-09-20T13:13:20.623+00:00</time>
      </trkpt>
      <trkpt lat="48.35985" lon="2.70635">
        <ele>130</ele>
        <time>2023-09-20T13:13:25.609+00:00</time>
      </trkpt>
      <trkpt lat="48.35984" lon="2.70627">
        <ele>130</ele>
        <time>2023-09-20T13:13:30.610+00:00</time>
      </trkpt>
      <trkpt lat="48.35984" lon="2.70618">
        <ele>131</ele>
        <time>2023-09-20T13:13:35.617+00:00</time>
      </trkpt>
      <trkpt lat="48.35982" lon="2.70605">
        <ele>131</ele>
        <time>2023-09-20T13:13:40.574+00:00</time>
      </trkpt>
      <trkpt lat="48.35979" lon="2.70599">
        <ele>131</ele>
        <time>2023-09-20T13:13:45.576+00:00</time>
      </trkpt>
      <trkpt lat="48.35977" lon="2.70591">
        <ele>132</ele>
        <time>2023-09-20T13:13:49.589+00:00</time>
      </trkpt>
      <trkpt lat="48.35977" lon="2.70579">
        <ele>132</ele>
        <time>2023-09-20T13:13:54.596+00:00</time>
      </trkpt>
      <trkpt lat="48.35977" lon="2.70569">
        <ele>133</ele>
        <time>2023-09-20T13:13:59.571+00:00</time>
      </trkpt>
      <trkpt lat="48.35977" lon="2.70559">
        <ele>133</ele>
        <time>2023-09-20T13:14:03.586+00:00</time>
      </trkpt>
      <trkpt lat="48.35976" lon="2.70549">
        <ele>133</ele>
        <time>2023-09-20T13:14:08.595+00:00</time>
      </trkpt>
      <trkpt lat="48.35976" lon="2.7054">
        <ele>133</ele>
        <time>2023-09-20T13:14:12.594+00:00</time>
      </trkpt>
      <trkpt lat="48.35976" lon="2.70529">
        <ele>133</ele>
        <time>2023-09-20T13:14:17.592+00:00</time>
      </trkpt>
      <trkpt lat="48.35976" lon="2.70524">
        <ele>133</ele>
        <time>2023-09-20T13:14:21.596+00:00</time>
      </trkpt>
      <trkpt lat="48.35975" lon="2.70517">
        <ele>133</ele>
        <time>2023-09-20T13:14:26.606+00:00</time>
      </trkpt>
      <trkpt lat="48.35975" lon="2.70509">
        <ele>133</ele>
        <time>2023-09-20T13:14:30.611+00:00</time>
      </trkpt>
      <trkpt lat="48.35978" lon="2.70499">
        <ele>133</ele>
        <time>2023-09-20T13:14:35.594+00:00</time>
      </trkpt>
      <trkpt lat="48.3598" lon="2.7049">
        <ele>133</ele>
        <time>2023-09-20T13:14:40.597+00:00</time>
      </trkpt>
      <trkpt lat="48.35981" lon="2.70479">
        <ele>132</ele>
        <time>2023-09-20T13:14:45.583+00:00</time>
      </trkpt>
      <trkpt lat="48.35982" lon="2.70473">
        <ele>132</ele>
        <time>2023-09-20T13:14:49.597+00:00</time>
      </trkpt>
      <trkpt lat="48.35982" lon="2.70467">
        <ele>132</ele>
        <time>2023-09-20T13:14:53.604+00:00</time>
      </trkpt>
      <trkpt lat="48.35982" lon="2.70457">
        <ele>130</ele>
        <time>2023-09-20T13:14:58.564+00:00</time>
      </trkpt>
      <trkpt lat="48.35984" lon="2.70451">
        <ele>130</ele>
        <time>2023-09-20T13:15:02.587+00:00</time>
      </trkpt>
      <trkpt lat="48.35989" lon="2.70442">
        <ele>132</ele>
        <time>2023-09-20T13:15:07.586+00:00</time>
      </trkpt>
      <trkpt lat="48.35992" lon="2.70434">
        <ele>132</ele>
        <time>2023-09-20T13:15:12.605+00:00</time>
      </trkpt>
      <trkpt lat="48.35998" lon="2.70424">
        <ele>131</ele>
        <time>2023-09-20T13:15:17.585+00:00</time>
      </trkpt>
      <trkpt lat="48.36002" lon="2.70416">
        <ele>131</ele>
        <time>2023-09-20T13:15:22.598+00:00</time>
      </trkpt>
      <trkpt lat="48.36006" lon="2.7041">
        <ele>131</ele>
        <time>2023-09-20T13:15:27.592+00:00</time>
      </trkpt>
      <trkpt lat="48.36011" lon="2.70404">
        <ele>131</ele>
        <time>2023-09-20T13:15:32.574+00:00</time>
      </trkpt>
      <trkpt lat="48.36014" lon="2.70396">
        <ele>132</ele>
        <time>2023-09-20T13:15:36.574+00:00</time>
      </trkpt>
      <trkpt lat="48.36017" lon="2.70387">
        <ele>135</ele>
        <time>2023-09-20T13:15:40.574+00:00</time>
      </trkpt>
      <trkpt lat="48.36019" lon="2.7038">
        <ele>135</ele>
        <time>2023-09-20T13:15:44.608+00:00</time>
      </trkpt>
      <trkpt lat="48.36021" lon="2.70373">
        <ele>134</ele>
        <time>2023-09-20T13:15:49.571+00:00</time>
      </trkpt>
      <trkpt lat="48.36023" lon="2.70367">
        <ele>134</ele>
        <time>2023-09-20T13:15:53.580+00:00</time>
      </trkpt>
      <trkpt lat="48.36024" lon="2.70358">
        <ele>134</ele>
        <time>2023-09-20T13:15:57.584+00:00</time>
      </trkpt>
      <trkpt lat="48.36025" lon="2.70347">
        <ele>134</ele>
        <time>2023-09-20T13:16:02.594+00:00</time>
      </trkpt>
      <trkpt lat="48.36028" lon="2.70338">
        <ele>134</ele>
        <time>2023-09-20T13:16:07.580+00:00</time>
      </trkpt>
      <trkpt lat="48.36031" lon="2.7033">
        <ele>134</ele>
        <time>2023-09-20T13:16:11.579+00:00</time>
      </trkpt>
      <trkpt lat="48.36033" lon="2.70323">
        <ele>134</ele>
        <time>2023-09-20T13:16:15.587+00:00</time>
      </trkpt>
      <trkpt lat="48.36036" lon="2.70315">
        <ele>134</ele>
        <time>2023-09-20T13:16:20.605+00:00</time>
      </trkpt>
      <trkpt lat="48.36035" lon="2.70308">
        <ele>134</ele>
        <time>2023-09-20T13:16:25.598+00:00</time>
      </trkpt>
      <trkpt lat="48.36036" lon="2.70307">
        <ele>134</ele>
        <time>2023-09-20T13:16:30.587+00:00</time>
      </trkpt>
      <trkpt lat="48.36038" lon="2.70304">
        <ele>134</ele>
        <time>2023-09-20T13:16:35.584+00:00</time>
      </trkpt>
      <trkpt lat="48.3604" lon="2.70298">
        <ele>134</ele>
        <time>2023-09-20T13:16:40.572+00:00</time>
      </trkpt>
      <trkpt lat="48.36044" lon="2.70292">
        <ele>134</ele>
        <time>2023-09-20T13:16:45.596+00:00</time>
      </trkpt>
      <trkpt lat="48.36049" lon="2.70286">
        <ele>136</ele>
        <time>2023-09-20T13:16:50.568+00:00</time>
      </trkpt>
      <trkpt lat="48.36055" lon="2.7028">
        <ele>136</ele>
        <time>2023-09-20T13:16:55.574+00:00</time>
      </trkpt>
      <trkpt lat="48.36058" lon="2.70272">
        <ele>136</ele>
        <time>2023-09-20T13:17:00.570+00:00</time>
      </trkpt>
      <trkpt lat="48.36063" lon="2.70265">
        <ele>136</ele>
        <time>2023-09-20T13:17:05.573+00:00</time>
      </trkpt>
      <trkpt lat="48.36067" lon="2.70258">
        <ele>136</ele>
        <time>2023-09-20T13:17:10.572+00:00</time>
      </trkpt>
      <trkpt lat="48.36072" lon="2.70252">
        <ele>138</ele>
        <time>2023-09-20T13:17:14.572+00:00</time>
      </trkpt>
      <trkpt lat="48.3608" lon="2.70241">
        <ele>138</ele>
        <time>2023-09-20T13:17:19.573+00:00</time>
      </trkpt>
      <trkpt lat="48.36085" lon="2.70232">
        <ele>138</ele>
        <time>2023-09-20T13:17:23.569+00:00</time>
      </trkpt>
      <trkpt lat="48.36089" lon="2.70226">
        <ele>138</ele>
        <time>2023-09-20T13:17:27.570+00:00</time>
      </trkpt>
      <trkpt lat="48.36095" lon="2.70221">
        <ele>138</ele>
        <time>2023-09-20T13:17:32.566+00:00</time>
      </trkpt>
      <trkpt lat="48.36099" lon="2.70215">
        <ele>137</ele>
        <time>2023-09-20T13:17:37.579+00:00</time>
      </trkpt>
      <trkpt lat="48.36105" lon="2.70213">
        <ele>137</ele>
        <time>2023-09-20T13:17:42.555+00:00</time>
      </trkpt>
      <trkpt lat="48.3611" lon="2.70212">
        <ele>137</ele>
        <time>2023-09-20T13:17:46.573+00:00</time>
      </trkpt>
      <trkpt lat="48.36113" lon="2.70205">
        <ele>137</ele>
        <time>2023-09-20T13:17:51.573+00:00</time>
      </trkpt>
      <trkpt lat="48.36116" lon="2.70202">
        <ele>137</ele>
        <time>2023-09-20T13:17:55.582+00:00</time>
      </trkpt>
      <trkpt lat="48.3612" lon="2.70199">
        <ele>137</ele>
        <time>2023-09-20T13:17:59.582+00:00</time>
      </trkpt>
      <trkpt lat="48.36129" lon="2.70194">
        <ele>136</ele>
        <time>2023-09-20T13:18:04.574+00:00</time>
      </trkpt>
      <trkpt lat="48.36137" lon="2.70192">
        <ele>136</ele>
        <time>2023-09-20T13:18:09.556+00:00</time>
      </trkpt>
      <trkpt lat="48.36144" lon="2.70197">
        <ele>136</ele>
        <time>2023-09-20T13:18:14.581+00:00</time>
      </trkpt>
      <trkpt lat="48.36146" lon="2.70193">
        <ele>136</ele>
        <time>2023-09-20T13:18:19.576+00:00</time>
      </trkpt>
      <trkpt lat="48.3615" lon="2.7019">
        <ele>136</ele>
        <time>2023-09-20T13:18:24.575+00:00</time>
      </trkpt>
      <trkpt lat="48.36155" lon="2.70189">
        <ele>137</ele>
        <time>2023-09-20T13:18:29.550+00:00</time>
      </trkpt>
      <trkpt lat="48.3616" lon="2.70189">
        <ele>137</ele>
        <time>2023-09-20T13:18:33.576+00:00</time>
      </trkpt>
      <trkpt lat="48.36166" lon="2.70186">
        <ele>137</ele>
        <time>2023-09-20T13:18:37.575+00:00</time>
      </trkpt>
      <trkpt lat="48.36174" lon="2.70186">
        <ele>137</ele>
        <time>2023-09-20T13:18:42.559+00:00</time>
      </trkpt>
      <trkpt lat="48.36184" lon="2.70188">
        <ele>137</ele>
        <time>2023-09-20T13:18:47.588+00:00</time>
      </trkpt>
      <trkpt lat="48.36191" lon="2.70188">
        <ele>137</ele>
        <time>2023-09-20T13:18:52.566+00:00</time>
      </trkpt>
      <trkpt lat="48.36197" lon="2.70189">
        <ele>137</ele>
        <time>2023-09-20T13:18:56.585+00:00</time>
      </trkpt>
      <trkpt lat="48.36206" lon="2.7019">
        <ele>137</ele>
        <time>2023-09-20T13:19:01.569+00:00</time>
      </trkpt>
      <trkpt lat="48.36213" lon="2.70189">
        <ele>139</ele>
        <time>2023-09-20T13:19:06.562+00:00</time>
      </trkpt>
      <trkpt lat="48.36219" lon="2.70189">
        <ele>139</ele>
        <time>2023-09-20T13:19:10.570+00:00</time>
      </trkpt>
      <trkpt lat="48.36226" lon="2.70188">
        <ele>139</ele>
        <time>2023-09-20T13:19:15.557+00:00</time>
      </trkpt>
      <trkpt lat="48.36231" lon="2.70188">
        <ele>139</ele>
        <time>2023-09-20T13:19:19.574+00:00</time>
      </trkpt>
      <trkpt lat="48.36238" lon="2.70187">
        <ele>139</ele>
        <time>2023-09-20T13:19:24.573+00:00</time>
      </trkpt>
      <trkpt lat="48.36246" lon="2.70187">
        <ele>139</ele>
        <time>2023-09-20T13:19:29.557+00:00</time>
      </trkpt>
      <trkpt lat="48.36251" lon="2.70187">
        <ele>139</ele>
        <time>2023-09-20T13:19:34.556+00:00</time>
      </trkpt>
      <trkpt lat="48.36255" lon="2.70184">
        <ele>139</ele>
        <time>2023-09-20T13:19:38.575+00:00</time>
      </trkpt>
      <trkpt lat="48.36259" lon="2.70185">
        <ele>139</ele>
        <time>2023-09-20T13:19:43.563+00:00</time>
      </trkpt>
      <trkpt lat="48.36263" lon="2.70185">
        <ele>139</ele>
        <time>2023-09-20T13:19:48.567+00:00</time>
      </trkpt>
      <trkpt lat="48.36272" lon="2.70182">
        <ele>141</ele>
        <time>2023-09-20T13:19:53.576+00:00</time>
      </trkpt>
      <trkpt lat="48.3628" lon="2.70184">
        <ele>141</ele>
        <time>2023-09-20T13:19:58.555+00:00</time>
      </trkpt>
      <trkpt lat="48.36285" lon="2.70184">
        <ele>141</ele>
        <time>2023-09-20T13:20:02.572+00:00</time>
      </trkpt>
      <trkpt lat="48.36292" lon="2.70183">
        <ele>142</ele>
        <time>2023-09-20T13:20:07.564+00:00</time>
      </trkpt>
      <trkpt lat="48.36298" lon="2.70184">
        <ele>142</ele>
        <time>2023-09-20T13:20:12.563+00:00</time>
      </trkpt>
      <trkpt lat="48.36304" lon="2.70184">
        <ele>142</ele>
        <time>2023-09-20T13:20:16.574+00:00</time>
      </trkpt>
      <trkpt lat="48.36312" lon="2.70184">
        <ele>142</ele>
        <time>2023-09-20T13:20:21.589+00:00</time>
      </trkpt>
      <trkpt lat="48.36319" lon="2.70183">
        <ele>142</ele>
        <time>2023-09-20T13:20:26.568+00:00</time>
      </trkpt>
      <trkpt lat="48.36324" lon="2.70182">
        <ele>144</ele>
        <time>2023-09-20T13:20:31.572+00:00</time>
      </trkpt>
      <trkpt lat="48.36328" lon="2.70182">
        <ele>144</ele>
        <time>2023-09-20T13:20:36.558+00:00</time>
      </trkpt>
      <trkpt lat="48.36332" lon="2.70179">
        <ele>143</ele>
        <time>2023-09-20T13:20:40.582+00:00</time>
      </trkpt>
      <trkpt lat="48.36335" lon="2.70177">
        <ele>143</ele>
        <time>2023-09-20T13:20:44.558+00:00</time>
      </trkpt>
      <trkpt lat="48.36342" lon="2.70175">
        <ele>143</ele>
        <time>2023-09-20T13:20:51.567+00:00</time>
      </trkpt>
      <trkpt lat="48.36348" lon="2.70175">
        <ele>142</ele>
        <time>2023-09-20T13:20:55.572+00:00</time>
      </trkpt>
      <trkpt lat="48.3636" lon="2.70174">
        <ele>142</ele>
        <time>2023-09-20T13:21:00.576+00:00</time>
      </trkpt>
      <trkpt lat="48.36366" lon="2.70173">
        <ele>142</ele>
        <time>2023-09-20T13:21:05.557+00:00</time>
      </trkpt>
      <trkpt lat="48.36372" lon="2.70174">
        <ele>142</ele>
        <time>2023-09-20T13:21:09.563+00:00</time>
      </trkpt>
      <trkpt lat="48.36381" lon="2.70173">
        <ele>140</ele>
        <time>2023-09-20T13:21:14.562+00:00</time>
      </trkpt>
      <trkpt lat="48.3639" lon="2.70173">
        <ele>140</ele>
        <time>2023-09-20T13:21:19.564+00:00</time>
      </trkpt>
      <trkpt lat="48.36396" lon="2.70175">
        <ele>140</ele>
        <time>2023-09-20T13:21:24.572+00:00</time>
      </trkpt>
      <trkpt lat="48.36402" lon="2.7018">
        <ele>140</ele>
        <time>2023-09-20T13:21:29.569+00:00</time>
      </trkpt>
      <trkpt lat="48.36407" lon="2.70181">
        <ele>139</ele>
        <time>2023-09-20T13:21:34.555+00:00</time>
      </trkpt>
      <trkpt lat="48.3641" lon="2.70179">
        <ele>136</ele>
        <time>2023-09-20T13:21:38.565+00:00</time>
      </trkpt>
      <trkpt lat="48.3641" lon="2.70175">
        <ele>136</ele>
        <time>2023-09-20T13:21:43.562+00:00</time>
      </trkpt>
      <trkpt lat="48.36414" lon="2.70173">
        <ele>136</ele>
        <time>2023-09-20T13:21:47.586+00:00</time>
      </trkpt>
      <trkpt lat="48.3642" lon="2.70171">
        <ele>136</ele>
        <time>2023-09-20T13:21:52.583+00:00</time>
      </trkpt>
      <trkpt lat="48.36429" lon="2.7017">
        <ele>136</ele>
        <time>2023-09-20T13:21:57.571+00:00</time>
      </trkpt>
      <trkpt lat="48.36435" lon="2.70171">
        <ele>134</ele>
        <time>2023-09-20T13:22:01.579+00:00</time>
      </trkpt>
      <trkpt lat="48.3644" lon="2.70171">
        <ele>134</ele>
        <time>2023-09-20T13:22:06.576+00:00</time>
      </trkpt>
      <trkpt lat="48.36446" lon="2.70172">
        <ele>134</ele>
        <time>2023-09-20T13:22:11.568+00:00</time>
      </trkpt>
      <trkpt lat="48.36452" lon="2.7017">
        <ele>134</ele>
        <time>2023-09-20T13:22:16.584+00:00</time>
      </trkpt>
      <trkpt lat="48.36456" lon="2.70168">
        <ele>134</ele>
        <time>2023-09-20T13:22:21.586+00:00</time>
      </trkpt>
      <trkpt lat="48.3646" lon="2.70166">
        <ele>132</ele>
        <time>2023-09-20T13:22:26.583+00:00</time>
      </trkpt>
      <trkpt lat="48.36465" lon="2.70166">
        <ele>132</ele>
        <time>2023-09-20T13:22:31.583+00:00</time>
      </trkpt>
      <trkpt lat="48.36472" lon="2.70168">
        <ele>132</ele>
        <time>2023-09-20T13:22:36.554+00:00</time>
      </trkpt>
      <trkpt lat="48.36479" lon="2.70166">
        <ele>132</ele>
        <time>2023-09-20T13:22:40.561+00:00</time>
      </trkpt>
      <trkpt lat="48.36483" lon="2.70165">
        <ele>132</ele>
        <time>2023-09-20T13:22:45.603+00:00</time>
      </trkpt>
      <trkpt lat="48.36491" lon="2.70165">
        <ele>130</ele>
        <time>2023-09-20T13:22:50.576+00:00</time>
      </trkpt>
      <trkpt lat="48.36499" lon="2.70166">
        <ele>130</ele>
        <time>2023-09-20T13:22:55.584+00:00</time>
      </trkpt>
      <trkpt lat="48.36505" lon="2.70166">
        <ele>130</ele>
        <time>2023-09-20T13:23:00.562+00:00</time>
      </trkpt>
      <trkpt lat="48.36511" lon="2.70165">
        <ele>130</ele>
        <time>2023-09-20T13:23:04.567+00:00</time>
      </trkpt>
      <trkpt lat="48.36515" lon="2.70166">
        <ele>130</ele>
        <time>2023-09-20T13:23:08.547+00:00</time>
      </trkpt>
      <trkpt lat="48.36521" lon="2.70166">
        <ele>130</ele>
        <time>2023-09-20T13:23:13.563+00:00</time>
      </trkpt>
      <trkpt lat="48.36525" lon="2.70168">
        <ele>130</ele>
        <time>2023-09-20T13:23:18.562+00:00</time>
      </trkpt>
      <trkpt lat="48.36531" lon="2.70167">
        <ele>130</ele>
        <time>2023-09-20T13:23:22.555+00:00</time>
      </trkpt>
      <trkpt lat="48.36538" lon="2.70167">
        <ele>130</ele>
        <time>2023-09-20T13:23:26.560+00:00</time>
      </trkpt>
      <trkpt lat="48.36546" lon="2.70166">
        <ele>131</ele>
        <time>2023-09-20T13:23:30.567+00:00</time>
      </trkpt>
      <trkpt lat="48.36554" lon="2.70167">
        <ele>131</ele>
        <time>2023-09-20T13:23:35.563+00:00</time>
      </trkpt>
      <trkpt lat="48.36562" lon="2.70163">
        <ele>131</ele>
        <time>2023-09-20T13:23:40.588+00:00</time>
      </trkpt>
      <trkpt lat="48.36566" lon="2.70163">
        <ele>131</ele>
        <time>2023-09-20T13:23:44.586+00:00</time>
      </trkpt>
      <trkpt lat="48.36573" lon="2.70164">
        <ele>132</ele>
        <time>2023-09-20T13:23:49.575+00:00</time>
      </trkpt>
      <trkpt lat="48.36579" lon="2.70163">
        <ele>132</ele>
        <time>2023-09-20T13:23:54.567+00:00</time>
      </trkpt>
      <trkpt lat="48.36584" lon="2.70162">
        <ele>132</ele>
        <time>2023-09-20T13:23:58.558+00:00</time>
      </trkpt>
      <trkpt lat="48.36592" lon="2.70161">
        <ele>132</ele>
        <time>2023-09-20T13:24:03.567+00:00</time>
      </trkpt>
      <trkpt lat="48.36598" lon="2.70162">
        <ele>133</ele>
        <time>2023-09-20T13:24:08.567+00:00</time>
      </trkpt>
      <trkpt lat="48.36603" lon="2.7016">
        <ele>133</ele>
        <time>2023-09-20T13:24:13.573+00:00</time>
      </trkpt>
      <trkpt lat="48.36609" lon="2.70156">
        <ele>133</ele>
        <time>2023-09-20T13:24:18.572+00:00</time>
      </trkpt>
      <trkpt lat="48.36615" lon="2.70156">
        <ele>133</ele>
        <time>2023-09-20T13:24:22.576+00:00</time>
      </trkpt>
      <trkpt lat="48.3662" lon="2.70157">
        <ele>133</ele>
        <time>2023-09-20T13:24:26.584+00:00</time>
      </trkpt>
      <trkpt lat="48.36628" lon="2.70158">
        <ele>132</ele>
        <time>2023-09-20T13:24:31.580+00:00</time>
      </trkpt>
      <trkpt lat="48.36636" lon="2.70157">
        <ele>132</ele>
        <time>2023-09-20T13:24:36.563+00:00</time>
      </trkpt>
      <trkpt lat="48.36642" lon="2.70158">
        <ele>132</ele>
        <time>2023-09-20T13:24:40.559+00:00</time>
      </trkpt>
      <trkpt lat="48.36649" lon="2.70155">
        <ele>132</ele>
        <time>2023-09-20T13:24:45.564+00:00</time>
      </trkpt>
      <trkpt lat="48.36654" lon="2.70155">
        <ele>130</ele>
        <time>2023-09-20T13:24:49.585+00:00</time>
      </trkpt>
      <trkpt lat="48.36661" lon="2.70154">
        <ele>130</ele>
        <time>2023-09-20T13:24:54.576+00:00</time>
      </trkpt>
      <trkpt lat="48.36667" lon="2.70154">
        <ele>130</ele>
        <time>2023-09-20T13:24:59.579+00:00</time>
      </trkpt>
      <trkpt lat="48.36675" lon="2.70155">
        <ele>130</ele>
        <time>2023-09-20T13:25:04.574+00:00</time>
      </trkpt>
      <trkpt lat="48.3668" lon="2.70155">
        <ele>130</ele>
        <time>2023-09-20T13:25:09.568+00:00</time>
      </trkpt>
      <trkpt lat="48.36685" lon="2.70153">
        <ele>129</ele>
        <time>2023-09-20T13:25:13.581+00:00</time>
      </trkpt>
      <trkpt lat="48.36692" lon="2.70152">
        <ele>129</ele>
        <time>2023-09-20T13:25:18.588+00:00</time>
      </trkpt>
      <trkpt lat="48.36699" lon="2.70152">
        <ele>129</ele>
        <time>2023-09-20T13:25:23.583+00:00</time>
      </trkpt>
      <trkpt lat="48.36706" lon="2.70152">
        <ele>129</ele>
        <time>2023-09-20T13:25:28.597+00:00</time>
      </trkpt>
      <trkpt lat="48.36713" lon="2.7015">
        <ele>130</ele>
        <time>2023-09-20T13:25:33.576+00:00</time>
      </trkpt>
      <trkpt lat="48.36718" lon="2.70149">
        <ele>130</ele>
        <time>2023-09-20T13:25:38.577+00:00</time>
      </trkpt>
      <trkpt lat="48.36723" lon="2.70149">
        <ele>130</ele>
        <time>2023-09-20T13:25:42.575+00:00</time>
      </trkpt>
      <trkpt lat="48.36731" lon="2.70149">
        <ele>130</ele>
        <time>2023-09-20T13:25:47.585+00:00</time>
      </trkpt>
      <trkpt lat="48.36738" lon="2.70149">
        <ele>130</ele>
        <time>2023-09-20T13:25:52.575+00:00</time>
      </trkpt>
      <trkpt lat="48.36743" lon="2.70149">
        <ele>130</ele>
        <time>2023-09-20T13:25:56.575+00:00</time>
      </trkpt>
      <trkpt lat="48.36749" lon="2.70147">
        <ele>130</ele>
        <time>2023-09-20T13:26:01.577+00:00</time>
      </trkpt>
      <trkpt lat="48.36754" lon="2.70147">
        <ele>130</ele>
        <time>2023-09-20T13:26:05.587+00:00</time>
      </trkpt>
      <trkpt lat="48.3676" lon="2.70145">
        <ele>130</ele>
        <time>2023-09-20T13:26:09.590+00:00</time>
      </trkpt>
      <trkpt lat="48.36764" lon="2.70145">
        <ele>130</ele>
        <time>2023-09-20T13:26:13.579+00:00</time>
      </trkpt>
      <trkpt lat="48.3677" lon="2.70144">
        <ele>132</ele>
        <time>2023-09-20T13:26:18.570+00:00</time>
      </trkpt>
      <trkpt lat="48.36775" lon="2.70145">
        <ele>132</ele>
        <time>2023-09-20T13:26:22.573+00:00</time>
      </trkpt>
      <trkpt lat="48.36782" lon="2.70145">
        <ele>132</ele>
        <time>2023-09-20T13:26:27.569+00:00</time>
      </trkpt>
      <trkpt lat="48.3679" lon="2.70143">
        <ele>132</ele>
        <time>2023-09-20T13:26:32.577+00:00</time>
      </trkpt>
      <trkpt lat="48.36795" lon="2.70142">
        <ele>133</ele>
        <time>2023-09-20T13:26:37.570+00:00</time>
      </trkpt>
      <trkpt lat="48.36799" lon="2.70141">
        <ele>133</ele>
        <time>2023-09-20T13:26:41.581+00:00</time>
      </trkpt>
      <trkpt lat="48.36803" lon="2.70139">
        <ele>133</ele>
        <time>2023-09-20T13:26:45.572+00:00</time>
      </trkpt>
      <trkpt lat="48.36808" lon="2.70139">
        <ele>133</ele>
        <time>2023-09-20T13:26:49.576+00:00</time>
      </trkpt>
      <trkpt lat="48.36815" lon="2.70139">
        <ele>133</ele>
        <time>2023-09-20T13:26:54.567+00:00</time>
      </trkpt>
      <trkpt lat="48.36822" lon="2.70139">
        <ele>135</ele>
        <time>2023-09-20T13:26:58.583+00:00</time>
      </trkpt>
      <trkpt lat="48.36828" lon="2.70138">
        <ele>135</ele>
        <time>2023-09-20T13:27:02.584+00:00</time>
      </trkpt>
      <trkpt lat="48.36838" lon="2.70139">
        <ele>135</ele>
        <time>2023-09-20T13:27:07.591+00:00</time>
      </trkpt>
      <trkpt lat="48.36844" lon="2.70139">
        <ele>135</ele>
        <time>2023-09-20T13:27:12.572+00:00</time>
      </trkpt>
      <trkpt lat="48.3685" lon="2.7014">
        <ele>137</ele>
        <time>2023-09-20T13:27:17.577+00:00</time>
      </trkpt>
      <trkpt lat="48.36855" lon="2.70141">
        <ele>137</ele>
        <time>2023-09-20T13:27:21.570+00:00</time>
      </trkpt>
      <trkpt lat="48.3686" lon="2.70141">
        <ele>137</ele>
        <time>2023-09-20T13:27:25.588+00:00</time>
      </trkpt>
      <trkpt lat="48.36865" lon="2.70141">
        <ele>137</ele>
        <time>2023-09-20T13:27:30.591+00:00</time>
      </trkpt>
      <trkpt lat="48.36871" lon="2.7014">
        <ele>137</ele>
        <time>2023-09-20T13:27:35.587+00:00</time>
      </trkpt>
      <trkpt lat="48.36875" lon="2.70138">
        <ele>137</ele>
        <time>2023-09-20T13:27:39.589+00:00</time>
      </trkpt>
      <trkpt lat="48.36883" lon="2.70137">
        <ele>137</ele>
        <time>2023-09-20T13:27:44.583+00:00</time>
      </trkpt>
      <trkpt lat="48.36889" lon="2.70135">
        <ele>137</ele>
        <time>2023-09-20T13:27:49.577+00:00</time>
      </trkpt>
      <trkpt lat="48.36895" lon="2.70135">
        <ele>137</ele>
        <time>2023-09-20T13:27:54.579+00:00</time>
      </trkpt>
      <trkpt lat="48.36904" lon="2.70135">
        <ele>137</ele>
        <time>2023-09-20T13:27:59.554+00:00</time>
      </trkpt>
      <trkpt lat="48.36912" lon="2.70134">
        <ele>137</ele>
        <time>2023-09-20T13:28:03.578+00:00</time>
      </trkpt>
      <trkpt lat="48.36919" lon="2.70133">
        <ele>137</ele>
        <time>2023-09-20T13:28:08.568+00:00</time>
      </trkpt>
      <trkpt lat="48.36926" lon="2.70133">
        <ele>137</ele>
        <time>2023-09-20T13:28:13.570+00:00</time>
      </trkpt>
      <trkpt lat="48.36934" lon="2.70132">
        <ele>136</ele>
        <time>2023-09-20T13:28:18.586+00:00</time>
      </trkpt>
      <trkpt lat="48.3694" lon="2.70133">
        <ele>136</ele>
        <time>2023-09-20T13:28:22.574+00:00</time>
      </trkpt>
      <trkpt lat="48.36945" lon="2.70132">
        <ele>136</ele>
        <time>2023-09-20T13:28:26.568+00:00</time>
      </trkpt>
      <trkpt lat="48.36952" lon="2.70132">
        <ele>136</ele>
        <time>2023-09-20T13:28:31.586+00:00</time>
      </trkpt>
      <trkpt lat="48.36957" lon="2.70132">
        <ele>136</ele>
        <time>2023-09-20T13:28:36.588+00:00</time>
      </trkpt>
      <trkpt lat="48.36963" lon="2.70133">
        <ele>135</ele>
        <time>2023-09-20T13:28:41.576+00:00</time>
      </trkpt>
      <trkpt lat="48.36969" lon="2.70133">
        <ele>135</ele>
        <time>2023-09-20T13:28:46.580+00:00</time>
      </trkpt>
      <trkpt lat="48.36974" lon="2.70131">
        <ele>135</ele>
        <time>2023-09-20T13:28:51.571+00:00</time>
      </trkpt>
      <trkpt lat="48.36977" lon="2.70131">
        <ele>135</ele>
        <time>2023-09-20T13:28:55.575+00:00</time>
      </trkpt>
      <trkpt lat="48.36981" lon="2.70132">
        <ele>135</ele>
        <time>2023-09-20T13:28:59.583+00:00</time>
      </trkpt>
      <trkpt lat="48.36989" lon="2.70132">
        <ele>134</ele>
        <time>2023-09-20T13:29:04.590+00:00</time>
      </trkpt>
      <trkpt lat="48.36996" lon="2.70129">
        <ele>134</ele>
        <time>2023-09-20T13:29:09.569+00:00</time>
      </trkpt>
      <trkpt lat="48.37001" lon="2.70129">
        <ele>134</ele>
        <time>2023-09-20T13:29:13.570+00:00</time>
      </trkpt>
      <trkpt lat="48.37006" lon="2.70129">
        <ele>134</ele>
        <time>2023-09-20T13:29:17.574+00:00</time>
      </trkpt>
      <trkpt lat="48.37012" lon="2.70128">
        <ele>134</ele>
        <time>2023-09-20T13:29:22.571+00:00</time>
      </trkpt>
      <trkpt lat="48.37019" lon="2.70129">
        <ele>136</ele>
        <time>2023-09-20T13:29:27.575+00:00</time>
      </trkpt>
      <trkpt lat="48.37028" lon="2.70131">
        <ele>136</ele>
        <time>2023-09-20T13:29:32.567+00:00</time>
      </trkpt>
      <trkpt lat="48.37035" lon="2.70129">
        <ele>136</ele>
        <time>2023-09-20T13:29:37.573+00:00</time>
      </trkpt>
      <trkpt lat="48.3704" lon="2.70128">
        <ele>136</ele>
        <time>2023-09-20T13:29:41.568+00:00</time>
      </trkpt>
      <trkpt lat="48.37045" lon="2.70129">
        <ele>138</ele>
        <time>2023-09-20T13:29:46.567+00:00</time>
      </trkpt>
      <trkpt lat="48.37052" lon="2.70128">
        <ele>138</ele>
        <time>2023-09-20T13:29:51.576+00:00</time>
      </trkpt>
      <trkpt lat="48.37058" lon="2.70128">
        <ele>138</ele>
        <time>2023-09-20T13:29:55.597+00:00</time>
      </trkpt>
      <trkpt lat="48.37065" lon="2.70128">
        <ele>138</ele>
        <time>2023-09-20T13:30:00.581+00:00</time>
      </trkpt>
      <trkpt lat="48.37074" lon="2.70128">
        <ele>136</ele>
        <time>2023-09-20T13:30:05.590+00:00</time>
      </trkpt>
      <trkpt lat="48.37082" lon="2.70127">
        <ele>136</ele>
        <time>2023-09-20T13:30:10.571+00:00</time>
      </trkpt>
      <trkpt lat="48.3709" lon="2.70125">
        <ele>136</ele>
        <time>2023-09-20T13:30:15.579+00:00</time>
      </trkpt>
      <trkpt lat="48.37094" lon="2.70124">
        <ele>135</ele>
        <time>2023-09-20T13:30:19.595+00:00</time>
      </trkpt>
      <trkpt lat="48.37098" lon="2.70122">
        <ele>132</ele>
        <time>2023-09-20T13:30:23.578+00:00</time>
      </trkpt>
      <trkpt lat="48.37104" lon="2.7012">
        <ele>132</ele>
        <time>2023-09-20T13:30:28.576+00:00</time>
      </trkpt>
      <trkpt lat="48.37107" lon="2.70119">
        <ele>132</ele>
        <time>2023-09-20T13:30:32.591+00:00</time>
      </trkpt>
      <trkpt lat="48.37112" lon="2.70119">
        <ele>132</ele>
        <time>2023-09-20T13:30:37.600+00:00</time>
      </trkpt>
      <trkpt lat="48.37118" lon="2.70119">
        <ele>132</ele>
        <time>2023-09-20T13:30:42.590+00:00</time>
      </trkpt>
      <trkpt lat="48.37126" lon="2.7012">
        <ele>131</ele>
        <time>2023-09-20T13:30:47.594+00:00</time>
      </trkpt>
      <trkpt lat="48.37133" lon="2.70119">
        <ele>131</ele>
        <time>2023-09-20T13:30:52.599+00:00</time>
      </trkpt>
      <trkpt lat="48.3714" lon="2.70119">
        <ele>131</ele>
        <time>2023-09-20T13:30:57.566+00:00</time>
      </trkpt>
      <trkpt lat="48.37146" lon="2.7012">
        <ele>131</ele>
        <time>2023-09-20T13:31:02.579+00:00</time>
      </trkpt>
      <trkpt lat="48.37153" lon="2.7012">
        <ele>132</ele>
        <time>2023-09-20T13:31:07.587+00:00</time>
      </trkpt>
      <trkpt lat="48.37162" lon="2.70118">
        <ele>132</ele>
        <time>2023-09-20T13:31:12.572+00:00</time>
      </trkpt>
      <trkpt lat="48.3717" lon="2.70116">
        <ele>132</ele>
        <time>2023-09-20T13:31:17.607+00:00</time>
      </trkpt>
      <trkpt lat="48.37178" lon="2.70116">
        <ele>132</ele>
        <time>2023-09-20T13:31:22.582+00:00</time>
      </trkpt>
      <trkpt lat="48.37185" lon="2.70113">
        <ele>132</ele>
        <time>2023-09-20T13:31:27.576+00:00</time>
      </trkpt>
      <trkpt lat="48.37191" lon="2.70113">
        <ele>132</ele>
        <time>2023-09-20T13:31:31.579+00:00</time>
      </trkpt>
      <trkpt lat="48.37197" lon="2.70112">
        <ele>132</ele>
        <time>2023-09-20T13:31:35.603+00:00</time>
      </trkpt>
      <trkpt lat="48.37204" lon="2.70112">
        <ele>132</ele>
        <time>2023-09-20T13:31:40.599+00:00</time>
      </trkpt>
      <trkpt lat="48.37211" lon="2.70112">
        <ele>134</ele>
        <time>2023-09-20T13:31:45.576+00:00</time>
      </trkpt>
      <trkpt lat="48.37218" lon="2.70112">
        <ele>134</ele>
        <time>2023-09-20T13:31:49.583+00:00</time>
      </trkpt>
      <trkpt lat="48.37225" lon="2.70111">
        <ele>134</ele>
        <time>2023-09-20T13:31:54.575+00:00</time>
      </trkpt>
      <trkpt lat="48.37229" lon="2.70111">
        <ele>134</ele>
        <time>2023-09-20T13:31:58.574+00:00</time>
      </trkpt>
      <trkpt lat="48.37232" lon="2.70111">
        <ele>134</ele>
        <time>2023-09-20T13:32:02.593+00:00</time>
      </trkpt>
      <trkpt lat="48.37233" lon="2.70111">
        <ele>134</ele>
        <time>2023-09-20T13:32:07.588+00:00</time>
      </trkpt>
      <trkpt lat="48.37238" lon="2.70112">
        <ele>133</ele>
        <time>2023-09-20T13:32:12.592+00:00</time>
      </trkpt>
      <trkpt lat="48.37243" lon="2.70113">
        <ele>133</ele>
        <time>2023-09-20T13:32:17.571+00:00</time>
      </trkpt>
      <trkpt lat="48.37249" lon="2.70113">
        <ele>133</ele>
        <time>2023-09-20T13:32:22.582+00:00</time>
      </trkpt>
      <trkpt lat="48.37255" lon="2.70113">
        <ele>133</ele>
        <time>2023-09-20T13:32:27.559+00:00</time>
      </trkpt>
      <trkpt lat="48.3726" lon="2.70114">
        <ele>133</ele>
        <time>2023-09-20T13:32:31.584+00:00</time>
      </trkpt>
      <trkpt lat="48.37264" lon="2.70113">
        <ele>131</ele>
        <time>2023-09-20T13:32:36.590+00:00</time>
      </trkpt>
      <trkpt lat="48.3727" lon="2.70112">
        <ele>131</ele>
        <time>2023-09-20T13:32:41.580+00:00</time>
      </trkpt>
      <trkpt lat="48.37275" lon="2.70112">
        <ele>131</ele>
        <time>2023-09-20T13:32:46.578+00:00</time>
      </trkpt>
      <trkpt lat="48.37279" lon="2.70115">
        <ele>131</ele>
        <time>2023-09-20T13:32:50.586+00:00</time>
      </trkpt>
      <trkpt lat="48.37281" lon="2.70114">
        <ele>131</ele>
        <time>2023-09-20T13:32:55.587+00:00</time>
      </trkpt>
      <trkpt lat="48.3729" lon="2.70113">
        <ele>131</ele>
        <time>2023-09-20T13:33:56.584+00:00</time>
      </trkpt>
      <trkpt lat="48.3729" lon="2.70112">
        <ele>131</ele>
        <time>2023-09-20T13:34:01.573+00:00</time>
      </trkpt>
      <trkpt lat="48.37293" lon="2.70113">
        <ele>130</ele>
        <time>2023-09-20T13:34:05.602+00:00</time>
      </trkpt>
      <trkpt lat="48.373" lon="2.70108">
        <ele>130</ele>
        <time>2023-09-20T13:34:10.600+00:00</time>
      </trkpt>
      <trkpt lat="48.37305" lon="2.70107">
        <ele>130</ele>
        <time>2023-09-20T13:34:15.589+00:00</time>
      </trkpt>
      <trkpt lat="48.37309" lon="2.70108">
        <ele>130</ele>
        <time>2023-09-20T13:34:20.596+00:00</time>
      </trkpt>
      <trkpt lat="48.37312" lon="2.70108">
        <ele>130</ele>
        <time>2023-09-20T13:34:25.577+00:00</time>
      </trkpt>
      <trkpt lat="48.37317" lon="2.70108">
        <ele>130</ele>
        <time>2023-09-20T13:34:29.586+00:00</time>
      </trkpt>
      <trkpt lat="48.37323" lon="2.70107">
        <ele>130</ele>
        <time>2023-09-20T13:34:33.597+00:00</time>
      </trkpt>
      <trkpt lat="48.37328" lon="2.70108">
        <ele>130</ele>
        <time>2023-09-20T13:34:38.578+00:00</time>
      </trkpt>
      <trkpt lat="48.37333" lon="2.70107">
        <ele>130</ele>
        <time>2023-09-20T13:34:42.581+00:00</time>
      </trkpt>
      <trkpt lat="48.37338" lon="2.70107">
        <ele>130</ele>
        <time>2023-09-20T13:34:47.598+00:00</time>
      </trkpt>
      <trkpt lat="48.37343" lon="2.70108">
        <ele>130</ele>
        <time>2023-09-20T13:34:52.575+00:00</time>
      </trkpt>
      <trkpt lat="48.37349" lon="2.70107">
        <ele>130</ele>
        <time>2023-09-20T13:34:56.588+00:00</time>
      </trkpt>
      <trkpt lat="48.37355" lon="2.70108">
        <ele>130</ele>
        <time>2023-09-20T13:35:00.615+00:00</time>
      </trkpt>
      <trkpt lat="48.37361" lon="2.70107">
        <ele>130</ele>
        <time>2023-09-20T13:35:05.575+00:00</time>
      </trkpt>
      <trkpt lat="48.37366" lon="2.70106">
        <ele>130</ele>
        <time>2023-09-20T13:35:10.598+00:00</time>
      </trkpt>
      <trkpt lat="48.37372" lon="2.70108">
        <ele>130</ele>
        <time>2023-09-20T13:35:15.601+00:00</time>
      </trkpt>
      <trkpt lat="48.37378" lon="2.70108">
        <ele>129</ele>
        <time>2023-09-20T13:35:19.602+00:00</time>
      </trkpt>
      <trkpt lat="48.37384" lon="2.70108">
        <ele>129</ele>
        <time>2023-09-20T13:35:23.608+00:00</time>
      </trkpt>
      <trkpt lat="48.37389" lon="2.70107">
        <ele>129</ele>
        <time>2023-09-20T13:35:28.575+00:00</time>
      </trkpt>
      <trkpt lat="48.37394" lon="2.70105">
        <ele>129</ele>
        <time>2023-09-20T13:35:33.608+00:00</time>
      </trkpt>
      <trkpt lat="48.37398" lon="2.70105">
        <ele>129</ele>
        <time>2023-09-20T13:35:37.597+00:00</time>
      </trkpt>
      <trkpt lat="48.37405" lon="2.70105">
        <ele>128</ele>
        <time>2023-09-20T13:35:42.574+00:00</time>
      </trkpt>
      <trkpt lat="48.37411" lon="2.70104">
        <ele>128</ele>
        <time>2023-09-20T13:35:46.593+00:00</time>
      </trkpt>
      <trkpt lat="48.3742" lon="2.70103">
        <ele>128</ele>
        <time>2023-09-20T13:35:51.589+00:00</time>
      </trkpt>
      <trkpt lat="48.37427" lon="2.70103">
        <ele>128</ele>
        <time>2023-09-20T13:35:56.610+00:00</time>
      </trkpt>
      <trkpt lat="48.37431" lon="2.70103">
        <ele>126</ele>
        <time>2023-09-20T13:36:00.610+00:00</time>
      </trkpt>
      <trkpt lat="48.37437" lon="2.70103">
        <ele>126</ele>
        <time>2023-09-20T13:36:04.597+00:00</time>
      </trkpt>
      <trkpt lat="48.37444" lon="2.70102">
        <ele>126</ele>
        <time>2023-09-20T13:36:09.601+00:00</time>
      </trkpt>
      <trkpt lat="48.37451" lon="2.70102">
        <ele>126</ele>
        <time>2023-09-20T13:36:14.587+00:00</time>
      </trkpt>
      <trkpt lat="48.37456" lon="2.701">
        <ele>126</ele>
        <time>2023-09-20T13:36:18.586+00:00</time>
      </trkpt>
      <trkpt lat="48.37461" lon="2.70096">
        <ele>126</ele>
        <time>2023-09-20T13:36:22.592+00:00</time>
      </trkpt>
      <trkpt lat="48.37464" lon="2.70089">
        <ele>126</ele>
        <time>2023-09-20T13:36:27.572+00:00</time>
      </trkpt>
      <trkpt lat="48.37466" lon="2.70081">
        <ele>126</ele>
        <time>2023-09-20T13:36:31.593+00:00</time>
      </trkpt>
      <trkpt lat="48.37468" lon="2.70076">
        <ele>126</ele>
        <time>2023-09-20T13:36:35.608+00:00</time>
      </trkpt>
      <trkpt lat="48.37473" lon="2.70068">
        <ele>127</ele>
        <time>2023-09-20T13:36:40.570+00:00</time>
      </trkpt>
      <trkpt lat="48.37475" lon="2.70059">
        <ele>127</ele>
        <time>2023-09-20T13:36:44.578+00:00</time>
      </trkpt>
      <trkpt lat="48.37476" lon="2.70051">
        <ele>127</ele>
        <time>2023-09-20T13:36:48.594+00:00</time>
      </trkpt>
      <trkpt lat="48.37478" lon="2.70045">
        <ele>127</ele>
        <time>2023-09-20T13:36:52.597+00:00</time>
      </trkpt>
      <trkpt lat="48.3748" lon="2.70039">
        <ele>127</ele>
        <time>2023-09-20T13:36:56.610+00:00</time>
      </trkpt>
      <trkpt lat="48.37482" lon="2.70031">
        <ele>127</ele>
        <time>2023-09-20T13:37:01.579+00:00</time>
      </trkpt>
      <trkpt lat="48.37485" lon="2.70023">
        <ele>127</ele>
        <time>2023-09-20T13:37:06.603+00:00</time>
      </trkpt>
      <trkpt lat="48.3749" lon="2.70014">
        <ele>126</ele>
        <time>2023-09-20T13:37:11.592+00:00</time>
      </trkpt>
      <trkpt lat="48.37494" lon="2.70006">
        <ele>126</ele>
        <time>2023-09-20T13:37:16.569+00:00</time>
      </trkpt>
      <trkpt lat="48.37497" lon="2.70004">
        <ele>126</ele>
        <time>2023-09-20T13:37:20.577+00:00</time>
      </trkpt>
      <trkpt lat="48.375" lon="2.70005">
        <ele>126</ele>
        <time>2023-09-20T13:37:24.592+00:00</time>
      </trkpt>
      <trkpt lat="48.37507" lon="2.70006">
        <ele>126</ele>
        <time>2023-09-20T13:37:29.572+00:00</time>
      </trkpt>
      <trkpt lat="48.37512" lon="2.70006">
        <ele>126</ele>
        <time>2023-09-20T13:37:33.587+00:00</time>
      </trkpt>
      <trkpt lat="48.37516" lon="2.70007">
        <ele>124</ele>
        <time>2023-09-20T13:37:37.612+00:00</time>
      </trkpt>
      <trkpt lat="48.37521" lon="2.70008">
        <ele>124</ele>
        <time>2023-09-20T13:37:42.585+00:00</time>
      </trkpt>
      <trkpt lat="48.37527" lon="2.70009">
        <ele>124</ele>
        <time>2023-09-20T13:37:46.595+00:00</time>
      </trkpt>
      <trkpt lat="48.37531" lon="2.70011">
        <ele>124</ele>
        <time>2023-09-20T13:37:50.598+00:00</time>
      </trkpt>
      <trkpt lat="48.37538" lon="2.70014">
        <ele>126</ele>
        <time>2023-09-20T13:37:55.584+00:00</time>
      </trkpt>
      <trkpt lat="48.37543" lon="2.70016">
        <ele>125</ele>
        <time>2023-09-20T13:38:00.616+00:00</time>
      </trkpt>
      <trkpt lat="48.37549" lon="2.70016">
        <ele>125</ele>
        <time>2023-09-20T13:38:05.592+00:00</time>
      </trkpt>
      <trkpt lat="48.37555" lon="2.70016">
        <ele>125</ele>
        <time>2023-09-20T13:38:10.595+00:00</time>
      </trkpt>
      <trkpt lat="48.37562" lon="2.70015">
        <ele>125</ele>
        <time>2023-09-20T13:38:15.577+00:00</time>
      </trkpt>
      <trkpt lat="48.37566" lon="2.70013">
        <ele>124</ele>
        <time>2023-09-20T13:38:20.595+00:00</time>
      </trkpt>
      <trkpt lat="48.37573" lon="2.70012">
        <ele>126</ele>
        <time>2023-09-20T13:38:25.571+00:00</time>
      </trkpt>
      <trkpt lat="48.37578" lon="2.70011">
        <ele>126</ele>
        <time>2023-09-20T13:38:29.583+00:00</time>
      </trkpt>
      <trkpt lat="48.37584" lon="2.70009">
        <ele>126</ele>
        <time>2023-09-20T13:38:33.581+00:00</time>
      </trkpt>
      <trkpt lat="48.37585" lon="2.70003">
        <ele>126</ele>
        <time>2023-09-20T13:38:37.594+00:00</time>
      </trkpt>
      <trkpt lat="48.37586" lon="2.69998">
        <ele>126</ele>
        <time>2023-09-20T13:38:41.609+00:00</time>
      </trkpt>
      <trkpt lat="48.37592" lon="2.69991">
        <ele>126</ele>
        <time>2023-09-20T13:38:46.577+00:00</time>
      </trkpt>
      <trkpt lat="48.37595" lon="2.69986">
        <ele>126</ele>
        <time>2023-09-20T13:38:50.591+00:00</time>
      </trkpt>
      <trkpt lat="48.37597" lon="2.69979">
        <ele>126</ele>
        <time>2023-09-20T13:38:54.600+00:00</time>
      </trkpt>
      <trkpt lat="48.376" lon="2.69971">
        <ele>128</ele>
        <time>2023-09-20T13:38:59.582+00:00</time>
      </trkpt>
      <trkpt lat="48.37605" lon="2.69966">
        <ele>128</ele>
        <time>2023-09-20T13:39:03.577+00:00</time>
      </trkpt>
      <trkpt lat="48.37611" lon="2.69964">
        <ele>128</ele>
        <time>2023-09-20T13:39:08.573+00:00</time>
      </trkpt>
      <trkpt lat="48.37616" lon="2.69966">
        <ele>128</ele>
        <time>2023-09-20T13:39:12.611+00:00</time>
      </trkpt>
      <trkpt lat="48.37621" lon="2.69971">
        <ele>128</ele>
        <time>2023-09-20T13:39:17.577+00:00</time>
      </trkpt>
      <trkpt lat="48.37622" lon="2.69976">
        <ele>128</ele>
        <time>2023-09-20T13:39:21.601+00:00</time>
      </trkpt>
      <trkpt lat="48.37624" lon="2.69982">
        <ele>128</ele>
        <time>2023-09-20T13:39:26.586+00:00</time>
      </trkpt>
      <trkpt lat="48.37628" lon="2.69989">
        <ele>128</ele>
        <time>2023-09-20T13:39:31.591+00:00</time>
      </trkpt>
      <trkpt lat="48.37633" lon="2.69994">
        <ele>128</ele>
        <time>2023-09-20T13:39:36.590+00:00</time>
      </trkpt>
      <trkpt lat="48.37638" lon="2.69991">
        <ele>128</ele>
        <time>2023-09-20T13:39:41.577+00:00</time>
      </trkpt>
      <trkpt lat="48.37642" lon="2.6999">
        <ele>128</ele>
        <time>2023-09-20T13:39:46.580+00:00</time>
      </trkpt>
      <trkpt lat="48.37646" lon="2.6999">
        <ele>128</ele>
        <time>2023-09-20T13:39:50.578+00:00</time>
      </trkpt>
      <trkpt lat="48.3765" lon="2.69989">
        <ele>128</ele>
        <time>2023-09-20T13:39:54.604+00:00</time>
      </trkpt>
      <trkpt lat="48.37654" lon="2.69986">
        <ele>129</ele>
        <time>2023-09-20T13:39:59.594+00:00</time>
      </trkpt>
      <trkpt lat="48.37657" lon="2.6998">
        <ele>129</ele>
        <time>2023-09-20T13:40:04.570+00:00</time>
      </trkpt>
      <trkpt lat="48.37661" lon="2.69974">
        <ele>129</ele>
        <time>2023-09-20T13:40:09.583+00:00</time>
      </trkpt>
      <trkpt lat="48.37661" lon="2.69965">
        <ele>129</ele>
        <time>2023-09-20T13:40:14.614+00:00</time>
      </trkpt>
      <trkpt lat="48.37662" lon="2.69956">
        <ele>129</ele>
        <time>2023-09-20T13:40:19.576+00:00</time>
      </trkpt>
      <trkpt lat="48.37664" lon="2.69949">
        <ele>129</ele>
        <time>2023-09-20T13:40:23.587+00:00</time>
      </trkpt>
      <trkpt lat="48.37665" lon="2.6994">
        <ele>129</ele>
        <time>2023-09-20T13:40:28.592+00:00</time>
      </trkpt>
      <trkpt lat="48.37666" lon="2.69931">
        <ele>129</ele>
        <time>2023-09-20T13:40:33.568+00:00</time>
      </trkpt>
      <trkpt lat="48.37669" lon="2.69924">
        <ele>130</ele>
        <time>2023-09-20T13:40:37.600+00:00</time>
      </trkpt>
      <trkpt lat="48.37671" lon="2.69916">
        <ele>130</ele>
        <time>2023-09-20T13:40:42.569+00:00</time>
      </trkpt>
      <trkpt lat="48.37674" lon="2.69909">
        <ele>130</ele>
        <time>2023-09-20T13:40:47.560+00:00</time>
      </trkpt>
      <trkpt lat="48.37676" lon="2.69902">
        <ele>131</ele>
        <time>2023-09-20T13:40:51.584+00:00</time>
      </trkpt>
      <trkpt lat="48.37679" lon="2.69893">
        <ele>131</ele>
        <time>2023-09-20T13:40:56.594+00:00</time>
      </trkpt>
      <trkpt lat="48.37684" lon="2.69886">
        <ele>128</ele>
        <time>2023-09-20T13:41:01.574+00:00</time>
      </trkpt>
      <trkpt lat="48.37688" lon="2.6988">
        <ele>128</ele>
        <time>2023-09-20T13:41:06.576+00:00</time>
      </trkpt>
      <trkpt lat="48.37693" lon="2.69876">
        <ele>128</ele>
        <time>2023-09-20T13:41:11.577+00:00</time>
      </trkpt>
      <trkpt lat="48.37698" lon="2.69871">
        <ele>129</ele>
        <time>2023-09-20T13:41:15.591+00:00</time>
      </trkpt>
      <trkpt lat="48.37702" lon="2.69867">
        <ele>129</ele>
        <time>2023-09-20T13:41:19.600+00:00</time>
      </trkpt>
      <trkpt lat="48.37708" lon="2.69863">
        <ele>129</ele>
        <time>2023-09-20T13:41:24.575+00:00</time>
      </trkpt>
      <trkpt lat="48.37714" lon="2.69857">
        <ele>126</ele>
        <time>2023-09-20T13:41:29.573+00:00</time>
      </trkpt>
      <trkpt lat="48.37717" lon="2.69853">
        <ele>126</ele>
        <time>2023-09-20T13:41:33.610+00:00</time>
      </trkpt>
      <trkpt lat="48.37719" lon="2.69847">
        <ele>127</ele>
        <time>2023-09-20T13:41:38.590+00:00</time>
      </trkpt>
      <trkpt lat="48.37723" lon="2.69844">
        <ele>127</ele>
        <time>2023-09-20T13:41:43.575+00:00</time>
      </trkpt>
      <trkpt lat="48.3773" lon="2.69843">
        <ele>127</ele>
        <time>2023-09-20T13:41:48.591+00:00</time>
      </trkpt>
      <trkpt lat="48.37738" lon="2.69843">
        <ele>125</ele>
        <time>2023-09-20T13:41:53.579+00:00</time>
      </trkpt>
      <trkpt lat="48.37745" lon="2.69842">
        <ele>125</ele>
        <time>2023-09-20T13:41:58.577+00:00</time>
      </trkpt>
      <trkpt lat="48.37751" lon="2.69842">
        <ele>125</ele>
        <time>2023-09-20T13:42:03.582+00:00</time>
      </trkpt>
      <trkpt lat="48.37755" lon="2.69842">
        <ele>125</ele>
        <time>2023-09-20T13:42:08.567+00:00</time>
      </trkpt>
      <trkpt lat="48.37759" lon="2.69843">
        <ele>125</ele>
        <time>2023-09-20T13:42:13.577+00:00</time>
      </trkpt>
      <trkpt lat="48.37761" lon="2.69847">
        <ele>125</ele>
        <time>2023-09-20T13:42:17.583+00:00</time>
      </trkpt>
      <trkpt lat="48.37762" lon="2.69853">
        <ele>124</ele>
        <time>2023-09-20T13:42:22.576+00:00</time>
      </trkpt>
      <trkpt lat="48.37763" lon="2.69859">
        <ele>124</ele>
        <time>2023-09-20T13:42:26.585+00:00</time>
      </trkpt>
      <trkpt lat="48.37762" lon="2.69864">
        <ele>124</ele>
        <time>2023-09-20T13:42:30.592+00:00</time>
      </trkpt>
      <trkpt lat="48.37762" lon="2.69871">
        <ele>124</ele>
        <time>2023-09-20T13:42:35.569+00:00</time>
      </trkpt>
      <trkpt lat="48.37762" lon="2.69879">
        <ele>124</ele>
        <time>2023-09-20T13:42:39.584+00:00</time>
      </trkpt>
      <trkpt lat="48.37763" lon="2.69886">
        <ele>124</ele>
        <time>2023-09-20T13:42:44.582+00:00</time>
      </trkpt>
      <trkpt lat="48.37763" lon="2.69894">
        <ele>124</ele>
        <time>2023-09-20T13:42:49.573+00:00</time>
      </trkpt>
      <trkpt lat="48.37763" lon="2.69899">
        <ele>124</ele>
        <time>2023-09-20T13:42:54.574+00:00</time>
      </trkpt>
      <trkpt lat="48.37763" lon="2.69904">
        <ele>125</ele>
        <time>2023-09-20T13:42:58.568+00:00</time>
      </trkpt>
      <trkpt lat="48.37762" lon="2.69914">
        <ele>125</ele>
        <time>2023-09-20T13:43:03.578+00:00</time>
      </trkpt>
      <trkpt lat="48.37761" lon="2.69922">
        <ele>125</ele>
        <time>2023-09-20T13:43:08.574+00:00</time>
      </trkpt>
      <trkpt lat="48.37761" lon="2.69931">
        <ele>125</ele>
        <time>2023-09-20T13:43:12.588+00:00</time>
      </trkpt>
      <trkpt lat="48.3776" lon="2.69942">
        <ele>125</ele>
        <time>2023-09-20T13:43:17.589+00:00</time>
      </trkpt>
      <trkpt lat="48.37759" lon="2.69952">
        <ele>125</ele>
        <time>2023-09-20T13:43:22.579+00:00</time>
      </trkpt>
      <trkpt lat="48.37755" lon="2.69961">
        <ele>127</ele>
        <time>2023-09-20T13:43:27.567+00:00</time>
      </trkpt>
      <trkpt lat="48.37753" lon="2.69969">
        <ele>127</ele>
        <time>2023-09-20T13:43:31.590+00:00</time>
      </trkpt>
      <trkpt lat="48.37752" lon="2.69977">
        <ele>127</ele>
        <time>2023-09-20T13:43:36.582+00:00</time>
      </trkpt>
      <trkpt lat="48.37752" lon="2.69985">
        <ele>127</ele>
        <time>2023-09-20T13:43:41.584+00:00</time>
      </trkpt>
      <trkpt lat="48.37752" lon="2.69991">
        <ele>128</ele>
        <time>2023-09-20T13:43:45.587+00:00</time>
      </trkpt>
      <trkpt lat="48.37752" lon="2.69997">
        <ele>128</ele>
        <time>2023-09-20T13:43:50.581+00:00</time>
      </trkpt>
      <trkpt lat="48.37751" lon="2.70008">
        <ele>128</ele>
        <time>2023-09-20T13:43:55.573+00:00</time>
      </trkpt>
      <trkpt lat="48.3775" lon="2.70017">
        <ele>128</ele>
        <time>2023-09-20T13:43:59.602+00:00</time>
      </trkpt>
      <trkpt lat="48.37748" lon="2.70025">
        <ele>128</ele>
        <time>2023-09-20T13:44:04.575+00:00</time>
      </trkpt>
      <trkpt lat="48.37746" lon="2.70032">
        <ele>128</ele>
        <time>2023-09-20T13:44:08.585+00:00</time>
      </trkpt>
      <trkpt lat="48.37745" lon="2.70042">
        <ele>128</ele>
        <time>2023-09-20T13:44:13.590+00:00</time>
      </trkpt>
      <trkpt lat="48.37744" lon="2.70047">
        <ele>128</ele>
        <time>2023-09-20T13:44:17.583+00:00</time>
      </trkpt>
      <trkpt lat="48.37743" lon="2.70058">
        <ele>128</ele>
        <time>2023-09-20T13:44:22.557+00:00</time>
      </trkpt>
      <trkpt lat="48.37742" lon="2.70065">
        <ele>128</ele>
        <time>2023-09-20T13:44:26.575+00:00</time>
      </trkpt>
      <trkpt lat="48.3774" lon="2.70072">
        <ele>127</ele>
        <time>2023-09-20T13:44:30.552+00:00</time>
      </trkpt>
      <trkpt lat="48.37735" lon="2.70081">
        <ele>130</ele>
        <time>2023-09-20T13:44:35.561+00:00</time>
      </trkpt>
      <trkpt lat="48.37733" lon="2.7009">
        <ele>130</ele>
        <time>2023-09-20T13:44:39.561+00:00</time>
      </trkpt>
      <trkpt lat="48.37732" lon="2.70099">
        <ele>131</ele>
        <time>2023-09-20T13:44:43.582+00:00</time>
      </trkpt>
      <trkpt lat="48.37731" lon="2.70106">
        <ele>131</ele>
        <time>2023-09-20T13:44:48.584+00:00</time>
      </trkpt>
      <trkpt lat="48.37731" lon="2.70112">
        <ele>131</ele>
        <time>2023-09-20T13:44:52.591+00:00</time>
      </trkpt>
      <trkpt lat="48.37729" lon="2.70116">
        <ele>131</ele>
        <time>2023-09-20T13:44:57.581+00:00</time>
      </trkpt>
      <trkpt lat="48.37728" lon="2.70119">
        <ele>131</ele>
        <time>2023-09-20T13:45:02.560+00:00</time>
      </trkpt>
      <trkpt lat="48.37729" lon="2.70126">
        <ele>131</ele>
        <time>2023-09-20T13:45:06.576+00:00</time>
      </trkpt>
      <trkpt lat="48.37726" lon="2.70133">
        <ele>131</ele>
        <time>2023-09-20T13:45:10.575+00:00</time>
      </trkpt>
      <trkpt lat="48.37724" lon="2.70142">
        <ele>131</ele>
        <time>2023-09-20T13:45:15.573+00:00</time>
      </trkpt>
      <trkpt lat="48.37725" lon="2.70149">
        <ele>131</ele>
        <time>2023-09-20T13:45:19.575+00:00</time>
      </trkpt>
      <trkpt lat="48.37722" lon="2.70158">
        <ele>132</ele>
        <time>2023-09-20T13:45:24.581+00:00</time>
      </trkpt>
      <trkpt lat="48.37721" lon="2.70168">
        <ele>132</ele>
        <time>2023-09-20T13:45:29.566+00:00</time>
      </trkpt>
      <trkpt lat="48.37722" lon="2.70175">
        <ele>132</ele>
        <time>2023-09-20T13:45:33.576+00:00</time>
      </trkpt>
      <trkpt lat="48.37722" lon="2.70186">
        <ele>133</ele>
        <time>2023-09-20T13:45:38.573+00:00</time>
      </trkpt>
      <trkpt lat="48.37721" lon="2.70192">
        <ele>133</ele>
        <time>2023-09-20T13:45:42.599+00:00</time>
      </trkpt>
      <trkpt lat="48.37721" lon="2.702">
        <ele>133</ele>
        <time>2023-09-20T13:45:47.580+00:00</time>
      </trkpt>
      <trkpt lat="48.3772" lon="2.70207">
        <ele>133</ele>
        <time>2023-09-20T13:45:52.584+00:00</time>
      </trkpt>
      <trkpt lat="48.3772" lon="2.70215">
        <ele>134</ele>
        <time>2023-09-20T13:45:57.560+00:00</time>
      </trkpt>
      <trkpt lat="48.3772" lon="2.70222">
        <ele>134</ele>
        <time>2023-09-20T13:46:01.582+00:00</time>
      </trkpt>
      <trkpt lat="48.37719" lon="2.70229">
        <ele>134</ele>
        <time>2023-09-20T13:46:05.581+00:00</time>
      </trkpt>
      <trkpt lat="48.37719" lon="2.70238">
        <ele>135</ele>
        <time>2023-09-20T13:46:10.574+00:00</time>
      </trkpt>
      <trkpt lat="48.37718" lon="2.70246">
        <ele>135</ele>
        <time>2023-09-20T13:46:15.573+00:00</time>
      </trkpt>
      <trkpt lat="48.37718" lon="2.70254">
        <ele>135</ele>
        <time>2023-09-20T13:46:19.572+00:00</time>
      </trkpt>
      <trkpt lat="48.37716" lon="2.70265">
        <ele>137</ele>
        <time>2023-09-20T13:46:24.572+00:00</time>
      </trkpt>
      <trkpt lat="48.37716" lon="2.70271">
        <ele>137</ele>
        <time>2023-09-20T13:46:28.582+00:00</time>
      </trkpt>
      <trkpt lat="48.37715" lon="2.70282">
        <ele>137</ele>
        <time>2023-09-20T13:46:33.573+00:00</time>
      </trkpt>
      <trkpt lat="48.37714" lon="2.70292">
        <ele>138</ele>
        <time>2023-09-20T13:46:38.589+00:00</time>
      </trkpt>
      <trkpt lat="48.37712" lon="2.70299">
        <ele>138</ele>
        <time>2023-09-20T13:46:43.587+00:00</time>
      </trkpt>
      <trkpt lat="48.37711" lon="2.70307">
        <ele>138</ele>
        <time>2023-09-20T13:46:48.577+00:00</time>
      </trkpt>
      <trkpt lat="48.37711" lon="2.70317">
        <ele>138</ele>
        <time>2023-09-20T13:46:53.588+00:00</time>
      </trkpt>
      <trkpt lat="48.3771" lon="2.70328">
        <ele>137</ele>
        <time>2023-09-20T13:46:58.589+00:00</time>
      </trkpt>
      <trkpt lat="48.37708" lon="2.70338">
        <ele>137</ele>
        <time>2023-09-20T13:47:03.580+00:00</time>
      </trkpt>
      <trkpt lat="48.37707" lon="2.70348">
        <ele>136</ele>
        <time>2023-09-20T13:47:08.592+00:00</time>
      </trkpt>
      <trkpt lat="48.37705" lon="2.70358">
        <ele>136</ele>
        <time>2023-09-20T13:47:13.583+00:00</time>
      </trkpt>
      <trkpt lat="48.37705" lon="2.70366">
        <ele>136</ele>
        <time>2023-09-20T13:47:17.596+00:00</time>
      </trkpt>
      <trkpt lat="48.37704" lon="2.70376">
        <ele>136</ele>
        <time>2023-09-20T13:47:22.571+00:00</time>
      </trkpt>
      <trkpt lat="48.37703" lon="2.70385">
        <ele>136</ele>
        <time>2023-09-20T13:47:27.575+00:00</time>
      </trkpt>
      <trkpt lat="48.37701" lon="2.70394">
        <ele>136</ele>
        <time>2023-09-20T13:47:32.578+00:00</time>
      </trkpt>
      <trkpt lat="48.37699" lon="2.70405">
        <ele>136</ele>
        <time>2023-09-20T13:47:37.567+00:00</time>
      </trkpt>
      <trkpt lat="48.37697" lon="2.70412">
        <ele>136</ele>
        <time>2023-09-20T13:47:41.580+00:00</time>
      </trkpt>
      <trkpt lat="48.37694" lon="2.70421">
        <ele>136</ele>
        <time>2023-09-20T13:47:46.584+00:00</time>
      </trkpt>
      <trkpt lat="48.37688" lon="2.70426">
        <ele>136</ele>
        <time>2023-09-20T13:47:51.578+00:00</time>
      </trkpt>
      <trkpt lat="48.37682" lon="2.70429">
        <ele>136</ele>
        <time>2023-09-20T13:47:55.585+00:00</time>
      </trkpt>
      <trkpt lat="48.37674" lon="2.70435">
        <ele>134</ele>
        <time>2023-09-20T13:48:00.583+00:00</time>
      </trkpt>
      <trkpt lat="48.3767" lon="2.70437">
        <ele>134</ele>
        <time>2023-09-20T13:48:05.588+00:00</time>
      </trkpt>
      <trkpt lat="48.37666" lon="2.70438">
        <ele>134</ele>
        <time>2023-09-20T13:48:09.594+00:00</time>
      </trkpt>
      <trkpt lat="48.37662" lon="2.70444">
        <ele>134</ele>
        <time>2023-09-20T13:48:14.579+00:00</time>
      </trkpt>
      <trkpt lat="48.37658" lon="2.70448">
        <ele>134</ele>
        <time>2023-09-20T13:48:18.582+00:00</time>
      </trkpt>
      <trkpt lat="48.37652" lon="2.70453">
        <ele>133</ele>
        <time>2023-09-20T13:48:23.573+00:00</time>
      </trkpt>
      <trkpt lat="48.37646" lon="2.70457">
        <ele>133</ele>
        <time>2023-09-20T13:48:28.579+00:00</time>
      </trkpt>
      <trkpt lat="48.3764" lon="2.70457">
        <ele>133</ele>
        <time>2023-09-20T13:48:33.569+00:00</time>
      </trkpt>
      <trkpt lat="48.37634" lon="2.70459">
        <ele>133</ele>
        <time>2023-09-20T13:48:37.581+00:00</time>
      </trkpt>
      <trkpt lat="48.37627" lon="2.70459">
        <ele>133</ele>
        <time>2023-09-20T13:48:42.582+00:00</time>
      </trkpt>
      <trkpt lat="48.37622" lon="2.70457">
        <ele>133</ele>
        <time>2023-09-20T13:48:46.574+00:00</time>
      </trkpt>
      <trkpt lat="48.37618" lon="2.70455">
        <ele>133</ele>
        <time>2023-09-20T13:48:51.582+00:00</time>
      </trkpt>
      <trkpt lat="48.37613" lon="2.7045">
        <ele>133</ele>
        <time>2023-09-20T13:48:56.581+00:00</time>
      </trkpt>
      <trkpt lat="48.37611" lon="2.70446">
        <ele>133</ele>
        <time>2023-09-20T13:49:00.579+00:00</time>
      </trkpt>
      <trkpt lat="48.37607" lon="2.70443">
        <ele>133</ele>
        <time>2023-09-20T13:49:04.596+00:00</time>
      </trkpt>
      <trkpt lat="48.37599" lon="2.70438">
        <ele>133</ele>
        <time>2023-09-20T13:49:09.573+00:00</time>
      </trkpt>
      <trkpt lat="48.37594" lon="2.70434">
        <ele>132</ele>
        <time>2023-09-20T13:49:14.582+00:00</time>
      </trkpt>
      <trkpt lat="48.37591" lon="2.70427">
        <ele>132</ele>
        <time>2023-09-20T13:49:19.578+00:00</time>
      </trkpt>
      <trkpt lat="48.37589" lon="2.70419">
        <ele>132</ele>
        <time>2023-09-20T13:49:24.581+00:00</time>
      </trkpt>
      <trkpt lat="48.37589" lon="2.70409">
        <ele>132</ele>
        <time>2023-09-20T13:49:29.578+00:00</time>
      </trkpt>
      <trkpt lat="48.37589" lon="2.70399">
        <ele>131</ele>
        <time>2023-09-20T13:49:34.569+00:00</time>
      </trkpt>
      <trkpt lat="48.37589" lon="2.70391">
        <ele>131</ele>
        <time>2023-09-20T13:49:38.570+00:00</time>
      </trkpt>
      <trkpt lat="48.37586" lon="2.70382">
        <ele>131</ele>
        <time>2023-09-20T13:49:43.587+00:00</time>
      </trkpt>
      <trkpt lat="48.37582" lon="2.70375">
        <ele>131</ele>
        <time>2023-09-20T13:49:48.579+00:00</time>
      </trkpt>
      <trkpt lat="48.37578" lon="2.70369">
        <ele>131</ele>
        <time>2023-09-20T13:49:53.577+00:00</time>
      </trkpt>
      <trkpt lat="48.37576" lon="2.70362">
        <ele>131</ele>
        <time>2023-09-20T13:49:58.581+00:00</time>
      </trkpt>
      <trkpt lat="48.37575" lon="2.70354">
        <ele>131</ele>
        <time>2023-09-20T13:50:03.576+00:00</time>
      </trkpt>
      <trkpt lat="48.37571" lon="2.70347">
        <ele>131</ele>
        <time>2023-09-20T13:50:07.577+00:00</time>
      </trkpt>
      <trkpt lat="48.37567" lon="2.70341">
        <ele>131</ele>
        <time>2023-09-20T13:50:11.588+00:00</time>
      </trkpt>
      <trkpt lat="48.37563" lon="2.70335">
        <ele>131</ele>
        <time>2023-09-20T13:50:16.582+00:00</time>
      </trkpt>
      <trkpt lat="48.37558" lon="2.70328">
        <ele>131</ele>
        <time>2023-09-20T13:50:21.575+00:00</time>
      </trkpt>
      <trkpt lat="48.37554" lon="2.70323">
        <ele>131</ele>
        <time>2023-09-20T13:50:25.577+00:00</time>
      </trkpt>
      <trkpt lat="48.37551" lon="2.70318">
        <ele>132</ele>
        <time>2023-09-20T13:50:29.592+00:00</time>
      </trkpt>
      <trkpt lat="48.37545" lon="2.70314">
        <ele>132</ele>
        <time>2023-09-20T13:50:34.586+00:00</time>
      </trkpt>
      <trkpt lat="48.37539" lon="2.7031">
        <ele>132</ele>
        <time>2023-09-20T13:50:39.579+00:00</time>
      </trkpt>
      <trkpt lat="48.37535" lon="2.70307">
        <ele>132</ele>
        <time>2023-09-20T13:50:43.594+00:00</time>
      </trkpt>
      <trkpt lat="48.37529" lon="2.70308">
        <ele>132</ele>
        <time>2023-09-20T13:50:48.591+00:00</time>
      </trkpt>
      <trkpt lat="48.37525" lon="2.70312">
        <ele>132</ele>
        <time>2023-09-20T13:50:52.595+00:00</time>
      </trkpt>
      <trkpt lat="48.3752" lon="2.70308">
        <ele>132</ele>
        <time>2023-09-20T13:50:57.592+00:00</time>
      </trkpt>
      <trkpt lat="48.37514" lon="2.70307">
        <ele>132</ele>
        <time>2023-09-20T13:51:01.575+00:00</time>
      </trkpt>
      <trkpt lat="48.37508" lon="2.70305">
        <ele>131</ele>
        <time>2023-09-20T13:51:06.563+00:00</time>
      </trkpt>
      <trkpt lat="48.37503" lon="2.70304">
        <ele>131</ele>
        <time>2023-09-20T13:51:11.576+00:00</time>
      </trkpt>
      <trkpt lat="48.37499" lon="2.70303">
        <ele>131</ele>
        <time>2023-09-20T13:51:15.576+00:00</time>
      </trkpt>
      <trkpt lat="48.37492" lon="2.70301">
        <ele>131</ele>
        <time>2023-09-20T13:51:20.586+00:00</time>
      </trkpt>
      <trkpt lat="48.37484" lon="2.70302">
        <ele>131</ele>
        <time>2023-09-20T13:51:24.575+00:00</time>
      </trkpt>
      <trkpt lat="48.37477" lon="2.70304">
        <ele>131</ele>
        <time>2023-09-20T13:51:29.586+00:00</time>
      </trkpt>
      <trkpt lat="48.37471" lon="2.70307">
        <ele>131</ele>
        <time>2023-09-20T13:51:34.578+00:00</time>
      </trkpt>
      <trkpt lat="48.37466" lon="2.70309">
        <ele>131</ele>
        <time>2023-09-20T13:51:39.573+00:00</time>
      </trkpt>
      <trkpt lat="48.37462" lon="2.70306">
        <ele>131</ele>
        <time>2023-09-20T13:51:43.580+00:00</time>
      </trkpt>
      <trkpt lat="48.37456" lon="2.70303">
        <ele>131</ele>
        <time>2023-09-20T13:51:47.581+00:00</time>
      </trkpt>
      <trkpt lat="48.3745" lon="2.70299">
        <ele>131</ele>
        <time>2023-09-20T13:51:52.569+00:00</time>
      </trkpt>
      <trkpt lat="48.37447" lon="2.70296">
        <ele>131</ele>
        <time>2023-09-20T13:51:57.573+00:00</time>
      </trkpt>
      <trkpt lat="48.37444" lon="2.70293">
        <ele>131</ele>
        <time>2023-09-20T13:52:02.569+00:00</time>
      </trkpt>
      <trkpt lat="48.37441" lon="2.70288">
        <ele>129</ele>
        <time>2023-09-20T13:52:07.567+00:00</time>
      </trkpt>
      <trkpt lat="48.37432" lon="2.70292">
        <ele>131</ele>
        <time>2023-09-20T13:53:51.560+00:00</time>
      </trkpt>
      <trkpt lat="48.37435" lon="2.70298">
        <ele>131</ele>
        <time>2023-09-20T13:53:55.568+00:00</time>
      </trkpt>
      <trkpt lat="48.37436" lon="2.70303">
        <ele>131</ele>
        <time>2023-09-20T13:53:59.575+00:00</time>
      </trkpt>
      <trkpt lat="48.37439" lon="2.70308">
        <ele>131</ele>
        <time>2023-09-20T13:54:04.568+00:00</time>
      </trkpt>
      <trkpt lat="48.37441" lon="2.70314">
        <ele>131</ele>
        <time>2023-09-20T13:54:08.575+00:00</time>
      </trkpt>
      <trkpt lat="48.37443" lon="2.70322">
        <ele>132</ele>
        <time>2023-09-20T13:54:13.565+00:00</time>
      </trkpt>
      <trkpt lat="48.37445" lon="2.70329">
        <ele>132</ele>
        <time>2023-09-20T13:54:18.566+00:00</time>
      </trkpt>
      <trkpt lat="48.37448" lon="2.70336">
        <ele>132</ele>
        <time>2023-09-20T13:54:23.565+00:00</time>
      </trkpt>
      <trkpt lat="48.3745" lon="2.70342">
        <ele>132</ele>
        <time>2023-09-20T13:54:27.565+00:00</time>
      </trkpt>
      <trkpt lat="48.37452" lon="2.70349">
        <ele>133</ele>
        <time>2023-09-20T13:54:32.586+00:00</time>
      </trkpt>
      <trkpt lat="48.37455" lon="2.70356">
        <ele>133</ele>
        <time>2023-09-20T13:54:37.562+00:00</time>
      </trkpt>
      <trkpt lat="48.37458" lon="2.70362">
        <ele>133</ele>
        <time>2023-09-20T13:54:41.574+00:00</time>
      </trkpt>
      <trkpt lat="48.37461" lon="2.70368">
        <ele>133</ele>
        <time>2023-09-20T13:54:45.568+00:00</time>
      </trkpt>
      <trkpt lat="48.37463" lon="2.70374">
        <ele>133</ele>
        <time>2023-09-20T13:54:50.565+00:00</time>
      </trkpt>
      <trkpt lat="48.37465" lon="2.70382">
        <ele>134</ele>
        <time>2023-09-20T13:54:54.568+00:00</time>
      </trkpt>
      <trkpt lat="48.37468" lon="2.7039">
        <ele>134</ele>
        <time>2023-09-20T13:54:59.570+00:00</time>
      </trkpt>
      <trkpt lat="48.37471" lon="2.70397">
        <ele>134</ele>
        <time>2023-09-20T13:55:04.565+00:00</time>
      </trkpt>
      <trkpt lat="48.37473" lon="2.70404">
        <ele>134</ele>
        <time>2023-09-20T13:55:08.576+00:00</time>
      </trkpt>
      <trkpt lat="48.37475" lon="2.70413">
        <ele>134</ele>
        <time>2023-09-20T13:55:13.563+00:00</time>
      </trkpt>
      <trkpt lat="48.37475" lon="2.70421">
        <ele>134</ele>
        <time>2023-09-20T13:55:18.571+00:00</time>
      </trkpt>
      <trkpt lat="48.37475" lon="2.70432">
        <ele>135</ele>
        <time>2023-09-20T13:55:23.571+00:00</time>
      </trkpt>
      <trkpt lat="48.37476" lon="2.7044">
        <ele>135</ele>
        <time>2023-09-20T13:55:27.577+00:00</time>
      </trkpt>
      <trkpt lat="48.37476" lon="2.7045">
        <ele>135</ele>
        <time>2023-09-20T13:55:32.580+00:00</time>
      </trkpt>
      <trkpt lat="48.37477" lon="2.7046">
        <ele>135</ele>
        <time>2023-09-20T13:55:37.568+00:00</time>
      </trkpt>
      <trkpt lat="48.37478" lon="2.70469">
        <ele>135</ele>
        <time>2023-09-20T13:55:41.563+00:00</time>
      </trkpt>
      <trkpt lat="48.37478" lon="2.70478">
        <ele>135</ele>
        <time>2023-09-20T13:55:46.565+00:00</time>
      </trkpt>
      <trkpt lat="48.37477" lon="2.70487">
        <ele>134</ele>
        <time>2023-09-20T13:55:50.562+00:00</time>
      </trkpt>
      <trkpt lat="48.37477" lon="2.705">
        <ele>134</ele>
        <time>2023-09-20T13:55:55.569+00:00</time>
      </trkpt>
      <trkpt lat="48.37478" lon="2.70511">
        <ele>134</ele>
        <time>2023-09-20T13:56:00.566+00:00</time>
      </trkpt>
      <trkpt lat="48.37477" lon="2.70518">
        <ele>135</ele>
        <time>2023-09-20T13:56:04.584+00:00</time>
      </trkpt>
      <trkpt lat="48.37476" lon="2.7053">
        <ele>135</ele>
        <time>2023-09-20T13:56:09.583+00:00</time>
      </trkpt>
      <trkpt lat="48.37475" lon="2.70538">
        <ele>135</ele>
        <time>2023-09-20T13:56:14.563+00:00</time>
      </trkpt>
      <trkpt lat="48.37473" lon="2.70547">
        <ele>136</ele>
        <time>2023-09-20T13:56:18.571+00:00</time>
      </trkpt>
      <trkpt lat="48.3747" lon="2.70553">
        <ele>136</ele>
        <time>2023-09-20T13:56:22.584+00:00</time>
      </trkpt>
      <trkpt lat="48.37469" lon="2.70566">
        <ele>136</ele>
        <time>2023-09-20T13:56:27.574+00:00</time>
      </trkpt>
      <trkpt lat="48.37469" lon="2.70578">
        <ele>137</ele>
        <time>2023-09-20T13:56:32.576+00:00</time>
      </trkpt>
      <trkpt lat="48.37469" lon="2.70589">
        <ele>137</ele>
        <time>2023-09-20T13:56:37.576+00:00</time>
      </trkpt>
      <trkpt lat="48.37468" lon="2.70597">
        <ele>137</ele>
        <time>2023-09-20T13:56:42.579+00:00</time>
      </trkpt>
      <trkpt lat="48.37466" lon="2.70604">
        <ele>137</ele>
        <time>2023-09-20T13:56:46.582+00:00</time>
      </trkpt>
      <trkpt lat="48.37464" lon="2.70614">
        <ele>137</ele>
        <time>2023-09-20T13:56:50.591+00:00</time>
      </trkpt>
      <trkpt lat="48.37463" lon="2.70622">
        <ele>137</ele>
        <time>2023-09-20T13:56:55.582+00:00</time>
      </trkpt>
      <trkpt lat="48.37463" lon="2.7063">
        <ele>137</ele>
        <time>2023-09-20T13:56:59.570+00:00</time>
      </trkpt>
      <trkpt lat="48.37462" lon="2.70638">
        <ele>137</ele>
        <time>2023-09-20T13:57:04.574+00:00</time>
      </trkpt>
      <trkpt lat="48.37461" lon="2.70648">
        <ele>137</ele>
        <time>2023-09-20T13:57:09.574+00:00</time>
      </trkpt>
      <trkpt lat="48.37461" lon="2.70656">
        <ele>137</ele>
        <time>2023-09-20T13:57:13.586+00:00</time>
      </trkpt>
      <trkpt lat="48.3746" lon="2.70668">
        <ele>137</ele>
        <time>2023-09-20T13:57:18.597+00:00</time>
      </trkpt>
      <trkpt lat="48.37458" lon="2.70679">
        <ele>138</ele>
        <time>2023-09-20T13:57:23.564+00:00</time>
      </trkpt>
      <trkpt lat="48.37457" lon="2.70687">
        <ele>137</ele>
        <time>2023-09-20T13:57:27.578+00:00</time>
      </trkpt>
      <trkpt lat="48.37455" lon="2.70696">
        <ele>137</ele>
        <time>2023-09-20T13:57:31.578+00:00</time>
      </trkpt>
      <trkpt lat="48.37453" lon="2.70703">
        <ele>137</ele>
        <time>2023-09-20T13:57:35.582+00:00</time>
      </trkpt>
      <trkpt lat="48.37452" lon="2.70713">
        <ele>137</ele>
        <time>2023-09-20T13:57:40.569+00:00</time>
      </trkpt>
      <trkpt lat="48.37449" lon="2.70722">
        <ele>137</ele>
        <time>2023-09-20T13:57:45.576+00:00</time>
      </trkpt>
      <trkpt lat="48.37448" lon="2.7073">
        <ele>137</ele>
        <time>2023-09-20T13:57:50.568+00:00</time>
      </trkpt>
      <trkpt lat="48.37448" lon="2.70738">
        <ele>136</ele>
        <time>2023-09-20T13:57:54.593+00:00</time>
      </trkpt>
      <trkpt lat="48.37446" lon="2.7075">
        <ele>136</ele>
        <time>2023-09-20T13:57:59.573+00:00</time>
      </trkpt>
      <trkpt lat="48.37446" lon="2.70758">
        <ele>136</ele>
        <time>2023-09-20T13:58:03.588+00:00</time>
      </trkpt>
      <trkpt lat="48.37446" lon="2.70768">
        <ele>137</ele>
        <time>2023-09-20T13:58:08.576+00:00</time>
      </trkpt>
      <trkpt lat="48.37447" lon="2.70778">
        <ele>137</ele>
        <time>2023-09-20T13:58:13.574+00:00</time>
      </trkpt>
      <trkpt lat="48.37445" lon="2.70785">
        <ele>137</ele>
        <time>2023-09-20T13:58:17.569+00:00</time>
      </trkpt>
      <trkpt lat="48.37444" lon="2.70791">
        <ele>137</ele>
        <time>2023-09-20T13:58:21.585+00:00</time>
      </trkpt>
      <trkpt lat="48.37442" lon="2.70801">
        <ele>136</ele>
        <time>2023-09-20T13:58:26.577+00:00</time>
      </trkpt>
      <trkpt lat="48.37439" lon="2.70811">
        <ele>136</ele>
        <time>2023-09-20T13:58:31.574+00:00</time>
      </trkpt>
      <trkpt lat="48.37438" lon="2.70818">
        <ele>136</ele>
        <time>2023-09-20T13:58:35.581+00:00</time>
      </trkpt>
      <trkpt lat="48.37439" lon="2.70828">
        <ele>135</ele>
        <time>2023-09-20T13:58:40.552+00:00</time>
      </trkpt>
      <trkpt lat="48.37438" lon="2.70837">
        <ele>135</ele>
        <time>2023-09-20T13:58:44.582+00:00</time>
      </trkpt>
      <trkpt lat="48.37435" lon="2.70849">
        <ele>134</ele>
        <time>2023-09-20T13:58:49.568+00:00</time>
      </trkpt>
      <trkpt lat="48.37433" lon="2.70859">
        <ele>134</ele>
        <time>2023-09-20T13:58:54.578+00:00</time>
      </trkpt>
      <trkpt lat="48.37433" lon="2.70869">
        <ele>134</ele>
        <time>2023-09-20T13:58:59.578+00:00</time>
      </trkpt>
      <trkpt lat="48.37433" lon="2.70879">
        <ele>134</ele>
        <time>2023-09-20T13:59:04.572+00:00</time>
      </trkpt>
      <trkpt lat="48.37433" lon="2.70886">
        <ele>134</ele>
        <time>2023-09-20T13:59:08.577+00:00</time>
      </trkpt>
      <trkpt lat="48.37431" lon="2.70893">
        <ele>134</ele>
        <time>2023-09-20T13:59:13.568+00:00</time>
      </trkpt>
      <trkpt lat="48.37429" lon="2.70899">
        <ele>136</ele>
        <time>2023-09-20T13:59:17.583+00:00</time>
      </trkpt>
      <trkpt lat="48.37427" lon="2.70908">
        <ele>135</ele>
        <time>2023-09-20T13:59:22.552+00:00</time>
      </trkpt>
      <trkpt lat="48.37426" lon="2.70914">
        <ele>135</ele>
        <time>2023-09-20T13:59:26.563+00:00</time>
      </trkpt>
      <trkpt lat="48.37425" lon="2.70924">
        <ele>135</ele>
        <time>2023-09-20T13:59:32.572+00:00</time>
      </trkpt>
      <trkpt lat="48.37424" lon="2.70932">
        <ele>134</ele>
        <time>2023-09-20T13:59:36.402+00:00</time>
      </trkpt>
      <trkpt lat="48.37422" lon="2.70962">
        <ele>134</ele>
        <time>2023-09-20T13:59:46.563+00:00</time>
      </trkpt>
      <trkpt lat="48.37419" lon="2.70975">
        <ele>134</ele>
        <time>2023-09-20T13:59:50.562+00:00</time>
      </trkpt>
      <trkpt lat="48.37417" lon="2.70986">
        <ele>134</ele>
        <time>2023-09-20T13:59:54.573+00:00</time>
      </trkpt>
      <trkpt lat="48.37416" lon="2.70997">
        <ele>135</ele>
        <time>2023-09-20T13:59:59.563+00:00</time>
      </trkpt>
      <trkpt lat="48.37416" lon="2.71005">
        <ele>135</ele>
        <time>2023-09-20T14:00:03.566+00:00</time>
      </trkpt>
      <trkpt lat="48.37414" lon="2.71014">
        <ele>136</ele>
        <time>2023-09-20T14:00:08.571+00:00</time>
      </trkpt>
      <trkpt lat="48.37412" lon="2.7102">
        <ele>136</ele>
        <time>2023-09-20T14:00:12.584+00:00</time>
      </trkpt>
      <trkpt lat="48.37411" lon="2.71028">
        <ele>136</ele>
        <time>2023-09-20T14:00:17.565+00:00</time>
      </trkpt>
      <trkpt lat="48.3741" lon="2.71036">
        <ele>136</ele>
        <time>2023-09-20T14:00:22.567+00:00</time>
      </trkpt>
      <trkpt lat="48.3741" lon="2.71043">
        <ele>136</ele>
        <time>2023-09-20T14:00:26.576+00:00</time>
      </trkpt>
      <trkpt lat="48.37409" lon="2.71053">
        <ele>136</ele>
        <time>2023-09-20T14:00:31.564+00:00</time>
      </trkpt>
      <trkpt lat="48.37408" lon="2.71061">
        <ele>136</ele>
        <time>2023-09-20T14:00:35.565+00:00</time>
      </trkpt>
      <trkpt lat="48.37407" lon="2.7107">
        <ele>136</ele>
        <time>2023-09-20T14:00:40.582+00:00</time>
      </trkpt>
      <trkpt lat="48.37406" lon="2.71077">
        <ele>136</ele>
        <time>2023-09-20T14:00:44.571+00:00</time>
      </trkpt>
      <trkpt lat="48.37406" lon="2.71087">
        <ele>136</ele>
        <time>2023-09-20T14:00:49.565+00:00</time>
      </trkpt>
      <trkpt lat="48.37405" lon="2.71095">
        <ele>136</ele>
        <time>2023-09-20T14:00:53.569+00:00</time>
      </trkpt>
      <trkpt lat="48.37403" lon="2.71106">
        <ele>135</ele>
        <time>2023-09-20T14:00:58.570+00:00</time>
      </trkpt>
      <trkpt lat="48.37401" lon="2.71119">
        <ele>137</ele>
        <time>2023-09-20T14:01:03.588+00:00</time>
      </trkpt>
      <trkpt lat="48.37401" lon="2.7113">
        <ele>136</ele>
        <time>2023-09-20T14:01:08.580+00:00</time>
      </trkpt>
      <trkpt lat="48.37398" lon="2.71137">
        <ele>136</ele>
        <time>2023-09-20T14:01:12.576+00:00</time>
      </trkpt>
      <trkpt lat="48.37398" lon="2.71146">
        <ele>136</ele>
        <time>2023-09-20T14:01:16.571+00:00</time>
      </trkpt>
      <trkpt lat="48.37397" lon="2.71158">
        <ele>134</ele>
        <time>2023-09-20T14:01:21.583+00:00</time>
      </trkpt>
      <trkpt lat="48.37394" lon="2.71168">
        <ele>134</ele>
        <time>2023-09-20T14:01:25.584+00:00</time>
      </trkpt>
      <trkpt lat="48.37393" lon="2.71176">
        <ele>134</ele>
        <time>2023-09-20T14:01:30.577+00:00</time>
      </trkpt>
      <trkpt lat="48.37393" lon="2.71185">
        <ele>131</ele>
        <time>2023-09-20T14:01:35.578+00:00</time>
      </trkpt>
      <trkpt lat="48.37395" lon="2.71191">
        <ele>131</ele>
        <time>2023-09-20T14:01:39.605+00:00</time>
      </trkpt>
      <trkpt lat="48.37397" lon="2.71198">
        <ele>131</ele>
        <time>2023-09-20T14:01:44.575+00:00</time>
      </trkpt>
      <trkpt lat="48.37398" lon="2.71206">
        <ele>131</ele>
        <time>2023-09-20T14:01:49.566+00:00</time>
      </trkpt>
      <trkpt lat="48.37399" lon="2.71214">
        <ele>129</ele>
        <time>2023-09-20T14:01:54.581+00:00</time>
      </trkpt>
      <trkpt lat="48.37399" lon="2.71224">
        <ele>129</ele>
        <time>2023-09-20T14:01:59.581+00:00</time>
      </trkpt>
      <trkpt lat="48.37399" lon="2.71233">
        <ele>129</ele>
        <time>2023-09-20T14:02:04.584+00:00</time>
      </trkpt>
      <trkpt lat="48.37395" lon="2.71243">
        <ele>128</ele>
        <time>2023-09-20T14:02:09.575+00:00</time>
      </trkpt>
      <trkpt lat="48.37393" lon="2.71253">
        <ele>128</ele>
        <time>2023-09-20T14:02:14.586+00:00</time>
      </trkpt>
      <trkpt lat="48.3739" lon="2.71262">
        <ele>128</ele>
        <time>2023-09-20T14:02:19.582+00:00</time>
      </trkpt>
      <trkpt lat="48.37387" lon="2.71274">
        <ele>127</ele>
        <time>2023-09-20T14:02:24.585+00:00</time>
      </trkpt>
      <trkpt lat="48.37386" lon="2.71284">
        <ele>127</ele>
        <time>2023-09-20T14:02:29.574+00:00</time>
      </trkpt>
      <trkpt lat="48.37384" lon="2.71291">
        <ele>127</ele>
        <time>2023-09-20T14:02:33.583+00:00</time>
      </trkpt>
      <trkpt lat="48.37382" lon="2.713">
        <ele>126</ele>
        <time>2023-09-20T14:02:38.575+00:00</time>
      </trkpt>
      <trkpt lat="48.37379" lon="2.71311">
        <ele>126</ele>
        <time>2023-09-20T14:02:43.593+00:00</time>
      </trkpt>
      <trkpt lat="48.37378" lon="2.71321">
        <ele>125</ele>
        <time>2023-09-20T14:02:48.574+00:00</time>
      </trkpt>
      <trkpt lat="48.37375" lon="2.71331">
        <ele>125</ele>
        <time>2023-09-20T14:02:53.584+00:00</time>
      </trkpt>
      <trkpt lat="48.37372" lon="2.71337">
        <ele>121</ele>
        <time>2023-09-20T14:02:58.576+00:00</time>
      </trkpt>
      <trkpt lat="48.37371" lon="2.71344">
        <ele>121</ele>
        <time>2023-09-20T14:03:02.577+00:00</time>
      </trkpt>
      <trkpt lat="48.37368" lon="2.71352">
        <ele>120</ele>
        <time>2023-09-20T14:03:07.565+00:00</time>
      </trkpt>
      <trkpt lat="48.37366" lon="2.71359">
        <ele>120</ele>
        <time>2023-09-20T14:03:12.582+00:00</time>
      </trkpt>
      <trkpt lat="48.37363" lon="2.71368">
        <ele>120</ele>
        <time>2023-09-20T14:03:17.595+00:00</time>
      </trkpt>
      <trkpt lat="48.3736" lon="2.71376">
        <ele>119</ele>
        <time>2023-09-20T14:03:22.578+00:00</time>
      </trkpt>
      <trkpt lat="48.37358" lon="2.71386">
        <ele>119</ele>
        <time>2023-09-20T14:03:27.576+00:00</time>
      </trkpt>
      <trkpt lat="48.37358" lon="2.71396">
        <ele>119</ele>
        <time>2023-09-20T14:03:32.567+00:00</time>
      </trkpt>
      <trkpt lat="48.3736" lon="2.71407">
        <ele>117</ele>
        <time>2023-09-20T14:03:37.576+00:00</time>
      </trkpt>
      <trkpt lat="48.3736" lon="2.71417">
        <ele>117</ele>
        <time>2023-09-20T14:03:42.582+00:00</time>
      </trkpt>
      <trkpt lat="48.3736" lon="2.71426">
        <ele>117</ele>
        <time>2023-09-20T14:03:47.583+00:00</time>
      </trkpt>
      <trkpt lat="48.37359" lon="2.71435">
        <ele>116</ele>
        <time>2023-09-20T14:03:52.571+00:00</time>
      </trkpt>
      <trkpt lat="48.37359" lon="2.71445">
        <ele>116</ele>
        <time>2023-09-20T14:03:56.565+00:00</time>
      </trkpt>
      <trkpt lat="48.3736" lon="2.71453">
        <ele>116</ele>
        <time>2023-09-20T14:04:00.577+00:00</time>
      </trkpt>
      <trkpt lat="48.3736" lon="2.71463">
        <ele>116</ele>
        <time>2023-09-20T14:04:05.572+00:00</time>
      </trkpt>
      <trkpt lat="48.37358" lon="2.71472">
        <ele>116</ele>
        <time>2023-09-20T14:04:10.565+00:00</time>
      </trkpt>
      <trkpt lat="48.37356" lon="2.71481">
        <ele>116</ele>
        <time>2023-09-20T14:04:14.581+00:00</time>
      </trkpt>
      <trkpt lat="48.37357" lon="2.71489">
        <ele>116</ele>
        <time>2023-09-20T14:04:18.565+00:00</time>
      </trkpt>
      <trkpt lat="48.37358" lon="2.71499">
        <ele>116</ele>
        <time>2023-09-20T14:04:23.563+00:00</time>
      </trkpt>
      <trkpt lat="48.37357" lon="2.7151">
        <ele>116</ele>
        <time>2023-09-20T14:04:28.564+00:00</time>
      </trkpt>
      <trkpt lat="48.37359" lon="2.71522">
        <ele>115</ele>
        <time>2023-09-20T14:04:33.573+00:00</time>
      </trkpt>
      <trkpt lat="48.37361" lon="2.71531">
        <ele>115</ele>
        <time>2023-09-20T14:04:37.570+00:00</time>
      </trkpt>
      <trkpt lat="48.3736" lon="2.71541">
        <ele>115</ele>
        <time>2023-09-20T14:04:41.567+00:00</time>
      </trkpt>
      <trkpt lat="48.37359" lon="2.71552">
        <ele>113</ele>
        <time>2023-09-20T14:04:46.569+00:00</time>
      </trkpt>
      <trkpt lat="48.37359" lon="2.71562">
        <ele>113</ele>
        <time>2023-09-20T14:04:51.568+00:00</time>
      </trkpt>
      <trkpt lat="48.37359" lon="2.71571">
        <ele>113</ele>
        <time>2023-09-20T14:04:55.569+00:00</time>
      </trkpt>
      <trkpt lat="48.37358" lon="2.71579">
        <ele>113</ele>
        <time>2023-09-20T14:05:00.571+00:00</time>
      </trkpt>
      <trkpt lat="48.37356" lon="2.71589">
        <ele>113</ele>
        <time>2023-09-20T14:05:05.579+00:00</time>
      </trkpt>
      <trkpt lat="48.37355" lon="2.71599">
        <ele>113</ele>
        <time>2023-09-20T14:05:09.571+00:00</time>
      </trkpt>
      <trkpt lat="48.37353" lon="2.71608">
        <ele>113</ele>
        <time>2023-09-20T14:05:13.564+00:00</time>
      </trkpt>
      <trkpt lat="48.37353" lon="2.71617">
        <ele>113</ele>
        <time>2023-09-20T14:05:18.569+00:00</time>
      </trkpt>
      <trkpt lat="48.37351" lon="2.71624">
        <ele>113</ele>
        <time>2023-09-20T14:05:22.583+00:00</time>
      </trkpt>
      <trkpt lat="48.37349" lon="2.71632">
        <ele>112</ele>
        <time>2023-09-20T14:05:27.568+00:00</time>
      </trkpt>
      <trkpt lat="48.37348" lon="2.71638">
        <ele>112</ele>
        <time>2023-09-20T14:05:31.579+00:00</time>
      </trkpt>
      <trkpt lat="48.37347" lon="2.71646">
        <ele>112</ele>
        <time>2023-09-20T14:05:36.574+00:00</time>
      </trkpt>
      <trkpt lat="48.37345" lon="2.71654">
        <ele>110</ele>
        <time>2023-09-20T14:05:40.571+00:00</time>
      </trkpt>
      <trkpt lat="48.37343" lon="2.71666">
        <ele>110</ele>
        <time>2023-09-20T14:05:45.562+00:00</time>
      </trkpt>
      <trkpt lat="48.37341" lon="2.71679">
        <ele>110</ele>
        <time>2023-09-20T14:05:50.582+00:00</time>
      </trkpt>
      <trkpt lat="48.3734" lon="2.71691">
        <ele>109</ele>
        <time>2023-09-20T14:05:55.571+00:00</time>
      </trkpt>
      <trkpt lat="48.37339" lon="2.717">
        <ele>109</ele>
        <time>2023-09-20T14:05:59.587+00:00</time>
      </trkpt>
      <trkpt lat="48.37337" lon="2.71711">
        <ele>109</ele>
        <time>2023-09-20T14:06:04.579+00:00</time>
      </trkpt>
      <trkpt lat="48.37337" lon="2.71721">
        <ele>109</ele>
        <time>2023-09-20T14:06:09.570+00:00</time>
      </trkpt>
      <trkpt lat="48.37336" lon="2.71732">
        <ele>109</ele>
        <time>2023-09-20T14:06:14.573+00:00</time>
      </trkpt>
      <trkpt lat="48.37334" lon="2.71739">
        <ele>107</ele>
        <time>2023-09-20T14:06:18.573+00:00</time>
      </trkpt>
      <trkpt lat="48.37331" lon="2.71747">
        <ele>107</ele>
        <time>2023-09-20T14:06:23.575+00:00</time>
      </trkpt>
      <trkpt lat="48.37327" lon="2.71758">
        <ele>107</ele>
        <time>2023-09-20T14:06:28.570+00:00</time>
      </trkpt>
      <trkpt lat="48.37322" lon="2.71766">
        <ele>105</ele>
        <time>2023-09-20T14:06:32.572+00:00</time>
      </trkpt>
      <trkpt lat="48.37318" lon="2.71776">
        <ele>107</ele>
        <time>2023-09-20T14:06:37.575+00:00</time>
      </trkpt>
      <trkpt lat="48.37316" lon="2.71786">
        <ele>107</ele>
        <time>2023-09-20T14:06:42.575+00:00</time>
      </trkpt>
      <trkpt lat="48.37313" lon="2.71796">
        <ele>105</ele>
        <time>2023-09-20T14:06:47.556+00:00</time>
      </trkpt>
      <trkpt lat="48.37309" lon="2.71805">
        <ele>105</ele>
        <time>2023-09-20T14:06:52.570+00:00</time>
      </trkpt>
      <trkpt lat="48.37305" lon="2.71811">
        <ele>105</ele>
        <time>2023-09-20T14:06:56.568+00:00</time>
      </trkpt>
      <trkpt lat="48.37302" lon="2.71819">
        <ele>105</ele>
        <time>2023-09-20T14:07:00.573+00:00</time>
      </trkpt>
      <trkpt lat="48.373" lon="2.71828">
        <ele>103</ele>
        <time>2023-09-20T14:07:05.582+00:00</time>
      </trkpt>
      <trkpt lat="48.37297" lon="2.71837">
        <ele>103</ele>
        <time>2023-09-20T14:07:10.571+00:00</time>
      </trkpt>
      <trkpt lat="48.37294" lon="2.71846">
        <ele>103</ele>
        <time>2023-09-20T14:07:14.574+00:00</time>
      </trkpt>
      <trkpt lat="48.37291" lon="2.71854">
        <ele>101</ele>
        <time>2023-09-20T14:07:19.572+00:00</time>
      </trkpt>
      <trkpt lat="48.37287" lon="2.71865">
        <ele>101</ele>
        <time>2023-09-20T14:07:24.559+00:00</time>
      </trkpt>
      <trkpt lat="48.37284" lon="2.71874">
        <ele>101</ele>
        <time>2023-09-20T14:07:29.570+00:00</time>
      </trkpt>
      <trkpt lat="48.37281" lon="2.71884">
        <ele>100</ele>
        <time>2023-09-20T14:07:34.573+00:00</time>
      </trkpt>
      <trkpt lat="48.37278" lon="2.71894">
        <ele>100</ele>
        <time>2023-09-20T14:07:39.574+00:00</time>
      </trkpt>
      <trkpt lat="48.37273" lon="2.71903">
        <ele>99</ele>
        <time>2023-09-20T14:07:44.571+00:00</time>
      </trkpt>
      <trkpt lat="48.37269" lon="2.71911">
        <ele>99</ele>
        <time>2023-09-20T14:07:49.577+00:00</time>
      </trkpt>
      <trkpt lat="48.37267" lon="2.71917">
        <ele>99</ele>
        <time>2023-09-20T14:07:53.578+00:00</time>
      </trkpt>
      <trkpt lat="48.37262" lon="2.71924">
        <ele>99</ele>
        <time>2023-09-20T14:07:58.576+00:00</time>
      </trkpt>
      <trkpt lat="48.3726" lon="2.71931">
        <ele>99</ele>
        <time>2023-09-20T14:08:03.568+00:00</time>
      </trkpt>
      <trkpt lat="48.37257" lon="2.71939">
        <ele>99</ele>
        <time>2023-09-20T14:08:08.568+00:00</time>
      </trkpt>
      <trkpt lat="48.37255" lon="2.71945">
        <ele>99</ele>
        <time>2023-09-20T14:08:12.585+00:00</time>
      </trkpt>
      <trkpt lat="48.37253" lon="2.71955">
        <ele>99</ele>
        <time>2023-09-20T14:08:17.571+00:00</time>
      </trkpt>
      <trkpt lat="48.37254" lon="2.71962">
        <ele>99</ele>
        <time>2023-09-20T14:08:22.595+00:00</time>
      </trkpt>
      <trkpt lat="48.37259" lon="2.71962">
        <ele>99</ele>
        <time>2023-09-20T14:08:27.578+00:00</time>
      </trkpt>
      <trkpt lat="48.37264" lon="2.71962">
        <ele>99</ele>
        <time>2023-09-20T14:08:32.548+00:00</time>
      </trkpt>
      <trkpt lat="48.37268" lon="2.71965">
        <ele>99</ele>
        <time>2023-09-20T14:08:36.590+00:00</time>
      </trkpt>
      <trkpt lat="48.37273" lon="2.71967">
        <ele>99</ele>
        <time>2023-09-20T14:08:41.569+00:00</time>
      </trkpt>
      <trkpt lat="48.37277" lon="2.7197">
        <ele>99</ele>
        <time>2023-09-20T14:08:46.575+00:00</time>
      </trkpt>
      <trkpt lat="48.37282" lon="2.71972">
        <ele>99</ele>
        <time>2023-09-20T14:08:50.581+00:00</time>
      </trkpt>
      <trkpt lat="48.37287" lon="2.71975">
        <ele>99</ele>
        <time>2023-09-20T14:08:55.573+00:00</time>
      </trkpt>
      <trkpt lat="48.37293" lon="2.71977">
        <ele>98</ele>
        <time>2023-09-20T14:09:00.574+00:00</time>
      </trkpt>
      <trkpt lat="48.373" lon="2.71978">
        <ele>98</ele>
        <time>2023-09-20T14:09:05.585+00:00</time>
      </trkpt>
      <trkpt lat="48.37307" lon="2.7198">
        <ele>98</ele>
        <time>2023-09-20T14:09:10.567+00:00</time>
      </trkpt>
      <trkpt lat="48.37312" lon="2.7198">
        <ele>98</ele>
        <time>2023-09-20T14:09:15.582+00:00</time>
      </trkpt>
      <trkpt lat="48.37318" lon="2.71981">
        <ele>98</ele>
        <time>2023-09-20T14:09:20.582+00:00</time>
      </trkpt>
      <trkpt lat="48.37322" lon="2.71983">
        <ele>97</ele>
        <time>2023-09-20T14:09:24.588+00:00</time>
      </trkpt>
      <trkpt lat="48.37328" lon="2.71982">
        <ele>97</ele>
        <time>2023-09-20T14:09:29.567+00:00</time>
      </trkpt>
      <trkpt lat="48.37334" lon="2.71982">
        <ele>97</ele>
        <time>2023-09-20T14:09:34.567+00:00</time>
      </trkpt>
      <trkpt lat="48.3734" lon="2.71981">
        <ele>97</ele>
        <time>2023-09-20T14:09:39.565+00:00</time>
      </trkpt>
      <trkpt lat="48.37345" lon="2.7198">
        <ele>97</ele>
        <time>2023-09-20T14:09:43.583+00:00</time>
      </trkpt>
      <trkpt lat="48.3735" lon="2.71979">
        <ele>97</ele>
        <time>2023-09-20T14:09:48.574+00:00</time>
      </trkpt>
      <trkpt lat="48.37356" lon="2.71978">
        <ele>97</ele>
        <time>2023-09-20T14:09:53.569+00:00</time>
      </trkpt>
      <trkpt lat="48.37361" lon="2.71977">
        <ele>97</ele>
        <time>2023-09-20T14:09:57.575+00:00</time>
      </trkpt>
      <trkpt lat="48.37368" lon="2.71975">
        <ele>97</ele>
        <time>2023-09-20T14:10:02.577+00:00</time>
      </trkpt>
      <trkpt lat="48.37375" lon="2.71973">
        <ele>98</ele>
        <time>2023-09-20T14:10:07.590+00:00</time>
      </trkpt>
      <trkpt lat="48.37383" lon="2.71972">
        <ele>98</ele>
        <time>2023-09-20T14:10:12.578+00:00</time>
      </trkpt>
      <trkpt lat="48.37388" lon="2.71971">
        <ele>98</ele>
        <time>2023-09-20T14:10:17.566+00:00</time>
      </trkpt>
      <trkpt lat="48.37394" lon="2.71968">
        <ele>98</ele>
        <time>2023-09-20T14:10:21.573+00:00</time>
      </trkpt>
      <trkpt lat="48.37401" lon="2.71966">
        <ele>98</ele>
        <time>2023-09-20T14:10:26.581+00:00</time>
      </trkpt>
      <trkpt lat="48.37407" lon="2.71965">
        <ele>97</ele>
        <time>2023-09-20T14:10:31.580+00:00</time>
      </trkpt>
      <trkpt lat="48.37414" lon="2.71963">
        <ele>97</ele>
        <time>2023-09-20T14:10:36.569+00:00</time>
      </trkpt>
      <trkpt lat="48.37419" lon="2.71962">
        <ele>97</ele>
        <time>2023-09-20T14:10:40.577+00:00</time>
      </trkpt>
      <trkpt lat="48.37423" lon="2.71962">
        <ele>97</ele>
        <time>2023-09-20T14:10:44.584+00:00</time>
      </trkpt>
      <trkpt lat="48.37429" lon="2.71958">
        <ele>96</ele>
        <time>2023-09-20T14:10:49.596+00:00</time>
      </trkpt>
      <trkpt lat="48.37437" lon="2.71958">
        <ele>97</ele>
        <time>2023-09-20T14:10:54.581+00:00</time>
      </trkpt>
      <trkpt lat="48.37446" lon="2.71959">
        <ele>97</ele>
        <time>2023-09-20T14:10:59.565+00:00</time>
      </trkpt>
      <trkpt lat="48.37453" lon="2.7196">
        <ele>97</ele>
        <time>2023-09-20T14:11:04.570+00:00</time>
      </trkpt>
      <trkpt lat="48.37457" lon="2.7196">
        <ele>97</ele>
        <time>2023-09-20T14:11:08.577+00:00</time>
      </trkpt>
      <trkpt lat="48.37463" lon="2.71959">
        <ele>98</ele>
        <time>2023-09-20T14:11:13.581+00:00</time>
      </trkpt>
      <trkpt lat="48.37469" lon="2.71953">
        <ele>99</ele>
        <time>2023-09-20T14:11:18.570+00:00</time>
      </trkpt>
      <trkpt lat="48.37474" lon="2.71949">
        <ele>99</ele>
        <time>2023-09-20T14:11:22.569+00:00</time>
      </trkpt>
      <trkpt lat="48.37478" lon="2.71943">
        <ele>99</ele>
        <time>2023-09-20T14:11:27.573+00:00</time>
      </trkpt>
      <trkpt lat="48.37481" lon="2.71936">
        <ele>99</ele>
        <time>2023-09-20T14:11:31.577+00:00</time>
      </trkpt>
      <trkpt lat="48.37487" lon="2.71931">
        <ele>101</ele>
        <time>2023-09-20T14:11:35.571+00:00</time>
      </trkpt>
      <trkpt lat="48.37493" lon="2.71927">
        <ele>101</ele>
        <time>2023-09-20T14:11:40.579+00:00</time>
      </trkpt>
      <trkpt lat="48.37498" lon="2.71923">
        <ele>101</ele>
        <time>2023-09-20T14:11:45.564+00:00</time>
      </trkpt>
      <trkpt lat="48.37502" lon="2.71921">
        <ele>101</ele>
        <time>2023-09-20T14:11:49.563+00:00</time>
      </trkpt>
      <trkpt lat="48.37508" lon="2.71917">
        <ele>101</ele>
        <time>2023-09-20T14:11:54.562+00:00</time>
      </trkpt>
      <trkpt lat="48.37517" lon="2.71917">
        <ele>102</ele>
        <time>2023-09-20T14:11:59.572+00:00</time>
      </trkpt>
      <trkpt lat="48.37525" lon="2.71916">
        <ele>102</ele>
        <time>2023-09-20T14:12:04.559+00:00</time>
      </trkpt>
      <trkpt lat="48.3753" lon="2.71914">
        <ele>102</ele>
        <time>2023-09-20T14:12:08.572+00:00</time>
      </trkpt>
      <trkpt lat="48.37536" lon="2.7191">
        <ele>102</ele>
        <time>2023-09-20T14:12:13.573+00:00</time>
      </trkpt>
      <trkpt lat="48.37542" lon="2.7191">
        <ele>100</ele>
        <time>2023-09-20T14:12:18.566+00:00</time>
      </trkpt>
      <trkpt lat="48.37547" lon="2.7191">
        <ele>100</ele>
        <time>2023-09-20T14:12:22.567+00:00</time>
      </trkpt>
      <trkpt lat="48.37554" lon="2.71908">
        <ele>100</ele>
        <time>2023-09-20T14:12:27.561+00:00</time>
      </trkpt>
      <trkpt lat="48.37561" lon="2.71906">
        <ele>100</ele>
        <time>2023-09-20T14:12:32.561+00:00</time>
      </trkpt>
      <trkpt lat="48.37566" lon="2.71905">
        <ele>100</ele>
        <time>2023-09-20T14:12:36.552+00:00</time>
      </trkpt>
      <trkpt lat="48.37574" lon="2.71902">
        <ele>99</ele>
        <time>2023-09-20T14:12:41.569+00:00</time>
      </trkpt>
      <trkpt lat="48.37578" lon="2.71897">
        <ele>99</ele>
        <time>2023-09-20T14:12:46.572+00:00</time>
      </trkpt>
      <trkpt lat="48.3758" lon="2.71894">
        <ele>99</ele>
        <time>2023-09-20T14:12:50.564+00:00</time>
      </trkpt>
      <trkpt lat="48.37586" lon="2.71891">
        <ele>99</ele>
        <time>2023-09-20T14:12:55.579+00:00</time>
      </trkpt>
      <trkpt lat="48.37593" lon="2.71891">
        <ele>99</ele>
        <time>2023-09-20T14:13:00.568+00:00</time>
      </trkpt>
      <trkpt lat="48.37601" lon="2.71891">
        <ele>100</ele>
        <time>2023-09-20T14:13:05.570+00:00</time>
      </trkpt>
      <trkpt lat="48.37609" lon="2.71891">
        <ele>100</ele>
        <time>2023-09-20T14:13:09.565+00:00</time>
      </trkpt>
      <trkpt lat="48.37616" lon="2.71889">
        <ele>100</ele>
        <time>2023-09-20T14:13:14.556+00:00</time>
      </trkpt>
      <trkpt lat="48.37622" lon="2.71883">
        <ele>100</ele>
        <time>2023-09-20T14:13:18.561+00:00</time>
      </trkpt>
      <trkpt lat="48.37624" lon="2.71875">
        <ele>101</ele>
        <time>2023-09-20T14:13:22.566+00:00</time>
      </trkpt>
      <trkpt lat="48.37625" lon="2.71866">
        <ele>102</ele>
        <time>2023-09-20T14:13:27.562+00:00</time>
      </trkpt>
      <trkpt lat="48.37626" lon="2.71855">
        <ele>102</ele>
        <time>2023-09-20T14:13:32.573+00:00</time>
      </trkpt>
      <trkpt lat="48.37625" lon="2.71848">
        <ele>101</ele>
        <time>2023-09-20T14:13:37.560+00:00</time>
      </trkpt>
      <trkpt lat="48.37625" lon="2.71844">
        <ele>103</ele>
        <time>2023-09-20T14:13:41.557+00:00</time>
      </trkpt>
      <trkpt lat="48.37625" lon="2.71837">
        <ele>103</ele>
        <time>2023-09-20T14:13:46.557+00:00</time>
      </trkpt>
      <trkpt lat="48.37625" lon="2.71824">
        <ele>103</ele>
        <time>2023-09-20T14:13:51.578+00:00</time>
      </trkpt>
      <trkpt lat="48.37623" lon="2.71816">
        <ele>105</ele>
        <time>2023-09-20T14:13:55.565+00:00</time>
      </trkpt>
      <trkpt lat="48.37622" lon="2.71808">
        <ele>105</ele>
        <time>2023-09-20T14:14:00.560+00:00</time>
      </trkpt>
      <trkpt lat="48.3762" lon="2.71802">
        <ele>105</ele>
        <time>2023-09-20T14:14:04.556+00:00</time>
      </trkpt>
      <trkpt lat="48.37619" lon="2.71794">
        <ele>105</ele>
        <time>2023-09-20T14:14:09.556+00:00</time>
      </trkpt>
      <trkpt lat="48.37618" lon="2.71785">
        <ele>106</ele>
        <time>2023-09-20T14:14:14.561+00:00</time>
      </trkpt>
      <trkpt lat="48.37617" lon="2.71776">
        <ele>106</ele>
        <time>2023-09-20T14:14:19.557+00:00</time>
      </trkpt>
      <trkpt lat="48.37615" lon="2.71767">
        <ele>106</ele>
        <time>2023-09-20T14:14:24.552+00:00</time>
      </trkpt>
      <trkpt lat="48.37611" lon="2.71764">
        <ele>107</ele>
        <time>2023-09-20T14:14:29.556+00:00</time>
      </trkpt>
      <trkpt lat="48.3761" lon="2.71759">
        <ele>107</ele>
        <time>2023-09-20T14:14:32.556+00:00</time>
      </trkpt>
      <trkpt lat="48.37613" lon="2.71742">
        <ele>107</ele>
        <time>2023-09-20T14:14:38.559+00:00</time>
      </trkpt>
      <trkpt lat="48.37613" lon="2.71726">
        <ele>105</ele>
        <time>2023-09-20T14:14:43.571+00:00</time>
      </trkpt>
      <trkpt lat="48.37611" lon="2.71713">
        <ele>105</ele>
        <time>2023-09-20T14:14:48.553+00:00</time>
      </trkpt>
      <trkpt lat="48.3761" lon="2.71704">
        <ele>104</ele>
        <time>2023-09-20T14:14:52.566+00:00</time>
      </trkpt>
      <trkpt lat="48.37606" lon="2.71695">
        <ele>104</ele>
        <time>2023-09-20T14:14:57.560+00:00</time>
      </trkpt>
      <trkpt lat="48.37605" lon="2.71685">
        <ele>104</ele>
        <time>2023-09-20T14:15:02.566+00:00</time>
      </trkpt>
      <trkpt lat="48.37603" lon="2.71678">
        <ele>103</ele>
        <time>2023-09-20T14:15:06.599+00:00</time>
      </trkpt>
      <trkpt lat="48.37601" lon="2.71669">
        <ele>103</ele>
        <time>2023-09-20T14:15:11.569+00:00</time>
      </trkpt>
      <trkpt lat="48.376" lon="2.71659">
        <ele>103</ele>
        <time>2023-09-20T14:15:16.573+00:00</time>
      </trkpt>
      <trkpt lat="48.37601" lon="2.7165">
        <ele>103</ele>
        <time>2023-09-20T14:15:21.549+00:00</time>
      </trkpt>
      <trkpt lat="48.37599" lon="2.71639">
        <ele>103</ele>
        <time>2023-09-20T14:15:26.556+00:00</time>
      </trkpt>
      <trkpt lat="48.37597" lon="2.71631">
        <ele>104</ele>
        <time>2023-09-20T14:15:30.562+00:00</time>
      </trkpt>
      <trkpt lat="48.37596" lon="2.71624">
        <ele>105</ele>
        <time>2023-09-20T14:15:34.568+00:00</time>
      </trkpt>
      <trkpt lat="48.37597" lon="2.71613">
        <ele>105</ele>
        <time>2023-09-20T14:15:40.571+00:00</time>
      </trkpt>
      <trkpt lat="48.37594" lon="2.716">
        <ele>105</ele>
        <time>2023-09-20T14:15:45.561+00:00</time>
      </trkpt>
      <trkpt lat="48.37592" lon="2.71589">
        <ele>106</ele>
        <time>2023-09-20T14:15:50.562+00:00</time>
      </trkpt>
      <trkpt lat="48.37592" lon="2.71578">
        <ele>106</ele>
        <time>2023-09-20T14:15:55.563+00:00</time>
      </trkpt>
      <trkpt lat="48.37594" lon="2.71568">
        <ele>107</ele>
        <time>2023-09-20T14:16:00.560+00:00</time>
      </trkpt>
      <trkpt lat="48.37595" lon="2.71558">
        <ele>107</ele>
        <time>2023-09-20T14:16:05.577+00:00</time>
      </trkpt>
      <trkpt lat="48.37596" lon="2.71548">
        <ele>107</ele>
        <time>2023-09-20T14:16:10.569+00:00</time>
      </trkpt>
      <trkpt lat="48.37595" lon="2.71539">
        <ele>107</ele>
        <time>2023-09-20T14:16:15.555+00:00</time>
      </trkpt>
      <trkpt lat="48.37595" lon="2.71531">
        <ele>107</ele>
        <time>2023-09-20T14:16:19.562+00:00</time>
      </trkpt>
      <trkpt lat="48.37597" lon="2.71521">
        <ele>107</ele>
        <time>2023-09-20T14:16:24.583+00:00</time>
      </trkpt>
      <trkpt lat="48.37599" lon="2.7151">
        <ele>105</ele>
        <time>2023-09-20T14:16:29.568+00:00</time>
      </trkpt>
      <trkpt lat="48.37597" lon="2.71499">
        <ele>105</ele>
        <time>2023-09-20T14:16:34.575+00:00</time>
      </trkpt>
      <trkpt lat="48.37596" lon="2.71486">
        <ele>107</ele>
        <time>2023-09-20T14:16:38.575+00:00</time>
      </trkpt>
      <trkpt lat="48.37596" lon="2.71475">
        <ele>108</ele>
        <time>2023-09-20T14:16:42.563+00:00</time>
      </trkpt>
      <trkpt lat="48.37596" lon="2.71467">
        <ele>108</ele>
        <time>2023-09-20T14:16:47.560+00:00</time>
      </trkpt>
      <trkpt lat="48.37597" lon="2.7146">
        <ele>104</ele>
        <time>2023-09-20T14:16:51.559+00:00</time>
      </trkpt>
      <trkpt lat="48.37599" lon="2.71451">
        <ele>105</ele>
        <time>2023-09-20T14:16:56.555+00:00</time>
      </trkpt>
      <trkpt lat="48.37599" lon="2.71443">
        <ele>105</ele>
        <time>2023-09-20T14:17:01.565+00:00</time>
      </trkpt>
      <trkpt lat="48.37597" lon="2.71434">
        <ele>109</ele>
        <time>2023-09-20T14:17:06.565+00:00</time>
      </trkpt>
      <trkpt lat="48.37597" lon="2.71427">
        <ele>109</ele>
        <time>2023-09-20T14:17:10.562+00:00</time>
      </trkpt>
      <trkpt lat="48.37597" lon="2.71417">
        <ele>109</ele>
        <time>2023-09-20T14:17:15.564+00:00</time>
      </trkpt>
      <trkpt lat="48.37596" lon="2.71409">
        <ele>109</ele>
        <time>2023-09-20T14:17:19.560+00:00</time>
      </trkpt>
      <trkpt lat="48.37596" lon="2.71399">
        <ele>111</ele>
        <time>2023-09-20T14:17:24.564+00:00</time>
      </trkpt>
      <trkpt lat="48.37596" lon="2.71389">
        <ele>111</ele>
        <time>2023-09-20T14:17:29.563+00:00</time>
      </trkpt>
      <trkpt lat="48.37597" lon="2.71381">
        <ele>111</ele>
        <time>2023-09-20T14:17:33.570+00:00</time>
      </trkpt>
      <trkpt lat="48.37599" lon="2.7137">
        <ele>110</ele>
        <time>2023-09-20T14:17:38.569+00:00</time>
      </trkpt>
      <trkpt lat="48.37599" lon="2.71362">
        <ele>110</ele>
        <time>2023-09-20T14:17:42.569+00:00</time>
      </trkpt>
      <trkpt lat="48.37599" lon="2.71351">
        <ele>110</ele>
        <time>2023-09-20T14:17:47.568+00:00</time>
      </trkpt>
      <trkpt lat="48.37599" lon="2.71341">
        <ele>112</ele>
        <time>2023-09-20T14:17:52.568+00:00</time>
      </trkpt>
      <trkpt lat="48.37598" lon="2.7133">
        <ele>112</ele>
        <time>2023-09-20T14:17:57.582+00:00</time>
      </trkpt>
      <trkpt lat="48.37597" lon="2.7132">
        <ele>113</ele>
        <time>2023-09-20T14:18:02.564+00:00</time>
      </trkpt>
      <trkpt lat="48.37598" lon="2.7131">
        <ele>113</ele>
        <time>2023-09-20T14:18:07.559+00:00</time>
      </trkpt>
      <trkpt lat="48.37602" lon="2.71304">
        <ele>113</ele>
        <time>2023-09-20T14:18:11.577+00:00</time>
      </trkpt>
      <trkpt lat="48.37606" lon="2.71296">
        <ele>113</ele>
        <time>2023-09-20T14:18:16.559+00:00</time>
      </trkpt>
      <trkpt lat="48.37608" lon="2.71289">
        <ele>114</ele>
        <time>2023-09-20T14:18:20.590+00:00</time>
      </trkpt>
      <trkpt lat="48.37606" lon="2.71278">
        <ele>114</ele>
        <time>2023-09-20T14:18:25.560+00:00</time>
      </trkpt>
      <trkpt lat="48.37605" lon="2.71276">
        <ele>114</ele>
        <time>2023-09-20T14:18:29.573+00:00</time>
      </trkpt>
      <trkpt lat="48.37607" lon="2.71275">
        <ele>114</ele>
        <time>2023-09-20T14:18:34.569+00:00</time>
      </trkpt>
      <trkpt lat="48.37611" lon="2.71268">
        <ele>114</ele>
        <time>2023-09-20T14:18:39.580+00:00</time>
      </trkpt>
      <trkpt lat="48.37614" lon="2.71259">
        <ele>116</ele>
        <time>2023-09-20T14:18:44.570+00:00</time>
      </trkpt>
      <trkpt lat="48.37619" lon="2.71251">
        <ele>116</ele>
        <time>2023-09-20T14:18:49.575+00:00</time>
      </trkpt>
      <trkpt lat="48.37622" lon="2.71244">
        <ele>116</ele>
        <time>2023-09-20T14:18:54.557+00:00</time>
      </trkpt>
      <trkpt lat="48.37624" lon="2.71237">
        <ele>116</ele>
        <time>2023-09-20T14:18:59.582+00:00</time>
      </trkpt>
      <trkpt lat="48.37626" lon="2.71231">
        <ele>119</ele>
        <time>2023-09-20T14:19:04.554+00:00</time>
      </trkpt>
      <trkpt lat="48.37628" lon="2.71228">
        <ele>119</ele>
        <time>2023-09-20T14:19:08.554+00:00</time>
      </trkpt>
      <trkpt lat="48.37629" lon="2.71224">
        <ele>119</ele>
        <time>2023-09-20T14:19:12.567+00:00</time>
      </trkpt>
      <trkpt lat="48.37631" lon="2.71219">
        <ele>119</ele>
        <time>2023-09-20T14:19:16.573+00:00</time>
      </trkpt>
      <trkpt lat="48.37633" lon="2.71214">
        <ele>119</ele>
        <time>2023-09-20T14:19:21.567+00:00</time>
      </trkpt>
      <trkpt lat="48.37632" lon="2.71207">
        <ele>120</ele>
        <time>2023-09-20T14:19:26.566+00:00</time>
      </trkpt>
      <trkpt lat="48.37635" lon="2.71202">
        <ele>120</ele>
        <time>2023-09-20T14:19:31.568+00:00</time>
      </trkpt>
      <trkpt lat="48.37638" lon="2.71195">
        <ele>120</ele>
        <time>2023-09-20T14:19:36.566+00:00</time>
      </trkpt>
      <trkpt lat="48.37639" lon="2.7119">
        <ele>120</ele>
        <time>2023-09-20T14:19:40.564+00:00</time>
      </trkpt>
      <trkpt lat="48.37641" lon="2.71184">
        <ele>120</ele>
        <time>2023-09-20T14:19:44.583+00:00</time>
      </trkpt>
      <trkpt lat="48.37645" lon="2.71177">
        <ele>120</ele>
        <time>2023-09-20T14:19:49.560+00:00</time>
      </trkpt>
      <trkpt lat="48.37648" lon="2.71173">
        <ele>120</ele>
        <time>2023-09-20T14:19:53.567+00:00</time>
      </trkpt>
      <trkpt lat="48.37651" lon="2.71167">
        <ele>120</ele>
        <time>2023-09-20T14:19:58.565+00:00</time>
      </trkpt>
      <trkpt lat="48.37653" lon="2.71161">
        <ele>125</ele>
        <time>2023-09-20T14:20:02.582+00:00</time>
      </trkpt>
      <trkpt lat="48.37658" lon="2.7116">
        <ele>125</ele>
        <time>2023-09-20T14:20:07.563+00:00</time>
      </trkpt>
      <trkpt lat="48.3766" lon="2.71158">
        <ele>125</ele>
        <time>2023-09-20T14:20:12.559+00:00</time>
      </trkpt>
      <trkpt lat="48.37662" lon="2.71153">
        <ele>125</ele>
        <time>2023-09-20T14:20:17.559+00:00</time>
      </trkpt>
      <trkpt lat="48.37665" lon="2.71148">
        <ele>125</ele>
        <time>2023-09-20T14:20:21.585+00:00</time>
      </trkpt>
      <trkpt lat="48.37668" lon="2.71143">
        <ele>125</ele>
        <time>2023-09-20T14:20:26.567+00:00</time>
      </trkpt>
      <trkpt lat="48.37671" lon="2.71139">
        <ele>125</ele>
        <time>2023-09-20T14:20:30.570+00:00</time>
      </trkpt>
      <trkpt lat="48.37671" lon="2.71136">
        <ele>125</ele>
        <time>2023-09-20T14:20:35.578+00:00</time>
      </trkpt>
      <trkpt lat="48.37672" lon="2.71132">
        <ele>125</ele>
        <time>2023-09-20T14:20:40.579+00:00</time>
      </trkpt>
      <trkpt lat="48.37676" lon="2.71124">
        <ele>124</ele>
        <time>2023-09-20T14:20:45.570+00:00</time>
      </trkpt>
      <trkpt lat="48.37679" lon="2.71118">
        <ele>124</ele>
        <time>2023-09-20T14:20:50.571+00:00</time>
      </trkpt>
      <trkpt lat="48.37681" lon="2.71114">
        <ele>130</ele>
        <time>2023-09-20T14:20:55.561+00:00</time>
      </trkpt>
      <trkpt lat="48.37683" lon="2.71113">
        <ele>130</ele>
        <time>2023-09-20T14:20:59.565+00:00</time>
      </trkpt>
      <trkpt lat="48.37688" lon="2.7111">
        <ele>130</ele>
        <time>2023-09-20T14:21:04.584+00:00</time>
      </trkpt>
      <trkpt lat="48.37689" lon="2.71099">
        <ele>130</ele>
        <time>2023-09-20T14:21:09.561+00:00</time>
      </trkpt>
      <trkpt lat="48.3769" lon="2.71091">
        <ele>129</ele>
        <time>2023-09-20T14:21:13.567+00:00</time>
      </trkpt>
      <trkpt lat="48.37692" lon="2.71086">
        <ele>129</ele>
        <time>2023-09-20T14:21:18.560+00:00</time>
      </trkpt>
      <trkpt lat="48.37695" lon="2.71081">
        <ele>129</ele>
        <time>2023-09-20T14:21:23.557+00:00</time>
      </trkpt>
      <trkpt lat="48.37698" lon="2.71073">
        <ele>129</ele>
        <time>2023-09-20T14:21:28.576+00:00</time>
      </trkpt>
      <trkpt lat="48.37701" lon="2.71063">
        <ele>129</ele>
        <time>2023-09-20T14:21:33.564+00:00</time>
      </trkpt>
      <trkpt lat="48.37704" lon="2.71056">
        <ele>129</ele>
        <time>2023-09-20T14:21:37.573+00:00</time>
      </trkpt>
      <trkpt lat="48.37706" lon="2.71049">
        <ele>129</ele>
        <time>2023-09-20T14:21:41.565+00:00</time>
      </trkpt>
      <trkpt lat="48.37709" lon="2.71043">
        <ele>134</ele>
        <time>2023-09-20T14:21:45.566+00:00</time>
      </trkpt>
      <trkpt lat="48.37712" lon="2.71037">
        <ele>133</ele>
        <time>2023-09-20T14:21:49.553+00:00</time>
      </trkpt>
      <trkpt lat="48.37716" lon="2.71031">
        <ele>133</ele>
        <time>2023-09-20T14:21:54.565+00:00</time>
      </trkpt>
      <trkpt lat="48.37719" lon="2.71024">
        <ele>133</ele>
        <time>2023-09-20T14:21:59.566+00:00</time>
      </trkpt>
      <trkpt lat="48.37722" lon="2.71017">
        <ele>133</ele>
        <time>2023-09-20T14:22:03.574+00:00</time>
      </trkpt>
      <trkpt lat="48.37726" lon="2.71009">
        <ele>133</ele>
        <time>2023-09-20T14:22:08.569+00:00</time>
      </trkpt>
      <trkpt lat="48.3773" lon="2.71002">
        <ele>133</ele>
        <time>2023-09-20T14:22:13.561+00:00</time>
      </trkpt>
      <trkpt lat="48.37733" lon="2.70996">
        <ele>133</ele>
        <time>2023-09-20T14:22:18.567+00:00</time>
      </trkpt>
      <trkpt lat="48.37735" lon="2.7099">
        <ele>133</ele>
        <time>2023-09-20T14:22:22.567+00:00</time>
      </trkpt>
      <trkpt lat="48.37737" lon="2.70984">
        <ele>134</ele>
        <time>2023-09-20T14:22:26.564+00:00</time>
      </trkpt>
      <trkpt lat="48.3774" lon="2.70978">
        <ele>134</ele>
        <time>2023-09-20T14:22:30.571+00:00</time>
      </trkpt>
      <trkpt lat="48.37744" lon="2.70973">
        <ele>134</ele>
        <time>2023-09-20T14:22:35.564+00:00</time>
      </trkpt>
      <trkpt lat="48.37745" lon="2.70968">
        <ele>134</ele>
        <time>2023-09-20T14:22:39.589+00:00</time>
      </trkpt>
      <trkpt lat="48.37747" lon="2.70962">
        <ele>134</ele>
        <time>2023-09-20T14:22:44.568+00:00</time>
      </trkpt>
      <trkpt lat="48.3775" lon="2.70955">
        <ele>134</ele>
        <time>2023-09-20T14:22:49.564+00:00</time>
      </trkpt>
      <trkpt lat="48.37752" lon="2.70948">
        <ele>134</ele>
        <time>2023-09-20T14:22:54.564+00:00</time>
      </trkpt>
      <trkpt lat="48.37753" lon="2.70942">
        <ele>134</ele>
        <time>2023-09-20T14:22:58.567+00:00</time>
      </trkpt>
      <trkpt lat="48.37754" lon="2.70937">
        <ele>134</ele>
        <time>2023-09-20T14:23:02.578+00:00</time>
      </trkpt>
      <trkpt lat="48.37756" lon="2.70931">
        <ele>134</ele>
        <time>2023-09-20T14:23:07.555+00:00</time>
      </trkpt>
      <trkpt lat="48.37757" lon="2.70925">
        <ele>134</ele>
        <time>2023-09-20T14:23:11.573+00:00</time>
      </trkpt>
      <trkpt lat="48.3776" lon="2.70917">
        <ele>134</ele>
        <time>2023-09-20T14:23:16.565+00:00</time>
      </trkpt>
      <trkpt lat="48.37764" lon="2.70911">
        <ele>135</ele>
        <time>2023-09-20T14:23:20.556+00:00</time>
      </trkpt>
      <trkpt lat="48.37768" lon="2.70904">
        <ele>135</ele>
        <time>2023-09-20T14:23:25.566+00:00</time>
      </trkpt>
      <trkpt lat="48.37772" lon="2.70897">
        <ele>136</ele>
        <time>2023-09-20T14:23:30.562+00:00</time>
      </trkpt>
      <trkpt lat="48.37776" lon="2.70888">
        <ele>136</ele>
        <time>2023-09-20T14:23:35.567+00:00</time>
      </trkpt>
      <trkpt lat="48.37779" lon="2.70881">
        <ele>136</ele>
        <time>2023-09-20T14:23:39.582+00:00</time>
      </trkpt>
      <trkpt lat="48.37783" lon="2.70873">
        <ele>136</ele>
        <time>2023-09-20T14:23:43.562+00:00</time>
      </trkpt>
      <trkpt lat="48.37786" lon="2.70866">
        <ele>136</ele>
        <time>2023-09-20T14:23:48.563+00:00</time>
      </trkpt>
      <trkpt lat="48.3779" lon="2.70858">
        <ele>136</ele>
        <time>2023-09-20T14:23:53.562+00:00</time>
      </trkpt>
      <trkpt lat="48.37793" lon="2.7085">
        <ele>137</ele>
        <time>2023-09-20T14:23:58.560+00:00</time>
      </trkpt>
      <trkpt lat="48.37795" lon="2.70844">
        <ele>138</ele>
        <time>2023-09-20T14:24:03.574+00:00</time>
      </trkpt>
      <trkpt lat="48.37798" lon="2.70836">
        <ele>138</ele>
        <time>2023-09-20T14:24:08.563+00:00</time>
      </trkpt>
      <trkpt lat="48.37802" lon="2.70828">
        <ele>138</ele>
        <time>2023-09-20T14:24:13.560+00:00</time>
      </trkpt>
      <trkpt lat="48.37806" lon="2.70822">
        <ele>138</ele>
        <time>2023-09-20T14:24:17.555+00:00</time>
      </trkpt>
      <trkpt lat="48.37812" lon="2.70816">
        <ele>138</ele>
        <time>2023-09-20T14:24:22.560+00:00</time>
      </trkpt>
      <trkpt lat="48.37817" lon="2.70808">
        <ele>138</ele>
        <time>2023-09-20T14:24:27.557+00:00</time>
      </trkpt>
      <trkpt lat="48.37818" lon="2.70805">
        <ele>138</ele>
        <time>2023-09-20T14:24:31.559+00:00</time>
      </trkpt>
      <trkpt lat="48.37819" lon="2.708">
        <ele>138</ele>
        <time>2023-09-20T14:24:35.587+00:00</time>
      </trkpt>
      <trkpt lat="48.3782" lon="2.70795">
        <ele>137</ele>
        <time>2023-09-20T14:24:40.558+00:00</time>
      </trkpt>
      <trkpt lat="48.37823" lon="2.70791">
        <ele>137</ele>
        <time>2023-09-20T14:24:44.561+00:00</time>
      </trkpt>
      <trkpt lat="48.37825" lon="2.70786">
        <ele>137</ele>
        <time>2023-09-20T14:24:48.568+00:00</time>
      </trkpt>
      <trkpt lat="48.37826" lon="2.70781">
        <ele>137</ele>
        <time>2023-09-20T14:24:53.563+00:00</time>
      </trkpt>
      <trkpt lat="48.37827" lon="2.70777">
        <ele>137</ele>
        <time>2023-09-20T14:24:57.563+00:00</time>
      </trkpt>
      <trkpt lat="48.37829" lon="2.70773">
        <ele>137</ele>
        <time>2023-09-20T14:25:01.568+00:00</time>
      </trkpt>
      <trkpt lat="48.37829" lon="2.70769">
        <ele>137</ele>
        <time>2023-09-20T14:25:05.567+00:00</time>
      </trkpt>
      <trkpt lat="48.3783" lon="2.70764">
        <ele>137</ele>
        <time>2023-09-20T14:25:10.561+00:00</time>
      </trkpt>
      <trkpt lat="48.37831" lon="2.70759">
        <ele>137</ele>
        <time>2023-09-20T14:25:14.571+00:00</time>
      </trkpt>
      <trkpt lat="48.37829" lon="2.70752">
        <ele>137</ele>
        <time>2023-09-20T14:25:19.586+00:00</time>
      </trkpt>
      <trkpt lat="48.37829" lon="2.70747">
        <ele>137</ele>
        <time>2023-09-20T14:25:23.576+00:00</time>
      </trkpt>
      <trkpt lat="48.37829" lon="2.70737">
        <ele>137</ele>
        <time>2023-09-20T14:25:28.557+00:00</time>
      </trkpt>
      <trkpt lat="48.37829" lon="2.70727">
        <ele>137</ele>
        <time>2023-09-20T14:25:32.564+00:00</time>
      </trkpt>
      <trkpt lat="48.3783" lon="2.70717">
        <ele>137</ele>
        <time>2023-09-20T14:25:37.570+00:00</time>
      </trkpt>
      <trkpt lat="48.37833" lon="2.70708">
        <ele>137</ele>
        <time>2023-09-20T14:25:42.557+00:00</time>
      </trkpt>
      <trkpt lat="48.37835" lon="2.70702">
        <ele>137</ele>
        <time>2023-09-20T14:25:46.557+00:00</time>
      </trkpt>
      <trkpt lat="48.37835" lon="2.70693">
        <ele>137</ele>
        <time>2023-09-20T14:25:51.562+00:00</time>
      </trkpt>
      <trkpt lat="48.37837" lon="2.70685">
        <ele>137</ele>
        <time>2023-09-20T14:25:56.562+00:00</time>
      </trkpt>
      <trkpt lat="48.3784" lon="2.70677">
        <ele>138</ele>
        <time>2023-09-20T14:26:01.556+00:00</time>
      </trkpt>
      <trkpt lat="48.37844" lon="2.70672">
        <ele>138</ele>
        <time>2023-09-20T14:26:05.562+00:00</time>
      </trkpt>
      <trkpt lat="48.37846" lon="2.70664">
        <ele>138</ele>
        <time>2023-09-20T14:26:09.563+00:00</time>
      </trkpt>
      <trkpt lat="48.37847" lon="2.70655">
        <ele>138</ele>
        <time>2023-09-20T14:26:14.562+00:00</time>
      </trkpt>
      <trkpt lat="48.3785" lon="2.70642">
        <ele>137</ele>
        <time>2023-09-20T14:27:42.560+00:00</time>
      </trkpt>
      <trkpt lat="48.37849" lon="2.70642">
        <ele>137</ele>
        <time>2023-09-20T14:27:46.651+00:00</time>
      </trkpt>
      <trkpt lat="48.37849" lon="2.70638">
        <ele>137</ele>
        <time>2023-09-20T14:27:51.560+00:00</time>
      </trkpt>
      <trkpt lat="48.37848" lon="2.70636">
        <ele>137</ele>
        <time>2023-09-20T14:27:55.543+00:00</time>
      </trkpt>
      <trkpt lat="48.37849" lon="2.70633">
        <ele>137</ele>
        <time>2023-09-20T14:27:59.556+00:00</time>
      </trkpt>
      <trkpt lat="48.37848" lon="2.70633">
        <ele>137</ele>
        <time>2023-09-20T14:28:03.560+00:00</time>
      </trkpt>
      <trkpt lat="48.37851" lon="2.70631">
        <ele>137</ele>
        <time>2023-09-20T14:28:08.549+00:00</time>
      </trkpt>
      <trkpt lat="48.37855" lon="2.70625">
        <ele>136</ele>
        <time>2023-09-20T14:28:13.549+00:00</time>
      </trkpt>
      <trkpt lat="48.37856" lon="2.70618">
        <ele>136</ele>
        <time>2023-09-20T14:28:17.561+00:00</time>
      </trkpt>
      <trkpt lat="48.37852" lon="2.70615">
        <ele>136</ele>
        <time>2023-09-20T14:28:22.563+00:00</time>
      </trkpt>
      <trkpt lat="48.37854" lon="2.70607">
        <ele>136</ele>
        <time>2023-09-20T14:28:27.562+00:00</time>
      </trkpt>
      <trkpt lat="48.37856" lon="2.70596">
        <ele>136</ele>
        <time>2023-09-20T14:28:31.566+00:00</time>
      </trkpt>
      <trkpt lat="48.37857" lon="2.70585">
        <ele>136</ele>
        <time>2023-09-20T14:28:35.570+00:00</time>
      </trkpt>
      <trkpt lat="48.37858" lon="2.70574">
        <ele>136</ele>
        <time>2023-09-20T14:28:40.554+00:00</time>
      </trkpt>
      <trkpt lat="48.37859" lon="2.70566">
        <ele>136</ele>
        <time>2023-09-20T14:28:44.568+00:00</time>
      </trkpt>
      <trkpt lat="48.3786" lon="2.70557">
        <ele>136</ele>
        <time>2023-09-20T14:28:49.556+00:00</time>
      </trkpt>
      <trkpt lat="48.37861" lon="2.70547">
        <ele>136</ele>
        <time>2023-09-20T14:28:53.560+00:00</time>
      </trkpt>
      <trkpt lat="48.37864" lon="2.70537">
        <ele>135</ele>
        <time>2023-09-20T14:28:58.570+00:00</time>
      </trkpt>
      <trkpt lat="48.3787" lon="2.70532">
        <ele>135</ele>
        <time>2023-09-20T14:29:03.552+00:00</time>
      </trkpt>
      <trkpt lat="48.37874" lon="2.70528">
        <ele>135</ele>
        <time>2023-09-20T14:29:07.552+00:00</time>
      </trkpt>
      <trkpt lat="48.37873" lon="2.70524">
        <ele>135</ele>
        <time>2023-09-20T14:29:11.569+00:00</time>
      </trkpt>
      <trkpt lat="48.37873" lon="2.70516">
        <ele>135</ele>
        <time>2023-09-20T14:29:16.567+00:00</time>
      </trkpt>
      <trkpt lat="48.37873" lon="2.70507">
        <ele>135</ele>
        <time>2023-09-20T14:29:20.575+00:00</time>
      </trkpt>
      <trkpt lat="48.37873" lon="2.70497">
        <ele>135</ele>
        <time>2023-09-20T14:29:25.565+00:00</time>
      </trkpt>
      <trkpt lat="48.37876" lon="2.70486">
        <ele>134</ele>
        <time>2023-09-20T14:29:30.568+00:00</time>
      </trkpt>
      <trkpt lat="48.37878" lon="2.70479">
        <ele>134</ele>
        <time>2023-09-20T14:29:34.560+00:00</time>
      </trkpt>
      <trkpt lat="48.3788" lon="2.7047">
        <ele>134</ele>
        <time>2023-09-20T14:29:39.558+00:00</time>
      </trkpt>
      <trkpt lat="48.37883" lon="2.70462">
        <ele>134</ele>
        <time>2023-09-20T14:29:43.561+00:00</time>
      </trkpt>
      <trkpt lat="48.37885" lon="2.70456">
        <ele>136</ele>
        <time>2023-09-20T14:29:47.563+00:00</time>
      </trkpt>
      <trkpt lat="48.37886" lon="2.70449">
        <ele>136</ele>
        <time>2023-09-20T14:29:51.586+00:00</time>
      </trkpt>
      <trkpt lat="48.37888" lon="2.70441">
        <ele>136</ele>
        <time>2023-09-20T14:29:56.558+00:00</time>
      </trkpt>
      <trkpt lat="48.3789" lon="2.70432">
        <ele>136</ele>
        <time>2023-09-20T14:30:01.586+00:00</time>
      </trkpt>
      <trkpt lat="48.37889" lon="2.70425">
        <ele>137</ele>
        <time>2023-09-20T14:30:05.593+00:00</time>
      </trkpt>
      <trkpt lat="48.37891" lon="2.70416">
        <ele>137</ele>
        <time>2023-09-20T14:30:10.559+00:00</time>
      </trkpt>
      <trkpt lat="48.37893" lon="2.70409">
        <ele>137</ele>
        <time>2023-09-20T14:30:14.584+00:00</time>
      </trkpt>
      <trkpt lat="48.37894" lon="2.70402">
        <ele>137</ele>
        <time>2023-09-20T14:30:18.589+00:00</time>
      </trkpt>
      <trkpt lat="48.37896" lon="2.70395">
        <ele>137</ele>
        <time>2023-09-20T14:30:22.582+00:00</time>
      </trkpt>
      <trkpt lat="48.37897" lon="2.70385">
        <ele>137</ele>
        <time>2023-09-20T14:30:27.561+00:00</time>
      </trkpt>
      <trkpt lat="48.37898" lon="2.70375">
        <ele>137</ele>
        <time>2023-09-20T14:30:31.565+00:00</time>
      </trkpt>
      <trkpt lat="48.37899" lon="2.70367">
        <ele>137</ele>
        <time>2023-09-20T14:30:35.575+00:00</time>
      </trkpt>
      <trkpt lat="48.379" lon="2.70359">
        <ele>137</ele>
        <time>2023-09-20T14:30:40.553+00:00</time>
      </trkpt>
      <trkpt lat="48.37899" lon="2.70351">
        <ele>137</ele>
        <time>2023-09-20T14:30:44.561+00:00</time>
      </trkpt>
      <trkpt lat="48.37901" lon="2.70342">
        <ele>137</ele>
        <time>2023-09-20T14:30:48.570+00:00</time>
      </trkpt>
      <trkpt lat="48.37903" lon="2.70333">
        <ele>136</ele>
        <time>2023-09-20T14:30:53.563+00:00</time>
      </trkpt>
      <trkpt lat="48.37905" lon="2.70325">
        <ele>136</ele>
        <time>2023-09-20T14:30:58.579+00:00</time>
      </trkpt>
      <trkpt lat="48.37907" lon="2.70319">
        <ele>136</ele>
        <time>2023-09-20T14:31:03.577+00:00</time>
      </trkpt>
      <trkpt lat="48.37909" lon="2.70309">
        <ele>136</ele>
        <time>2023-09-20T14:31:08.574+00:00</time>
      </trkpt>
      <trkpt lat="48.3791" lon="2.70301">
        <ele>136</ele>
        <time>2023-09-20T14:31:12.570+00:00</time>
      </trkpt>
      <trkpt lat="48.37911" lon="2.70289">
        <ele>135</ele>
        <time>2023-09-20T14:31:17.556+00:00</time>
      </trkpt>
      <trkpt lat="48.37913" lon="2.70281">
        <ele>135</ele>
        <time>2023-09-20T14:31:21.563+00:00</time>
      </trkpt>
      <trkpt lat="48.37914" lon="2.70272">
        <ele>135</ele>
        <time>2023-09-20T14:31:25.570+00:00</time>
      </trkpt>
      <trkpt lat="48.37916" lon="2.70262">
        <ele>135</ele>
        <time>2023-09-20T14:31:30.562+00:00</time>
      </trkpt>
      <trkpt lat="48.37916" lon="2.70255">
        <ele>135</ele>
        <time>2023-09-20T14:31:34.562+00:00</time>
      </trkpt>
      <trkpt lat="48.37917" lon="2.70248">
        <ele>135</ele>
        <time>2023-09-20T14:31:38.565+00:00</time>
      </trkpt>
      <trkpt lat="48.37917" lon="2.70239">
        <ele>135</ele>
        <time>2023-09-20T14:31:42.589+00:00</time>
      </trkpt>
      <trkpt lat="48.3792" lon="2.70228">
        <ele>134</ele>
        <time>2023-09-20T14:31:47.577+00:00</time>
      </trkpt>
      <trkpt lat="48.37921" lon="2.7022">
        <ele>134</ele>
        <time>2023-09-20T14:31:51.575+00:00</time>
      </trkpt>
      <trkpt lat="48.37923" lon="2.7021">
        <ele>134</ele>
        <time>2023-09-20T14:31:56.547+00:00</time>
      </trkpt>
      <trkpt lat="48.37924" lon="2.70203">
        <ele>133</ele>
        <time>2023-09-20T14:32:00.571+00:00</time>
      </trkpt>
      <trkpt lat="48.37927" lon="2.70194">
        <ele>133</ele>
        <time>2023-09-20T14:32:05.557+00:00</time>
      </trkpt>
      <trkpt lat="48.37928" lon="2.70184">
        <ele>133</ele>
        <time>2023-09-20T14:32:10.567+00:00</time>
      </trkpt>
      <trkpt lat="48.37928" lon="2.70175">
        <ele>132</ele>
        <time>2023-09-20T14:32:15.548+00:00</time>
      </trkpt>
      <trkpt lat="48.3793" lon="2.70166">
        <ele>132</ele>
        <time>2023-09-20T14:32:19.580+00:00</time>
      </trkpt>
      <trkpt lat="48.3793" lon="2.70158">
        <ele>132</ele>
        <time>2023-09-20T14:32:24.562+00:00</time>
      </trkpt>
      <trkpt lat="48.37933" lon="2.7015">
        <ele>131</ele>
        <time>2023-09-20T14:32:29.576+00:00</time>
      </trkpt>
      <trkpt lat="48.37935" lon="2.70139">
        <ele>131</ele>
        <time>2023-09-20T14:32:34.586+00:00</time>
      </trkpt>
      <trkpt lat="48.37939" lon="2.70127">
        <ele>131</ele>
        <time>2023-09-20T14:32:39.571+00:00</time>
      </trkpt>
      <trkpt lat="48.37941" lon="2.70117">
        <ele>131</ele>
        <time>2023-09-20T14:32:44.580+00:00</time>
      </trkpt>
      <trkpt lat="48.37944" lon="2.70108">
        <ele>131</ele>
        <time>2023-09-20T14:32:49.580+00:00</time>
      </trkpt>
      <trkpt lat="48.37944" lon="2.701">
        <ele>131</ele>
        <time>2023-09-20T14:32:54.574+00:00</time>
      </trkpt>
      <trkpt lat="48.37943" lon="2.70092">
        <ele>131</ele>
        <time>2023-09-20T14:32:58.584+00:00</time>
      </trkpt>
      <trkpt lat="48.37945" lon="2.70084">
        <ele>131</ele>
        <time>2023-09-20T14:33:03.572+00:00</time>
      </trkpt>
      <trkpt lat="48.37948" lon="2.70074">
        <ele>131</ele>
        <time>2023-09-20T14:33:08.562+00:00</time>
      </trkpt>
      <trkpt lat="48.37949" lon="2.70066">
        <ele>132</ele>
        <time>2023-09-20T14:33:12.572+00:00</time>
      </trkpt>
      <trkpt lat="48.3795" lon="2.70057">
        <ele>132</ele>
        <time>2023-09-20T14:33:17.577+00:00</time>
      </trkpt>
      <trkpt lat="48.37952" lon="2.70048">
        <ele>132</ele>
        <time>2023-09-20T14:33:21.579+00:00</time>
      </trkpt>
      <trkpt lat="48.37954" lon="2.70039">
        <ele>131</ele>
        <time>2023-09-20T14:33:26.569+00:00</time>
      </trkpt>
      <trkpt lat="48.37956" lon="2.70033">
        <ele>131</ele>
        <time>2023-09-20T14:33:30.578+00:00</time>
      </trkpt>
      <trkpt lat="48.37961" lon="2.70027">
        <ele>131</ele>
        <time>2023-09-20T14:33:35.570+00:00</time>
      </trkpt>
      <trkpt lat="48.37966" lon="2.70023">
        <ele>131</ele>
        <time>2023-09-20T14:33:39.583+00:00</time>
      </trkpt>
      <trkpt lat="48.37973" lon="2.70017">
        <ele>131</ele>
        <time>2023-09-20T14:33:44.574+00:00</time>
      </trkpt>
      <trkpt lat="48.37977" lon="2.70013">
        <ele>131</ele>
        <time>2023-09-20T14:33:48.571+00:00</time>
      </trkpt>
      <trkpt lat="48.37983" lon="2.70008">
        <ele>131</ele>
        <time>2023-09-20T14:33:53.588+00:00</time>
      </trkpt>
      <trkpt lat="48.37989" lon="2.70003">
        <ele>132</ele>
        <time>2023-09-20T14:33:58.573+00:00</time>
      </trkpt>
      <trkpt lat="48.37995" lon="2.69998">
        <ele>132</ele>
        <time>2023-09-20T14:34:03.566+00:00</time>
      </trkpt>
      <trkpt lat="48.38" lon="2.69994">
        <ele>132</ele>
        <time>2023-09-20T14:34:07.564+00:00</time>
      </trkpt>
      <trkpt lat="48.38007" lon="2.69991">
        <ele>132</ele>
        <time>2023-09-20T14:34:12.572+00:00</time>
      </trkpt>
      <trkpt lat="48.38013" lon="2.69988">
        <ele>132</ele>
        <time>2023-09-20T14:34:16.576+00:00</time>
      </trkpt>
      <trkpt lat="48.38019" lon="2.69985">
        <ele>131</ele>
        <time>2023-09-20T14:34:21.589+00:00</time>
      </trkpt>
      <trkpt lat="48.38022" lon="2.69981">
        <ele>131</ele>
        <time>2023-09-20T14:34:25.601+00:00</time>
      </trkpt>
      <trkpt lat="48.38026" lon="2.69976">
        <ele>131</ele>
        <time>2023-09-20T14:34:30.572+00:00</time>
      </trkpt>
      <trkpt lat="48.38031" lon="2.69971">
        <ele>131</ele>
        <time>2023-09-20T14:34:35.575+00:00</time>
      </trkpt>
      <trkpt lat="48.38036" lon="2.69966">
        <ele>131</ele>
        <time>2023-09-20T14:34:39.574+00:00</time>
      </trkpt>
      <trkpt lat="48.38041" lon="2.69962">
        <ele>131</ele>
        <time>2023-09-20T14:34:43.593+00:00</time>
      </trkpt>
      <trkpt lat="48.38048" lon="2.69957">
        <ele>129</ele>
        <time>2023-09-20T14:34:48.589+00:00</time>
      </trkpt>
      <trkpt lat="48.38053" lon="2.69951">
        <ele>129</ele>
        <time>2023-09-20T14:34:53.545+00:00</time>
      </trkpt>
      <trkpt lat="48.38058" lon="2.69947">
        <ele>129</ele>
        <time>2023-09-20T14:34:57.583+00:00</time>
      </trkpt>
      <trkpt lat="48.38066" lon="2.69943">
        <ele>129</ele>
        <time>2023-09-20T14:35:02.548+00:00</time>
      </trkpt>
      <trkpt lat="48.38071" lon="2.6994">
        <ele>128</ele>
        <time>2023-09-20T14:35:06.570+00:00</time>
      </trkpt>
      <trkpt lat="48.38078" lon="2.69937">
        <ele>128</ele>
        <time>2023-09-20T14:35:11.570+00:00</time>
      </trkpt>
      <trkpt lat="48.38085" lon="2.69933">
        <ele>128</ele>
        <time>2023-09-20T14:35:16.564+00:00</time>
      </trkpt>
      <trkpt lat="48.38089" lon="2.69929">
        <ele>128</ele>
        <time>2023-09-20T14:35:21.568+00:00</time>
      </trkpt>
      <trkpt lat="48.38093" lon="2.69924">
        <ele>128</ele>
        <time>2023-09-20T14:35:26.581+00:00</time>
      </trkpt>
      <trkpt lat="48.38099" lon="2.6992">
        <ele>127</ele>
        <time>2023-09-20T14:35:31.574+00:00</time>
      </trkpt>
      <trkpt lat="48.38104" lon="2.69917">
        <ele>127</ele>
        <time>2023-09-20T14:35:35.571+00:00</time>
      </trkpt>
      <trkpt lat="48.38109" lon="2.69914">
        <ele>127</ele>
        <time>2023-09-20T14:35:39.576+00:00</time>
      </trkpt>
      <trkpt lat="48.38116" lon="2.69909">
        <ele>127</ele>
        <time>2023-09-20T14:35:44.574+00:00</time>
      </trkpt>
      <trkpt lat="48.38121" lon="2.69906">
        <ele>127</ele>
        <time>2023-09-20T14:35:49.589+00:00</time>
      </trkpt>
      <trkpt lat="48.38128" lon="2.69901">
        <ele>127</ele>
        <time>2023-09-20T14:35:54.567+00:00</time>
      </trkpt>
      <trkpt lat="48.38134" lon="2.69898">
        <ele>127</ele>
        <time>2023-09-20T14:35:58.575+00:00</time>
      </trkpt>
      <trkpt lat="48.38141" lon="2.69893">
        <ele>127</ele>
        <time>2023-09-20T14:36:03.592+00:00</time>
      </trkpt>
      <trkpt lat="48.38149" lon="2.69889">
        <ele>127</ele>
        <time>2023-09-20T14:36:08.581+00:00</time>
      </trkpt>
      <trkpt lat="48.38155" lon="2.69887">
        <ele>123</ele>
        <time>2023-09-20T14:36:13.586+00:00</time>
      </trkpt>
      <trkpt lat="48.38162" lon="2.69885">
        <ele>123</ele>
        <time>2023-09-20T14:36:18.573+00:00</time>
      </trkpt>
      <trkpt lat="48.38166" lon="2.69882">
        <ele>123</ele>
        <time>2023-09-20T14:36:22.581+00:00</time>
      </trkpt>
      <trkpt lat="48.3817" lon="2.6988">
        <ele>123</ele>
        <time>2023-09-20T14:36:26.580+00:00</time>
      </trkpt>
      <trkpt lat="48.38173" lon="2.69877">
        <ele>123</ele>
        <time>2023-09-20T14:36:31.589+00:00</time>
      </trkpt>
      <trkpt lat="48.38178" lon="2.69873">
        <ele>122</ele>
        <time>2023-09-20T14:36:36.570+00:00</time>
      </trkpt>
      <trkpt lat="48.38183" lon="2.6987">
        <ele>118</ele>
        <time>2023-09-20T14:36:40.578+00:00</time>
      </trkpt>
      <trkpt lat="48.38187" lon="2.69868">
        <ele>118</ele>
        <time>2023-09-20T14:36:45.667+00:00</time>
      </trkpt>
      <trkpt lat="48.3819" lon="2.69865">
        <ele>118</ele>
        <time>2023-09-20T14:36:50.594+00:00</time>
      </trkpt>
      <trkpt lat="48.38195" lon="2.69863">
        <ele>118</ele>
        <time>2023-09-20T14:36:55.573+00:00</time>
      </trkpt>
      <trkpt lat="48.382" lon="2.69861">
        <ele>118</ele>
        <time>2023-09-20T14:37:00.587+00:00</time>
      </trkpt>
      <trkpt lat="48.38206" lon="2.69857">
        <ele>118</ele>
        <time>2023-09-20T14:37:05.584+00:00</time>
      </trkpt>
      <trkpt lat="48.3821" lon="2.69854">
        <ele>114</ele>
        <time>2023-09-20T14:37:10.574+00:00</time>
      </trkpt>
      <trkpt lat="48.38214" lon="2.69853">
        <ele>114</ele>
        <time>2023-09-20T14:37:14.575+00:00</time>
      </trkpt>
      <trkpt lat="48.38218" lon="2.69852">
        <ele>114</ele>
        <time>2023-09-20T14:37:18.592+00:00</time>
      </trkpt>
      <trkpt lat="48.38223" lon="2.69849">
        <ele>114</ele>
        <time>2023-09-20T14:37:23.584+00:00</time>
      </trkpt>
      <trkpt lat="48.38228" lon="2.69846">
        <ele>113</ele>
        <time>2023-09-20T14:37:28.608+00:00</time>
      </trkpt>
      <trkpt lat="48.38235" lon="2.69841">
        <ele>113</ele>
        <time>2023-09-20T14:37:33.573+00:00</time>
      </trkpt>
      <trkpt lat="48.38241" lon="2.69838">
        <ele>108</ele>
        <time>2023-09-20T14:37:38.591+00:00</time>
      </trkpt>
      <trkpt lat="48.38246" lon="2.69834">
        <ele>108</ele>
        <time>2023-09-20T14:37:43.578+00:00</time>
      </trkpt>
      <trkpt lat="48.3825" lon="2.69832">
        <ele>108</ele>
        <time>2023-09-20T14:37:47.582+00:00</time>
      </trkpt>
      <trkpt lat="48.38257" lon="2.6983">
        <ele>108</ele>
        <time>2023-09-20T14:37:52.600+00:00</time>
      </trkpt>
      <trkpt lat="48.38265" lon="2.69825">
        <ele>105</ele>
        <time>2023-09-20T14:37:57.573+00:00</time>
      </trkpt>
      <trkpt lat="48.38271" lon="2.69822">
        <ele>105</ele>
        <time>2023-09-20T14:38:02.587+00:00</time>
      </trkpt>
      <trkpt lat="48.38276" lon="2.69819">
        <ele>104</ele>
        <time>2023-09-20T14:38:07.566+00:00</time>
      </trkpt>
      <trkpt lat="48.3828" lon="2.69813">
        <ele>104</ele>
        <time>2023-09-20T14:38:12.582+00:00</time>
      </trkpt>
      <trkpt lat="48.38287" lon="2.69809">
        <ele>104</ele>
        <time>2023-09-20T14:38:17.572+00:00</time>
      </trkpt>
      <trkpt lat="48.38293" lon="2.69806">
        <ele>101</ele>
        <time>2023-09-20T14:38:22.582+00:00</time>
      </trkpt>
      <trkpt lat="48.38299" lon="2.69804">
        <ele>101</ele>
        <time>2023-09-20T14:38:27.567+00:00</time>
      </trkpt>
      <trkpt lat="48.38305" lon="2.69798">
        <ele>101</ele>
        <time>2023-09-20T14:38:32.589+00:00</time>
      </trkpt>
      <trkpt lat="48.3831" lon="2.69794">
        <ele>101</ele>
        <time>2023-09-20T14:38:36.600+00:00</time>
      </trkpt>
      <trkpt lat="48.38316" lon="2.6979">
        <ele>100</ele>
        <time>2023-09-20T14:38:41.578+00:00</time>
      </trkpt>
      <trkpt lat="48.38323" lon="2.69787">
        <ele>98</ele>
        <time>2023-09-20T14:38:46.590+00:00</time>
      </trkpt>
      <trkpt lat="48.38328" lon="2.69786">
        <ele>98</ele>
        <time>2023-09-20T14:38:51.575+00:00</time>
      </trkpt>
      <trkpt lat="48.38334" lon="2.69787">
        <ele>98</ele>
        <time>2023-09-20T14:38:56.597+00:00</time>
      </trkpt>
      <trkpt lat="48.3834" lon="2.69786">
        <ele>98</ele>
        <time>2023-09-20T14:39:01.565+00:00</time>
      </trkpt>
      <trkpt lat="48.38344" lon="2.69781">
        <ele>98</ele>
        <time>2023-09-20T14:39:05.570+00:00</time>
      </trkpt>
      <trkpt lat="48.3835" lon="2.69774">
        <ele>97</ele>
        <time>2023-09-20T14:39:10.562+00:00</time>
      </trkpt>
      <trkpt lat="48.38357" lon="2.69772">
        <ele>97</ele>
        <time>2023-09-20T14:39:15.568+00:00</time>
      </trkpt>
      <trkpt lat="48.38362" lon="2.69768">
        <ele>97</ele>
        <time>2023-09-20T14:39:20.550+00:00</time>
      </trkpt>
      <trkpt lat="48.38367" lon="2.69764">
        <ele>97</ele>
        <time>2023-09-20T14:39:24.564+00:00</time>
      </trkpt>
      <trkpt lat="48.38372" lon="2.6976">
        <ele>97</ele>
        <time>2023-09-20T14:39:29.574+00:00</time>
      </trkpt>
      <trkpt lat="48.38378" lon="2.69763">
        <ele>101</ele>
        <time>2023-09-20T14:39:34.561+00:00</time>
      </trkpt>
      <trkpt lat="48.38385" lon="2.69763">
        <ele>101</ele>
        <time>2023-09-20T14:39:39.546+00:00</time>
      </trkpt>
      <trkpt lat="48.38389" lon="2.69766">
        <ele>101</ele>
        <time>2023-09-20T14:39:43.572+00:00</time>
      </trkpt>
      <trkpt lat="48.38394" lon="2.69763">
        <ele>101</ele>
        <time>2023-09-20T14:39:48.571+00:00</time>
      </trkpt>
      <trkpt lat="48.38401" lon="2.69762">
        <ele>101</ele>
        <time>2023-09-20T14:39:53.569+00:00</time>
      </trkpt>
      <trkpt lat="48.38406" lon="2.69767">
        <ele>107</ele>
        <time>2023-09-20T14:39:58.582+00:00</time>
      </trkpt>
      <trkpt lat="48.38411" lon="2.69772">
        <ele>107</ele>
        <time>2023-09-20T14:40:03.560+00:00</time>
      </trkpt>
      <trkpt lat="48.38412" lon="2.69778">
        <ele>107</ele>
        <time>2023-09-20T14:40:07.561+00:00</time>
      </trkpt>
      <trkpt lat="48.38416" lon="2.69782">
        <ele>107</ele>
        <time>2023-09-20T14:40:12.569+00:00</time>
      </trkpt>
      <trkpt lat="48.3842" lon="2.69784">
        <ele>107</ele>
        <time>2023-09-20T14:40:17.567+00:00</time>
      </trkpt>
      <trkpt lat="48.38424" lon="2.69788">
        <ele>107</ele>
        <time>2023-09-20T14:40:21.568+00:00</time>
      </trkpt>
      <trkpt lat="48.38429" lon="2.69789">
        <ele>107</ele>
        <time>2023-09-20T14:40:26.562+00:00</time>
      </trkpt>
      <trkpt lat="48.38435" lon="2.69791">
        <ele>111</ele>
        <time>2023-09-20T14:40:31.573+00:00</time>
      </trkpt>
      <trkpt lat="48.38439" lon="2.69795">
        <ele>112</ele>
        <time>2023-09-20T14:40:36.565+00:00</time>
      </trkpt>
      <trkpt lat="48.38441" lon="2.698">
        <ele>112</ele>
        <time>2023-09-20T14:40:41.568+00:00</time>
      </trkpt>
      <trkpt lat="48.38441" lon="2.69803">
        <ele>112</ele>
        <time>2023-09-20T14:40:45.578+00:00</time>
      </trkpt>
      <trkpt lat="48.38441" lon="2.69807">
        <ele>112</ele>
        <time>2023-09-20T14:40:50.571+00:00</time>
      </trkpt>
      <trkpt lat="48.38444" lon="2.69813">
        <ele>112</ele>
        <time>2023-09-20T14:40:55.566+00:00</time>
      </trkpt>
      <trkpt lat="48.38447" lon="2.69816">
        <ele>112</ele>
        <time>2023-09-20T14:40:59.575+00:00</time>
      </trkpt>
      <trkpt lat="48.38451" lon="2.69819">
        <ele>114</ele>
        <time>2023-09-20T14:41:04.570+00:00</time>
      </trkpt>
      <trkpt lat="48.38453" lon="2.69822">
        <ele>114</ele>
        <time>2023-09-20T14:41:09.569+00:00</time>
      </trkpt>
      <trkpt lat="48.38455" lon="2.69826">
        <ele>114</ele>
        <time>2023-09-20T14:41:13.570+00:00</time>
      </trkpt>
      <trkpt lat="48.38458" lon="2.6983">
        <ele>114</ele>
        <time>2023-09-20T14:41:18.569+00:00</time>
      </trkpt>
      <trkpt lat="48.38462" lon="2.69835">
        <ele>117</ele>
        <time>2023-09-20T14:41:23.565+00:00</time>
      </trkpt>
      <trkpt lat="48.38466" lon="2.69836">
        <ele>117</ele>
        <time>2023-09-20T14:41:28.558+00:00</time>
      </trkpt>
      <trkpt lat="48.3847" lon="2.69836">
        <ele>117</ele>
        <time>2023-09-20T14:41:32.570+00:00</time>
      </trkpt>
      <trkpt lat="48.38472" lon="2.69835">
        <ele>117</ele>
        <time>2023-09-20T14:41:36.584+00:00</time>
      </trkpt>
      <trkpt lat="48.38475" lon="2.69833">
        <ele>117</ele>
        <time>2023-09-20T14:41:40.575+00:00</time>
      </trkpt>
      <trkpt lat="48.3848" lon="2.69835">
        <ele>117</ele>
        <time>2023-09-20T14:41:45.577+00:00</time>
      </trkpt>
      <trkpt lat="48.38486" lon="2.69831">
        <ele>117</ele>
        <time>2023-09-20T14:41:50.577+00:00</time>
      </trkpt>
      <trkpt lat="48.3849" lon="2.69825">
        <ele>116</ele>
        <time>2023-09-20T14:41:55.561+00:00</time>
      </trkpt>
      <trkpt lat="48.38494" lon="2.69818">
        <ele>115</ele>
        <time>2023-09-20T14:42:00.591+00:00</time>
      </trkpt>
      <trkpt lat="48.38497" lon="2.69811">
        <ele>115</ele>
        <time>2023-09-20T14:42:05.578+00:00</time>
      </trkpt>
      <trkpt lat="48.385" lon="2.69809">
        <ele>115</ele>
        <time>2023-09-20T14:42:10.573+00:00</time>
      </trkpt>
      <trkpt lat="48.38501" lon="2.69811">
        <ele>115</ele>
        <time>2023-09-20T14:42:14.569+00:00</time>
      </trkpt>
      <trkpt lat="48.38504" lon="2.69817">
        <ele>115</ele>
        <time>2023-09-20T14:42:19.567+00:00</time>
      </trkpt>
      <trkpt lat="48.38505" lon="2.69824">
        <ele>116</ele>
        <time>2023-09-20T14:42:23.569+00:00</time>
      </trkpt>
      <trkpt lat="48.38506" lon="2.69828">
        <ele>116</ele>
        <time>2023-09-20T14:42:27.570+00:00</time>
      </trkpt>
      <trkpt lat="48.3851" lon="2.69832">
        <ele>116</ele>
        <time>2023-09-20T14:42:32.564+00:00</time>
      </trkpt>
      <trkpt lat="48.38514" lon="2.69831">
        <ele>116</ele>
        <time>2023-09-20T14:42:36.567+00:00</time>
      </trkpt>
      <trkpt lat="48.38517" lon="2.69833">
        <ele>110</ele>
        <time>2023-09-20T14:42:41.570+00:00</time>
      </trkpt>
      <trkpt lat="48.38522" lon="2.69838">
        <ele>110</ele>
        <time>2023-09-20T14:42:46.568+00:00</time>
      </trkpt>
      <trkpt lat="48.38525" lon="2.6984">
        <ele>110</ele>
        <time>2023-09-20T14:42:50.576+00:00</time>
      </trkpt>
      <trkpt lat="48.38527" lon="2.69842">
        <ele>110</ele>
        <time>2023-09-20T14:42:55.571+00:00</time>
      </trkpt>
      <trkpt lat="48.38532" lon="2.6984">
        <ele>110</ele>
        <time>2023-09-20T14:43:00.571+00:00</time>
      </trkpt>
      <trkpt lat="48.38535" lon="2.69839">
        <ele>110</ele>
        <time>2023-09-20T14:43:04.571+00:00</time>
      </trkpt>
      <trkpt lat="48.38538" lon="2.69837">
        <ele>110</ele>
        <time>2023-09-20T14:43:09.564+00:00</time>
      </trkpt>
      <trkpt lat="48.38541" lon="2.69838">
        <ele>110</ele>
        <time>2023-09-20T14:43:14.563+00:00</time>
      </trkpt>
      <trkpt lat="48.38543" lon="2.69839">
        <ele>100</ele>
        <time>2023-09-20T14:43:19.559+00:00</time>
      </trkpt>
      <trkpt lat="48.38544" lon="2.69839">
        <ele>100</ele>
        <time>2023-09-20T14:43:23.575+00:00</time>
      </trkpt>
      <trkpt lat="48.38545" lon="2.6984">
        <ele>100</ele>
        <time>2023-09-20T14:43:27.581+00:00</time>
      </trkpt>
      <trkpt lat="48.3855" lon="2.69842">
        <ele>100</ele>
        <time>2023-09-20T14:43:32.569+00:00</time>
      </trkpt>
      <trkpt lat="48.38555" lon="2.69842">
        <ele>100</ele>
        <time>2023-09-20T14:43:37.560+00:00</time>
      </trkpt>
      <trkpt lat="48.38559" lon="2.69844">
        <ele>100</ele>
        <time>2023-09-20T14:43:41.571+00:00</time>
      </trkpt>
      <trkpt lat="48.38565" lon="2.69847">
        <ele>101</ele>
        <time>2023-09-20T14:43:46.573+00:00</time>
      </trkpt>
      <trkpt lat="48.38571" lon="2.69848">
        <ele>95</ele>
        <time>2023-09-20T14:43:51.569+00:00</time>
      </trkpt>
      <trkpt lat="48.38576" lon="2.69849">
        <ele>95</ele>
        <time>2023-09-20T14:43:56.584+00:00</time>
      </trkpt>
      <trkpt lat="48.3858" lon="2.69852">
        <ele>95</ele>
        <time>2023-09-20T14:44:01.569+00:00</time>
      </trkpt>
      <trkpt lat="48.38585" lon="2.69853">
        <ele>95</ele>
        <time>2023-09-20T14:44:06.561+00:00</time>
      </trkpt>
      <trkpt lat="48.38589" lon="2.69853">
        <ele>95</ele>
        <time>2023-09-20T14:44:10.562+00:00</time>
      </trkpt>
      <trkpt lat="48.38594" lon="2.69853">
        <ele>95</ele>
        <time>2023-09-20T14:44:15.572+00:00</time>
      </trkpt>
      <trkpt lat="48.38598" lon="2.69853">
        <ele>90</ele>
        <time>2023-09-20T14:44:20.584+00:00</time>
      </trkpt>
      <trkpt lat="48.38606" lon="2.69855">
        <ele>90</ele>
        <time>2023-09-20T14:44:25.570+00:00</time>
      </trkpt>
      <trkpt lat="48.38613" lon="2.69858">
        <ele>90</ele>
        <time>2023-09-20T14:44:29.577+00:00</time>
      </trkpt>
      <trkpt lat="48.38623" lon="2.69862">
        <ele>90</ele>
        <time>2023-09-20T14:44:34.564+00:00</time>
      </trkpt>
      <trkpt lat="48.38627" lon="2.69863">
        <ele>90</ele>
        <time>2023-09-20T14:44:38.593+00:00</time>
      </trkpt>
      <trkpt lat="48.38635" lon="2.69864">
        <ele>90</ele>
        <time>2023-09-20T14:44:43.570+00:00</time>
      </trkpt>
      <trkpt lat="48.38641" lon="2.69865">
        <ele>90</ele>
        <time>2023-09-20T14:44:48.581+00:00</time>
      </trkpt>
      <trkpt lat="48.38645" lon="2.69866">
        <ele>90</ele>
        <time>2023-09-20T14:44:53.561+00:00</time>
      </trkpt>
      <trkpt lat="48.38644" lon="2.69867">
        <ele>90</ele>
        <time>2023-09-20T14:45:39.542+00:00</time>
      </trkpt>
      <trkpt lat="48.38644" lon="2.69867">
        <ele>90</ele>
        <time>2023-09-20T14:45:43.571+00:00</time>
      </trkpt>
      <trkpt lat="48.38645" lon="2.69871">
        <ele>90</ele>
        <time>2023-09-20T14:45:48.559+00:00</time>
      </trkpt>
      <trkpt lat="48.38648" lon="2.69875">
        <ele>90</ele>
        <time>2023-09-20T14:45:52.573+00:00</time>
      </trkpt>
      <trkpt lat="48.3865" lon="2.69877">
        <ele>92</ele>
        <time>2023-09-20T14:45:56.565+00:00</time>
      </trkpt>
      <trkpt lat="48.38653" lon="2.69884">
        <ele>93</ele>
        <time>2023-09-20T14:46:01.569+00:00</time>
      </trkpt>
      <trkpt lat="48.38656" lon="2.69891">
        <ele>93</ele>
        <time>2023-09-20T14:46:06.570+00:00</time>
      </trkpt>
      <trkpt lat="48.38657" lon="2.69898">
        <ele>93</ele>
        <time>2023-09-20T14:46:10.585+00:00</time>
      </trkpt>
      <trkpt lat="48.38657" lon="2.69906">
        <ele>94</ele>
        <time>2023-09-20T14:46:15.571+00:00</time>
      </trkpt>
      <trkpt lat="48.3866" lon="2.69911">
        <ele>94</ele>
        <time>2023-09-20T14:46:19.571+00:00</time>
      </trkpt>
      <trkpt lat="48.38664" lon="2.69918">
        <ele>94</ele>
        <time>2023-09-20T14:46:24.563+00:00</time>
      </trkpt>
      <trkpt lat="48.38669" lon="2.69923">
        <ele>94</ele>
        <time>2023-09-20T14:46:29.556+00:00</time>
      </trkpt>
      <trkpt lat="48.38674" lon="2.69926">
        <ele>94</ele>
        <time>2023-09-20T14:46:33.560+00:00</time>
      </trkpt>
      <trkpt lat="48.3868" lon="2.69929">
        <ele>94</ele>
        <time>2023-09-20T14:46:38.554+00:00</time>
      </trkpt>
      <trkpt lat="48.38684" lon="2.69932">
        <ele>94</ele>
        <time>2023-09-20T14:46:42.574+00:00</time>
      </trkpt>
      <trkpt lat="48.3869" lon="2.69936">
        <ele>94</ele>
        <time>2023-09-20T14:46:47.552+00:00</time>
      </trkpt>
      <trkpt lat="48.38696" lon="2.6994">
        <ele>94</ele>
        <time>2023-09-20T14:46:52.561+00:00</time>
      </trkpt>
      <trkpt lat="48.387" lon="2.69944">
        <ele>94</ele>
        <time>2023-09-20T14:46:56.561+00:00</time>
      </trkpt>
      <trkpt lat="48.387" lon="2.69949">
        <ele>94</ele>
        <time>2023-09-20T14:47:01.558+00:00</time>
      </trkpt>
      <trkpt lat="48.38704" lon="2.69953">
        <ele>94</ele>
        <time>2023-09-20T14:47:06.568+00:00</time>
      </trkpt>
      <trkpt lat="48.38711" lon="2.69957">
        <ele>93</ele>
        <time>2023-09-20T14:47:11.550+00:00</time>
      </trkpt>
      <trkpt lat="48.38713" lon="2.69958">
        <ele>93</ele>
        <time>2023-09-20T14:47:15.559+00:00</time>
      </trkpt>
      <trkpt lat="48.38716" lon="2.6996">
        <ele>95</ele>
        <time>2023-09-20T14:47:19.570+00:00</time>
      </trkpt>
      <trkpt lat="48.38722" lon="2.69962">
        <ele>95</ele>
        <time>2023-09-20T14:47:23.581+00:00</time>
      </trkpt>
      <trkpt lat="48.38731" lon="2.69965">
        <ele>95</ele>
        <time>2023-09-20T14:47:28.555+00:00</time>
      </trkpt>
      <trkpt lat="48.38738" lon="2.69968">
        <ele>95</ele>
        <time>2023-09-20T14:47:32.584+00:00</time>
      </trkpt>
      <trkpt lat="48.38745" lon="2.69968">
        <ele>95</ele>
        <time>2023-09-20T14:47:37.569+00:00</time>
      </trkpt>
      <trkpt lat="48.3875" lon="2.69967">
        <ele>95</ele>
        <time>2023-09-20T14:47:41.577+00:00</time>
      </trkpt>
      <trkpt lat="48.38757" lon="2.69971">
        <ele>95</ele>
        <time>2023-09-20T14:47:46.585+00:00</time>
      </trkpt>
      <trkpt lat="48.38765" lon="2.69977">
        <ele>95</ele>
        <time>2023-09-20T14:47:51.576+00:00</time>
      </trkpt>
      <trkpt lat="48.3877" lon="2.69978">
        <ele>95</ele>
        <time>2023-09-20T14:47:55.593+00:00</time>
      </trkpt>
      <trkpt lat="48.38776" lon="2.69976">
        <ele>95</ele>
        <time>2023-09-20T14:48:00.560+00:00</time>
      </trkpt>
      <trkpt lat="48.38782" lon="2.69975">
        <ele>95</ele>
        <time>2023-09-20T14:48:04.581+00:00</time>
      </trkpt>
      <trkpt lat="48.38789" lon="2.69977">
        <ele>95</ele>
        <time>2023-09-20T14:48:09.584+00:00</time>
      </trkpt>
      <trkpt lat="48.38796" lon="2.69978">
        <ele>95</ele>
        <time>2023-09-20T14:48:14.577+00:00</time>
      </trkpt>
      <trkpt lat="48.388" lon="2.69979">
        <ele>95</ele>
        <time>2023-09-20T14:48:18.570+00:00</time>
      </trkpt>
      <trkpt lat="48.38805" lon="2.69981">
        <ele>95</ele>
        <time>2023-09-20T14:48:22.564+00:00</time>
      </trkpt>
      <trkpt lat="48.38809" lon="2.69982">
        <ele>95</ele>
        <time>2023-09-20T14:48:26.580+00:00</time>
      </trkpt>
      <trkpt lat="48.38813" lon="2.69983">
        <ele>95</ele>
        <time>2023-09-20T14:48:30.572+00:00</time>
      </trkpt>
      <trkpt lat="48.38819" lon="2.6999">
        <ele>98</ele>
        <time>2023-09-20T14:48:35.564+00:00</time>
      </trkpt>
      <trkpt lat="48.38826" lon="2.69999">
        <ele>97</ele>
        <time>2023-09-20T14:48:40.566+00:00</time>
      </trkpt>
      <trkpt lat="48.38831" lon="2.70003">
        <ele>97</ele>
        <time>2023-09-20T14:48:44.569+00:00</time>
      </trkpt>
      <trkpt lat="48.38838" lon="2.70003">
        <ele>97</ele>
        <time>2023-09-20T14:48:49.559+00:00</time>
      </trkpt>
      <trkpt lat="48.38843" lon="2.70003">
        <ele>97</ele>
        <time>2023-09-20T14:48:54.563+00:00</time>
      </trkpt>
      <trkpt lat="48.3885" lon="2.70002">
        <ele>95</ele>
        <time>2023-09-20T14:48:59.571+00:00</time>
      </trkpt>
      <trkpt lat="48.38855" lon="2.69998">
        <ele>95</ele>
        <time>2023-09-20T14:49:04.565+00:00</time>
      </trkpt>
      <trkpt lat="48.3886" lon="2.69998">
        <ele>95</ele>
        <time>2023-09-20T14:49:08.575+00:00</time>
      </trkpt>
      <trkpt lat="48.38866" lon="2.7">
        <ele>95</ele>
        <time>2023-09-20T14:49:13.540+00:00</time>
      </trkpt>
      <trkpt lat="48.38872" lon="2.70003">
        <ele>95</ele>
        <time>2023-09-20T14:49:17.558+00:00</time>
      </trkpt>
      <trkpt lat="48.38877" lon="2.70005">
        <ele>93</ele>
        <time>2023-09-20T14:49:22.577+00:00</time>
      </trkpt>
      <trkpt lat="48.3888" lon="2.70006">
        <ele>93</ele>
        <time>2023-09-20T14:49:26.559+00:00</time>
      </trkpt>
      <trkpt lat="48.38884" lon="2.70011">
        <ele>93</ele>
        <time>2023-09-20T14:49:31.550+00:00</time>
      </trkpt>
      <trkpt lat="48.38891" lon="2.70018">
        <ele>95</ele>
        <time>2023-09-20T14:49:35.554+00:00</time>
      </trkpt>
      <trkpt lat="48.38902" lon="2.70026">
        <ele>95</ele>
        <time>2023-09-20T14:49:40.558+00:00</time>
      </trkpt>
      <trkpt lat="48.38914" lon="2.70031">
        <ele>93</ele>
        <time>2023-09-20T14:49:45.562+00:00</time>
      </trkpt>
      <trkpt lat="48.38921" lon="2.70033">
        <ele>93</ele>
        <time>2023-09-20T14:49:49.572+00:00</time>
      </trkpt>
      <trkpt lat="48.38928" lon="2.70036">
        <ele>93</ele>
        <time>2023-09-20T14:49:54.577+00:00</time>
      </trkpt>
      <trkpt lat="48.38935" lon="2.70041">
        <ele>90</ele>
        <time>2023-09-20T14:49:59.573+00:00</time>
      </trkpt>
      <trkpt lat="48.38942" lon="2.70044">
        <ele>91</ele>
        <time>2023-09-20T14:50:04.562+00:00</time>
      </trkpt>
      <trkpt lat="48.38948" lon="2.70048">
        <ele>91</ele>
        <time>2023-09-20T14:50:09.590+00:00</time>
      </trkpt>
      <trkpt lat="48.38955" lon="2.70051">
        <ele>91</ele>
        <time>2023-09-20T14:50:14.564+00:00</time>
      </trkpt>
      <trkpt lat="48.38961" lon="2.70046">
        <ele>89</ele>
        <time>2023-09-20T14:50:19.573+00:00</time>
      </trkpt>
      <trkpt lat="48.38961" lon="2.70037">
        <ele>88</ele>
        <time>2023-09-20T14:50:24.561+00:00</time>
      </trkpt>
      <trkpt lat="48.38962" lon="2.70028">
        <ele>88</ele>
        <time>2023-09-20T14:50:28.594+00:00</time>
      </trkpt>
      <trkpt lat="48.38963" lon="2.70019">
        <ele>88</ele>
        <time>2023-09-20T14:50:33.582+00:00</time>
      </trkpt>
      <trkpt lat="48.38963" lon="2.70009">
        <ele>86</ele>
        <time>2023-09-20T14:50:38.593+00:00</time>
      </trkpt>
      <trkpt lat="48.38962" lon="2.69999">
        <ele>86</ele>
        <time>2023-09-20T14:50:43.577+00:00</time>
      </trkpt>
      <trkpt lat="48.38962" lon="2.69991">
        <ele>86</ele>
        <time>2023-09-20T14:50:47.591+00:00</time>
      </trkpt>
      <trkpt lat="48.3896" lon="2.69982">
        <ele>84</ele>
        <time>2023-09-20T14:50:52.577+00:00</time>
      </trkpt>
      <trkpt lat="48.38958" lon="2.69975">
        <ele>86</ele>
        <time>2023-09-20T14:50:57.580+00:00</time>
      </trkpt>
      <trkpt lat="48.38957" lon="2.69966">
        <ele>86</ele>
        <time>2023-09-20T14:51:02.566+00:00</time>
      </trkpt>
      <trkpt lat="48.38957" lon="2.69957">
        <ele>84</ele>
        <time>2023-09-20T14:51:06.563+00:00</time>
      </trkpt>
      <trkpt lat="48.38957" lon="2.69947">
        <ele>84</ele>
        <time>2023-09-20T14:51:10.565+00:00</time>
      </trkpt>
      <trkpt lat="48.38959" lon="2.69939">
        <ele>83</ele>
        <time>2023-09-20T14:51:15.573+00:00</time>
      </trkpt>
      <trkpt lat="48.3896" lon="2.69932">
        <ele>83</ele>
        <time>2023-09-20T14:51:19.586+00:00</time>
      </trkpt>
      <trkpt lat="48.3896" lon="2.69921">
        <ele>82</ele>
        <time>2023-09-20T14:51:24.567+00:00</time>
      </trkpt>
      <trkpt lat="48.3896" lon="2.69912">
        <ele>82</ele>
        <time>2023-09-20T14:51:29.546+00:00</time>
      </trkpt>
      <trkpt lat="48.38962" lon="2.69905">
        <ele>82</ele>
        <time>2023-09-20T14:51:34.547+00:00</time>
      </trkpt>
      <trkpt lat="48.3896" lon="2.69904">
        <ele>82</ele>
        <time>2023-09-20T14:51:38.550+00:00</time>
      </trkpt>
      <trkpt lat="48.3896" lon="2.69894">
        <ele>82</ele>
        <time>2023-09-20T14:51:42.551+00:00</time>
      </trkpt>
      <trkpt lat="48.3896" lon="2.69883">
        <ele>82</ele>
        <time>2023-09-20T14:51:47.575+00:00</time>
      </trkpt>
      <trkpt lat="48.3896" lon="2.69872">
        <ele>82</ele>
        <time>2023-09-20T14:51:52.539+00:00</time>
      </trkpt>
      <trkpt lat="48.3896" lon="2.69865">
        <ele>82</ele>
        <time>2023-09-20T14:51:56.571+00:00</time>
      </trkpt>
      <trkpt lat="48.38963" lon="2.69854">
        <ele>82</ele>
        <time>2023-09-20T14:52:01.566+00:00</time>
      </trkpt>
      <trkpt lat="48.38967" lon="2.69842">
        <ele>83</ele>
        <time>2023-09-20T14:52:05.554+00:00</time>
      </trkpt>
      <trkpt lat="48.38966" lon="2.69831">
        <ele>83</ele>
        <time>2023-09-20T14:52:10.549+00:00</time>
      </trkpt>
      <trkpt lat="48.38965" lon="2.69823">
        <ele>83</ele>
        <time>2023-09-20T14:52:14.573+00:00</time>
      </trkpt>
      <trkpt lat="48.38965" lon="2.69815">
        <ele>83</ele>
        <time>2023-09-20T14:52:18.582+00:00</time>
      </trkpt>
      <trkpt lat="48.38967" lon="2.69804">
        <ele>83</ele>
        <time>2023-09-20T14:52:23.558+00:00</time>
      </trkpt>
      <trkpt lat="48.38967" lon="2.69795">
        <ele>83</ele>
        <time>2023-09-20T14:52:28.558+00:00</time>
      </trkpt>
      <trkpt lat="48.38966" lon="2.69787">
        <ele>84</ele>
        <time>2023-09-20T14:52:32.563+00:00</time>
      </trkpt>
      <trkpt lat="48.38968" lon="2.69776">
        <ele>84</ele>
        <time>2023-09-20T14:52:37.545+00:00</time>
      </trkpt>
      <trkpt lat="48.3897" lon="2.69764">
        <ele>84</ele>
        <time>2023-09-20T14:52:42.547+00:00</time>
      </trkpt>
      <trkpt lat="48.38971" lon="2.69757">
        <ele>84</ele>
        <time>2023-09-20T14:52:46.568+00:00</time>
      </trkpt>
      <trkpt lat="48.38971" lon="2.69755">
        <ele>84</ele>
        <time>2023-09-20T14:52:50.575+00:00</time>
      </trkpt>
      <trkpt lat="48.38968" lon="2.69749">
        <ele>84</ele>
        <time>2023-09-20T14:52:55.586+00:00</time>
      </trkpt>
      <trkpt lat="48.38967" lon="2.69738">
        <ele>84</ele>
        <time>2023-09-20T14:53:00.568+00:00</time>
      </trkpt>
      <trkpt lat="48.38967" lon="2.69729">
        <ele>84</ele>
        <time>2023-09-20T14:53:04.581+00:00</time>
      </trkpt>
      <trkpt lat="48.38968" lon="2.69719">
        <ele>84</ele>
        <time>2023-09-20T14:53:08.581+00:00</time>
      </trkpt>
      <trkpt lat="48.38967" lon="2.69708">
        <ele>84</ele>
        <time>2023-09-20T14:53:13.582+00:00</time>
      </trkpt>
      <trkpt lat="48.38967" lon="2.69698">
        <ele>84</ele>
        <time>2023-09-20T14:53:18.572+00:00</time>
      </trkpt>
      <trkpt lat="48.38968" lon="2.69689">
        <ele>84</ele>
        <time>2023-09-20T14:53:22.585+00:00</time>
      </trkpt>
      <trkpt lat="48.3897" lon="2.69682">
        <ele>84</ele>
        <time>2023-09-20T14:53:26.582+00:00</time>
      </trkpt>
      <trkpt lat="48.38973" lon="2.69677">
        <ele>84</ele>
        <time>2023-09-20T14:53:31.572+00:00</time>
      </trkpt>
      <trkpt lat="48.38975" lon="2.69672">
        <ele>84</ele>
        <time>2023-09-20T14:53:35.594+00:00</time>
      </trkpt>
      <trkpt lat="48.38981" lon="2.69667">
        <ele>84</ele>
        <time>2023-09-20T14:53:40.584+00:00</time>
      </trkpt>
      <trkpt lat="48.38987" lon="2.69663">
        <ele>81</ele>
        <time>2023-09-20T14:53:45.567+00:00</time>
      </trkpt>
      <trkpt lat="48.38993" lon="2.69659">
        <ele>81</ele>
        <time>2023-09-20T14:53:50.580+00:00</time>
      </trkpt>
      <trkpt lat="48.38998" lon="2.69654">
        <ele>81</ele>
        <time>2023-09-20T14:53:54.584+00:00</time>
      </trkpt>
      <trkpt lat="48.39004" lon="2.6965">
        <ele>82</ele>
        <time>2023-09-20T14:53:59.562+00:00</time>
      </trkpt>
      <trkpt lat="48.39009" lon="2.69646">
        <ele>82</ele>
        <time>2023-09-20T14:54:03.591+00:00</time>
      </trkpt>
      <trkpt lat="48.39015" lon="2.69642">
        <ele>82</ele>
        <time>2023-09-20T14:54:08.572+00:00</time>
      </trkpt>
      <trkpt lat="48.3902" lon="2.6964">
        <ele>82</ele>
        <time>2023-09-20T14:54:12.575+00:00</time>
      </trkpt>
      <trkpt lat="48.39025" lon="2.69636">
        <ele>82</ele>
        <time>2023-09-20T14:54:16.584+00:00</time>
      </trkpt>
      <trkpt lat="48.3903" lon="2.69632">
        <ele>82</ele>
        <time>2023-09-20T14:54:21.575+00:00</time>
      </trkpt>
      <trkpt lat="48.39034" lon="2.6963">
        <ele>82</ele>
        <time>2023-09-20T14:54:26.574+00:00</time>
      </trkpt>
      <trkpt lat="48.39037" lon="2.69629">
        <ele>82</ele>
        <time>2023-09-20T14:54:30.579+00:00</time>
      </trkpt>
      <trkpt lat="48.39043" lon="2.69628">
        <ele>83</ele>
        <time>2023-09-20T14:54:35.568+00:00</time>
      </trkpt>
      <trkpt lat="48.39047" lon="2.69626">
        <ele>83</ele>
        <time>2023-09-20T14:54:39.586+00:00</time>
      </trkpt>
      <trkpt lat="48.39054" lon="2.69623">
        <ele>82</ele>
        <time>2023-09-20T14:54:44.586+00:00</time>
      </trkpt>
      <trkpt lat="48.3906" lon="2.69618">
        <ele>82</ele>
        <time>2023-09-20T14:54:49.580+00:00</time>
      </trkpt>
      <trkpt lat="48.39065" lon="2.69612">
        <ele>82</ele>
        <time>2023-09-20T14:54:53.587+00:00</time>
      </trkpt>
      <trkpt lat="48.3907" lon="2.69608">
        <ele>82</ele>
        <time>2023-09-20T14:54:58.576+00:00</time>
      </trkpt>
      <trkpt lat="48.39075" lon="2.69607">
        <ele>82</ele>
        <time>2023-09-20T14:55:02.581+00:00</time>
      </trkpt>
      <trkpt lat="48.39079" lon="2.69605">
        <ele>82</ele>
        <time>2023-09-20T14:55:06.589+00:00</time>
      </trkpt>
      <trkpt lat="48.39083" lon="2.69602">
        <ele>82</ele>
        <time>2023-09-20T14:55:11.547+00:00</time>
      </trkpt>
      <trkpt lat="48.39085" lon="2.69599">
        <ele>82</ele>
        <time>2023-09-20T14:55:15.598+00:00</time>
      </trkpt>
      <trkpt lat="48.39092" lon="2.69594">
        <ele>82</ele>
        <time>2023-09-20T14:55:20.585+00:00</time>
      </trkpt>
      <trkpt lat="48.39097" lon="2.6959">
        <ele>81</ele>
        <time>2023-09-20T14:55:25.576+00:00</time>
      </trkpt>
      <trkpt lat="48.39102" lon="2.69589">
        <ele>81</ele>
        <time>2023-09-20T14:55:29.586+00:00</time>
      </trkpt>
      <trkpt lat="48.39106" lon="2.69586">
        <ele>81</ele>
        <time>2023-09-20T14:55:33.596+00:00</time>
      </trkpt>
      <trkpt lat="48.39112" lon="2.69584">
        <ele>81</ele>
        <time>2023-09-20T14:55:38.588+00:00</time>
      </trkpt>
      <trkpt lat="48.39119" lon="2.69581">
        <ele>81</ele>
        <time>2023-09-20T14:55:43.572+00:00</time>
      </trkpt>
      <trkpt lat="48.39127" lon="2.69577">
        <ele>80</ele>
        <time>2023-09-20T14:55:48.575+00:00</time>
      </trkpt>
      <trkpt lat="48.39135" lon="2.69575">
        <ele>80</ele>
        <time>2023-09-20T14:55:52.590+00:00</time>
      </trkpt>
      <trkpt lat="48.39142" lon="2.69572">
        <ele>80</ele>
        <time>2023-09-20T14:55:57.584+00:00</time>
      </trkpt>
      <trkpt lat="48.39148" lon="2.69567">
        <ele>80</ele>
        <time>2023-09-20T14:56:02.565+00:00</time>
      </trkpt>
      <trkpt lat="48.39154" lon="2.69562">
        <ele>81</ele>
        <time>2023-09-20T14:56:06.576+00:00</time>
      </trkpt>
      <trkpt lat="48.39157" lon="2.69557">
        <ele>81</ele>
        <time>2023-09-20T14:56:10.570+00:00</time>
      </trkpt>
      <trkpt lat="48.39164" lon="2.69553">
        <ele>81</ele>
        <time>2023-09-20T14:56:15.568+00:00</time>
      </trkpt>
      <trkpt lat="48.39169" lon="2.69551">
        <ele>81</ele>
        <time>2023-09-20T14:56:19.572+00:00</time>
      </trkpt>
      <trkpt lat="48.39174" lon="2.69547">
        <ele>81</ele>
        <time>2023-09-20T14:56:23.580+00:00</time>
      </trkpt>
      <trkpt lat="48.39181" lon="2.69545">
        <ele>83</ele>
        <time>2023-09-20T14:56:28.573+00:00</time>
      </trkpt>
      <trkpt lat="48.39187" lon="2.69542">
        <ele>83</ele>
        <time>2023-09-20T14:56:33.563+00:00</time>
      </trkpt>
      <trkpt lat="48.39193" lon="2.69538">
        <ele>83</ele>
        <time>2023-09-20T14:56:37.584+00:00</time>
      </trkpt>
      <trkpt lat="48.39196" lon="2.69535">
        <ele>83</ele>
        <time>2023-09-20T14:56:41.599+00:00</time>
      </trkpt>
      <trkpt lat="48.39201" lon="2.69533">
        <ele>83</ele>
        <time>2023-09-20T14:56:46.553+00:00</time>
      </trkpt>
      <trkpt lat="48.39205" lon="2.69528">
        <ele>83</ele>
        <time>2023-09-20T14:56:50.566+00:00</time>
      </trkpt>
      <trkpt lat="48.39213" lon="2.69522">
        <ele>84</ele>
        <time>2023-09-20T14:56:55.569+00:00</time>
      </trkpt>
      <trkpt lat="48.39218" lon="2.69518">
        <ele>84</ele>
        <time>2023-09-20T14:57:00.591+00:00</time>
      </trkpt>
      <trkpt lat="48.39223" lon="2.69515">
        <ele>84</ele>
        <time>2023-09-20T14:57:05.564+00:00</time>
      </trkpt>
      <trkpt lat="48.39228" lon="2.69511">
        <ele>84</ele>
        <time>2023-09-20T14:57:09.573+00:00</time>
      </trkpt>
      <trkpt lat="48.39233" lon="2.69509">
        <ele>84</ele>
        <time>2023-09-20T14:57:13.596+00:00</time>
      </trkpt>
      <trkpt lat="48.39238" lon="2.69505">
        <ele>83</ele>
        <time>2023-09-20T14:57:17.590+00:00</time>
      </trkpt>
      <trkpt lat="48.39244" lon="2.69503">
        <ele>83</ele>
        <time>2023-09-20T14:57:22.580+00:00</time>
      </trkpt>
      <trkpt lat="48.39249" lon="2.69503">
        <ele>83</ele>
        <time>2023-09-20T14:57:26.590+00:00</time>
      </trkpt>
      <trkpt lat="48.39257" lon="2.69502">
        <ele>83</ele>
        <time>2023-09-20T14:57:31.576+00:00</time>
      </trkpt>
      <trkpt lat="48.39262" lon="2.69497">
        <ele>83</ele>
        <time>2023-09-20T14:57:36.578+00:00</time>
      </trkpt>
      <trkpt lat="48.39268" lon="2.69492">
        <ele>83</ele>
        <time>2023-09-20T14:57:41.590+00:00</time>
      </trkpt>
      <trkpt lat="48.39274" lon="2.69488">
        <ele>83</ele>
        <time>2023-09-20T14:57:46.576+00:00</time>
      </trkpt>
      <trkpt lat="48.39281" lon="2.69486">
        <ele>83</ele>
        <time>2023-09-20T14:57:51.552+00:00</time>
      </trkpt>
      <trkpt lat="48.39287" lon="2.69483">
        <ele>83</ele>
        <time>2023-09-20T14:57:56.565+00:00</time>
      </trkpt>
      <trkpt lat="48.39291" lon="2.69481">
        <ele>83</ele>
        <time>2023-09-20T14:58:00.578+00:00</time>
      </trkpt>
      <trkpt lat="48.39296" lon="2.6948">
        <ele>84</ele>
        <time>2023-09-20T14:58:04.587+00:00</time>
      </trkpt>
      <trkpt lat="48.39303" lon="2.69477">
        <ele>84</ele>
        <time>2023-09-20T14:58:09.587+00:00</time>
      </trkpt>
      <trkpt lat="48.39308" lon="2.69473">
        <ele>84</ele>
        <time>2023-09-20T14:58:14.576+00:00</time>
      </trkpt>
      <trkpt lat="48.39312" lon="2.69469">
        <ele>84</ele>
        <time>2023-09-20T14:58:18.589+00:00</time>
      </trkpt>
      <trkpt lat="48.39318" lon="2.69465">
        <ele>84</ele>
        <time>2023-09-20T14:58:23.584+00:00</time>
      </trkpt>
      <trkpt lat="48.39322" lon="2.69461">
        <ele>84</ele>
        <time>2023-09-20T14:58:27.587+00:00</time>
      </trkpt>
      <trkpt lat="48.39327" lon="2.69456">
        <ele>84</ele>
        <time>2023-09-20T14:58:32.580+00:00</time>
      </trkpt>
      <trkpt lat="48.39333" lon="2.69453">
        <ele>84</ele>
        <time>2023-09-20T14:58:37.585+00:00</time>
      </trkpt>
      <trkpt lat="48.39337" lon="2.69449">
        <ele>84</ele>
        <time>2023-09-20T14:58:42.575+00:00</time>
      </trkpt>
      <trkpt lat="48.39342" lon="2.69446">
        <ele>84</ele>
        <time>2023-09-20T14:58:47.584+00:00</time>
      </trkpt>
      <trkpt lat="48.39348" lon="2.69444">
        <ele>84</ele>
        <time>2023-09-20T14:58:51.586+00:00</time>
      </trkpt>
      <trkpt lat="48.39353" lon="2.6944">
        <ele>84</ele>
        <time>2023-09-20T14:58:56.576+00:00</time>
      </trkpt>
      <trkpt lat="48.39358" lon="2.69435">
        <ele>84</ele>
        <time>2023-09-20T14:59:00.585+00:00</time>
      </trkpt>
      <trkpt lat="48.39361" lon="2.69431">
        <ele>84</ele>
        <time>2023-09-20T14:59:05.564+00:00</time>
      </trkpt>
      <trkpt lat="48.39367" lon="2.69429">
        <ele>83</ele>
        <time>2023-09-20T14:59:10.558+00:00</time>
      </trkpt>
      <trkpt lat="48.39372" lon="2.69427">
        <ele>83</ele>
        <time>2023-09-20T14:59:14.566+00:00</time>
      </trkpt>
      <trkpt lat="48.39376" lon="2.69423">
        <ele>84</ele>
        <time>2023-09-20T14:59:18.564+00:00</time>
      </trkpt>
      <trkpt lat="48.39379" lon="2.69419">
        <ele>84</ele>
        <time>2023-09-20T14:59:23.570+00:00</time>
      </trkpt>
      <trkpt lat="48.39384" lon="2.69415">
        <ele>84</ele>
        <time>2023-09-20T14:59:28.574+00:00</time>
      </trkpt>
      <trkpt lat="48.39389" lon="2.69413">
        <ele>84</ele>
        <time>2023-09-20T14:59:32.584+00:00</time>
      </trkpt>
      <trkpt lat="48.39394" lon="2.6941">
        <ele>84</ele>
        <time>2023-09-20T14:59:37.572+00:00</time>
      </trkpt>
      <trkpt lat="48.39399" lon="2.69405">
        <ele>84</ele>
        <time>2023-09-20T14:59:41.575+00:00</time>
      </trkpt>
      <trkpt lat="48.39404" lon="2.69402">
        <ele>86</ele>
        <time>2023-09-20T14:59:45.581+00:00</time>
      </trkpt>
      <trkpt lat="48.3941" lon="2.69399">
        <ele>86</ele>
        <time>2023-09-20T14:59:50.568+00:00</time>
      </trkpt>
      <trkpt lat="48.39414" lon="2.69396">
        <ele>86</ele>
        <time>2023-09-20T14:59:54.572+00:00</time>
      </trkpt>
      <trkpt lat="48.39418" lon="2.69394">
        <ele>86</ele>
        <time>2023-09-20T14:59:59.573+00:00</time>
      </trkpt>
      <trkpt lat="48.39422" lon="2.69391">
        <ele>86</ele>
        <time>2023-09-20T15:00:03.584+00:00</time>
      </trkpt>
      <trkpt lat="48.39427" lon="2.69388">
        <ele>86</ele>
        <time>2023-09-20T15:00:07.586+00:00</time>
      </trkpt>
      <trkpt lat="48.39434" lon="2.69385">
        <ele>86</ele>
        <time>2023-09-20T15:00:12.548+00:00</time>
      </trkpt>
      <trkpt lat="48.39438" lon="2.69383">
        <ele>86</ele>
        <time>2023-09-20T15:00:16.567+00:00</time>
      </trkpt>
      <trkpt lat="48.39442" lon="2.6938">
        <ele>86</ele>
        <time>2023-09-20T15:00:21.556+00:00</time>
      </trkpt>
      <trkpt lat="48.39447" lon="2.69377">
        <ele>86</ele>
        <time>2023-09-20T15:00:25.573+00:00</time>
      </trkpt>
      <trkpt lat="48.39453" lon="2.69374">
        <ele>87</ele>
        <time>2023-09-20T15:00:29.573+00:00</time>
      </trkpt>
      <trkpt lat="48.39461" lon="2.69371">
        <ele>87</ele>
        <time>2023-09-20T15:00:34.580+00:00</time>
      </trkpt>
      <trkpt lat="48.39466" lon="2.69368">
        <ele>87</ele>
        <time>2023-09-20T15:00:38.581+00:00</time>
      </trkpt>
      <trkpt lat="48.39471" lon="2.69365">
        <ele>87</ele>
        <time>2023-09-20T15:00:43.592+00:00</time>
      </trkpt>
      <trkpt lat="48.39475" lon="2.69363">
        <ele>87</ele>
        <time>2023-09-20T15:00:47.584+00:00</time>
      </trkpt>
      <trkpt lat="48.39482" lon="2.6936">
        <ele>87</ele>
        <time>2023-09-20T15:00:52.575+00:00</time>
      </trkpt>
      <trkpt lat="48.39489" lon="2.69355">
        <ele>86</ele>
        <time>2023-09-20T15:00:57.585+00:00</time>
      </trkpt>
      <trkpt lat="48.39494" lon="2.6935">
        <ele>86</ele>
        <time>2023-09-20T15:01:01.594+00:00</time>
      </trkpt>
      <trkpt lat="48.39502" lon="2.69349">
        <ele>86</ele>
        <time>2023-09-20T15:01:06.577+00:00</time>
      </trkpt>
      <trkpt lat="48.39508" lon="2.69345">
        <ele>86</ele>
        <time>2023-09-20T15:01:10.592+00:00</time>
      </trkpt>
      <trkpt lat="48.39514" lon="2.69342">
        <ele>82</ele>
        <time>2023-09-20T15:01:15.605+00:00</time>
      </trkpt>
      <trkpt lat="48.3952" lon="2.69336">
        <ele>82</ele>
        <time>2023-09-20T15:01:20.572+00:00</time>
      </trkpt>
      <trkpt lat="48.39527" lon="2.69332">
        <ele>82</ele>
        <time>2023-09-20T15:01:25.578+00:00</time>
      </trkpt>
      <trkpt lat="48.39534" lon="2.69329">
        <ele>82</ele>
        <time>2023-09-20T15:01:29.596+00:00</time>
      </trkpt>
      <trkpt lat="48.39543" lon="2.69324">
        <ele>80</ele>
        <time>2023-09-20T15:01:34.566+00:00</time>
      </trkpt>
      <trkpt lat="48.39549" lon="2.69322">
        <ele>80</ele>
        <time>2023-09-20T15:01:38.573+00:00</time>
      </trkpt>
      <trkpt lat="48.39553" lon="2.6932">
        <ele>80</ele>
        <time>2023-09-20T15:01:42.578+00:00</time>
      </trkpt>
      <trkpt lat="48.39557" lon="2.69317">
        <ele>80</ele>
        <time>2023-09-20T15:01:46.576+00:00</time>
      </trkpt>
      <trkpt lat="48.39563" lon="2.69313">
        <ele>80</ele>
        <time>2023-09-20T15:01:51.566+00:00</time>
      </trkpt>
      <trkpt lat="48.39568" lon="2.69309">
        <ele>80</ele>
        <time>2023-09-20T15:01:55.564+00:00</time>
      </trkpt>
      <trkpt lat="48.39573" lon="2.69303">
        <ele>82</ele>
        <time>2023-09-20T15:02:00.566+00:00</time>
      </trkpt>
      <trkpt lat="48.39579" lon="2.69298">
        <ele>82</ele>
        <time>2023-09-20T15:02:05.564+00:00</time>
      </trkpt>
      <trkpt lat="48.39585" lon="2.69295">
        <ele>82</ele>
        <time>2023-09-20T15:02:09.589+00:00</time>
      </trkpt>
      <trkpt lat="48.39592" lon="2.6929">
        <ele>81</ele>
        <time>2023-09-20T15:02:14.578+00:00</time>
      </trkpt>
      <trkpt lat="48.39597" lon="2.69287">
        <ele>81</ele>
        <time>2023-09-20T15:02:19.579+00:00</time>
      </trkpt>
      <trkpt lat="48.396" lon="2.69284">
        <ele>82</ele>
        <time>2023-09-20T15:02:23.583+00:00</time>
      </trkpt>
      <trkpt lat="48.39606" lon="2.69284">
        <ele>82</ele>
        <time>2023-09-20T15:02:28.564+00:00</time>
      </trkpt>
      <trkpt lat="48.39607" lon="2.69282">
        <ele>82</ele>
        <time>2023-09-20T15:02:32.581+00:00</time>
      </trkpt>
      <trkpt lat="48.39612" lon="2.69282">
        <ele>82</ele>
        <time>2023-09-20T15:02:37.587+00:00</time>
      </trkpt>
      <trkpt lat="48.39618" lon="2.69278">
        <ele>82</ele>
        <time>2023-09-20T15:02:42.577+00:00</time>
      </trkpt>
      <trkpt lat="48.39625" lon="2.69274">
        <ele>81</ele>
        <time>2023-09-20T15:02:47.584+00:00</time>
      </trkpt>
      <trkpt lat="48.39632" lon="2.69269">
        <ele>81</ele>
        <time>2023-09-20T15:02:52.579+00:00</time>
      </trkpt>
      <trkpt lat="48.39639" lon="2.69265">
        <ele>81</ele>
        <time>2023-09-20T15:02:56.578+00:00</time>
      </trkpt>
      <trkpt lat="48.39644" lon="2.6926">
        <ele>79</ele>
        <time>2023-09-20T15:03:01.587+00:00</time>
      </trkpt>
      <trkpt lat="48.39648" lon="2.69256">
        <ele>79</ele>
        <time>2023-09-20T15:03:06.576+00:00</time>
      </trkpt>
      <trkpt lat="48.39654" lon="2.69254">
        <ele>76</ele>
        <time>2023-09-20T15:03:11.585+00:00</time>
      </trkpt>
      <trkpt lat="48.39658" lon="2.69246">
        <ele>76</ele>
        <time>2023-09-20T15:03:16.574+00:00</time>
      </trkpt>
      <trkpt lat="48.3966" lon="2.69238">
        <ele>76</ele>
        <time>2023-09-20T15:03:21.583+00:00</time>
      </trkpt>
      <trkpt lat="48.39663" lon="2.6923">
        <ele>76</ele>
        <time>2023-09-20T15:03:31.579+00:00</time>
      </trkpt>
      <trkpt lat="48.39663" lon="2.69229">
        <ele>76</ele>
        <time>2023-09-20T15:03:36.558+00:00</time>
      </trkpt>
      <trkpt lat="48.39662" lon="2.69226">
        <ele>76</ele>
        <time>2023-09-20T15:03:40.565+00:00</time>
      </trkpt>
      <trkpt lat="48.39663" lon="2.69217">
        <ele>76</ele>
        <time>2023-09-20T15:03:45.562+00:00</time>
      </trkpt>
      <trkpt lat="48.39664" lon="2.69215">
        <ele>76</ele>
        <time>2023-09-20T15:03:49.574+00:00</time>
      </trkpt>
      <trkpt lat="48.39664" lon="2.69215">
        <ele>76</ele>
        <time>2023-09-20T15:03:53.582+00:00</time>
      </trkpt>
      <trkpt lat="48.39665" lon="2.69211">
        <ele>76</ele>
        <time>2023-09-20T15:03:58.556+00:00</time>
      </trkpt>
      <trkpt lat="48.3967" lon="2.692">
        <ele>76</ele>
        <time>2023-09-20T15:04:03.559+00:00</time>
      </trkpt>
      <trkpt lat="48.39671" lon="2.69194">
        <ele>76</ele>
        <time>2023-09-20T15:04:07.573+00:00</time>
      </trkpt>
      <trkpt lat="48.39673" lon="2.69189">
        <ele>76</ele>
        <time>2023-09-20T15:04:12.565+00:00</time>
      </trkpt>
      <trkpt lat="48.3967" lon="2.69182">
        <ele>76</ele>
        <time>2023-09-20T15:04:17.575+00:00</time>
      </trkpt>
      <trkpt lat="48.39665" lon="2.69176">
        <ele>77</ele>
        <time>2023-09-20T15:04:22.563+00:00</time>
      </trkpt>
      <trkpt lat="48.39661" lon="2.69171">
        <ele>77</ele>
        <time>2023-09-20T15:04:27.568+00:00</time>
      </trkpt>
      <trkpt lat="48.39656" lon="2.69162">
        <ele>77</ele>
        <time>2023-09-20T15:04:36.579+00:00</time>
      </trkpt>
      <trkpt lat="48.39657" lon="2.6916">
        <ele>77</ele>
        <time>2023-09-20T15:04:41.573+00:00</time>
      </trkpt>
      <trkpt lat="48.39658" lon="2.69158">
        <ele>77</ele>
        <time>2023-09-20T15:04:46.555+00:00</time>
      </trkpt>
      <trkpt lat="48.39655" lon="2.69156">
        <ele>77</ele>
        <time>2023-09-20T15:04:51.553+00:00</time>
      </trkpt>
      <trkpt lat="48.39652" lon="2.6915">
        <ele>78</ele>
        <time>2023-09-20T15:04:56.558+00:00</time>
      </trkpt>
      <trkpt lat="48.39649" lon="2.69146">
        <ele>78</ele>
        <time>2023-09-20T15:05:01.566+00:00</time>
      </trkpt>
      <trkpt lat="48.39648" lon="2.69145">
        <ele>78</ele>
        <time>2023-09-20T15:05:05.574+00:00</time>
      </trkpt>
      <trkpt lat="48.39645" lon="2.69144">
        <ele>78</ele>
        <time>2023-09-20T15:05:09.592+00:00</time>
      </trkpt>
      <trkpt lat="48.3964" lon="2.69141">
        <ele>78</ele>
        <time>2023-09-20T15:05:14.560+00:00</time>
      </trkpt>
      <trkpt lat="48.39637" lon="2.69137">
        <ele>78</ele>
        <time>2023-09-20T15:05:19.563+00:00</time>
      </trkpt>
      <trkpt lat="48.39633" lon="2.69134">
        <ele>78</ele>
        <time>2023-09-20T15:05:23.569+00:00</time>
      </trkpt>
      <trkpt lat="48.39629" lon="2.69129">
        <ele>78</ele>
        <time>2023-09-20T15:05:27.585+00:00</time>
      </trkpt>
      <trkpt lat="48.39626" lon="2.69125">
        <ele>79</ele>
        <time>2023-09-20T15:05:31.554+00:00</time>
      </trkpt>
      <trkpt lat="48.39622" lon="2.6912">
        <ele>77</ele>
        <time>2023-09-20T15:05:36.564+00:00</time>
      </trkpt>
      <trkpt lat="48.39618" lon="2.69119">
        <ele>77</ele>
        <time>2023-09-20T15:05:40.538+00:00</time>
      </trkpt>
      <trkpt lat="48.39611" lon="2.69114">
        <ele>77</ele>
        <time>2023-09-20T15:05:45.549+00:00</time>
      </trkpt>
      <trkpt lat="48.39607" lon="2.69109">
        <ele>77</ele>
        <time>2023-09-20T15:05:50.554+00:00</time>
      </trkpt>
      <trkpt lat="48.39605" lon="2.69102">
        <ele>77</ele>
        <time>2023-09-20T15:05:54.554+00:00</time>
      </trkpt>
      <trkpt lat="48.396" lon="2.69096">
        <ele>79</ele>
        <time>2023-09-20T15:05:58.568+00:00</time>
      </trkpt>
      <trkpt lat="48.39594" lon="2.6909">
        <ele>78</ele>
        <time>2023-09-20T15:06:02.562+00:00</time>
      </trkpt>
      <trkpt lat="48.39587" lon="2.69079">
        <ele>78</ele>
        <time>2023-09-20T15:06:07.572+00:00</time>
      </trkpt>
      <trkpt lat="48.39581" lon="2.69072">
        <ele>78</ele>
        <time>2023-09-20T15:06:12.551+00:00</time>
      </trkpt>
      <trkpt lat="48.39578" lon="2.69067">
        <ele>81</ele>
        <time>2023-09-20T15:06:17.571+00:00</time>
      </trkpt>
      <trkpt lat="48.39575" lon="2.6906">
        <ele>81</ele>
        <time>2023-09-20T15:06:22.549+00:00</time>
      </trkpt>
      <trkpt lat="48.3957" lon="2.69055">
        <ele>81</ele>
        <time>2023-09-20T15:06:26.573+00:00</time>
      </trkpt>
      <trkpt lat="48.39567" lon="2.69052">
        <ele>81</ele>
        <time>2023-09-20T15:06:30.569+00:00</time>
      </trkpt>
      <trkpt lat="48.39563" lon="2.69047">
        <ele>81</ele>
        <time>2023-09-20T15:06:35.569+00:00</time>
      </trkpt>
      <trkpt lat="48.39558" lon="2.69042">
        <ele>81</ele>
        <time>2023-09-20T15:06:40.563+00:00</time>
      </trkpt>
      <trkpt lat="48.39553" lon="2.69037">
        <ele>84</ele>
        <time>2023-09-20T15:06:44.563+00:00</time>
      </trkpt>
      <trkpt lat="48.39548" lon="2.69031">
        <ele>84</ele>
        <time>2023-09-20T15:06:49.568+00:00</time>
      </trkpt>
      <trkpt lat="48.39543" lon="2.69025">
        <ele>84</ele>
        <time>2023-09-20T15:06:54.560+00:00</time>
      </trkpt>
      <trkpt lat="48.39538" lon="2.6902">
        <ele>85</ele>
        <time>2023-09-20T15:06:59.560+00:00</time>
      </trkpt>
      <trkpt lat="48.39533" lon="2.69012">
        <ele>87</ele>
        <time>2023-09-20T15:07:04.550+00:00</time>
      </trkpt>
      <trkpt lat="48.3953" lon="2.69006">
        <ele>87</ele>
        <time>2023-09-20T15:07:08.562+00:00</time>
      </trkpt>
      <trkpt lat="48.39524" lon="2.68997">
        <ele>87</ele>
        <time>2023-09-20T15:07:13.567+00:00</time>
      </trkpt>
      <trkpt lat="48.39519" lon="2.68989">
        <ele>87</ele>
        <time>2023-09-20T15:07:18.560+00:00</time>
      </trkpt>
      <trkpt lat="48.39514" lon="2.68982">
        <ele>87</ele>
        <time>2023-09-20T15:07:23.556+00:00</time>
      </trkpt>
      <trkpt lat="48.39509" lon="2.68977">
        <ele>87</ele>
        <time>2023-09-20T15:07:28.576+00:00</time>
      </trkpt>
      <trkpt lat="48.39503" lon="2.68972">
        <ele>87</ele>
        <time>2023-09-20T15:07:33.552+00:00</time>
      </trkpt>
      <trkpt lat="48.395" lon="2.68967">
        <ele>87</ele>
        <time>2023-09-20T15:07:37.574+00:00</time>
      </trkpt>
      <trkpt lat="48.39497" lon="2.6896">
        <ele>87</ele>
        <time>2023-09-20T15:07:42.558+00:00</time>
      </trkpt>
      <trkpt lat="48.39492" lon="2.68954">
        <ele>87</ele>
        <time>2023-09-20T15:07:46.571+00:00</time>
      </trkpt>
      <trkpt lat="48.39487" lon="2.68948">
        <ele>87</ele>
        <time>2023-09-20T15:07:51.587+00:00</time>
      </trkpt>
      <trkpt lat="48.39482" lon="2.6894">
        <ele>86</ele>
        <time>2023-09-20T15:07:56.559+00:00</time>
      </trkpt>
      <trkpt lat="48.39477" lon="2.68934">
        <ele>86</ele>
        <time>2023-09-20T15:08:00.569+00:00</time>
      </trkpt>
      <trkpt lat="48.39471" lon="2.68925">
        <ele>86</ele>
        <time>2023-09-20T15:08:05.579+00:00</time>
      </trkpt>
      <trkpt lat="48.39466" lon="2.6892">
        <ele>86</ele>
        <time>2023-09-20T15:08:09.583+00:00</time>
      </trkpt>
      <trkpt lat="48.3946" lon="2.68914">
        <ele>86</ele>
        <time>2023-09-20T15:08:14.555+00:00</time>
      </trkpt>
      <trkpt lat="48.39455" lon="2.68909">
        <ele>84</ele>
        <time>2023-09-20T15:08:18.569+00:00</time>
      </trkpt>
      <trkpt lat="48.39449" lon="2.68902">
        <ele>85</ele>
        <time>2023-09-20T15:08:23.565+00:00</time>
      </trkpt>
      <trkpt lat="48.39444" lon="2.68896">
        <ele>85</ele>
        <time>2023-09-20T15:08:28.567+00:00</time>
      </trkpt>
      <trkpt lat="48.39441" lon="2.68892">
        <ele>85</ele>
        <time>2023-09-20T15:08:32.569+00:00</time>
      </trkpt>
      <trkpt lat="48.39435" lon="2.68884">
        <ele>85</ele>
        <time>2023-09-20T15:08:37.567+00:00</time>
      </trkpt>
      <trkpt lat="48.39431" lon="2.68877">
        <ele>85</ele>
        <time>2023-09-20T15:08:42.579+00:00</time>
      </trkpt>
      <trkpt lat="48.39427" lon="2.6887">
        <ele>85</ele>
        <time>2023-09-20T15:08:47.574+00:00</time>
      </trkpt>
      <trkpt lat="48.39422" lon="2.68862">
        <ele>85</ele>
        <time>2023-09-20T15:08:52.563+00:00</time>
      </trkpt>
      <trkpt lat="48.39418" lon="2.68857">
        <ele>85</ele>
        <time>2023-09-20T15:08:56.571+00:00</time>
      </trkpt>
      <trkpt lat="48.39412" lon="2.68851">
        <ele>85</ele>
        <time>2023-09-20T15:09:01.553+00:00</time>
      </trkpt>
      <trkpt lat="48.39407" lon="2.68848">
        <ele>85</ele>
        <time>2023-09-20T15:09:05.557+00:00</time>
      </trkpt>
      <trkpt lat="48.39404" lon="2.68843">
        <ele>86</ele>
        <time>2023-09-20T15:09:09.567+00:00</time>
      </trkpt>
      <trkpt lat="48.39401" lon="2.68836">
        <ele>83</ele>
        <time>2023-09-20T15:09:14.547+00:00</time>
      </trkpt>
      <trkpt lat="48.39397" lon="2.6883">
        <ele>83</ele>
        <time>2023-09-20T15:09:19.553+00:00</time>
      </trkpt>
      <trkpt lat="48.39394" lon="2.68823">
        <ele>83</ele>
        <time>2023-09-20T15:09:23.560+00:00</time>
      </trkpt>
      <trkpt lat="48.39394" lon="2.68809">
        <ele>83</ele>
        <time>2023-09-20T15:09:28.568+00:00</time>
      </trkpt>
      <trkpt lat="48.39397" lon="2.68798">
        <ele>83</ele>
        <time>2023-09-20T15:09:33.585+00:00</time>
      </trkpt>
      <trkpt lat="48.394" lon="2.68792">
        <ele>83</ele>
        <time>2023-09-20T15:09:37.580+00:00</time>
      </trkpt>
      <trkpt lat="48.39403" lon="2.68783">
        <ele>87</ele>
        <time>2023-09-20T15:09:42.553+00:00</time>
      </trkpt>
      <trkpt lat="48.39405" lon="2.68777">
        <ele>87</ele>
        <time>2023-09-20T15:09:46.551+00:00</time>
      </trkpt>
      <trkpt lat="48.39407" lon="2.68769">
        <ele>87</ele>
        <time>2023-09-20T15:09:51.560+00:00</time>
      </trkpt>
      <trkpt lat="48.3941" lon="2.68761">
        <ele>86</ele>
        <time>2023-09-20T15:09:56.577+00:00</time>
      </trkpt>
      <trkpt lat="48.39412" lon="2.68751">
        <ele>86</ele>
        <time>2023-09-20T15:10:01.576+00:00</time>
      </trkpt>
      <trkpt lat="48.39417" lon="2.68749">
        <ele>86</ele>
        <time>2023-09-20T15:10:06.566+00:00</time>
      </trkpt>
      <trkpt lat="48.39422" lon="2.68753">
        <ele>86</ele>
        <time>2023-09-20T15:10:11.556+00:00</time>
      </trkpt>
      <trkpt lat="48.39429" lon="2.68756">
        <ele>86</ele>
        <time>2023-09-20T15:10:16.570+00:00</time>
      </trkpt>
      <trkpt lat="48.39436" lon="2.6876">
        <ele>89</ele>
        <time>2023-09-20T15:10:21.568+00:00</time>
      </trkpt>
      <trkpt lat="48.3944" lon="2.68761">
        <ele>89</ele>
        <time>2023-09-20T15:10:25.563+00:00</time>
      </trkpt>
      <trkpt lat="48.39446" lon="2.68763">
        <ele>89</ele>
        <time>2023-09-20T15:10:30.555+00:00</time>
      </trkpt>
      <trkpt lat="48.39453" lon="2.68764">
        <ele>89</ele>
        <time>2023-09-20T15:10:35.567+00:00</time>
      </trkpt>
      <trkpt lat="48.3946" lon="2.68766">
        <ele>89</ele>
        <time>2023-09-20T15:10:40.564+00:00</time>
      </trkpt>
      <trkpt lat="48.39466" lon="2.68768">
        <ele>89</ele>
        <time>2023-09-20T15:10:45.566+00:00</time>
      </trkpt>
      <trkpt lat="48.39471" lon="2.6877">
        <ele>89</ele>
        <time>2023-09-20T15:10:50.577+00:00</time>
      </trkpt>
      <trkpt lat="48.39478" lon="2.68772">
        <ele>89</ele>
        <time>2023-09-20T15:10:55.583+00:00</time>
      </trkpt>
      <trkpt lat="48.39483" lon="2.68773">
        <ele>89</ele>
        <time>2023-09-20T15:11:00.566+00:00</time>
      </trkpt>
      <trkpt lat="48.39489" lon="2.68774">
        <ele>88</ele>
        <time>2023-09-20T15:11:05.587+00:00</time>
      </trkpt>
      <trkpt lat="48.39494" lon="2.68776">
        <ele>88</ele>
        <time>2023-09-20T15:11:10.578+00:00</time>
      </trkpt>
      <trkpt lat="48.39498" lon="2.6878">
        <ele>88</ele>
        <time>2023-09-20T15:11:15.562+00:00</time>
      </trkpt>
      <trkpt lat="48.39507" lon="2.68781">
        <ele>88</ele>
        <time>2023-09-20T15:11:20.580+00:00</time>
      </trkpt>
      <trkpt lat="48.39513" lon="2.68784">
        <ele>88</ele>
        <time>2023-09-20T15:11:25.586+00:00</time>
      </trkpt>
      <trkpt lat="48.3952" lon="2.68788">
        <ele>87</ele>
        <time>2023-09-20T15:11:30.562+00:00</time>
      </trkpt>
      <trkpt lat="48.39525" lon="2.68792">
        <ele>86</ele>
        <time>2023-09-20T15:11:35.565+00:00</time>
      </trkpt>
      <trkpt lat="48.39532" lon="2.68792">
        <ele>86</ele>
        <time>2023-09-20T15:11:40.598+00:00</time>
      </trkpt>
      <trkpt lat="48.39537" lon="2.68791">
        <ele>87</ele>
        <time>2023-09-20T15:11:45.554+00:00</time>
      </trkpt>
      <trkpt lat="48.39542" lon="2.6879">
        <ele>85</ele>
        <time>2023-09-20T15:11:49.567+00:00</time>
      </trkpt>
      <trkpt lat="48.3955" lon="2.68791">
        <ele>85</ele>
        <time>2023-09-20T15:11:54.557+00:00</time>
      </trkpt>
      <trkpt lat="48.39555" lon="2.68794">
        <ele>85</ele>
        <time>2023-09-20T15:11:58.559+00:00</time>
      </trkpt>
      <trkpt lat="48.39562" lon="2.68794">
        <ele>85</ele>
        <time>2023-09-20T15:12:02.568+00:00</time>
      </trkpt>
      <trkpt lat="48.39571" lon="2.68791">
        <ele>86</ele>
        <time>2023-09-20T15:12:07.577+00:00</time>
      </trkpt>
      <trkpt lat="48.39579" lon="2.6879">
        <ele>86</ele>
        <time>2023-09-20T15:12:12.562+00:00</time>
      </trkpt>
      <trkpt lat="48.39582" lon="2.6879">
        <ele>86</ele>
        <time>2023-09-20T15:12:16.571+00:00</time>
      </trkpt>
      <trkpt lat="48.39587" lon="2.6879">
        <ele>86</ele>
        <time>2023-09-20T15:12:20.560+00:00</time>
      </trkpt>
      <trkpt lat="48.39595" lon="2.68788">
        <ele>86</ele>
        <time>2023-09-20T15:12:25.571+00:00</time>
      </trkpt>
      <trkpt lat="48.39602" lon="2.68785">
        <ele>87</ele>
        <time>2023-09-20T15:12:29.565+00:00</time>
      </trkpt>
      <trkpt lat="48.39607" lon="2.68786">
        <ele>87</ele>
        <time>2023-09-20T15:12:33.579+00:00</time>
      </trkpt>
      <trkpt lat="48.39614" lon="2.68786">
        <ele>87</ele>
        <time>2023-09-20T15:12:38.559+00:00</time>
      </trkpt>
      <trkpt lat="48.39618" lon="2.68786">
        <ele>87</ele>
        <time>2023-09-20T15:12:42.558+00:00</time>
      </trkpt>
      <trkpt lat="48.39625" lon="2.68785">
        <ele>87</ele>
        <time>2023-09-20T15:12:47.555+00:00</time>
      </trkpt>
      <trkpt lat="48.39632" lon="2.68784">
        <ele>87</ele>
        <time>2023-09-20T15:12:52.558+00:00</time>
      </trkpt>
      <trkpt lat="48.39637" lon="2.68784">
        <ele>87</ele>
        <time>2023-09-20T15:12:56.561+00:00</time>
      </trkpt>
      <trkpt lat="48.39643" lon="2.68784">
        <ele>87</ele>
        <time>2023-09-20T15:13:01.556+00:00</time>
      </trkpt>
      <trkpt lat="48.39651" lon="2.68783">
        <ele>87</ele>
        <time>2023-09-20T15:13:06.560+00:00</time>
      </trkpt>
      <trkpt lat="48.39658" lon="2.68782">
        <ele>86</ele>
        <time>2023-09-20T15:13:10.565+00:00</time>
      </trkpt>
      <trkpt lat="48.39664" lon="2.68779">
        <ele>86</ele>
        <time>2023-09-20T15:13:15.560+00:00</time>
      </trkpt>
      <trkpt lat="48.3967" lon="2.68778">
        <ele>86</ele>
        <time>2023-09-20T15:13:20.561+00:00</time>
      </trkpt>
      <trkpt lat="48.39675" lon="2.68778">
        <ele>86</ele>
        <time>2023-09-20T15:13:25.562+00:00</time>
      </trkpt>
      <trkpt lat="48.39681" lon="2.68776">
        <ele>86</ele>
        <time>2023-09-20T15:13:30.556+00:00</time>
      </trkpt>
      <trkpt lat="48.39688" lon="2.68774">
        <ele>86</ele>
        <time>2023-09-20T15:13:35.551+00:00</time>
      </trkpt>
      <trkpt lat="48.39694" lon="2.68773">
        <ele>86</ele>
        <time>2023-09-20T15:13:39.555+00:00</time>
      </trkpt>
      <trkpt lat="48.39701" lon="2.6877">
        <ele>86</ele>
        <time>2023-09-20T15:13:43.564+00:00</time>
      </trkpt>
      <trkpt lat="48.39706" lon="2.68769">
        <ele>86</ele>
        <time>2023-09-20T15:13:47.576+00:00</time>
      </trkpt>
      <trkpt lat="48.39714" lon="2.68771">
        <ele>86</ele>
        <time>2023-09-20T15:13:52.555+00:00</time>
      </trkpt>
      <trkpt lat="48.39721" lon="2.68765">
        <ele>86</ele>
        <time>2023-09-20T15:13:56.561+00:00</time>
      </trkpt>
      <trkpt lat="48.39729" lon="2.68761">
        <ele>87</ele>
        <time>2023-09-20T15:14:00.566+00:00</time>
      </trkpt>
      <trkpt lat="48.39735" lon="2.68759">
        <ele>87</ele>
        <time>2023-09-20T15:14:05.568+00:00</time>
      </trkpt>
      <trkpt lat="48.39743" lon="2.68758">
        <ele>86</ele>
        <time>2023-09-20T15:14:10.561+00:00</time>
      </trkpt>
      <trkpt lat="48.39749" lon="2.6876">
        <ele>86</ele>
        <time>2023-09-20T15:14:15.575+00:00</time>
      </trkpt>
      <trkpt lat="48.39753" lon="2.6876">
        <ele>86</ele>
        <time>2023-09-20T15:14:19.578+00:00</time>
      </trkpt>
      <trkpt lat="48.39759" lon="2.68759">
        <ele>86</ele>
        <time>2023-09-20T15:14:24.574+00:00</time>
      </trkpt>
      <trkpt lat="48.39766" lon="2.6876">
        <ele>85</ele>
        <time>2023-09-20T15:14:29.554+00:00</time>
      </trkpt>
      <trkpt lat="48.39773" lon="2.6876">
        <ele>85</ele>
        <time>2023-09-20T15:14:34.561+00:00</time>
      </trkpt>
      <trkpt lat="48.39781" lon="2.68759">
        <ele>85</ele>
        <time>2023-09-20T15:14:39.556+00:00</time>
      </trkpt>
      <trkpt lat="48.39786" lon="2.68757">
        <ele>85</ele>
        <time>2023-09-20T15:14:43.571+00:00</time>
      </trkpt>
      <trkpt lat="48.39792" lon="2.68755">
        <ele>84</ele>
        <time>2023-09-20T15:14:47.576+00:00</time>
      </trkpt>
      <trkpt lat="48.39799" lon="2.68755">
        <ele>84</ele>
        <time>2023-09-20T15:14:52.579+00:00</time>
      </trkpt>
      <trkpt lat="48.39805" lon="2.68753">
        <ele>84</ele>
        <time>2023-09-20T15:14:57.555+00:00</time>
      </trkpt>
      <trkpt lat="48.39812" lon="2.68752">
        <ele>84</ele>
        <time>2023-09-20T15:15:02.556+00:00</time>
      </trkpt>
      <trkpt lat="48.39818" lon="2.68751">
        <ele>84</ele>
        <time>2023-09-20T15:15:06.559+00:00</time>
      </trkpt>
      <trkpt lat="48.39824" lon="2.6875">
        <ele>84</ele>
        <time>2023-09-20T15:15:10.573+00:00</time>
      </trkpt>
      <trkpt lat="48.39832" lon="2.68749">
        <ele>84</ele>
        <time>2023-09-20T15:15:15.576+00:00</time>
      </trkpt>
      <trkpt lat="48.3984" lon="2.68749">
        <ele>84</ele>
        <time>2023-09-20T15:15:20.569+00:00</time>
      </trkpt>
      <trkpt lat="48.39845" lon="2.68749">
        <ele>84</ele>
        <time>2023-09-20T15:15:24.579+00:00</time>
      </trkpt>
      <trkpt lat="48.39851" lon="2.68747">
        <ele>84</ele>
        <time>2023-09-20T15:15:29.558+00:00</time>
      </trkpt>
      <trkpt lat="48.39856" lon="2.68747">
        <ele>84</ele>
        <time>2023-09-20T15:15:34.546+00:00</time>
      </trkpt>
      <trkpt lat="48.39864" lon="2.68748">
        <ele>84</ele>
        <time>2023-09-20T15:15:39.580+00:00</time>
      </trkpt>
      <trkpt lat="48.39872" lon="2.68744">
        <ele>84</ele>
        <time>2023-09-20T15:15:44.564+00:00</time>
      </trkpt>
      <trkpt lat="48.39878" lon="2.68743">
        <ele>84</ele>
        <time>2023-09-20T15:15:49.556+00:00</time>
      </trkpt>
      <trkpt lat="48.39882" lon="2.68743">
        <ele>84</ele>
        <time>2023-09-20T15:15:53.574+00:00</time>
      </trkpt>
      <trkpt lat="48.39889" lon="2.68743">
        <ele>84</ele>
        <time>2023-09-20T15:15:58.562+00:00</time>
      </trkpt>
      <trkpt lat="48.39896" lon="2.68742">
        <ele>84</ele>
        <time>2023-09-20T15:16:02.581+00:00</time>
      </trkpt>
      <trkpt lat="48.39903" lon="2.68738">
        <ele>85</ele>
        <time>2023-09-20T15:16:07.559+00:00</time>
      </trkpt>
      <trkpt lat="48.39909" lon="2.68737">
        <ele>85</ele>
        <time>2023-09-20T15:16:12.556+00:00</time>
      </trkpt>
      <trkpt lat="48.39915" lon="2.68735">
        <ele>85</ele>
        <time>2023-09-20T15:16:16.561+00:00</time>
      </trkpt>
      <trkpt lat="48.39921" lon="2.68734">
        <ele>85</ele>
        <time>2023-09-20T15:16:20.564+00:00</time>
      </trkpt>
      <trkpt lat="48.39927" lon="2.68732">
        <ele>85</ele>
        <time>2023-09-20T15:16:25.566+00:00</time>
      </trkpt>
      <trkpt lat="48.39933" lon="2.68731">
        <ele>85</ele>
        <time>2023-09-20T15:16:30.555+00:00</time>
      </trkpt>
      <trkpt lat="48.39939" lon="2.68729">
        <ele>85</ele>
        <time>2023-09-20T15:16:35.559+00:00</time>
      </trkpt>
      <trkpt lat="48.39944" lon="2.68728">
        <ele>85</ele>
        <time>2023-09-20T15:16:39.563+00:00</time>
      </trkpt>
      <trkpt lat="48.3995" lon="2.68727">
        <ele>85</ele>
        <time>2023-09-20T15:16:44.567+00:00</time>
      </trkpt>
      <trkpt lat="48.39955" lon="2.68724">
        <ele>85</ele>
        <time>2023-09-20T15:16:48.583+00:00</time>
      </trkpt>
      <trkpt lat="48.39961" lon="2.68721">
        <ele>84</ele>
        <time>2023-09-20T15:16:53.560+00:00</time>
      </trkpt>
      <trkpt lat="48.39968" lon="2.6872">
        <ele>84</ele>
        <time>2023-09-20T15:16:58.558+00:00</time>
      </trkpt>
      <trkpt lat="48.39974" lon="2.6872">
        <ele>84</ele>
        <time>2023-09-20T15:17:03.566+00:00</time>
      </trkpt>
      <trkpt lat="48.3998" lon="2.68719">
        <ele>84</ele>
        <time>2023-09-20T15:17:08.557+00:00</time>
      </trkpt>
      <trkpt lat="48.39986" lon="2.68716">
        <ele>84</ele>
        <time>2023-09-20T15:17:12.565+00:00</time>
      </trkpt>
      <trkpt lat="48.39992" lon="2.68711">
        <ele>84</ele>
        <time>2023-09-20T15:17:17.568+00:00</time>
      </trkpt>
      <trkpt lat="48.39998" lon="2.68709">
        <ele>84</ele>
        <time>2023-09-20T15:17:21.569+00:00</time>
      </trkpt>
      <trkpt lat="48.40005" lon="2.68708">
        <ele>83</ele>
        <time>2023-09-20T15:17:26.554+00:00</time>
      </trkpt>
      <trkpt lat="48.40009" lon="2.68704">
        <ele>83</ele>
        <time>2023-09-20T15:17:30.558+00:00</time>
      </trkpt>
      <trkpt lat="48.40011" lon="2.687">
        <ele>83</ele>
        <time>2023-09-20T15:17:35.311+00:00</time>
      </trkpt>
      <trkpt lat="48.40016" lon="2.687">
        <ele>84</ele>
        <time>2023-09-20T15:17:39.565+00:00</time>
      </trkpt>
      <trkpt lat="48.40023" lon="2.68702">
        <ele>84</ele>
        <time>2023-09-20T15:17:44.561+00:00</time>
      </trkpt>
      <trkpt lat="48.4003" lon="2.68701">
        <ele>84</ele>
        <time>2023-09-20T15:17:49.546+00:00</time>
      </trkpt>
      <trkpt lat="48.40038" lon="2.68698">
        <ele>84</ele>
        <time>2023-09-20T15:17:54.570+00:00</time>
      </trkpt>
      <trkpt lat="48.40047" lon="2.68697">
        <ele>84</ele>
        <time>2023-09-20T15:17:59.569+00:00</time>
      </trkpt>
      <trkpt lat="48.40054" lon="2.68694">
        <ele>84</ele>
        <time>2023-09-20T15:18:03.540+00:00</time>
      </trkpt>
      <trkpt lat="48.40061" lon="2.68692">
        <ele>84</ele>
        <time>2023-09-20T15:18:08.574+00:00</time>
      </trkpt>
      <trkpt lat="48.40067" lon="2.68692">
        <ele>84</ele>
        <time>2023-09-20T15:18:12.577+00:00</time>
      </trkpt>
      <trkpt lat="48.40074" lon="2.68689">
        <ele>84</ele>
        <time>2023-09-20T15:18:17.566+00:00</time>
      </trkpt>
      <trkpt lat="48.40078" lon="2.68684">
        <ele>84</ele>
        <time>2023-09-20T15:18:21.570+00:00</time>
      </trkpt>
      <trkpt lat="48.40082" lon="2.68675">
        <ele>84</ele>
        <time>2023-09-20T15:18:26.563+00:00</time>
      </trkpt>
      <trkpt lat="48.40084" lon="2.68666">
        <ele>84</ele>
        <time>2023-09-20T15:18:30.585+00:00</time>
      </trkpt>
      <trkpt lat="48.40088" lon="2.68655">
        <ele>84</ele>
        <time>2023-09-20T15:18:35.589+00:00</time>
      </trkpt>
      <trkpt lat="48.4009" lon="2.68647">
        <ele>83</ele>
        <time>2023-09-20T15:18:39.573+00:00</time>
      </trkpt>
      <trkpt lat="48.4009" lon="2.68639">
        <ele>83</ele>
        <time>2023-09-20T15:18:44.570+00:00</time>
      </trkpt>
      <trkpt lat="48.40092" lon="2.68632">
        <ele>83</ele>
        <time>2023-09-20T15:18:48.573+00:00</time>
      </trkpt>
      <trkpt lat="48.40091" lon="2.68624">
        <ele>82</ele>
        <time>2023-09-20T15:18:52.587+00:00</time>
      </trkpt>
      <trkpt lat="48.40092" lon="2.68615">
        <ele>82</ele>
        <time>2023-09-20T15:18:57.562+00:00</time>
      </trkpt>
      <trkpt lat="48.40093" lon="2.68608">
        <ele>82</ele>
        <time>2023-09-20T15:19:01.570+00:00</time>
      </trkpt>
      <trkpt lat="48.40094" lon="2.68601">
        <ele>82</ele>
        <time>2023-09-20T15:19:06.583+00:00</time>
      </trkpt>
      <trkpt lat="48.40094" lon="2.68593">
        <ele>82</ele>
        <time>2023-09-20T15:19:11.573+00:00</time>
      </trkpt>
    </trkseg>
  </trk>
</gpx>